<?xml version="1.0" encoding="UTF-8" standalone="no" ?>
<gpx xmlns="http://www.topografix.com/GPX/1/1" xmlns:xsi="http://www.w3.org/2001/XMLSchema-instance" xsi:schemaLocation="http://www.topografix.com/GPX/1/1 http://www.topografix.com/GPX/1/1/gpx.xsd" version="1.1" creator="VisuGPX - https://www.visugpx.com">
  <metadata>
    <name>Sortie Longue Cyclo club de Sarralbe - Andlau-</name>
    <desc><![CDATA[Sortie magnifique, nécessitant un entraînement solide au vu du dénivelé : 3500 .]]></desc>
  </metadata>
  <trk>
    <name><![CDATA[2012-06-02T06:05:30Z]]></name>
    <trkseg>
      <trkpt lat="48.38912" lon="7.41493">
        <ele>241.311</ele>
        <time>2012-06-02T06:05:32Z</time>
      </trkpt>
      <trkpt lat="48.38912" lon="7.4147">
        <ele>240.48</ele>
        <time>2012-06-02T06:05:35Z</time>
      </trkpt>
      <trkpt lat="48.38913" lon="7.41463">
        <ele>240.34</ele>
        <time>2012-06-02T06:05:36Z</time>
      </trkpt>
      <trkpt lat="48.38923" lon="7.41421">
        <ele>241.911</ele>
        <time>2012-06-02T06:05:41Z</time>
      </trkpt>
      <trkpt lat="48.38955" lon="7.41363">
        <ele>242.672</ele>
        <time>2012-06-02T06:05:49Z</time>
      </trkpt>
      <trkpt lat="48.38972" lon="7.41336">
        <ele>243.842</ele>
        <time>2012-06-02T06:05:53Z</time>
      </trkpt>
      <trkpt lat="48.39013" lon="7.41306">
        <ele>245.332</ele>
        <time>2012-06-02T06:06:01Z</time>
      </trkpt>
      <trkpt lat="48.39048" lon="7.41271">
        <ele>245.281</ele>
        <time>2012-06-02T06:06:09Z</time>
      </trkpt>
      <trkpt lat="48.39085" lon="7.4123">
        <ele>247.182</ele>
        <time>2012-06-02T06:06:18Z</time>
      </trkpt>
      <trkpt lat="48.39101" lon="7.41213">
        <ele>247.552</ele>
        <time>2012-06-02T06:06:22Z</time>
      </trkpt>
      <trkpt lat="48.39108" lon="7.41202">
        <ele>247.873</ele>
        <time>2012-06-02T06:06:24Z</time>
      </trkpt>
      <trkpt lat="48.39144" lon="7.41162">
        <ele>250.573</ele>
        <time>2012-06-02T06:06:33Z</time>
      </trkpt>
      <trkpt lat="48.39174" lon="7.41133">
        <ele>253.143</ele>
        <time>2012-06-02T06:06:40Z</time>
      </trkpt>
      <trkpt lat="48.39209" lon="7.4109">
        <ele>255.712</ele>
        <time>2012-06-02T06:06:49Z</time>
      </trkpt>
      <trkpt lat="48.39227" lon="7.41064">
        <ele>257.172</ele>
        <time>2012-06-02T06:06:54Z</time>
      </trkpt>
      <trkpt lat="48.39236" lon="7.41037">
        <ele>258.122</ele>
        <time>2012-06-02T06:06:58Z</time>
      </trkpt>
      <trkpt lat="48.39245" lon="7.4098">
        <ele>260.233</ele>
        <time>2012-06-02T06:07:06Z</time>
      </trkpt>
      <trkpt lat="48.39247" lon="7.40966">
        <ele>260.943</ele>
        <time>2012-06-02T06:07:08Z</time>
      </trkpt>
      <trkpt lat="48.3925" lon="7.40952">
        <ele>261.253</ele>
        <time>2012-06-02T06:07:10Z</time>
      </trkpt>
      <trkpt lat="48.39259" lon="7.40892">
        <ele>262.461</ele>
        <time>2012-06-02T06:07:18Z</time>
      </trkpt>
      <trkpt lat="48.39279" lon="7.4085">
        <ele>262.542</ele>
        <time>2012-06-02T06:07:24Z</time>
      </trkpt>
      <trkpt lat="48.39299" lon="7.40833">
        <ele>263.232</ele>
        <time>2012-06-02T06:07:28Z</time>
      </trkpt>
      <trkpt lat="48.39336" lon="7.40812">
        <ele>263.801</ele>
        <time>2012-06-02T06:07:35Z</time>
      </trkpt>
      <trkpt lat="48.39355" lon="7.40793">
        <ele>264.912</ele>
        <time>2012-06-02T06:07:39Z</time>
      </trkpt>
      <trkpt lat="48.39369" lon="7.40766">
        <ele>265.852</ele>
        <time>2012-06-02T06:07:43Z</time>
      </trkpt>
      <trkpt lat="48.39394" lon="7.40707">
        <ele>267.353</ele>
        <time>2012-06-02T06:07:51Z</time>
      </trkpt>
      <trkpt lat="48.39417" lon="7.4067">
        <ele>269.123</ele>
        <time>2012-06-02T06:07:57Z</time>
      </trkpt>
      <trkpt lat="48.39427" lon="7.40632">
        <ele>270.193</ele>
        <time>2012-06-02T06:08:02Z</time>
      </trkpt>
      <trkpt lat="48.39428" lon="7.40566">
        <ele>270.272</ele>
        <time>2012-06-02T06:08:10Z</time>
      </trkpt>
      <trkpt lat="48.39428" lon="7.40517">
        <ele>269.531</ele>
        <time>2012-06-02T06:08:16Z</time>
      </trkpt>
      <trkpt lat="48.39443" lon="7.40465">
        <ele>271.463</ele>
        <time>2012-06-02T06:08:23Z</time>
      </trkpt>
      <trkpt lat="48.39478" lon="7.40387">
        <ele>275.353</ele>
        <time>2012-06-02T06:08:34Z</time>
      </trkpt>
      <trkpt lat="48.39507" lon="7.40332">
        <ele>277.443</ele>
        <time>2012-06-02T06:08:42Z</time>
      </trkpt>
      <trkpt lat="48.39545" lon="7.40266">
        <ele>279.202</ele>
        <time>2012-06-02T06:08:52Z</time>
      </trkpt>
      <trkpt lat="48.3957" lon="7.40195">
        <ele>280.492</ele>
        <time>2012-06-02T06:09:01Z</time>
      </trkpt>
      <trkpt lat="48.39596" lon="7.40117">
        <ele>282.293</ele>
        <time>2012-06-02T06:09:11Z</time>
      </trkpt>
      <trkpt lat="48.39622" lon="7.40063">
        <ele>283.652</ele>
        <time>2012-06-02T06:09:19Z</time>
      </trkpt>
      <trkpt lat="48.39651" lon="7.40006">
        <ele>284.954</ele>
        <time>2012-06-02T06:09:28Z</time>
      </trkpt>
      <trkpt lat="48.39683" lon="7.39932">
        <ele>287.534</ele>
        <time>2012-06-02T06:09:39Z</time>
      </trkpt>
      <trkpt lat="48.39705" lon="7.39874">
        <ele>289.243</ele>
        <time>2012-06-02T06:09:48Z</time>
      </trkpt>
      <trkpt lat="48.3971" lon="7.39863">
        <ele>289.694</ele>
        <time>2012-06-02T06:09:50Z</time>
      </trkpt>
      <trkpt lat="48.39739" lon="7.39821">
        <ele>292.484</ele>
        <time>2012-06-02T06:09:59Z</time>
      </trkpt>
      <trkpt lat="48.39746" lon="7.39814">
        <ele>292.363</ele>
        <time>2012-06-02T06:10:01Z</time>
      </trkpt>
      <trkpt lat="48.3977" lon="7.39782">
        <ele>294.052</ele>
        <time>2012-06-02T06:10:09Z</time>
      </trkpt>
      <trkpt lat="48.39791" lon="7.39746">
        <ele>293.953</ele>
        <time>2012-06-02T06:10:16Z</time>
      </trkpt>
      <trkpt lat="48.39822" lon="7.39688">
        <ele>296.824</ele>
        <time>2012-06-02T06:10:27Z</time>
      </trkpt>
      <trkpt lat="48.39848" lon="7.39641">
        <ele>298.974</ele>
        <time>2012-06-02T06:10:36Z</time>
      </trkpt>
      <trkpt lat="48.39862" lon="7.39599">
        <ele>300.464</ele>
        <time>2012-06-02T06:10:43Z</time>
      </trkpt>
      <trkpt lat="48.39866" lon="7.39559">
        <ele>302.345</ele>
        <time>2012-06-02T06:10:49Z</time>
      </trkpt>
      <trkpt lat="48.39855" lon="7.39504">
        <ele>302.074</ele>
        <time>2012-06-02T06:10:57Z</time>
      </trkpt>
      <trkpt lat="48.39836" lon="7.39449">
        <ele>304.034</ele>
        <time>2012-06-02T06:11:05Z</time>
      </trkpt>
      <trkpt lat="48.39817" lon="7.3939">
        <ele>304.024</ele>
        <time>2012-06-02T06:11:14Z</time>
      </trkpt>
      <trkpt lat="48.39793" lon="7.39318">
        <ele>306.125</ele>
        <time>2012-06-02T06:11:25Z</time>
      </trkpt>
      <trkpt lat="48.39774" lon="7.39256">
        <ele>307.504</ele>
        <time>2012-06-02T06:11:34Z</time>
      </trkpt>
      <trkpt lat="48.39746" lon="7.39166">
        <ele>308.203</ele>
        <time>2012-06-02T06:11:47Z</time>
      </trkpt>
      <trkpt lat="48.39725" lon="7.39101">
        <ele>310.204</ele>
        <time>2012-06-02T06:11:57Z</time>
      </trkpt>
      <trkpt lat="48.39711" lon="7.39069">
        <ele>312.154</ele>
        <time>2012-06-02T06:12:02Z</time>
      </trkpt>
      <trkpt lat="48.3969" lon="7.39022">
        <ele>316.195</ele>
        <time>2012-06-02T06:12:10Z</time>
      </trkpt>
      <trkpt lat="48.39687" lon="7.39017">
        <ele>317.426</ele>
        <time>2012-06-02T06:12:11Z</time>
      </trkpt>
      <trkpt lat="48.39673" lon="7.38989">
        <ele>320.756</ele>
        <time>2012-06-02T06:12:16Z</time>
      </trkpt>
      <trkpt lat="48.3966" lon="7.38969">
        <ele>321.554</ele>
        <time>2012-06-02T06:12:20Z</time>
      </trkpt>
      <trkpt lat="48.3964" lon="7.38951">
        <ele>323.964</ele>
        <time>2012-06-02T06:12:25Z</time>
      </trkpt>
      <trkpt lat="48.39631" lon="7.38945">
        <ele>325.625</ele>
        <time>2012-06-02T06:12:27Z</time>
      </trkpt>
      <trkpt lat="48.3961" lon="7.38931">
        <ele>325.802</ele>
        <time>2012-06-02T06:12:33Z</time>
      </trkpt>
      <trkpt lat="48.39587" lon="7.38924">
        <ele>328.441</ele>
        <time>2012-06-02T06:12:38Z</time>
      </trkpt>
      <trkpt lat="48.3956" lon="7.3892">
        <ele>329.94</ele>
        <time>2012-06-02T06:12:45Z</time>
      </trkpt>
      <trkpt lat="48.39541" lon="7.38916">
        <ele>327.969</ele>
        <time>2012-06-02T06:12:50Z</time>
      </trkpt>
      <trkpt lat="48.39518" lon="7.38898">
        <ele>325.858</ele>
        <time>2012-06-02T06:12:56Z</time>
      </trkpt>
      <trkpt lat="48.39494" lon="7.38872">
        <ele>323.748</ele>
        <time>2012-06-02T06:13:03Z</time>
      </trkpt>
      <trkpt lat="48.39477" lon="7.38852">
        <ele>323.158</ele>
        <time>2012-06-02T06:13:08Z</time>
      </trkpt>
      <trkpt lat="48.39468" lon="7.38829">
        <ele>323.53</ele>
        <time>2012-06-02T06:13:12Z</time>
      </trkpt>
      <trkpt lat="48.39465" lon="7.38815">
        <ele>323.72</ele>
        <time>2012-06-02T06:13:14Z</time>
      </trkpt>
      <trkpt lat="48.39459" lon="7.38777">
        <ele>326.062</ele>
        <time>2012-06-02T06:13:19Z</time>
      </trkpt>
      <trkpt lat="48.39466" lon="7.38715">
        <ele>326.972</ele>
        <time>2012-06-02T06:13:26Z</time>
      </trkpt>
      <trkpt lat="48.39485" lon="7.38651">
        <ele>325.001</ele>
        <time>2012-06-02T06:13:34Z</time>
      </trkpt>
      <trkpt lat="48.39498" lon="7.38591">
        <ele>325.973</ele>
        <time>2012-06-02T06:13:42Z</time>
      </trkpt>
      <trkpt lat="48.39504" lon="7.38526">
        <ele>329.374</ele>
        <time>2012-06-02T06:13:51Z</time>
      </trkpt>
      <trkpt lat="48.39506" lon="7.38484">
        <ele>331.543</ele>
        <time>2012-06-02T06:13:57Z</time>
      </trkpt>
      <trkpt lat="48.39508" lon="7.38443">
        <ele>333.954</ele>
        <time>2012-06-02T06:14:03Z</time>
      </trkpt>
      <trkpt lat="48.39513" lon="7.38403">
        <ele>333.763</ele>
        <time>2012-06-02T06:14:09Z</time>
      </trkpt>
      <trkpt lat="48.39517" lon="7.38356">
        <ele>334.762</ele>
        <time>2012-06-02T06:14:16Z</time>
      </trkpt>
      <trkpt lat="48.39522" lon="7.38301">
        <ele>337.583</ele>
        <time>2012-06-02T06:14:24Z</time>
      </trkpt>
      <trkpt lat="48.39524" lon="7.38288">
        <ele>338.523</ele>
        <time>2012-06-02T06:14:26Z</time>
      </trkpt>
      <trkpt lat="48.39539" lon="7.3823">
        <ele>338.664</ele>
        <time>2012-06-02T06:14:35Z</time>
      </trkpt>
      <trkpt lat="48.39556" lon="7.3818">
        <ele>341.183</ele>
        <time>2012-06-02T06:14:43Z</time>
      </trkpt>
      <trkpt lat="48.39563" lon="7.38116">
        <ele>343.063</ele>
        <time>2012-06-02T06:14:52Z</time>
      </trkpt>
      <trkpt lat="48.3956" lon="7.38088">
        <ele>343.643</ele>
        <time>2012-06-02T06:14:56Z</time>
      </trkpt>
      <trkpt lat="48.39548" lon="7.38018">
        <ele>345.643</ele>
        <time>2012-06-02T06:15:06Z</time>
      </trkpt>
      <trkpt lat="48.39547" lon="7.37996">
        <ele>345.943</ele>
        <time>2012-06-02T06:15:09Z</time>
      </trkpt>
      <trkpt lat="48.39552" lon="7.37939">
        <ele>344.821</ele>
        <time>2012-06-02T06:15:17Z</time>
      </trkpt>
      <trkpt lat="48.39556" lon="7.37905">
        <ele>343.971</ele>
        <time>2012-06-02T06:15:22Z</time>
      </trkpt>
      <trkpt lat="48.39565" lon="7.37851">
        <ele>341.861</ele>
        <time>2012-06-02T06:15:29Z</time>
      </trkpt>
      <trkpt lat="48.39571" lon="7.37813">
        <ele>339.8</ele>
        <time>2012-06-02T06:15:34Z</time>
      </trkpt>
      <trkpt lat="48.39591" lon="7.3775">
        <ele>337.971</ele>
        <time>2012-06-02T06:15:43Z</time>
      </trkpt>
      <trkpt lat="48.39612" lon="7.37699">
        <ele>339.294</ele>
        <time>2012-06-02T06:15:51Z</time>
      </trkpt>
      <trkpt lat="48.39627" lon="7.3764">
        <ele>339.683</ele>
        <time>2012-06-02T06:16:00Z</time>
      </trkpt>
      <trkpt lat="48.3963" lon="7.37589">
        <ele>343.064</ele>
        <time>2012-06-02T06:16:07Z</time>
      </trkpt>
      <trkpt lat="48.39622" lon="7.37532">
        <ele>347.014</ele>
        <time>2012-06-02T06:16:15Z</time>
      </trkpt>
      <trkpt lat="48.39618" lon="7.37518">
        <ele>348.235</ele>
        <time>2012-06-02T06:16:17Z</time>
      </trkpt>
      <trkpt lat="48.39602" lon="7.37464">
        <ele>353.336</ele>
        <time>2012-06-02T06:16:25Z</time>
      </trkpt>
      <trkpt lat="48.39592" lon="7.37423">
        <ele>354.744</ele>
        <time>2012-06-02T06:16:31Z</time>
      </trkpt>
      <trkpt lat="48.3958" lon="7.37369">
        <ele>358.965</ele>
        <time>2012-06-02T06:16:39Z</time>
      </trkpt>
      <trkpt lat="48.39565" lon="7.37299">
        <ele>362.284</ele>
        <time>2012-06-02T06:16:49Z</time>
      </trkpt>
      <trkpt lat="48.39552" lon="7.37216">
        <ele>355.072</ele>
        <time>2012-06-02T06:17:00Z</time>
      </trkpt>
      <trkpt lat="48.39539" lon="7.37153">
        <ele>353.633</ele>
        <time>2012-06-02T06:17:08Z</time>
      </trkpt>
      <trkpt lat="48.39522" lon="7.37104">
        <ele>356.914</ele>
        <time>2012-06-02T06:17:15Z</time>
      </trkpt>
      <trkpt lat="48.39496" lon="7.37062">
        <ele>359.454</ele>
        <time>2012-06-02T06:17:22Z</time>
      </trkpt>
      <trkpt lat="48.39463" lon="7.3702">
        <ele>364.805</ele>
        <time>2012-06-02T06:17:30Z</time>
      </trkpt>
      <trkpt lat="48.39451" lon="7.37005">
        <ele>365.463</ele>
        <time>2012-06-02T06:17:33Z</time>
      </trkpt>
      <trkpt lat="48.39417" lon="7.36975">
        <ele>364.541</ele>
        <time>2012-06-02T06:17:41Z</time>
      </trkpt>
      <trkpt lat="48.39412" lon="7.36971">
        <ele>364.151</ele>
        <time>2012-06-02T06:17:42Z</time>
      </trkpt>
      <trkpt lat="48.39399" lon="7.36963">
        <ele>364.761</ele>
        <time>2012-06-02T06:17:45Z</time>
      </trkpt>
      <trkpt lat="48.39381" lon="7.36951">
        <ele>365.901</ele>
        <time>2012-06-02T06:17:49Z</time>
      </trkpt>
      <trkpt lat="48.39346" lon="7.36945">
        <ele>368.572</ele>
        <time>2012-06-02T06:17:57Z</time>
      </trkpt>
      <trkpt lat="48.39318" lon="7.36947">
        <ele>368.902</ele>
        <time>2012-06-02T06:18:03Z</time>
      </trkpt>
      <trkpt lat="48.39296" lon="7.36936">
        <ele>369.302</ele>
        <time>2012-06-02T06:18:08Z</time>
      </trkpt>
      <trkpt lat="48.39292" lon="7.36931">
        <ele>369.392</ele>
        <time>2012-06-02T06:18:09Z</time>
      </trkpt>
      <trkpt lat="48.39284" lon="7.36912">
        <ele>366.611</ele>
        <time>2012-06-02T06:18:12Z</time>
      </trkpt>
      <trkpt lat="48.3928" lon="7.36891">
        <ele>362.741</ele>
        <time>2012-06-02T06:18:15Z</time>
      </trkpt>
      <trkpt lat="48.39268" lon="7.36839">
        <ele>363.333</ele>
        <time>2012-06-02T06:18:23Z</time>
      </trkpt>
      <trkpt lat="48.39258" lon="7.36769">
        <ele>368.134</ele>
        <time>2012-06-02T06:18:33Z</time>
      </trkpt>
      <trkpt lat="48.39252" lon="7.36727">
        <ele>369.484</ele>
        <time>2012-06-02T06:18:39Z</time>
      </trkpt>
      <trkpt lat="48.39251" lon="7.36712">
        <ele>369.324</ele>
        <time>2012-06-02T06:18:41Z</time>
      </trkpt>
      <trkpt lat="48.39257" lon="7.36678">
        <ele>366.601</ele>
        <time>2012-06-02T06:18:46Z</time>
      </trkpt>
      <trkpt lat="48.39274" lon="7.36658">
        <ele>366.662</ele>
        <time>2012-06-02T06:18:50Z</time>
      </trkpt>
      <trkpt lat="48.39305" lon="7.36634">
        <ele>365.832</ele>
        <time>2012-06-02T06:18:57Z</time>
      </trkpt>
      <trkpt lat="48.39325" lon="7.36627">
        <ele>367.673</ele>
        <time>2012-06-02T06:19:01Z</time>
      </trkpt>
      <trkpt lat="48.39357" lon="7.36633">
        <ele>366.202</ele>
        <time>2012-06-02T06:19:08Z</time>
      </trkpt>
      <trkpt lat="48.39393" lon="7.36645">
        <ele>367.253</ele>
        <time>2012-06-02T06:19:16Z</time>
      </trkpt>
      <trkpt lat="48.39402" lon="7.36646">
        <ele>369.304</ele>
        <time>2012-06-02T06:19:18Z</time>
      </trkpt>
      <trkpt lat="48.39438" lon="7.36642">
        <ele>371.453</ele>
        <time>2012-06-02T06:19:26Z</time>
      </trkpt>
      <trkpt lat="48.39468" lon="7.36629">
        <ele>371.313</ele>
        <time>2012-06-02T06:19:33Z</time>
      </trkpt>
      <trkpt lat="48.39505" lon="7.36605">
        <ele>372.473</ele>
        <time>2012-06-02T06:19:42Z</time>
      </trkpt>
      <trkpt lat="48.39536" lon="7.36576">
        <ele>371.961</ele>
        <time>2012-06-02T06:19:51Z</time>
      </trkpt>
      <trkpt lat="48.39557" lon="7.36553">
        <ele>372.222</ele>
        <time>2012-06-02T06:19:57Z</time>
      </trkpt>
      <trkpt lat="48.39573" lon="7.36527">
        <ele>372.622</ele>
        <time>2012-06-02T06:20:03Z</time>
      </trkpt>
      <trkpt lat="48.39597" lon="7.36496">
        <ele>373.002</ele>
        <time>2012-06-02T06:20:11Z</time>
      </trkpt>
      <trkpt lat="48.39609" lon="7.3649">
        <ele>373.743</ele>
        <time>2012-06-02T06:20:14Z</time>
      </trkpt>
      <trkpt lat="48.39641" lon="7.36486">
        <ele>375.383</ele>
        <time>2012-06-02T06:20:22Z</time>
      </trkpt>
      <trkpt lat="48.39667" lon="7.36483">
        <ele>377.103</ele>
        <time>2012-06-02T06:20:29Z</time>
      </trkpt>
      <trkpt lat="48.39701" lon="7.36477">
        <ele>379.254</ele>
        <time>2012-06-02T06:20:38Z</time>
      </trkpt>
      <trkpt lat="48.39725" lon="7.36468">
        <ele>380.514</ele>
        <time>2012-06-02T06:20:45Z</time>
      </trkpt>
      <trkpt lat="48.39744" lon="7.36474">
        <ele>381.254</ele>
        <time>2012-06-02T06:20:50Z</time>
      </trkpt>
      <trkpt lat="48.39763" lon="7.36494">
        <ele>381.383</ele>
        <time>2012-06-02T06:20:56Z</time>
      </trkpt>
      <trkpt lat="48.39776" lon="7.3651">
        <ele>381.963</ele>
        <time>2012-06-02T06:21:00Z</time>
      </trkpt>
      <trkpt lat="48.39779" lon="7.36514">
        <ele>382.173</ele>
        <time>2012-06-02T06:21:01Z</time>
      </trkpt>
      <trkpt lat="48.39801" lon="7.36533">
        <ele>382.232</ele>
        <time>2012-06-02T06:21:07Z</time>
      </trkpt>
      <trkpt lat="48.39807" lon="7.36535">
        <ele>383.163</ele>
        <time>2012-06-02T06:21:08Z</time>
      </trkpt>
      <trkpt lat="48.39825" lon="7.36534">
        <ele>385.443</ele>
        <time>2012-06-02T06:21:12Z</time>
      </trkpt>
      <trkpt lat="48.39833" lon="7.36528">
        <ele>387.354</ele>
        <time>2012-06-02T06:21:14Z</time>
      </trkpt>
      <trkpt lat="48.39848" lon="7.36503">
        <ele>389.844</ele>
        <time>2012-06-02T06:21:19Z</time>
      </trkpt>
      <trkpt lat="48.39853" lon="7.36486">
        <ele>389.163</ele>
        <time>2012-06-02T06:21:22Z</time>
      </trkpt>
      <trkpt lat="48.39856" lon="7.3641">
        <ele>393.044</ele>
        <time>2012-06-02T06:21:33Z</time>
      </trkpt>
      <trkpt lat="48.39857" lon="7.36397">
        <ele>393.075</ele>
        <time>2012-06-02T06:21:35Z</time>
      </trkpt>
      <trkpt lat="48.39856" lon="7.36375">
        <ele>394.485</ele>
        <time>2012-06-02T06:21:38Z</time>
      </trkpt>
      <trkpt lat="48.39854" lon="7.36353">
        <ele>395.565</ele>
        <time>2012-06-02T06:21:41Z</time>
      </trkpt>
      <trkpt lat="48.39839" lon="7.36292">
        <ele>396.944</ele>
        <time>2012-06-02T06:21:50Z</time>
      </trkpt>
      <trkpt lat="48.39825" lon="7.36249">
        <ele>402.506</ele>
        <time>2012-06-02T06:21:57Z</time>
      </trkpt>
      <trkpt lat="48.39805" lon="7.36205">
        <ele>410.357</ele>
        <time>2012-06-02T06:22:05Z</time>
      </trkpt>
      <trkpt lat="48.39785" lon="7.36168">
        <ele>415.297</ele>
        <time>2012-06-02T06:22:12Z</time>
      </trkpt>
      <trkpt lat="48.3977" lon="7.36143">
        <ele>416.456</ele>
        <time>2012-06-02T06:22:17Z</time>
      </trkpt>
      <trkpt lat="48.39753" lon="7.36119">
        <ele>418.306</ele>
        <time>2012-06-02T06:22:22Z</time>
      </trkpt>
      <trkpt lat="48.39737" lon="7.36096">
        <ele>418.175</ele>
        <time>2012-06-02T06:22:27Z</time>
      </trkpt>
      <trkpt lat="48.39709" lon="7.36054">
        <ele>418.735</ele>
        <time>2012-06-02T06:22:36Z</time>
      </trkpt>
      <trkpt lat="48.39688" lon="7.36023">
        <ele>418.884</ele>
        <time>2012-06-02T06:22:43Z</time>
      </trkpt>
      <trkpt lat="48.39669" lon="7.35997">
        <ele>418.033</ele>
        <time>2012-06-02T06:22:49Z</time>
      </trkpt>
      <trkpt lat="48.3965" lon="7.35971">
        <ele>419.123</ele>
        <time>2012-06-02T06:22:55Z</time>
      </trkpt>
      <trkpt lat="48.39619" lon="7.35926">
        <ele>419.844</ele>
        <time>2012-06-02T06:23:05Z</time>
      </trkpt>
      <trkpt lat="48.39594" lon="7.35888">
        <ele>419.294</ele>
        <time>2012-06-02T06:23:14Z</time>
      </trkpt>
      <trkpt lat="48.39565" lon="7.35848">
        <ele>421.025</ele>
        <time>2012-06-02T06:23:24Z</time>
      </trkpt>
      <trkpt lat="48.39549" lon="7.35814">
        <ele>423.684</ele>
        <time>2012-06-02T06:23:31Z</time>
      </trkpt>
      <trkpt lat="48.39544" lon="7.35772">
        <ele>418.333</ele>
        <time>2012-06-02T06:23:38Z</time>
      </trkpt>
      <trkpt lat="48.39548" lon="7.35732">
        <ele>417.734</ele>
        <time>2012-06-02T06:23:45Z</time>
      </trkpt>
      <trkpt lat="48.39559" lon="7.35707">
        <ele>418.244</ele>
        <time>2012-06-02T06:23:50Z</time>
      </trkpt>
      <trkpt lat="48.39576" lon="7.35685">
        <ele>417.353</ele>
        <time>2012-06-02T06:23:56Z</time>
      </trkpt>
      <trkpt lat="48.39597" lon="7.35661">
        <ele>416.403</ele>
        <time>2012-06-02T06:24:03Z</time>
      </trkpt>
      <trkpt lat="48.39611" lon="7.35637">
        <ele>417.173</ele>
        <time>2012-06-02T06:24:09Z</time>
      </trkpt>
      <trkpt lat="48.39615" lon="7.35612">
        <ele>420.634</ele>
        <time>2012-06-02T06:24:14Z</time>
      </trkpt>
      <trkpt lat="48.39614" lon="7.35588">
        <ele>425.296</ele>
        <time>2012-06-02T06:24:18Z</time>
      </trkpt>
      <trkpt lat="48.39601" lon="7.35543">
        <ele>435.258</ele>
        <time>2012-06-02T06:24:26Z</time>
      </trkpt>
      <trkpt lat="48.39599" lon="7.35539">
        <ele>435.775</ele>
        <time>2012-06-02T06:24:27Z</time>
      </trkpt>
      <trkpt lat="48.39579" lon="7.35511">
        <ele>435.654</ele>
        <time>2012-06-02T06:24:34Z</time>
      </trkpt>
      <trkpt lat="48.39566" lon="7.35498">
        <ele>434.712</ele>
        <time>2012-06-02T06:24:38Z</time>
      </trkpt>
      <trkpt lat="48.39538" lon="7.35468">
        <ele>436.414</ele>
        <time>2012-06-02T06:24:46Z</time>
      </trkpt>
      <trkpt lat="48.39511" lon="7.35427">
        <ele>439.594</ele>
        <time>2012-06-02T06:24:55Z</time>
      </trkpt>
      <trkpt lat="48.39492" lon="7.35407">
        <ele>437.594</ele>
        <time>2012-06-02T06:25:01Z</time>
      </trkpt>
      <trkpt lat="48.39474" lon="7.35396">
        <ele>437.473</ele>
        <time>2012-06-02T06:25:06Z</time>
      </trkpt>
      <trkpt lat="48.39455" lon="7.35369">
        <ele>434.463</ele>
        <time>2012-06-02T06:25:12Z</time>
      </trkpt>
      <trkpt lat="48.39453" lon="7.35363">
        <ele>433.733</ele>
        <time>2012-06-02T06:25:13Z</time>
      </trkpt>
      <trkpt lat="48.3944" lon="7.35318">
        <ele>431.524</ele>
        <time>2012-06-02T06:25:21Z</time>
      </trkpt>
      <trkpt lat="48.39431" lon="7.35268">
        <ele>432.264</ele>
        <time>2012-06-02T06:25:30Z</time>
      </trkpt>
      <trkpt lat="48.39426" lon="7.35222">
        <ele>435.164</ele>
        <time>2012-06-02T06:25:39Z</time>
      </trkpt>
      <trkpt lat="48.39421" lon="7.35174">
        <ele>438.764</ele>
        <time>2012-06-02T06:25:48Z</time>
      </trkpt>
      <trkpt lat="48.39421" lon="7.35125">
        <ele>441.493</ele>
        <time>2012-06-02T06:25:57Z</time>
      </trkpt>
      <trkpt lat="48.39431" lon="7.35081">
        <ele>443.125</ele>
        <time>2012-06-02T06:26:06Z</time>
      </trkpt>
      <trkpt lat="48.39443" lon="7.35052">
        <ele>443.154</ele>
        <time>2012-06-02T06:26:13Z</time>
      </trkpt>
      <trkpt lat="48.39457" lon="7.35021">
        <ele>445.255</ele>
        <time>2012-06-02T06:26:21Z</time>
      </trkpt>
      <trkpt lat="48.39464" lon="7.34992">
        <ele>445.904</ele>
        <time>2012-06-02T06:26:28Z</time>
      </trkpt>
      <trkpt lat="48.39468" lon="7.34968">
        <ele>447.044</ele>
        <time>2012-06-02T06:26:33Z</time>
      </trkpt>
      <trkpt lat="48.39471" lon="7.34937">
        <ele>451.566</ele>
        <time>2012-06-02T06:26:39Z</time>
      </trkpt>
      <trkpt lat="48.39475" lon="7.34905">
        <ele>452.174</ele>
        <time>2012-06-02T06:26:45Z</time>
      </trkpt>
      <trkpt lat="48.39479" lon="7.3486">
        <ele>454.785</ele>
        <time>2012-06-02T06:26:54Z</time>
      </trkpt>
      <trkpt lat="48.39483" lon="7.34818">
        <ele>459.035</ele>
        <time>2012-06-02T06:27:03Z</time>
      </trkpt>
      <trkpt lat="48.39483" lon="7.34781">
        <ele>467.379</ele>
        <time>2012-06-02T06:27:10Z</time>
      </trkpt>
      <trkpt lat="48.39478" lon="7.34738">
        <ele>471.436</ele>
        <time>2012-06-02T06:27:18Z</time>
      </trkpt>
      <trkpt lat="48.39466" lon="7.34684">
        <ele>471.364</ele>
        <time>2012-06-02T06:27:29Z</time>
      </trkpt>
      <trkpt lat="48.39459" lon="7.34651">
        <ele>471.843</ele>
        <time>2012-06-02T06:27:36Z</time>
      </trkpt>
      <trkpt lat="48.39456" lon="7.34619">
        <ele>471.552</ele>
        <time>2012-06-02T06:27:43Z</time>
      </trkpt>
      <trkpt lat="48.39456" lon="7.34601">
        <ele>471.271</ele>
        <time>2012-06-02T06:27:47Z</time>
      </trkpt>
      <trkpt lat="48.39463" lon="7.34569">
        <ele>468.769</ele>
        <time>2012-06-02T06:27:54Z</time>
      </trkpt>
      <trkpt lat="48.3947" lon="7.34541">
        <ele>466.601</ele>
        <time>2012-06-02T06:28:00Z</time>
      </trkpt>
      <trkpt lat="48.39483" lon="7.34507">
        <ele>464.691</ele>
        <time>2012-06-02T06:28:08Z</time>
      </trkpt>
      <trkpt lat="48.39495" lon="7.34484">
        <ele>467.792</ele>
        <time>2012-06-02T06:28:13Z</time>
      </trkpt>
      <trkpt lat="48.39503" lon="7.34449">
        <ele>467.512</ele>
        <time>2012-06-02T06:28:20Z</time>
      </trkpt>
      <trkpt lat="48.39517" lon="7.34417">
        <ele>469.033</ele>
        <time>2012-06-02T06:28:27Z</time>
      </trkpt>
      <trkpt lat="48.39536" lon="7.34385">
        <ele>471.046</ele>
        <time>2012-06-02T06:28:35Z</time>
      </trkpt>
      <trkpt lat="48.39551" lon="7.34358">
        <ele>473.023</ele>
        <time>2012-06-02T06:28:41Z</time>
      </trkpt>
      <trkpt lat="48.39561" lon="7.34326">
        <ele>472.443</ele>
        <time>2012-06-02T06:28:48Z</time>
      </trkpt>
      <trkpt lat="48.39574" lon="7.34283">
        <ele>472.854</ele>
        <time>2012-06-02T06:28:57Z</time>
      </trkpt>
      <trkpt lat="48.39587" lon="7.34266">
        <ele>474.084</ele>
        <time>2012-06-02T06:29:02Z</time>
      </trkpt>
      <trkpt lat="48.39608" lon="7.34262">
        <ele>476.754</ele>
        <time>2012-06-02T06:29:08Z</time>
      </trkpt>
      <trkpt lat="48.39642" lon="7.34261">
        <ele>481.345</ele>
        <time>2012-06-02T06:29:18Z</time>
      </trkpt>
      <trkpt lat="48.39661" lon="7.34252">
        <ele>485.465</ele>
        <time>2012-06-02T06:29:24Z</time>
      </trkpt>
      <trkpt lat="48.39687" lon="7.34217">
        <ele>489.165</ele>
        <time>2012-06-02T06:29:34Z</time>
      </trkpt>
      <trkpt lat="48.39715" lon="7.34179">
        <ele>499.277</ele>
        <time>2012-06-02T06:29:45Z</time>
      </trkpt>
      <trkpt lat="48.39735" lon="7.34154">
        <ele>503.806</ele>
        <time>2012-06-02T06:29:53Z</time>
      </trkpt>
      <trkpt lat="48.39756" lon="7.34126">
        <ele>508.786</ele>
        <time>2012-06-02T06:30:01Z</time>
      </trkpt>
      <trkpt lat="48.39771" lon="7.34101">
        <ele>509.905</ele>
        <time>2012-06-02T06:30:08Z</time>
      </trkpt>
      <trkpt lat="48.3979" lon="7.34068">
        <ele>514.515</ele>
        <time>2012-06-02T06:30:17Z</time>
      </trkpt>
      <trkpt lat="48.39803" lon="7.34041">
        <ele>515.415</ele>
        <time>2012-06-02T06:30:24Z</time>
      </trkpt>
      <trkpt lat="48.39822" lon="7.34011">
        <ele>521.426</ele>
        <time>2012-06-02T06:30:32Z</time>
      </trkpt>
      <trkpt lat="48.39839" lon="7.33983">
        <ele>524.176</ele>
        <time>2012-06-02T06:30:39Z</time>
      </trkpt>
      <trkpt lat="48.39855" lon="7.33962">
        <ele>527.966</ele>
        <time>2012-06-02T06:30:46Z</time>
      </trkpt>
      <trkpt lat="48.39867" lon="7.33949">
        <ele>532.737</ele>
        <time>2012-06-02T06:30:52Z</time>
      </trkpt>
      <trkpt lat="48.39886" lon="7.3393">
        <ele>527.984</ele>
        <time>2012-06-02T06:30:59Z</time>
      </trkpt>
      <trkpt lat="48.39904" lon="7.33909">
        <ele>525.185</ele>
        <time>2012-06-02T06:31:06Z</time>
      </trkpt>
      <trkpt lat="48.39919" lon="7.33884">
        <ele>524.844</ele>
        <time>2012-06-02T06:31:13Z</time>
      </trkpt>
      <trkpt lat="48.39937" lon="7.33859">
        <ele>527.484</ele>
        <time>2012-06-02T06:31:20Z</time>
      </trkpt>
      <trkpt lat="48.39961" lon="7.33827">
        <ele>523.944</ele>
        <time>2012-06-02T06:31:29Z</time>
      </trkpt>
      <trkpt lat="48.39987" lon="7.33795">
        <ele>521.714</ele>
        <time>2012-06-02T06:31:39Z</time>
      </trkpt>
      <trkpt lat="48.40015" lon="7.33762">
        <ele>523.133</ele>
        <time>2012-06-02T06:31:49Z</time>
      </trkpt>
      <trkpt lat="48.40036" lon="7.33746">
        <ele>525.744</ele>
        <time>2012-06-02T06:31:55Z</time>
      </trkpt>
      <trkpt lat="48.40068" lon="7.33733">
        <ele>533.697</ele>
        <time>2012-06-02T06:32:04Z</time>
      </trkpt>
      <trkpt lat="48.40098" lon="7.33723">
        <ele>537.397</ele>
        <time>2012-06-02T06:32:12Z</time>
      </trkpt>
      <trkpt lat="48.40124" lon="7.33723">
        <ele>538.244</ele>
        <time>2012-06-02T06:32:19Z</time>
      </trkpt>
      <trkpt lat="48.40139" lon="7.33724">
        <ele>539.053</ele>
        <time>2012-06-02T06:32:24Z</time>
      </trkpt>
      <trkpt lat="48.40173" lon="7.33724">
        <ele>539.225</ele>
        <time>2012-06-02T06:32:33Z</time>
      </trkpt>
      <trkpt lat="48.40193" lon="7.33706">
        <ele>541.805</ele>
        <time>2012-06-02T06:32:39Z</time>
      </trkpt>
      <trkpt lat="48.40203" lon="7.33684">
        <ele>543.016</ele>
        <time>2012-06-02T06:32:44Z</time>
      </trkpt>
      <trkpt lat="48.40207" lon="7.33646">
        <ele>544.446</ele>
        <time>2012-06-02T06:32:51Z</time>
      </trkpt>
      <trkpt lat="48.40203" lon="7.33606">
        <ele>547.986</ele>
        <time>2012-06-02T06:32:57Z</time>
      </trkpt>
      <trkpt lat="48.40191" lon="7.33535">
        <ele>556.218</ele>
        <time>2012-06-02T06:33:08Z</time>
      </trkpt>
      <trkpt lat="48.40177" lon="7.33469">
        <ele>564.479</ele>
        <time>2012-06-02T06:33:18Z</time>
      </trkpt>
      <trkpt lat="48.40173" lon="7.3345">
        <ele>566.549</ele>
        <time>2012-06-02T06:33:21Z</time>
      </trkpt>
      <trkpt lat="48.4017" lon="7.33425">
        <ele>567.928</ele>
        <time>2012-06-02T06:33:25Z</time>
      </trkpt>
      <trkpt lat="48.40171" lon="7.33407">
        <ele>567.206</ele>
        <time>2012-06-02T06:33:28Z</time>
      </trkpt>
      <trkpt lat="48.40182" lon="7.33376">
        <ele>564.004</ele>
        <time>2012-06-02T06:33:34Z</time>
      </trkpt>
      <trkpt lat="48.40205" lon="7.33343">
        <ele>562.013</ele>
        <time>2012-06-02T06:33:42Z</time>
      </trkpt>
      <trkpt lat="48.40214" lon="7.33317">
        <ele>559.601</ele>
        <time>2012-06-02T06:33:47Z</time>
      </trkpt>
      <trkpt lat="48.40227" lon="7.33274">
        <ele>560.514</ele>
        <time>2012-06-02T06:33:55Z</time>
      </trkpt>
      <trkpt lat="48.4024" lon="7.33228">
        <ele>564.806</ele>
        <time>2012-06-02T06:34:03Z</time>
      </trkpt>
      <trkpt lat="48.40257" lon="7.33173">
        <ele>566.035</ele>
        <time>2012-06-02T06:34:13Z</time>
      </trkpt>
      <trkpt lat="48.40261" lon="7.33129">
        <ele>568.815</ele>
        <time>2012-06-02T06:34:20Z</time>
      </trkpt>
      <trkpt lat="48.40267" lon="7.33079">
        <ele>570.455</ele>
        <time>2012-06-02T06:34:28Z</time>
      </trkpt>
      <trkpt lat="48.4027" lon="7.33067">
        <ele>570.865</ele>
        <time>2012-06-02T06:34:30Z</time>
      </trkpt>
      <trkpt lat="48.40287" lon="7.3304">
        <ele>571.017</ele>
        <time>2012-06-02T06:34:36Z</time>
      </trkpt>
      <trkpt lat="48.40291" lon="7.33038">
        <ele>570.664</ele>
        <time>2012-06-02T06:34:37Z</time>
      </trkpt>
      <trkpt lat="48.40343" lon="7.33017">
        <ele>569.305</ele>
        <time>2012-06-02T06:34:50Z</time>
      </trkpt>
      <trkpt lat="48.4037" lon="7.33005">
        <ele>569.145</ele>
        <time>2012-06-02T06:34:57Z</time>
      </trkpt>
      <trkpt lat="48.40388" lon="7.32985">
        <ele>570.195</ele>
        <time>2012-06-02T06:35:02Z</time>
      </trkpt>
      <trkpt lat="48.40404" lon="7.32947">
        <ele>568.984</ele>
        <time>2012-06-02T06:35:08Z</time>
      </trkpt>
      <trkpt lat="48.40408" lon="7.32925">
        <ele>568.284</ele>
        <time>2012-06-02T06:35:11Z</time>
      </trkpt>
      <trkpt lat="48.40409" lon="7.32874">
        <ele>572.975</ele>
        <time>2012-06-02T06:35:18Z</time>
      </trkpt>
      <trkpt lat="48.40408" lon="7.32867">
        <ele>573.415</ele>
        <time>2012-06-02T06:35:19Z</time>
      </trkpt>
      <trkpt lat="48.40395" lon="7.32837">
        <ele>574.795</ele>
        <time>2012-06-02T06:35:24Z</time>
      </trkpt>
      <trkpt lat="48.40369" lon="7.32784">
        <ele>578.796</ele>
        <time>2012-06-02T06:35:33Z</time>
      </trkpt>
      <trkpt lat="48.40349" lon="7.32738">
        <ele>581.896</ele>
        <time>2012-06-02T06:35:42Z</time>
      </trkpt>
      <trkpt lat="48.40332" lon="7.32683">
        <ele>584.026</ele>
        <time>2012-06-02T06:35:53Z</time>
      </trkpt>
      <trkpt lat="48.40328" lon="7.32648">
        <ele>584.575</ele>
        <time>2012-06-02T06:36:00Z</time>
      </trkpt>
      <trkpt lat="48.40336" lon="7.32603">
        <ele>583.234</ele>
        <time>2012-06-02T06:36:09Z</time>
      </trkpt>
      <trkpt lat="48.40341" lon="7.32564">
        <ele>583.185</ele>
        <time>2012-06-02T06:36:17Z</time>
      </trkpt>
      <trkpt lat="48.40339" lon="7.32521">
        <ele>586.165</ele>
        <time>2012-06-02T06:36:25Z</time>
      </trkpt>
      <trkpt lat="48.40337" lon="7.32485">
        <ele>589.486</ele>
        <time>2012-06-02T06:36:32Z</time>
      </trkpt>
      <trkpt lat="48.40341" lon="7.32448">
        <ele>589.144</ele>
        <time>2012-06-02T06:36:39Z</time>
      </trkpt>
      <trkpt lat="48.40352" lon="7.32396">
        <ele>589.564</ele>
        <time>2012-06-02T06:36:49Z</time>
      </trkpt>
      <trkpt lat="48.40364" lon="7.32352">
        <ele>590.644</ele>
        <time>2012-06-02T06:36:58Z</time>
      </trkpt>
      <trkpt lat="48.40377" lon="7.32334">
        <ele>591.404</ele>
        <time>2012-06-02T06:37:03Z</time>
      </trkpt>
      <trkpt lat="48.40401" lon="7.3232">
        <ele>592.445</ele>
        <time>2012-06-02T06:37:10Z</time>
      </trkpt>
      <trkpt lat="48.40418" lon="7.32317">
        <ele>595.657</ele>
        <time>2012-06-02T06:37:15Z</time>
      </trkpt>
      <trkpt lat="48.40438" lon="7.32318">
        <ele>597.435</ele>
        <time>2012-06-02T06:37:21Z</time>
      </trkpt>
      <trkpt lat="48.40465" lon="7.3232">
        <ele>601.325</ele>
        <time>2012-06-02T06:37:28Z</time>
      </trkpt>
      <trkpt lat="48.40489" lon="7.32323">
        <ele>603.605</ele>
        <time>2012-06-02T06:37:33Z</time>
      </trkpt>
      <trkpt lat="48.40521" lon="7.3232">
        <ele>605.324</ele>
        <time>2012-06-02T06:37:39Z</time>
      </trkpt>
      <trkpt lat="48.40535" lon="7.32313">
        <ele>607.224</ele>
        <time>2012-06-02T06:37:42Z</time>
      </trkpt>
      <trkpt lat="48.40551" lon="7.32297">
        <ele>608.115</ele>
        <time>2012-06-02T06:37:46Z</time>
      </trkpt>
      <trkpt lat="48.40572" lon="7.32261">
        <ele>604.274</ele>
        <time>2012-06-02T06:37:53Z</time>
      </trkpt>
      <trkpt lat="48.40591" lon="7.32217">
        <ele>602.204</ele>
        <time>2012-06-02T06:38:01Z</time>
      </trkpt>
      <trkpt lat="48.4061" lon="7.32175">
        <ele>602.015</ele>
        <time>2012-06-02T06:38:09Z</time>
      </trkpt>
      <trkpt lat="48.40619" lon="7.32142">
        <ele>604.406</ele>
        <time>2012-06-02T06:38:15Z</time>
      </trkpt>
      <trkpt lat="48.4062" lon="7.32136">
        <ele>604.396</ele>
        <time>2012-06-02T06:38:16Z</time>
      </trkpt>
      <trkpt lat="48.40615" lon="7.32099">
        <ele>606.166</ele>
        <time>2012-06-02T06:38:22Z</time>
      </trkpt>
      <trkpt lat="48.40613" lon="7.32093">
        <ele>607.147</ele>
        <time>2012-06-02T06:38:23Z</time>
      </trkpt>
      <trkpt lat="48.40592" lon="7.3205">
        <ele>612.526</ele>
        <time>2012-06-02T06:38:31Z</time>
      </trkpt>
      <trkpt lat="48.40572" lon="7.31998">
        <ele>617.616</ele>
        <time>2012-06-02T06:38:40Z</time>
      </trkpt>
      <trkpt lat="48.40554" lon="7.31953">
        <ele>621.566</ele>
        <time>2012-06-02T06:38:48Z</time>
      </trkpt>
      <trkpt lat="48.40548" lon="7.31943">
        <ele>622.306</ele>
        <time>2012-06-02T06:38:50Z</time>
      </trkpt>
      <trkpt lat="48.40541" lon="7.31927">
        <ele>623.586</ele>
        <time>2012-06-02T06:38:53Z</time>
      </trkpt>
      <trkpt lat="48.40532" lon="7.31905">
        <ele>624.746</ele>
        <time>2012-06-02T06:38:57Z</time>
      </trkpt>
      <trkpt lat="48.40529" lon="7.31892">
        <ele>624.796</ele>
        <time>2012-06-02T06:38:59Z</time>
      </trkpt>
      <trkpt lat="48.40531" lon="7.31854">
        <ele>624.513</ele>
        <time>2012-06-02T06:39:05Z</time>
      </trkpt>
      <trkpt lat="48.4054" lon="7.31821">
        <ele>621.871</ele>
        <time>2012-06-02T06:39:11Z</time>
      </trkpt>
      <trkpt lat="48.40545" lon="7.31798">
        <ele>620.36</ele>
        <time>2012-06-02T06:39:15Z</time>
      </trkpt>
      <trkpt lat="48.40544" lon="7.31755">
        <ele>619.909</ele>
        <time>2012-06-02T06:39:22Z</time>
      </trkpt>
      <trkpt lat="48.40537" lon="7.31719">
        <ele>628.255</ele>
        <time>2012-06-02T06:39:27Z</time>
      </trkpt>
      <trkpt lat="48.40522" lon="7.31682">
        <ele>631.995</ele>
        <time>2012-06-02T06:39:33Z</time>
      </trkpt>
      <trkpt lat="48.40514" lon="7.31674">
        <ele>631.965</ele>
        <time>2012-06-02T06:39:35Z</time>
      </trkpt>
      <trkpt lat="48.40478" lon="7.31663">
        <ele>632.533</ele>
        <time>2012-06-02T06:39:42Z</time>
      </trkpt>
      <trkpt lat="48.40462" lon="7.31662">
        <ele>631.873</ele>
        <time>2012-06-02T06:39:45Z</time>
      </trkpt>
      <trkpt lat="48.40439" lon="7.31648">
        <ele>631.682</ele>
        <time>2012-06-02T06:39:50Z</time>
      </trkpt>
      <trkpt lat="48.40424" lon="7.31621">
        <ele>630.991</ele>
        <time>2012-06-02T06:39:54Z</time>
      </trkpt>
      <trkpt lat="48.4042" lon="7.31604">
        <ele>631.832</ele>
        <time>2012-06-02T06:39:56Z</time>
      </trkpt>
      <trkpt lat="48.40407" lon="7.31535">
        <ele>632.703</ele>
        <time>2012-06-02T06:40:03Z</time>
      </trkpt>
      <trkpt lat="48.40387" lon="7.3149">
        <ele>634.784</ele>
        <time>2012-06-02T06:40:08Z</time>
      </trkpt>
      <trkpt lat="48.40357" lon="7.31446">
        <ele>634.163</ele>
        <time>2012-06-02T06:40:14Z</time>
      </trkpt>
      <trkpt lat="48.4034" lon="7.314">
        <ele>633.312</ele>
        <time>2012-06-02T06:40:19Z</time>
      </trkpt>
      <trkpt lat="48.40317" lon="7.31306">
        <ele>633.412</ele>
        <time>2012-06-02T06:40:28Z</time>
      </trkpt>
      <trkpt lat="48.40285" lon="7.31232">
        <ele>635.243</ele>
        <time>2012-06-02T06:40:35Z</time>
      </trkpt>
      <trkpt lat="48.40266" lon="7.31168">
        <ele>633.845</ele>
        <time>2012-06-02T06:40:41Z</time>
      </trkpt>
      <trkpt lat="48.40259" lon="7.31103">
        <ele>633.135</ele>
        <time>2012-06-02T06:40:47Z</time>
      </trkpt>
      <trkpt lat="48.40257" lon="7.31084">
        <ele>632.355</ele>
        <time>2012-06-02T06:40:49Z</time>
      </trkpt>
      <trkpt lat="48.40243" lon="7.31051">
        <ele>632.555</ele>
        <time>2012-06-02T06:40:53Z</time>
      </trkpt>
      <trkpt lat="48.40226" lon="7.31042">
        <ele>632.183</ele>
        <time>2012-06-02T06:40:56Z</time>
      </trkpt>
      <trkpt lat="48.40184" lon="7.31033">
        <ele>633.674</ele>
        <time>2012-06-02T06:41:02Z</time>
      </trkpt>
      <trkpt lat="48.40172" lon="7.31023">
        <ele>633.624</ele>
        <time>2012-06-02T06:41:04Z</time>
      </trkpt>
      <trkpt lat="48.40147" lon="7.30989">
        <ele>636.805</ele>
        <time>2012-06-02T06:41:11Z</time>
      </trkpt>
      <trkpt lat="48.40129" lon="7.30942">
        <ele>642.896</ele>
        <time>2012-06-02T06:41:20Z</time>
      </trkpt>
      <trkpt lat="48.40108" lon="7.30906">
        <ele>641.694</ele>
        <time>2012-06-02T06:41:27Z</time>
      </trkpt>
      <trkpt lat="48.40082" lon="7.30882">
        <ele>643.054</ele>
        <time>2012-06-02T06:41:33Z</time>
      </trkpt>
      <trkpt lat="48.40034" lon="7.30861">
        <ele>641.925</ele>
        <time>2012-06-02T06:41:43Z</time>
      </trkpt>
      <trkpt lat="48.39999" lon="7.30858">
        <ele>641.224</ele>
        <time>2012-06-02T06:41:50Z</time>
      </trkpt>
      <trkpt lat="48.39979" lon="7.30866">
        <ele>641.104</ele>
        <time>2012-06-02T06:41:54Z</time>
      </trkpt>
      <trkpt lat="48.39947" lon="7.30899">
        <ele>640.994</ele>
        <time>2012-06-02T06:42:01Z</time>
      </trkpt>
      <trkpt lat="48.39924" lon="7.30944">
        <ele>642.786</ele>
        <time>2012-06-02T06:42:08Z</time>
      </trkpt>
      <trkpt lat="48.3992" lon="7.3098">
        <ele>644.616</ele>
        <time>2012-06-02T06:42:13Z</time>
      </trkpt>
      <trkpt lat="48.39927" lon="7.31006">
        <ele>645.816</ele>
        <time>2012-06-02T06:42:17Z</time>
      </trkpt>
      <trkpt lat="48.39957" lon="7.31067">
        <ele>647.916</ele>
        <time>2012-06-02T06:42:28Z</time>
      </trkpt>
      <trkpt lat="48.39986" lon="7.31126">
        <ele>650.306</ele>
        <time>2012-06-02T06:42:39Z</time>
      </trkpt>
      <trkpt lat="48.40009" lon="7.31178">
        <ele>652.286</ele>
        <time>2012-06-02T06:42:49Z</time>
      </trkpt>
      <trkpt lat="48.40009" lon="7.312">
        <ele>653.156</ele>
        <time>2012-06-02T06:42:53Z</time>
      </trkpt>
      <trkpt lat="48.39998" lon="7.31212">
        <ele>654.137</ele>
        <time>2012-06-02T06:42:57Z</time>
      </trkpt>
      <trkpt lat="48.39984" lon="7.31205">
        <ele>653.617</ele>
        <time>2012-06-02T06:43:01Z</time>
      </trkpt>
      <trkpt lat="48.39967" lon="7.31178">
        <ele>653.104</ele>
        <time>2012-06-02T06:43:07Z</time>
      </trkpt>
      <trkpt lat="48.39937" lon="7.3113">
        <ele>652.754</ele>
        <time>2012-06-02T06:43:17Z</time>
      </trkpt>
      <trkpt lat="48.39901" lon="7.31085">
        <ele>655.655</ele>
        <time>2012-06-02T06:43:28Z</time>
      </trkpt>
      <trkpt lat="48.39869" lon="7.3105">
        <ele>658.615</ele>
        <time>2012-06-02T06:43:37Z</time>
      </trkpt>
      <trkpt lat="48.39827" lon="7.30998">
        <ele>662.645</ele>
        <time>2012-06-02T06:43:49Z</time>
      </trkpt>
      <trkpt lat="48.39788" lon="7.3095">
        <ele>669.356</ele>
        <time>2012-06-02T06:44:00Z</time>
      </trkpt>
      <trkpt lat="48.39757" lon="7.30911">
        <ele>672.835</ele>
        <time>2012-06-02T06:44:09Z</time>
      </trkpt>
      <trkpt lat="48.3972" lon="7.30871">
        <ele>677.236</ele>
        <time>2012-06-02T06:44:19Z</time>
      </trkpt>
      <trkpt lat="48.39674" lon="7.30826">
        <ele>682.036</ele>
        <time>2012-06-02T06:44:31Z</time>
      </trkpt>
      <trkpt lat="48.39641" lon="7.308">
        <ele>683.635</ele>
        <time>2012-06-02T06:44:39Z</time>
      </trkpt>
      <trkpt lat="48.39599" lon="7.30767">
        <ele>684.114</ele>
        <time>2012-06-02T06:44:49Z</time>
      </trkpt>
      <trkpt lat="48.39557" lon="7.30733">
        <ele>685.124</ele>
        <time>2012-06-02T06:44:59Z</time>
      </trkpt>
      <trkpt lat="48.39514" lon="7.30697">
        <ele>685.754</ele>
        <time>2012-06-02T06:45:09Z</time>
      </trkpt>
      <trkpt lat="48.3951" lon="7.30693">
        <ele>685.894</ele>
        <time>2012-06-02T06:45:10Z</time>
      </trkpt>
      <trkpt lat="48.39492" lon="7.30656">
        <ele>685.914</ele>
        <time>2012-06-02T06:45:16Z</time>
      </trkpt>
      <trkpt lat="48.39491" lon="7.30626">
        <ele>685.064</ele>
        <time>2012-06-02T06:45:20Z</time>
      </trkpt>
      <trkpt lat="48.39494" lon="7.30612">
        <ele>684.974</ele>
        <time>2012-06-02T06:45:22Z</time>
      </trkpt>
      <trkpt lat="48.39506" lon="7.30556">
        <ele>684.845</ele>
        <time>2012-06-02T06:45:30Z</time>
      </trkpt>
      <trkpt lat="48.39508" lon="7.30518">
        <ele>686.368</ele>
        <time>2012-06-02T06:45:35Z</time>
      </trkpt>
      <trkpt lat="48.39505" lon="7.30495">
        <ele>687.635</ele>
        <time>2012-06-02T06:45:38Z</time>
      </trkpt>
      <trkpt lat="48.39485" lon="7.30449">
        <ele>688.464</ele>
        <time>2012-06-02T06:45:45Z</time>
      </trkpt>
      <trkpt lat="48.3945" lon="7.3041">
        <ele>688.654</ele>
        <time>2012-06-02T06:45:53Z</time>
      </trkpt>
      <trkpt lat="48.39396" lon="7.30354">
        <ele>690.043</ele>
        <time>2012-06-02T06:46:05Z</time>
      </trkpt>
      <trkpt lat="48.39343" lon="7.30305">
        <ele>691.194</ele>
        <time>2012-06-02T06:46:16Z</time>
      </trkpt>
      <trkpt lat="48.39295" lon="7.30264">
        <ele>691.423</ele>
        <time>2012-06-02T06:46:26Z</time>
      </trkpt>
      <trkpt lat="48.39245" lon="7.30231">
        <ele>690.414</ele>
        <time>2012-06-02T06:46:36Z</time>
      </trkpt>
      <trkpt lat="48.39189" lon="7.30197">
        <ele>691.134</ele>
        <time>2012-06-02T06:46:47Z</time>
      </trkpt>
      <trkpt lat="48.39184" lon="7.30193">
        <ele>691.244</ele>
        <time>2012-06-02T06:46:48Z</time>
      </trkpt>
      <trkpt lat="48.39167" lon="7.30163">
        <ele>693.335</ele>
        <time>2012-06-02T06:46:53Z</time>
      </trkpt>
      <trkpt lat="48.39164" lon="7.30149">
        <ele>694.305</ele>
        <time>2012-06-02T06:46:55Z</time>
      </trkpt>
      <trkpt lat="48.39161" lon="7.30129">
        <ele>694.805</ele>
        <time>2012-06-02T06:46:58Z</time>
      </trkpt>
      <trkpt lat="48.39145" lon="7.30084">
        <ele>697.054</ele>
        <time>2012-06-02T06:47:06Z</time>
      </trkpt>
      <trkpt lat="48.39118" lon="7.30055">
        <ele>696.953</ele>
        <time>2012-06-02T06:47:14Z</time>
      </trkpt>
      <trkpt lat="48.39092" lon="7.30031">
        <ele>700.524</ele>
        <time>2012-06-02T06:47:22Z</time>
      </trkpt>
      <trkpt lat="48.39072" lon="7.30006">
        <ele>705.164</ele>
        <time>2012-06-02T06:47:29Z</time>
      </trkpt>
      <trkpt lat="48.39055" lon="7.29984">
        <ele>707.454</ele>
        <time>2012-06-02T06:47:36Z</time>
      </trkpt>
      <trkpt lat="48.39038" lon="7.29961">
        <ele>707.924</ele>
        <time>2012-06-02T06:47:43Z</time>
      </trkpt>
      <trkpt lat="48.39022" lon="7.29939">
        <ele>708.532</ele>
        <time>2012-06-02T06:47:50Z</time>
      </trkpt>
      <trkpt lat="48.39013" lon="7.29917">
        <ele>705.452</ele>
        <time>2012-06-02T06:47:56Z</time>
      </trkpt>
      <trkpt lat="48.39016" lon="7.29899">
        <ele>706.782</ele>
        <time>2012-06-02T06:48:00Z</time>
      </trkpt>
      <trkpt lat="48.39027" lon="7.29889">
        <ele>707.583</ele>
        <time>2012-06-02T06:48:04Z</time>
      </trkpt>
      <trkpt lat="48.39047" lon="7.29888">
        <ele>709.764</ele>
        <time>2012-06-02T06:48:09Z</time>
      </trkpt>
      <trkpt lat="48.39067" lon="7.29887">
        <ele>711.035</ele>
        <time>2012-06-02T06:48:14Z</time>
      </trkpt>
      <trkpt lat="48.39083" lon="7.29886">
        <ele>710.254</ele>
        <time>2012-06-02T06:48:18Z</time>
      </trkpt>
      <trkpt lat="48.39113" lon="7.29884">
        <ele>711.185</ele>
        <time>2012-06-02T06:48:25Z</time>
      </trkpt>
      <trkpt lat="48.39131" lon="7.29872">
        <ele>714.056</ele>
        <time>2012-06-02T06:48:30Z</time>
      </trkpt>
      <trkpt lat="48.39147" lon="7.29847">
        <ele>717.305</ele>
        <time>2012-06-02T06:48:36Z</time>
      </trkpt>
      <trkpt lat="48.39152" lon="7.29813">
        <ele>720.424</ele>
        <time>2012-06-02T06:48:43Z</time>
      </trkpt>
      <trkpt lat="48.39153" lon="7.29791">
        <ele>723.514</ele>
        <time>2012-06-02T06:48:48Z</time>
      </trkpt>
      <trkpt lat="48.39155" lon="7.29764">
        <ele>724.993</ele>
        <time>2012-06-02T06:48:53Z</time>
      </trkpt>
      <trkpt lat="48.39154" lon="7.29735">
        <ele>730.023</ele>
        <time>2012-06-02T06:48:59Z</time>
      </trkpt>
      <trkpt lat="48.39149" lon="7.29708">
        <ele>734.704</ele>
        <time>2012-06-02T06:49:04Z</time>
      </trkpt>
      <trkpt lat="48.39139" lon="7.29667">
        <ele>736.614</ele>
        <time>2012-06-02T06:49:12Z</time>
      </trkpt>
      <trkpt lat="48.39125" lon="7.29638">
        <ele>735.413</ele>
        <time>2012-06-02T06:49:19Z</time>
      </trkpt>
      <trkpt lat="48.39104" lon="7.2961">
        <ele>735.893</ele>
        <time>2012-06-02T06:49:28Z</time>
      </trkpt>
      <trkpt lat="48.39082" lon="7.29592">
        <ele>738.504</ele>
        <time>2012-06-02T06:49:36Z</time>
      </trkpt>
      <trkpt lat="48.39044" lon="7.29572">
        <ele>740.254</ele>
        <time>2012-06-02T06:49:49Z</time>
      </trkpt>
      <trkpt lat="48.39023" lon="7.29551">
        <ele>743.074</ele>
        <time>2012-06-02T06:49:57Z</time>
      </trkpt>
      <trkpt lat="48.39007" lon="7.29521">
        <ele>746.455</ele>
        <time>2012-06-02T06:50:05Z</time>
      </trkpt>
      <trkpt lat="48.38989" lon="7.29489">
        <ele>750.175</ele>
        <time>2012-06-02T06:50:14Z</time>
      </trkpt>
      <trkpt lat="48.38957" lon="7.29457">
        <ele>752.924</ele>
        <time>2012-06-02T06:50:26Z</time>
      </trkpt>
      <trkpt lat="48.38928" lon="7.29426">
        <ele>755.795</ele>
        <time>2012-06-02T06:50:37Z</time>
      </trkpt>
      <trkpt lat="48.38906" lon="7.29405">
        <ele>758.524</ele>
        <time>2012-06-02T06:50:45Z</time>
      </trkpt>
      <trkpt lat="48.38882" lon="7.29388">
        <ele>761.114</ele>
        <time>2012-06-02T06:50:54Z</time>
      </trkpt>
      <trkpt lat="48.38863" lon="7.29388">
        <ele>761.804</ele>
        <time>2012-06-02T06:51:00Z</time>
      </trkpt>
      <trkpt lat="48.38843" lon="7.29402">
        <ele>763.554</ele>
        <time>2012-06-02T06:51:07Z</time>
      </trkpt>
      <trkpt lat="48.38821" lon="7.29422">
        <ele>765.144</ele>
        <time>2012-06-02T06:51:15Z</time>
      </trkpt>
      <trkpt lat="48.38801" lon="7.2943">
        <ele>766.694</ele>
        <time>2012-06-02T06:51:22Z</time>
      </trkpt>
      <trkpt lat="48.38773" lon="7.29425">
        <ele>767.833</ele>
        <time>2012-06-02T06:51:31Z</time>
      </trkpt>
      <trkpt lat="48.38741" lon="7.29418">
        <ele>768.594</ele>
        <time>2012-06-02T06:51:41Z</time>
      </trkpt>
      <trkpt lat="48.3872" lon="7.29412">
        <ele>769.403</ele>
        <time>2012-06-02T06:51:48Z</time>
      </trkpt>
      <trkpt lat="48.38699" lon="7.29394">
        <ele>770.322</ele>
        <time>2012-06-02T06:51:55Z</time>
      </trkpt>
      <trkpt lat="48.38695" lon="7.2939">
        <ele>770.162</ele>
        <time>2012-06-02T06:51:56Z</time>
      </trkpt>
      <trkpt lat="48.38685" lon="7.29376">
        <ele>770.032</ele>
        <time>2012-06-02T06:51:59Z</time>
      </trkpt>
      <trkpt lat="48.38669" lon="7.29339">
        <ele>769.271</ele>
        <time>2012-06-02T06:52:04Z</time>
      </trkpt>
      <trkpt lat="48.38666" lon="7.2933">
        <ele>768.951</ele>
        <time>2012-06-02T06:52:05Z</time>
      </trkpt>
      <trkpt lat="48.38644" lon="7.29296">
        <ele>767.409</ele>
        <time>2012-06-02T06:52:09Z</time>
      </trkpt>
      <trkpt lat="48.38627" lon="7.29284">
        <ele>766.329</ele>
        <time>2012-06-02T06:52:11Z</time>
      </trkpt>
      <trkpt lat="48.3858" lon="7.29262">
        <ele>763.198</ele>
        <time>2012-06-02T06:52:16Z</time>
      </trkpt>
      <trkpt lat="48.38533" lon="7.29222">
        <ele>758.357</ele>
        <time>2012-06-02T06:52:21Z</time>
      </trkpt>
      <trkpt lat="48.38458" lon="7.29161">
        <ele>751.297</ele>
        <time>2012-06-02T06:52:28Z</time>
      </trkpt>
      <trkpt lat="48.38372" lon="7.29115">
        <ele>745.571</ele>
        <time>2012-06-02T06:52:35Z</time>
      </trkpt>
      <trkpt lat="48.38347" lon="7.29103">
        <ele>743.786</ele>
        <time>2012-06-02T06:52:37Z</time>
      </trkpt>
      <trkpt lat="48.38304" lon="7.29057">
        <ele>739.635</ele>
        <time>2012-06-02T06:52:41Z</time>
      </trkpt>
      <trkpt lat="48.38297" lon="7.29039">
        <ele>738.966</ele>
        <time>2012-06-02T06:52:42Z</time>
      </trkpt>
      <trkpt lat="48.38265" lon="7.28922">
        <ele>728.773</ele>
        <time>2012-06-02T06:52:48Z</time>
      </trkpt>
      <trkpt lat="48.38259" lon="7.28902">
        <ele>727.335</ele>
        <time>2012-06-02T06:52:49Z</time>
      </trkpt>
      <trkpt lat="48.38232" lon="7.28854">
        <ele>723.203</ele>
        <time>2012-06-02T06:52:52Z</time>
      </trkpt>
      <trkpt lat="48.38207" lon="7.28837">
        <ele>721.043</ele>
        <time>2012-06-02T06:52:54Z</time>
      </trkpt>
      <trkpt lat="48.38193" lon="7.28831">
        <ele>720.214</ele>
        <time>2012-06-02T06:52:55Z</time>
      </trkpt>
      <trkpt lat="48.38097" lon="7.28803">
        <ele>711.645</ele>
        <time>2012-06-02T06:53:02Z</time>
      </trkpt>
      <trkpt lat="48.38058" lon="7.28766">
        <ele>706.556</ele>
        <time>2012-06-02T06:53:06Z</time>
      </trkpt>
      <trkpt lat="48.38046" lon="7.28741">
        <ele>705.977</ele>
        <time>2012-06-02T06:53:08Z</time>
      </trkpt>
      <trkpt lat="48.38031" lon="7.28691">
        <ele>706.69</ele>
        <time>2012-06-02T06:53:12Z</time>
      </trkpt>
      <trkpt lat="48.38012" lon="7.2866">
        <ele>707.371</ele>
        <time>2012-06-02T06:53:16Z</time>
      </trkpt>
      <trkpt lat="48.38002" lon="7.28637">
        <ele>710.033</ele>
        <time>2012-06-02T06:53:19Z</time>
      </trkpt>
      <trkpt lat="48.37991" lon="7.28595">
        <ele>715.404</ele>
        <time>2012-06-02T06:53:26Z</time>
      </trkpt>
      <trkpt lat="48.37976" lon="7.28562">
        <ele>720.134</ele>
        <time>2012-06-02T06:53:33Z</time>
      </trkpt>
      <trkpt lat="48.37956" lon="7.28528">
        <ele>724.784</ele>
        <time>2012-06-02T06:53:41Z</time>
      </trkpt>
      <trkpt lat="48.37937" lon="7.28492">
        <ele>728.893</ele>
        <time>2012-06-02T06:53:50Z</time>
      </trkpt>
      <trkpt lat="48.37924" lon="7.2846">
        <ele>732.823</ele>
        <time>2012-06-02T06:53:58Z</time>
      </trkpt>
      <trkpt lat="48.37913" lon="7.28417">
        <ele>737.602</ele>
        <time>2012-06-02T06:54:08Z</time>
      </trkpt>
      <trkpt lat="48.37903" lon="7.2838">
        <ele>742.844</ele>
        <time>2012-06-02T06:54:17Z</time>
      </trkpt>
      <trkpt lat="48.37894" lon="7.28346">
        <ele>746.183</ele>
        <time>2012-06-02T06:54:25Z</time>
      </trkpt>
      <trkpt lat="48.37884" lon="7.28319">
        <ele>746.222</ele>
        <time>2012-06-02T06:54:32Z</time>
      </trkpt>
      <trkpt lat="48.37867" lon="7.28284">
        <ele>747.231</ele>
        <time>2012-06-02T06:54:42Z</time>
      </trkpt>
      <trkpt lat="48.37853" lon="7.28259">
        <ele>746.18</ele>
        <time>2012-06-02T06:54:50Z</time>
      </trkpt>
      <trkpt lat="48.37833" lon="7.28232">
        <ele>745.05</ele>
        <time>2012-06-02T06:55:00Z</time>
      </trkpt>
      <trkpt lat="48.37813" lon="7.28213">
        <ele>746.211</ele>
        <time>2012-06-02T06:55:08Z</time>
      </trkpt>
      <trkpt lat="48.37794" lon="7.28195">
        <ele>747.882</ele>
        <time>2012-06-02T06:55:16Z</time>
      </trkpt>
      <trkpt lat="48.37768" lon="7.28179">
        <ele>749.072</ele>
        <time>2012-06-02T06:55:25Z</time>
      </trkpt>
      <trkpt lat="48.37744" lon="7.2817">
        <ele>750.822</ele>
        <time>2012-06-02T06:55:34Z</time>
      </trkpt>
      <trkpt lat="48.37721" lon="7.28165">
        <ele>752.331</ele>
        <time>2012-06-02T06:55:43Z</time>
      </trkpt>
      <trkpt lat="48.37701" lon="7.28158">
        <ele>753.78</ele>
        <time>2012-06-02T06:55:51Z</time>
      </trkpt>
      <trkpt lat="48.37681" lon="7.2815">
        <ele>758.873</ele>
        <time>2012-06-02T06:55:58Z</time>
      </trkpt>
      <trkpt lat="48.37661" lon="7.2813">
        <ele>759.141</ele>
        <time>2012-06-02T06:56:06Z</time>
      </trkpt>
      <trkpt lat="48.37644" lon="7.28099">
        <ele>761.742</ele>
        <time>2012-06-02T06:56:15Z</time>
      </trkpt>
      <trkpt lat="48.37635" lon="7.28063">
        <ele>762.831</ele>
        <time>2012-06-02T06:56:24Z</time>
      </trkpt>
      <trkpt lat="48.37626" lon="7.28013">
        <ele>765.251</ele>
        <time>2012-06-02T06:56:35Z</time>
      </trkpt>
      <trkpt lat="48.37629" lon="7.27976">
        <ele>767.913</ele>
        <time>2012-06-02T06:56:43Z</time>
      </trkpt>
      <trkpt lat="48.37642" lon="7.27951">
        <ele>768.923</ele>
        <time>2012-06-02T06:56:50Z</time>
      </trkpt>
      <trkpt lat="48.37657" lon="7.27938">
        <ele>770.073</ele>
        <time>2012-06-02T06:56:56Z</time>
      </trkpt>
      <trkpt lat="48.37681" lon="7.2792">
        <ele>773.634</ele>
        <time>2012-06-02T06:57:04Z</time>
      </trkpt>
      <trkpt lat="48.37718" lon="7.27893">
        <ele>778.882</ele>
        <time>2012-06-02T06:57:15Z</time>
      </trkpt>
      <trkpt lat="48.37748" lon="7.27868">
        <ele>782.663</ele>
        <time>2012-06-02T06:57:25Z</time>
      </trkpt>
      <trkpt lat="48.37767" lon="7.27843">
        <ele>783.923</ele>
        <time>2012-06-02T06:57:33Z</time>
      </trkpt>
      <trkpt lat="48.37779" lon="7.2782">
        <ele>784.793</ele>
        <time>2012-06-02T06:57:40Z</time>
      </trkpt>
      <trkpt lat="48.3779" lon="7.27792">
        <ele>784.602</ele>
        <time>2012-06-02T06:57:48Z</time>
      </trkpt>
      <trkpt lat="48.378" lon="7.27763">
        <ele>785.273</ele>
        <time>2012-06-02T06:57:56Z</time>
      </trkpt>
      <trkpt lat="48.37813" lon="7.2773">
        <ele>789.224</ele>
        <time>2012-06-02T06:58:05Z</time>
      </trkpt>
      <trkpt lat="48.37834" lon="7.27692">
        <ele>793.293</ele>
        <time>2012-06-02T06:58:17Z</time>
      </trkpt>
      <trkpt lat="48.37852" lon="7.27667">
        <ele>793.302</ele>
        <time>2012-06-02T06:58:26Z</time>
      </trkpt>
      <trkpt lat="48.37872" lon="7.27651">
        <ele>793.713</ele>
        <time>2012-06-02T06:58:34Z</time>
      </trkpt>
      <trkpt lat="48.37892" lon="7.27649">
        <ele>794.723</ele>
        <time>2012-06-02T06:58:42Z</time>
      </trkpt>
      <trkpt lat="48.37904" lon="7.27655">
        <ele>794.752</ele>
        <time>2012-06-02T06:58:47Z</time>
      </trkpt>
      <trkpt lat="48.37919" lon="7.27661">
        <ele>797.314</ele>
        <time>2012-06-02T06:58:53Z</time>
      </trkpt>
      <trkpt lat="48.37936" lon="7.27673">
        <ele>797.873</ele>
        <time>2012-06-02T06:59:00Z</time>
      </trkpt>
      <trkpt lat="48.37955" lon="7.27685">
        <ele>798.943</ele>
        <time>2012-06-02T06:59:07Z</time>
      </trkpt>
      <trkpt lat="48.37976" lon="7.277">
        <ele>800.333</ele>
        <time>2012-06-02T06:59:16Z</time>
      </trkpt>
      <trkpt lat="48.37996" lon="7.27715">
        <ele>801.672</ele>
        <time>2012-06-02T06:59:24Z</time>
      </trkpt>
      <trkpt lat="48.38019" lon="7.27731">
        <ele>804.783</ele>
        <time>2012-06-02T06:59:33Z</time>
      </trkpt>
      <trkpt lat="48.38034" lon="7.2774">
        <ele>807.704</ele>
        <time>2012-06-02T06:59:39Z</time>
      </trkpt>
      <trkpt lat="48.38056" lon="7.27749">
        <ele>809.321</ele>
        <time>2012-06-02T06:59:47Z</time>
      </trkpt>
      <trkpt lat="48.38078" lon="7.27755">
        <ele>812.134</ele>
        <time>2012-06-02T06:59:54Z</time>
      </trkpt>
      <trkpt lat="48.38097" lon="7.27756">
        <ele>814.955</ele>
        <time>2012-06-02T07:00:01Z</time>
      </trkpt>
      <trkpt lat="48.38119" lon="7.27754">
        <ele>816.264</ele>
        <time>2012-06-02T07:00:08Z</time>
      </trkpt>
      <trkpt lat="48.38141" lon="7.27741">
        <ele>818.194</ele>
        <time>2012-06-02T07:00:16Z</time>
      </trkpt>
      <trkpt lat="48.38156" lon="7.27725">
        <ele>817.713</ele>
        <time>2012-06-02T07:00:23Z</time>
      </trkpt>
      <trkpt lat="48.38167" lon="7.27711">
        <ele>821.502</ele>
        <time>2012-06-02T07:00:29Z</time>
      </trkpt>
      <trkpt lat="48.38177" lon="7.27693">
        <ele>825.843</ele>
        <time>2012-06-02T07:00:35Z</time>
      </trkpt>
      <trkpt lat="48.38183" lon="7.27677">
        <ele>827.773</ele>
        <time>2012-06-02T07:00:40Z</time>
      </trkpt>
      <trkpt lat="48.38193" lon="7.27659">
        <ele>828.841</ele>
        <time>2012-06-02T07:00:46Z</time>
      </trkpt>
      <trkpt lat="48.38203" lon="7.27633">
        <ele>821.75</ele>
        <time>2012-06-02T07:00:53Z</time>
      </trkpt>
      <trkpt lat="48.38207" lon="7.27605">
        <ele>819.64</ele>
        <time>2012-06-02T07:01:00Z</time>
      </trkpt>
      <trkpt lat="48.38208" lon="7.27587">
        <ele>821.401</ele>
        <time>2012-06-02T07:01:05Z</time>
      </trkpt>
      <trkpt lat="48.38204" lon="7.2756">
        <ele>827.364</ele>
        <time>2012-06-02T07:01:11Z</time>
      </trkpt>
      <trkpt lat="48.38204" lon="7.27534">
        <ele>827.492</ele>
        <time>2012-06-02T07:01:18Z</time>
      </trkpt>
      <trkpt lat="48.38205" lon="7.27502">
        <ele>828.973</ele>
        <time>2012-06-02T07:01:25Z</time>
      </trkpt>
      <trkpt lat="48.38211" lon="7.27474">
        <ele>827.762</ele>
        <time>2012-06-02T07:01:32Z</time>
      </trkpt>
      <trkpt lat="48.38218" lon="7.2744">
        <ele>830.892</ele>
        <time>2012-06-02T07:01:40Z</time>
      </trkpt>
      <trkpt lat="48.38226" lon="7.2741">
        <ele>830.881</ele>
        <time>2012-06-02T07:01:48Z</time>
      </trkpt>
      <trkpt lat="48.38232" lon="7.27389">
        <ele>828.941</ele>
        <time>2012-06-02T07:01:54Z</time>
      </trkpt>
      <trkpt lat="48.38243" lon="7.27363">
        <ele>829.38</ele>
        <time>2012-06-02T07:02:01Z</time>
      </trkpt>
      <trkpt lat="48.38257" lon="7.27345">
        <ele>826.61</ele>
        <time>2012-06-02T07:02:08Z</time>
      </trkpt>
      <trkpt lat="48.38275" lon="7.27328">
        <ele>830.663</ele>
        <time>2012-06-02T07:02:16Z</time>
      </trkpt>
      <trkpt lat="48.38298" lon="7.27319">
        <ele>830.113</ele>
        <time>2012-06-02T07:02:25Z</time>
      </trkpt>
      <trkpt lat="48.38321" lon="7.27308">
        <ele>832.415</ele>
        <time>2012-06-02T07:02:34Z</time>
      </trkpt>
      <trkpt lat="48.38339" lon="7.273">
        <ele>834.575</ele>
        <time>2012-06-02T07:02:42Z</time>
      </trkpt>
      <trkpt lat="48.38357" lon="7.27285">
        <ele>834.864</ele>
        <time>2012-06-02T07:02:50Z</time>
      </trkpt>
      <trkpt lat="48.38377" lon="7.27264">
        <ele>833.783</ele>
        <time>2012-06-02T07:02:59Z</time>
      </trkpt>
      <trkpt lat="48.3839" lon="7.27241">
        <ele>842.435</ele>
        <time>2012-06-02T07:03:07Z</time>
      </trkpt>
      <trkpt lat="48.38399" lon="7.27219">
        <ele>847.525</ele>
        <time>2012-06-02T07:03:13Z</time>
      </trkpt>
      <trkpt lat="48.38408" lon="7.27193">
        <ele>847.392</ele>
        <time>2012-06-02T07:03:20Z</time>
      </trkpt>
      <trkpt lat="48.38412" lon="7.27172">
        <ele>852.144</ele>
        <time>2012-06-02T07:03:26Z</time>
      </trkpt>
      <trkpt lat="48.38417" lon="7.27146">
        <ele>855.634</ele>
        <time>2012-06-02T07:03:33Z</time>
      </trkpt>
      <trkpt lat="48.38427" lon="7.2711">
        <ele>852.761</ele>
        <time>2012-06-02T07:03:42Z</time>
      </trkpt>
      <trkpt lat="48.38429" lon="7.27078">
        <ele>853.061</ele>
        <time>2012-06-02T07:03:50Z</time>
      </trkpt>
      <trkpt lat="48.38422" lon="7.27053">
        <ele>864.205</ele>
        <time>2012-06-02T07:03:56Z</time>
      </trkpt>
      <trkpt lat="48.38409" lon="7.2702">
        <ele>875.787</ele>
        <time>2012-06-02T07:04:04Z</time>
      </trkpt>
      <trkpt lat="48.38399" lon="7.26989">
        <ele>880.345</ele>
        <time>2012-06-02T07:04:12Z</time>
      </trkpt>
      <trkpt lat="48.38389" lon="7.26949">
        <ele>881.153</ele>
        <time>2012-06-02T07:04:22Z</time>
      </trkpt>
      <trkpt lat="48.38385" lon="7.26913">
        <ele>879.413</ele>
        <time>2012-06-02T07:04:31Z</time>
      </trkpt>
      <trkpt lat="48.38383" lon="7.26888">
        <ele>878.203</ele>
        <time>2012-06-02T07:04:37Z</time>
      </trkpt>
      <trkpt lat="48.38382" lon="7.26851">
        <ele>877.383</ele>
        <time>2012-06-02T07:04:46Z</time>
      </trkpt>
      <trkpt lat="48.38384" lon="7.26823">
        <ele>880.253</ele>
        <time>2012-06-02T07:04:53Z</time>
      </trkpt>
      <trkpt lat="48.38392" lon="7.26791">
        <ele>882.293</ele>
        <time>2012-06-02T07:05:02Z</time>
      </trkpt>
      <trkpt lat="48.38401" lon="7.2676">
        <ele>880.462</ele>
        <time>2012-06-02T07:05:11Z</time>
      </trkpt>
      <trkpt lat="48.38409" lon="7.2674">
        <ele>877.561</ele>
        <time>2012-06-02T07:05:17Z</time>
      </trkpt>
      <trkpt lat="48.38417" lon="7.26719">
        <ele>873.339</ele>
        <time>2012-06-02T07:05:23Z</time>
      </trkpt>
      <trkpt lat="48.38425" lon="7.26694">
        <ele>868.079</ele>
        <time>2012-06-02T07:05:30Z</time>
      </trkpt>
      <trkpt lat="48.38435" lon="7.26657">
        <ele>864.681</ele>
        <time>2012-06-02T07:05:40Z</time>
      </trkpt>
      <trkpt lat="48.38441" lon="7.26632">
        <ele>864.912</ele>
        <time>2012-06-02T07:05:47Z</time>
      </trkpt>
      <trkpt lat="48.38446" lon="7.26611">
        <ele>865.452</ele>
        <time>2012-06-02T07:05:53Z</time>
      </trkpt>
      <trkpt lat="48.38453" lon="7.26587">
        <ele>865.752</ele>
        <time>2012-06-02T07:06:00Z</time>
      </trkpt>
      <trkpt lat="48.38458" lon="7.26561">
        <ele>874.624</ele>
        <time>2012-06-02T07:06:07Z</time>
      </trkpt>
      <trkpt lat="48.38466" lon="7.26537">
        <ele>876.724</ele>
        <time>2012-06-02T07:06:14Z</time>
      </trkpt>
      <trkpt lat="48.3847" lon="7.26519">
        <ele>879.824</ele>
        <time>2012-06-02T07:06:19Z</time>
      </trkpt>
      <trkpt lat="48.38478" lon="7.26496">
        <ele>880.303</ele>
        <time>2012-06-02T07:06:25Z</time>
      </trkpt>
      <trkpt lat="48.38487" lon="7.26468">
        <ele>884.815</ele>
        <time>2012-06-02T07:06:32Z</time>
      </trkpt>
      <trkpt lat="48.38494" lon="7.26437">
        <ele>897.126</ele>
        <time>2012-06-02T07:06:39Z</time>
      </trkpt>
      <trkpt lat="48.38499" lon="7.26417">
        <ele>896.964</ele>
        <time>2012-06-02T07:06:44Z</time>
      </trkpt>
      <trkpt lat="48.38503" lon="7.26396">
        <ele>898.294</ele>
        <time>2012-06-02T07:06:50Z</time>
      </trkpt>
      <trkpt lat="48.38509" lon="7.26371">
        <ele>902.004</ele>
        <time>2012-06-02T07:06:57Z</time>
      </trkpt>
      <trkpt lat="48.38515" lon="7.26347">
        <ele>903.145</ele>
        <time>2012-06-02T07:07:04Z</time>
      </trkpt>
      <trkpt lat="48.38524" lon="7.2632">
        <ele>902.993</ele>
        <time>2012-06-02T07:07:12Z</time>
      </trkpt>
      <trkpt lat="48.38527" lon="7.26292">
        <ele>905.623</ele>
        <time>2012-06-02T07:07:19Z</time>
      </trkpt>
      <trkpt lat="48.38517" lon="7.2627">
        <ele>914.894</ele>
        <time>2012-06-02T07:07:25Z</time>
      </trkpt>
      <trkpt lat="48.38497" lon="7.26255">
        <ele>921.894</ele>
        <time>2012-06-02T07:07:33Z</time>
      </trkpt>
      <trkpt lat="48.38473" lon="7.26242">
        <ele>928.174</ele>
        <time>2012-06-02T07:07:42Z</time>
      </trkpt>
      <trkpt lat="48.38451" lon="7.26227">
        <ele>931.204</ele>
        <time>2012-06-02T07:07:51Z</time>
      </trkpt>
      <trkpt lat="48.38432" lon="7.26206">
        <ele>934.444</ele>
        <time>2012-06-02T07:08:00Z</time>
      </trkpt>
      <trkpt lat="48.38416" lon="7.26185">
        <ele>936.404</ele>
        <time>2012-06-02T07:08:08Z</time>
      </trkpt>
      <trkpt lat="48.38398" lon="7.26158">
        <ele>938.264</ele>
        <time>2012-06-02T07:08:17Z</time>
      </trkpt>
      <trkpt lat="48.38379" lon="7.26134">
        <ele>940.643</ele>
        <time>2012-06-02T07:08:26Z</time>
      </trkpt>
      <trkpt lat="48.3836" lon="7.26106">
        <ele>943.664</ele>
        <time>2012-06-02T07:08:36Z</time>
      </trkpt>
      <trkpt lat="48.3834" lon="7.2607">
        <ele>945.534</ele>
        <time>2012-06-02T07:08:46Z</time>
      </trkpt>
      <trkpt lat="48.3832" lon="7.26032">
        <ele>948.244</ele>
        <time>2012-06-02T07:08:55Z</time>
      </trkpt>
      <trkpt lat="48.38306" lon="7.25997">
        <ele>949.094</ele>
        <time>2012-06-02T07:09:03Z</time>
      </trkpt>
      <trkpt lat="48.383" lon="7.25963">
        <ele>948.583</ele>
        <time>2012-06-02T07:09:10Z</time>
      </trkpt>
      <trkpt lat="48.38303" lon="7.25924">
        <ele>947.593</ele>
        <time>2012-06-02T07:09:18Z</time>
      </trkpt>
      <trkpt lat="48.38309" lon="7.25895">
        <ele>946.661</ele>
        <time>2012-06-02T07:09:25Z</time>
      </trkpt>
      <trkpt lat="48.38315" lon="7.25868">
        <ele>944.021</ele>
        <time>2012-06-02T07:09:32Z</time>
      </trkpt>
      <trkpt lat="48.38319" lon="7.25848">
        <ele>944.263</ele>
        <time>2012-06-02T07:09:38Z</time>
      </trkpt>
      <trkpt lat="48.3832" lon="7.25837">
        <ele>946.074</ele>
        <time>2012-06-02T07:09:43Z</time>
      </trkpt>
      <trkpt lat="48.38326" lon="7.25815">
        <ele>948.094</ele>
        <time>2012-06-02T07:09:50Z</time>
      </trkpt>
      <trkpt lat="48.38337" lon="7.25779">
        <ele>951.994</ele>
        <time>2012-06-02T07:10:00Z</time>
      </trkpt>
      <trkpt lat="48.38344" lon="7.25757">
        <ele>953.314</ele>
        <time>2012-06-02T07:10:06Z</time>
      </trkpt>
      <trkpt lat="48.38343" lon="7.25732">
        <ele>955.504</ele>
        <time>2012-06-02T07:10:12Z</time>
      </trkpt>
      <trkpt lat="48.38334" lon="7.2571">
        <ele>960.004</ele>
        <time>2012-06-02T07:10:18Z</time>
      </trkpt>
      <trkpt lat="48.38323" lon="7.2569">
        <ele>963.785</ele>
        <time>2012-06-02T07:10:25Z</time>
      </trkpt>
      <trkpt lat="48.3831" lon="7.25669">
        <ele>965.764</ele>
        <time>2012-06-02T07:10:33Z</time>
      </trkpt>
      <trkpt lat="48.38298" lon="7.25649">
        <ele>966.514</ele>
        <time>2012-06-02T07:10:40Z</time>
      </trkpt>
      <trkpt lat="48.38283" lon="7.25622">
        <ele>969.685</ele>
        <time>2012-06-02T07:10:49Z</time>
      </trkpt>
      <trkpt lat="48.38265" lon="7.25592">
        <ele>970.933</ele>
        <time>2012-06-02T07:10:59Z</time>
      </trkpt>
      <trkpt lat="48.38251" lon="7.25565">
        <ele>970.583</ele>
        <time>2012-06-02T07:11:05Z</time>
      </trkpt>
      <trkpt lat="48.38237" lon="7.25536">
        <ele>970.492</ele>
        <time>2012-06-02T07:11:11Z</time>
      </trkpt>
      <trkpt lat="48.38224" lon="7.25504">
        <ele>971.223</ele>
        <time>2012-06-02T07:11:18Z</time>
      </trkpt>
      <trkpt lat="48.38212" lon="7.25471">
        <ele>971.753</ele>
        <time>2012-06-02T07:11:25Z</time>
      </trkpt>
      <trkpt lat="48.38203" lon="7.25443">
        <ele>974.144</ele>
        <time>2012-06-02T07:11:31Z</time>
      </trkpt>
      <trkpt lat="48.38188" lon="7.25396">
        <ele>974.572</ele>
        <time>2012-06-02T07:11:39Z</time>
      </trkpt>
      <trkpt lat="48.38166" lon="7.25328">
        <ele>972.542</ele>
        <time>2012-06-02T07:11:49Z</time>
      </trkpt>
      <trkpt lat="48.38142" lon="7.2527">
        <ele>975.434</ele>
        <time>2012-06-02T07:11:58Z</time>
      </trkpt>
      <trkpt lat="48.38113" lon="7.25229">
        <ele>976.303</ele>
        <time>2012-06-02T07:12:06Z</time>
      </trkpt>
      <trkpt lat="48.38079" lon="7.25189">
        <ele>976.363</ele>
        <time>2012-06-02T07:12:15Z</time>
      </trkpt>
      <trkpt lat="48.38051" lon="7.25159">
        <ele>976.973</ele>
        <time>2012-06-02T07:12:22Z</time>
      </trkpt>
      <trkpt lat="48.38019" lon="7.25123">
        <ele>979.273</ele>
        <time>2012-06-02T07:12:31Z</time>
      </trkpt>
      <trkpt lat="48.37998" lon="7.25095">
        <ele>981.894</ele>
        <time>2012-06-02T07:12:38Z</time>
      </trkpt>
      <trkpt lat="48.37982" lon="7.25057">
        <ele>983.764</ele>
        <time>2012-06-02T07:12:46Z</time>
      </trkpt>
      <trkpt lat="48.37972" lon="7.25018">
        <ele>986.124</ele>
        <time>2012-06-02T07:12:54Z</time>
      </trkpt>
      <trkpt lat="48.37965" lon="7.24975">
        <ele>987.984</ele>
        <time>2012-06-02T07:13:03Z</time>
      </trkpt>
      <trkpt lat="48.37963" lon="7.2493">
        <ele>988.983</ele>
        <time>2012-06-02T07:13:13Z</time>
      </trkpt>
      <trkpt lat="48.37967" lon="7.24894">
        <ele>989.593</ele>
        <time>2012-06-02T07:13:21Z</time>
      </trkpt>
      <trkpt lat="48.37975" lon="7.24869">
        <ele>990.674</ele>
        <time>2012-06-02T07:13:28Z</time>
      </trkpt>
      <trkpt lat="48.37989" lon="7.24842">
        <ele>991.784</ele>
        <time>2012-06-02T07:13:35Z</time>
      </trkpt>
      <trkpt lat="48.38016" lon="7.24805">
        <ele>995.835</ele>
        <time>2012-06-02T07:13:45Z</time>
      </trkpt>
      <trkpt lat="48.38054" lon="7.24763">
        <ele>1002.174</ele>
        <time>2012-06-02T07:13:57Z</time>
      </trkpt>
      <trkpt lat="48.38083" lon="7.2473">
        <ele>1005.365</ele>
        <time>2012-06-02T07:14:06Z</time>
      </trkpt>
      <trkpt lat="48.38116" lon="7.24693">
        <ele>1006.654</ele>
        <time>2012-06-02T07:14:14Z</time>
      </trkpt>
      <trkpt lat="48.38148" lon="7.24646">
        <ele>1008.194</ele>
        <time>2012-06-02T07:14:22Z</time>
      </trkpt>
      <trkpt lat="48.38159" lon="7.24615">
        <ele>1008.423</ele>
        <time>2012-06-02T07:14:26Z</time>
      </trkpt>
      <trkpt lat="48.38161" lon="7.24581">
        <ele>1007.942</ele>
        <time>2012-06-02T07:14:30Z</time>
      </trkpt>
      <trkpt lat="48.38153" lon="7.24517">
        <ele>1006.711</ele>
        <time>2012-06-02T07:14:37Z</time>
      </trkpt>
      <trkpt lat="48.38136" lon="7.24445">
        <ele>1005.161</ele>
        <time>2012-06-02T07:14:44Z</time>
      </trkpt>
      <trkpt lat="48.38112" lon="7.24368">
        <ele>1003.061</ele>
        <time>2012-06-02T07:14:51Z</time>
      </trkpt>
      <trkpt lat="48.38095" lon="7.24297">
        <ele>1000.98</ele>
        <time>2012-06-02T07:14:56Z</time>
      </trkpt>
      <trkpt lat="48.38089" lon="7.24247">
        <ele>999.119</ele>
        <time>2012-06-02T07:14:59Z</time>
      </trkpt>
      <trkpt lat="48.38097" lon="7.24176">
        <ele>994.827</ele>
        <time>2012-06-02T07:15:03Z</time>
      </trkpt>
      <trkpt lat="48.3812" lon="7.24129">
        <ele>990.506</ele>
        <time>2012-06-02T07:15:06Z</time>
      </trkpt>
      <trkpt lat="48.38155" lon="7.24103">
        <ele>987.006</ele>
        <time>2012-06-02T07:15:09Z</time>
      </trkpt>
      <trkpt lat="48.38219" lon="7.2406">
        <ele>981.237</ele>
        <time>2012-06-02T07:15:14Z</time>
      </trkpt>
      <trkpt lat="48.38245" lon="7.24039">
        <ele>977.705</ele>
        <time>2012-06-02T07:15:16Z</time>
      </trkpt>
      <trkpt lat="48.38285" lon="7.23974">
        <ele>973.134</ele>
        <time>2012-06-02T07:15:20Z</time>
      </trkpt>
      <trkpt lat="48.38293" lon="7.2391">
        <ele>968.745</ele>
        <time>2012-06-02T07:15:23Z</time>
      </trkpt>
      <trkpt lat="48.38302" lon="7.23822">
        <ele>964.975</ele>
        <time>2012-06-02T07:15:27Z</time>
      </trkpt>
      <trkpt lat="48.38329" lon="7.23742">
        <ele>961.325</ele>
        <time>2012-06-02T07:15:31Z</time>
      </trkpt>
      <trkpt lat="48.38351" lon="7.2371">
        <ele>959.376</ele>
        <time>2012-06-02T07:15:33Z</time>
      </trkpt>
      <trkpt lat="48.3844" lon="7.236">
        <ele>952.887</ele>
        <time>2012-06-02T07:15:41Z</time>
      </trkpt>
      <trkpt lat="48.38453" lon="7.2359">
        <ele>951.757</ele>
        <time>2012-06-02T07:15:42Z</time>
      </trkpt>
      <trkpt lat="48.3852" lon="7.2356">
        <ele>945.967</ele>
        <time>2012-06-02T07:15:47Z</time>
      </trkpt>
      <trkpt lat="48.38608" lon="7.2353">
        <ele>939.336</ele>
        <time>2012-06-02T07:15:53Z</time>
      </trkpt>
      <trkpt lat="48.38696" lon="7.23503">
        <ele>927.314</ele>
        <time>2012-06-02T07:15:59Z</time>
      </trkpt>
      <trkpt lat="48.38738" lon="7.23487">
        <ele>924.065</ele>
        <time>2012-06-02T07:16:02Z</time>
      </trkpt>
      <trkpt lat="48.38784" lon="7.23444">
        <ele>923.54</ele>
        <time>2012-06-02T07:16:06Z</time>
      </trkpt>
      <trkpt lat="48.38793" lon="7.2343">
        <ele>923.441</ele>
        <time>2012-06-02T07:16:07Z</time>
      </trkpt>
      <trkpt lat="48.38853" lon="7.23318">
        <ele>920.27</ele>
        <time>2012-06-02T07:16:15Z</time>
      </trkpt>
      <trkpt lat="48.38903" lon="7.23217">
        <ele>916.689</ele>
        <time>2012-06-02T07:16:22Z</time>
      </trkpt>
      <trkpt lat="48.38925" lon="7.23135">
        <ele>914.641</ele>
        <time>2012-06-02T07:16:27Z</time>
      </trkpt>
      <trkpt lat="48.38935" lon="7.23049">
        <ele>912</ele>
        <time>2012-06-02T07:16:32Z</time>
      </trkpt>
      <trkpt lat="48.38936" lon="7.22981">
        <ele>909.47</ele>
        <time>2012-06-02T07:16:36Z</time>
      </trkpt>
      <trkpt lat="48.3892" lon="7.22919">
        <ele>908.71</ele>
        <time>2012-06-02T07:16:40Z</time>
      </trkpt>
      <trkpt lat="48.38893" lon="7.22892">
        <ele>908.211</ele>
        <time>2012-06-02T07:16:43Z</time>
      </trkpt>
      <trkpt lat="48.38863" lon="7.22888">
        <ele>905.351</ele>
        <time>2012-06-02T07:16:46Z</time>
      </trkpt>
      <trkpt lat="48.38834" lon="7.22904">
        <ele>901.209</ele>
        <time>2012-06-02T07:16:49Z</time>
      </trkpt>
      <trkpt lat="48.38816" lon="7.22925">
        <ele>899.257</ele>
        <time>2012-06-02T07:16:51Z</time>
      </trkpt>
      <trkpt lat="48.38768" lon="7.22979">
        <ele>894.086</ele>
        <time>2012-06-02T07:16:56Z</time>
      </trkpt>
      <trkpt lat="48.38719" lon="7.23002">
        <ele>889.325</ele>
        <time>2012-06-02T07:17:00Z</time>
      </trkpt>
      <trkpt lat="48.38638" lon="7.23024">
        <ele>881.055</ele>
        <time>2012-06-02T07:17:06Z</time>
      </trkpt>
      <trkpt lat="48.38586" lon="7.23058">
        <ele>878.136</ele>
        <time>2012-06-02T07:17:10Z</time>
      </trkpt>
      <trkpt lat="48.38567" lon="7.2309">
        <ele>876.786</ele>
        <time>2012-06-02T07:17:12Z</time>
      </trkpt>
      <trkpt lat="48.38554" lon="7.23151">
        <ele>874.186</ele>
        <time>2012-06-02T07:17:15Z</time>
      </trkpt>
      <trkpt lat="48.38555" lon="7.23195">
        <ele>870.605</ele>
        <time>2012-06-02T07:17:17Z</time>
      </trkpt>
      <trkpt lat="48.38549" lon="7.23271">
        <ele>865.293</ele>
        <time>2012-06-02T07:17:21Z</time>
      </trkpt>
      <trkpt lat="48.38539" lon="7.23289">
        <ele>863.904</ele>
        <time>2012-06-02T07:17:22Z</time>
      </trkpt>
      <trkpt lat="48.38506" lon="7.23306">
        <ele>859.123</ele>
        <time>2012-06-02T07:17:25Z</time>
      </trkpt>
      <trkpt lat="48.38493" lon="7.23303">
        <ele>857.583</ele>
        <time>2012-06-02T07:17:26Z</time>
      </trkpt>
      <trkpt lat="48.38387" lon="7.23307">
        <ele>847.054</ele>
        <time>2012-06-02T07:17:34Z</time>
      </trkpt>
      <trkpt lat="48.38287" lon="7.23315">
        <ele>837.753</ele>
        <time>2012-06-02T07:17:41Z</time>
      </trkpt>
      <trkpt lat="48.38215" lon="7.23297">
        <ele>830.793</ele>
        <time>2012-06-02T07:17:46Z</time>
      </trkpt>
      <trkpt lat="48.38201" lon="7.23295">
        <ele>830.022</ele>
        <time>2012-06-02T07:17:47Z</time>
      </trkpt>
      <trkpt lat="48.38145" lon="7.23307">
        <ele>825.164</ele>
        <time>2012-06-02T07:17:51Z</time>
      </trkpt>
      <trkpt lat="48.38107" lon="7.23345">
        <ele>827.025</ele>
        <time>2012-06-02T07:17:54Z</time>
      </trkpt>
      <trkpt lat="48.3808" lon="7.23399">
        <ele>822.533</ele>
        <time>2012-06-02T07:17:57Z</time>
      </trkpt>
      <trkpt lat="48.3805" lon="7.23478">
        <ele>817.204</ele>
        <time>2012-06-02T07:18:01Z</time>
      </trkpt>
      <trkpt lat="48.38022" lon="7.2352">
        <ele>814.844</ele>
        <time>2012-06-02T07:18:04Z</time>
      </trkpt>
      <trkpt lat="48.37989" lon="7.23531">
        <ele>809.963</ele>
        <time>2012-06-02T07:18:07Z</time>
      </trkpt>
      <trkpt lat="48.37962" lon="7.23515">
        <ele>804.98</ele>
        <time>2012-06-02T07:18:09Z</time>
      </trkpt>
      <trkpt lat="48.3795" lon="7.23502">
        <ele>803.259</ele>
        <time>2012-06-02T07:18:10Z</time>
      </trkpt>
      <trkpt lat="48.37912" lon="7.23467">
        <ele>800.822</ele>
        <time>2012-06-02T07:18:13Z</time>
      </trkpt>
      <trkpt lat="48.37857" lon="7.23444">
        <ele>798.444</ele>
        <time>2012-06-02T07:18:17Z</time>
      </trkpt>
      <trkpt lat="48.37816" lon="7.23459">
        <ele>795.204</ele>
        <time>2012-06-02T07:18:20Z</time>
      </trkpt>
      <trkpt lat="48.37699" lon="7.23546">
        <ele>784.554</ele>
        <time>2012-06-02T07:18:29Z</time>
      </trkpt>
      <trkpt lat="48.37655" lon="7.23565">
        <ele>780.784</ele>
        <time>2012-06-02T07:18:32Z</time>
      </trkpt>
      <trkpt lat="48.37626" lon="7.23555">
        <ele>777.953</ele>
        <time>2012-06-02T07:18:34Z</time>
      </trkpt>
      <trkpt lat="48.37612" lon="7.23546">
        <ele>776.637</ele>
        <time>2012-06-02T07:18:35Z</time>
      </trkpt>
      <trkpt lat="48.37489" lon="7.23453">
        <ele>767.824</ele>
        <time>2012-06-02T07:18:44Z</time>
      </trkpt>
      <trkpt lat="48.37461" lon="7.23432">
        <ele>765.313</ele>
        <time>2012-06-02T07:18:46Z</time>
      </trkpt>
      <trkpt lat="48.37427" lon="7.23387">
        <ele>760.444</ele>
        <time>2012-06-02T07:18:49Z</time>
      </trkpt>
      <trkpt lat="48.37416" lon="7.23345">
        <ele>758.075</ele>
        <time>2012-06-02T07:18:51Z</time>
      </trkpt>
      <trkpt lat="48.37414" lon="7.23301">
        <ele>756.394</ele>
        <time>2012-06-02T07:18:53Z</time>
      </trkpt>
      <trkpt lat="48.37417" lon="7.23258">
        <ele>755.567</ele>
        <time>2012-06-02T07:18:55Z</time>
      </trkpt>
      <trkpt lat="48.37429" lon="7.23142">
        <ele>752.689</ele>
        <time>2012-06-02T07:19:01Z</time>
      </trkpt>
      <trkpt lat="48.37424" lon="7.23056">
        <ele>751.83</ele>
        <time>2012-06-02T07:19:06Z</time>
      </trkpt>
      <trkpt lat="48.3741" lon="7.22972">
        <ele>750.128</ele>
        <time>2012-06-02T07:19:11Z</time>
      </trkpt>
      <trkpt lat="48.37399" lon="7.22905">
        <ele>748.129</ele>
        <time>2012-06-02T07:19:15Z</time>
      </trkpt>
      <trkpt lat="48.37374" lon="7.22843">
        <ele>746.469</ele>
        <time>2012-06-02T07:19:19Z</time>
      </trkpt>
      <trkpt lat="48.37346" lon="7.22809">
        <ele>745.29</ele>
        <time>2012-06-02T07:19:22Z</time>
      </trkpt>
      <trkpt lat="48.37336" lon="7.22801">
        <ele>745.13</ele>
        <time>2012-06-02T07:19:23Z</time>
      </trkpt>
      <trkpt lat="48.37316" lon="7.22785">
        <ele>744.861</ele>
        <time>2012-06-02T07:19:25Z</time>
      </trkpt>
      <trkpt lat="48.37288" lon="7.22739">
        <ele>743.66</ele>
        <time>2012-06-02T07:19:29Z</time>
      </trkpt>
      <trkpt lat="48.37282" lon="7.22691">
        <ele>742.569</ele>
        <time>2012-06-02T07:19:32Z</time>
      </trkpt>
      <trkpt lat="48.3727" lon="7.22574">
        <ele>739.579</ele>
        <time>2012-06-02T07:19:39Z</time>
      </trkpt>
      <trkpt lat="48.37262" lon="7.22452">
        <ele>735.308</ele>
        <time>2012-06-02T07:19:46Z</time>
      </trkpt>
      <trkpt lat="48.3727" lon="7.22379">
        <ele>732.176</ele>
        <time>2012-06-02T07:19:50Z</time>
      </trkpt>
      <trkpt lat="48.37273" lon="7.22302">
        <ele>727.875</ele>
        <time>2012-06-02T07:19:54Z</time>
      </trkpt>
      <trkpt lat="48.37267" lon="7.22181">
        <ele>721.755</ele>
        <time>2012-06-02T07:20:00Z</time>
      </trkpt>
      <trkpt lat="48.37256" lon="7.22098">
        <ele>717.685</ele>
        <time>2012-06-02T07:20:04Z</time>
      </trkpt>
      <trkpt lat="48.37226" lon="7.21976">
        <ele>710.905</ele>
        <time>2012-06-02T07:20:10Z</time>
      </trkpt>
      <trkpt lat="48.37214" lon="7.21891">
        <ele>707.296</ele>
        <time>2012-06-02T07:20:14Z</time>
      </trkpt>
      <trkpt lat="48.37215" lon="7.21785">
        <ele>701.935</ele>
        <time>2012-06-02T07:20:19Z</time>
      </trkpt>
      <trkpt lat="48.37228" lon="7.21677">
        <ele>694.803</ele>
        <time>2012-06-02T07:20:24Z</time>
      </trkpt>
      <trkpt lat="48.37253" lon="7.2159">
        <ele>690.443</ele>
        <time>2012-06-02T07:20:28Z</time>
      </trkpt>
      <trkpt lat="48.37281" lon="7.2151">
        <ele>683.352</ele>
        <time>2012-06-02T07:20:32Z</time>
      </trkpt>
      <trkpt lat="48.37309" lon="7.21426">
        <ele>679.113</ele>
        <time>2012-06-02T07:20:36Z</time>
      </trkpt>
      <trkpt lat="48.37341" lon="7.21262">
        <ele>669.563</ele>
        <time>2012-06-02T07:20:43Z</time>
      </trkpt>
      <trkpt lat="48.37339" lon="7.21164">
        <ele>663.16</ele>
        <time>2012-06-02T07:20:47Z</time>
      </trkpt>
      <trkpt lat="48.3733" lon="7.21017">
        <ele>654.052</ele>
        <time>2012-06-02T07:20:53Z</time>
      </trkpt>
      <trkpt lat="48.3734" lon="7.2095">
        <ele>650.321</ele>
        <time>2012-06-02T07:20:56Z</time>
      </trkpt>
      <trkpt lat="48.37349" lon="7.20932">
        <ele>649.251</ele>
        <time>2012-06-02T07:20:57Z</time>
      </trkpt>
      <trkpt lat="48.37363" lon="7.20895">
        <ele>647.003</ele>
        <time>2012-06-02T07:20:59Z</time>
      </trkpt>
      <trkpt lat="48.37367" lon="7.20844">
        <ele>643.213</ele>
        <time>2012-06-02T07:21:02Z</time>
      </trkpt>
      <trkpt lat="48.37352" lon="7.20817">
        <ele>640.061</ele>
        <time>2012-06-02T07:21:04Z</time>
      </trkpt>
      <trkpt lat="48.37325" lon="7.20809">
        <ele>638.242</ele>
        <time>2012-06-02T07:21:06Z</time>
      </trkpt>
      <trkpt lat="48.37289" lon="7.20789">
        <ele>634.373</ele>
        <time>2012-06-02T07:21:09Z</time>
      </trkpt>
      <trkpt lat="48.37274" lon="7.20767">
        <ele>632.085</ele>
        <time>2012-06-02T07:21:11Z</time>
      </trkpt>
      <trkpt lat="48.3727" lon="7.20756">
        <ele>631.435</ele>
        <time>2012-06-02T07:21:12Z</time>
      </trkpt>
      <trkpt lat="48.3727" lon="7.20741">
        <ele>631.167</ele>
        <time>2012-06-02T07:21:15Z</time>
      </trkpt>
      <trkpt lat="48.37267" lon="7.20737">
        <ele>634.67</ele>
        <time>2012-06-02T07:21:18Z</time>
      </trkpt>
      <trkpt lat="48.37264" lon="7.2074">
        <ele>629.529</ele>
        <time>2012-06-02T07:21:24Z</time>
      </trkpt>
      <trkpt lat="48.37262" lon="7.2073">
        <ele>626.899</ele>
        <time>2012-06-02T07:21:28Z</time>
      </trkpt>
      <trkpt lat="48.37255" lon="7.20696">
        <ele>627.75</ele>
        <time>2012-06-02T07:21:32Z</time>
      </trkpt>
      <trkpt lat="48.37242" lon="7.20644">
        <ele>626.788</ele>
        <time>2012-06-02T07:21:36Z</time>
      </trkpt>
      <trkpt lat="48.37228" lon="7.206">
        <ele>624.187</ele>
        <time>2012-06-02T07:21:39Z</time>
      </trkpt>
      <trkpt lat="48.37197" lon="7.2055">
        <ele>619.965</ele>
        <time>2012-06-02T07:21:43Z</time>
      </trkpt>
      <trkpt lat="48.37145" lon="7.20497">
        <ele>614.424</ele>
        <time>2012-06-02T07:21:48Z</time>
      </trkpt>
      <trkpt lat="48.37098" lon="7.20476">
        <ele>609.793</ele>
        <time>2012-06-02T07:21:52Z</time>
      </trkpt>
      <trkpt lat="48.37062" lon="7.20489">
        <ele>606.875</ele>
        <time>2012-06-02T07:21:55Z</time>
      </trkpt>
      <trkpt lat="48.3704" lon="7.2051">
        <ele>604.565</ele>
        <time>2012-06-02T07:21:57Z</time>
      </trkpt>
      <trkpt lat="48.36943" lon="7.20617">
        <ele>594.564</ele>
        <time>2012-06-02T07:22:06Z</time>
      </trkpt>
      <trkpt lat="48.36885" lon="7.20671">
        <ele>589.673</ele>
        <time>2012-06-02T07:22:11Z</time>
      </trkpt>
      <trkpt lat="48.36846" lon="7.20726">
        <ele>585.064</ele>
        <time>2012-06-02T07:22:15Z</time>
      </trkpt>
      <trkpt lat="48.36812" lon="7.20755">
        <ele>586.038</ele>
        <time>2012-06-02T07:22:18Z</time>
      </trkpt>
      <trkpt lat="48.36777" lon="7.2076">
        <ele>585.729</ele>
        <time>2012-06-02T07:22:21Z</time>
      </trkpt>
      <trkpt lat="48.36757" lon="7.20751">
        <ele>584.759</ele>
        <time>2012-06-02T07:22:23Z</time>
      </trkpt>
      <trkpt lat="48.36745" lon="7.20725">
        <ele>584.169</ele>
        <time>2012-06-02T07:22:25Z</time>
      </trkpt>
      <trkpt lat="48.36746" lon="7.20694">
        <ele>583.83</ele>
        <time>2012-06-02T07:22:27Z</time>
      </trkpt>
      <trkpt lat="48.36749" lon="7.20678">
        <ele>583.7</ele>
        <time>2012-06-02T07:22:28Z</time>
      </trkpt>
      <trkpt lat="48.36771" lon="7.20558">
        <ele>582.17</ele>
        <time>2012-06-02T07:22:36Z</time>
      </trkpt>
      <trkpt lat="48.36775" lon="7.20455">
        <ele>581.309</ele>
        <time>2012-06-02T07:22:42Z</time>
      </trkpt>
      <trkpt lat="48.36776" lon="7.20437">
        <ele>580.809</ele>
        <time>2012-06-02T07:22:43Z</time>
      </trkpt>
      <trkpt lat="48.36767" lon="7.20384">
        <ele>578.377</ele>
        <time>2012-06-02T07:22:46Z</time>
      </trkpt>
      <trkpt lat="48.36742" lon="7.20341">
        <ele>575.596</ele>
        <time>2012-06-02T07:22:49Z</time>
      </trkpt>
      <trkpt lat="48.36708" lon="7.20318">
        <ele>572.386</ele>
        <time>2012-06-02T07:22:52Z</time>
      </trkpt>
      <trkpt lat="48.36612" lon="7.20281">
        <ele>565.857</ele>
        <time>2012-06-02T07:23:00Z</time>
      </trkpt>
      <trkpt lat="48.36555" lon="7.20261">
        <ele>563.458</ele>
        <time>2012-06-02T07:23:05Z</time>
      </trkpt>
      <trkpt lat="48.3651" lon="7.20267">
        <ele>560.106</ele>
        <time>2012-06-02T07:23:09Z</time>
      </trkpt>
      <trkpt lat="48.36485" lon="7.20261">
        <ele>557.846</ele>
        <time>2012-06-02T07:23:12Z</time>
      </trkpt>
      <trkpt lat="48.36479" lon="7.2024">
        <ele>556.376</ele>
        <time>2012-06-02T07:23:14Z</time>
      </trkpt>
      <trkpt lat="48.36485" lon="7.20214">
        <ele>554.926</ele>
        <time>2012-06-02T07:23:16Z</time>
      </trkpt>
      <trkpt lat="48.36501" lon="7.20162">
        <ele>552.287</ele>
        <time>2012-06-02T07:23:20Z</time>
      </trkpt>
      <trkpt lat="48.36503" lon="7.20147">
        <ele>551.667</ele>
        <time>2012-06-02T07:23:21Z</time>
      </trkpt>
      <trkpt lat="48.36507" lon="7.20083">
        <ele>550.848</ele>
        <time>2012-06-02T07:23:25Z</time>
      </trkpt>
      <trkpt lat="48.36528" lon="7.20009">
        <ele>548.028</ele>
        <time>2012-06-02T07:23:30Z</time>
      </trkpt>
      <trkpt lat="48.36542" lon="7.19963">
        <ele>544.947</ele>
        <time>2012-06-02T07:23:34Z</time>
      </trkpt>
      <trkpt lat="48.36531" lon="7.19947">
        <ele>543.167</ele>
        <time>2012-06-02T07:23:36Z</time>
      </trkpt>
      <trkpt lat="48.36515" lon="7.19952">
        <ele>541.537</ele>
        <time>2012-06-02T07:23:38Z</time>
      </trkpt>
      <trkpt lat="48.36507" lon="7.19976">
        <ele>541.518</ele>
        <time>2012-06-02T07:23:40Z</time>
      </trkpt>
      <trkpt lat="48.36494" lon="7.20025">
        <ele>539.908</ele>
        <time>2012-06-02T07:23:44Z</time>
      </trkpt>
      <trkpt lat="48.36476" lon="7.20045">
        <ele>539.518</ele>
        <time>2012-06-02T07:23:47Z</time>
      </trkpt>
      <trkpt lat="48.36461" lon="7.2004">
        <ele>538.718</ele>
        <time>2012-06-02T07:23:49Z</time>
      </trkpt>
      <trkpt lat="48.36453" lon="7.20018">
        <ele>538.009</ele>
        <time>2012-06-02T07:23:51Z</time>
      </trkpt>
      <trkpt lat="48.36458" lon="7.19983">
        <ele>536.78</ele>
        <time>2012-06-02T07:23:54Z</time>
      </trkpt>
      <trkpt lat="48.36458" lon="7.1996">
        <ele>536.77</ele>
        <time>2012-06-02T07:23:57Z</time>
      </trkpt>
      <trkpt lat="48.36445" lon="7.19955">
        <ele>537.501</ele>
        <time>2012-06-02T07:24:00Z</time>
      </trkpt>
      <trkpt lat="48.36432" lon="7.19951">
        <ele>538.112</ele>
        <time>2012-06-02T07:24:03Z</time>
      </trkpt>
      <trkpt lat="48.36404" lon="7.19938">
        <ele>538.182</ele>
        <time>2012-06-02T07:24:10Z</time>
      </trkpt>
      <trkpt lat="48.36377" lon="7.19925">
        <ele>537.681</ele>
        <time>2012-06-02T07:24:18Z</time>
      </trkpt>
      <trkpt lat="48.36368" lon="7.19915">
        <ele>537.461</ele>
        <time>2012-06-02T07:24:21Z</time>
      </trkpt>
      <trkpt lat="48.36358" lon="7.19889">
        <ele>537.522</ele>
        <time>2012-06-02T07:24:27Z</time>
      </trkpt>
      <trkpt lat="48.36344" lon="7.19849">
        <ele>537.882</ele>
        <time>2012-06-02T07:24:33Z</time>
      </trkpt>
      <trkpt lat="48.36318" lon="7.19776">
        <ele>537.782</ele>
        <time>2012-06-02T07:24:42Z</time>
      </trkpt>
      <trkpt lat="48.3629" lon="7.19695">
        <ele>537.922</ele>
        <time>2012-06-02T07:24:51Z</time>
      </trkpt>
      <trkpt lat="48.36258" lon="7.19593">
        <ele>537.781</ele>
        <time>2012-06-02T07:25:02Z</time>
      </trkpt>
      <trkpt lat="48.36249" lon="7.1953">
        <ele>538.051</ele>
        <time>2012-06-02T07:25:08Z</time>
      </trkpt>
      <trkpt lat="48.36247" lon="7.19467">
        <ele>538.761</ele>
        <time>2012-06-02T07:25:14Z</time>
      </trkpt>
      <trkpt lat="48.36252" lon="7.19367">
        <ele>540.852</ele>
        <time>2012-06-02T07:25:24Z</time>
      </trkpt>
      <trkpt lat="48.36251" lon="7.19313">
        <ele>542.833</ele>
        <time>2012-06-02T07:25:30Z</time>
      </trkpt>
      <trkpt lat="48.36248" lon="7.19263">
        <ele>544.402</ele>
        <time>2012-06-02T07:25:37Z</time>
      </trkpt>
      <trkpt lat="48.36243" lon="7.19193">
        <ele>543.931</ele>
        <time>2012-06-02T07:25:48Z</time>
      </trkpt>
      <trkpt lat="48.36239" lon="7.1913">
        <ele>541.299</ele>
        <time>2012-06-02T07:25:58Z</time>
      </trkpt>
      <trkpt lat="48.36233" lon="7.19074">
        <ele>539.509</ele>
        <time>2012-06-02T07:26:07Z</time>
      </trkpt>
      <trkpt lat="48.36227" lon="7.19035">
        <ele>538.759</ele>
        <time>2012-06-02T07:26:14Z</time>
      </trkpt>
      <trkpt lat="48.36214" lon="7.18982">
        <ele>544.332</ele>
        <time>2012-06-02T07:26:23Z</time>
      </trkpt>
      <trkpt lat="48.362" lon="7.18932">
        <ele>549.493</ele>
        <time>2012-06-02T07:26:32Z</time>
      </trkpt>
      <trkpt lat="48.36182" lon="7.1887">
        <ele>553.112</ele>
        <time>2012-06-02T07:26:43Z</time>
      </trkpt>
      <trkpt lat="48.36169" lon="7.18818">
        <ele>555.301</ele>
        <time>2012-06-02T07:26:51Z</time>
      </trkpt>
      <trkpt lat="48.36159" lon="7.1875">
        <ele>556.732</ele>
        <time>2012-06-02T07:27:00Z</time>
      </trkpt>
      <trkpt lat="48.36159" lon="7.18685">
        <ele>557.502</ele>
        <time>2012-06-02T07:27:08Z</time>
      </trkpt>
      <trkpt lat="48.36166" lon="7.18608">
        <ele>561.103</ele>
        <time>2012-06-02T07:27:18Z</time>
      </trkpt>
      <trkpt lat="48.3617" lon="7.18563">
        <ele>562.362</ele>
        <time>2012-06-02T07:27:24Z</time>
      </trkpt>
      <trkpt lat="48.36167" lon="7.18494">
        <ele>562.031</ele>
        <time>2012-06-02T07:27:32Z</time>
      </trkpt>
      <trkpt lat="48.36155" lon="7.18443">
        <ele>562.202</ele>
        <time>2012-06-02T07:27:38Z</time>
      </trkpt>
      <trkpt lat="48.36134" lon="7.18389">
        <ele>563.353</ele>
        <time>2012-06-02T07:27:45Z</time>
      </trkpt>
      <trkpt lat="48.36117" lon="7.18344">
        <ele>564.413</ele>
        <time>2012-06-02T07:27:52Z</time>
      </trkpt>
      <trkpt lat="48.36113" lon="7.18332">
        <ele>564.873</ele>
        <time>2012-06-02T07:27:54Z</time>
      </trkpt>
      <trkpt lat="48.361" lon="7.18267">
        <ele>566.432</ele>
        <time>2012-06-02T07:28:04Z</time>
      </trkpt>
      <trkpt lat="48.36087" lon="7.18178">
        <ele>568.292</ele>
        <time>2012-06-02T07:28:17Z</time>
      </trkpt>
      <trkpt lat="48.36078" lon="7.18121">
        <ele>568.362</ele>
        <time>2012-06-02T07:28:26Z</time>
      </trkpt>
      <trkpt lat="48.36073" lon="7.18091">
        <ele>569.702</ele>
        <time>2012-06-02T07:28:31Z</time>
      </trkpt>
      <trkpt lat="48.36064" lon="7.18054">
        <ele>572.803</ele>
        <time>2012-06-02T07:28:38Z</time>
      </trkpt>
      <trkpt lat="48.36053" lon="7.18024">
        <ele>574.864</ele>
        <time>2012-06-02T07:28:44Z</time>
      </trkpt>
      <trkpt lat="48.3604" lon="7.1799">
        <ele>576.904</ele>
        <time>2012-06-02T07:28:51Z</time>
      </trkpt>
      <trkpt lat="48.36027" lon="7.17957">
        <ele>577.122</ele>
        <time>2012-06-02T07:28:58Z</time>
      </trkpt>
      <trkpt lat="48.3602" lon="7.17937">
        <ele>578.532</ele>
        <time>2012-06-02T07:29:02Z</time>
      </trkpt>
      <trkpt lat="48.36008" lon="7.17894">
        <ele>579.602</ele>
        <time>2012-06-02T07:29:10Z</time>
      </trkpt>
      <trkpt lat="48.35998" lon="7.17848">
        <ele>580.583</ele>
        <time>2012-06-02T07:29:19Z</time>
      </trkpt>
      <trkpt lat="48.35995" lon="7.17813">
        <ele>581.762</ele>
        <time>2012-06-02T07:29:26Z</time>
      </trkpt>
      <trkpt lat="48.35993" lon="7.1777">
        <ele>584.154</ele>
        <time>2012-06-02T07:29:35Z</time>
      </trkpt>
      <trkpt lat="48.35991" lon="7.17766">
        <ele>584.473</ele>
        <time>2012-06-02T07:29:36Z</time>
      </trkpt>
      <trkpt lat="48.3598" lon="7.17764">
        <ele>584.312</ele>
        <time>2012-06-02T07:29:40Z</time>
      </trkpt>
      <trkpt lat="48.35954" lon="7.17772">
        <ele>585.693</ele>
        <time>2012-06-02T07:29:49Z</time>
      </trkpt>
      <trkpt lat="48.35924" lon="7.17776">
        <ele>588.653</ele>
        <time>2012-06-02T07:29:59Z</time>
      </trkpt>
      <trkpt lat="48.35907" lon="7.17769">
        <ele>589.972</ele>
        <time>2012-06-02T07:30:05Z</time>
      </trkpt>
      <trkpt lat="48.35886" lon="7.17747">
        <ele>591.543</ele>
        <time>2012-06-02T07:30:13Z</time>
      </trkpt>
      <trkpt lat="48.35874" lon="7.17728">
        <ele>593.562</ele>
        <time>2012-06-02T07:30:19Z</time>
      </trkpt>
      <trkpt lat="48.35864" lon="7.17705">
        <ele>595.553</ele>
        <time>2012-06-02T07:30:25Z</time>
      </trkpt>
      <trkpt lat="48.35854" lon="7.17681">
        <ele>597.984</ele>
        <time>2012-06-02T07:30:31Z</time>
      </trkpt>
      <trkpt lat="48.35841" lon="7.17658">
        <ele>599.643</ele>
        <time>2012-06-02T07:30:37Z</time>
      </trkpt>
      <trkpt lat="48.35822" lon="7.1764">
        <ele>600.682</ele>
        <time>2012-06-02T07:30:44Z</time>
      </trkpt>
      <trkpt lat="48.35807" lon="7.1764">
        <ele>602.353</ele>
        <time>2012-06-02T07:30:49Z</time>
      </trkpt>
      <trkpt lat="48.3579" lon="7.17651">
        <ele>604.163</ele>
        <time>2012-06-02T07:30:55Z</time>
      </trkpt>
      <trkpt lat="48.35771" lon="7.1767">
        <ele>605.972</ele>
        <time>2012-06-02T07:31:03Z</time>
      </trkpt>
      <trkpt lat="48.35748" lon="7.17689">
        <ele>606.682</ele>
        <time>2012-06-02T07:31:12Z</time>
      </trkpt>
      <trkpt lat="48.35731" lon="7.17704">
        <ele>609.392</ele>
        <time>2012-06-02T07:31:19Z</time>
      </trkpt>
      <trkpt lat="48.35714" lon="7.17719">
        <ele>611.942</ele>
        <time>2012-06-02T07:31:26Z</time>
      </trkpt>
      <trkpt lat="48.35692" lon="7.17744">
        <ele>615.464</ele>
        <time>2012-06-02T07:31:35Z</time>
      </trkpt>
      <trkpt lat="48.35675" lon="7.1777">
        <ele>619.082</ele>
        <time>2012-06-02T07:31:43Z</time>
      </trkpt>
      <trkpt lat="48.35656" lon="7.17796">
        <ele>620.811</ele>
        <time>2012-06-02T07:31:52Z</time>
      </trkpt>
      <trkpt lat="48.35637" lon="7.17805">
        <ele>623.691</ele>
        <time>2012-06-02T07:31:59Z</time>
      </trkpt>
      <trkpt lat="48.35624" lon="7.17806">
        <ele>622.689</ele>
        <time>2012-06-02T07:32:04Z</time>
      </trkpt>
      <trkpt lat="48.35604" lon="7.17806">
        <ele>621.469</ele>
        <time>2012-06-02T07:32:11Z</time>
      </trkpt>
      <trkpt lat="48.35585" lon="7.17801">
        <ele>623.57</ele>
        <time>2012-06-02T07:32:17Z</time>
      </trkpt>
      <trkpt lat="48.35564" lon="7.17799">
        <ele>627.541</ele>
        <time>2012-06-02T07:32:24Z</time>
      </trkpt>
      <trkpt lat="48.35543" lon="7.17795">
        <ele>628.692</ele>
        <time>2012-06-02T07:32:31Z</time>
      </trkpt>
      <trkpt lat="48.35523" lon="7.17787">
        <ele>627.059</ele>
        <time>2012-06-02T07:32:38Z</time>
      </trkpt>
      <trkpt lat="48.35506" lon="7.17781">
        <ele>627.209</ele>
        <time>2012-06-02T07:32:45Z</time>
      </trkpt>
      <trkpt lat="48.35493" lon="7.17777">
        <ele>626.208</ele>
        <time>2012-06-02T07:32:50Z</time>
      </trkpt>
      <trkpt lat="48.35477" lon="7.17773">
        <ele>625.579</ele>
        <time>2012-06-02T07:32:57Z</time>
      </trkpt>
      <trkpt lat="48.35464" lon="7.1778">
        <ele>625.88</ele>
        <time>2012-06-02T07:33:03Z</time>
      </trkpt>
      <trkpt lat="48.35453" lon="7.17793">
        <ele>627.791</ele>
        <time>2012-06-02T07:33:08Z</time>
      </trkpt>
      <trkpt lat="48.35443" lon="7.17813">
        <ele>629.831</ele>
        <time>2012-06-02T07:33:14Z</time>
      </trkpt>
      <trkpt lat="48.35437" lon="7.17833">
        <ele>631.561</ele>
        <time>2012-06-02T07:33:20Z</time>
      </trkpt>
      <trkpt lat="48.35429" lon="7.17858">
        <ele>634.272</ele>
        <time>2012-06-02T07:33:28Z</time>
      </trkpt>
      <trkpt lat="48.35419" lon="7.17876">
        <ele>640.395</ele>
        <time>2012-06-02T07:33:35Z</time>
      </trkpt>
      <trkpt lat="48.35407" lon="7.17891">
        <ele>642.691</ele>
        <time>2012-06-02T07:33:41Z</time>
      </trkpt>
      <trkpt lat="48.35395" lon="7.17902">
        <ele>643.811</ele>
        <time>2012-06-02T07:33:47Z</time>
      </trkpt>
      <trkpt lat="48.35384" lon="7.1791">
        <ele>647.672</ele>
        <time>2012-06-02T07:33:53Z</time>
      </trkpt>
      <trkpt lat="48.35381" lon="7.17912">
        <ele>647.771</ele>
        <time>2012-06-02T07:33:55Z</time>
      </trkpt>
      <trkpt lat="48.35373" lon="7.17927">
        <ele>648.752</ele>
        <time>2012-06-02T07:34:01Z</time>
      </trkpt>
      <trkpt lat="48.35364" lon="7.17949">
        <ele>649.611</ele>
        <time>2012-06-02T07:34:08Z</time>
      </trkpt>
      <trkpt lat="48.35357" lon="7.17979">
        <ele>651.351</ele>
        <time>2012-06-02T07:34:17Z</time>
      </trkpt>
      <trkpt lat="48.35349" lon="7.18014">
        <ele>652.434</ele>
        <time>2012-06-02T07:34:27Z</time>
      </trkpt>
      <trkpt lat="48.35341" lon="7.18036">
        <ele>653.551</ele>
        <time>2012-06-02T07:34:34Z</time>
      </trkpt>
      <trkpt lat="48.35331" lon="7.18056">
        <ele>655.831</ele>
        <time>2012-06-02T07:34:41Z</time>
      </trkpt>
      <trkpt lat="48.35322" lon="7.18078">
        <ele>659.962</ele>
        <time>2012-06-02T07:34:48Z</time>
      </trkpt>
      <trkpt lat="48.35314" lon="7.18102">
        <ele>663.181</ele>
        <time>2012-06-02T07:34:55Z</time>
      </trkpt>
      <trkpt lat="48.35308" lon="7.18136">
        <ele>665.601</ele>
        <time>2012-06-02T07:35:04Z</time>
      </trkpt>
      <trkpt lat="48.35302" lon="7.18162">
        <ele>667.89</ele>
        <time>2012-06-02T07:35:12Z</time>
      </trkpt>
      <trkpt lat="48.35294" lon="7.18184">
        <ele>670.41</ele>
        <time>2012-06-02T07:35:19Z</time>
      </trkpt>
      <trkpt lat="48.35286" lon="7.18202">
        <ele>673.701</ele>
        <time>2012-06-02T07:35:26Z</time>
      </trkpt>
      <trkpt lat="48.35276" lon="7.1822">
        <ele>677.222</ele>
        <time>2012-06-02T07:35:33Z</time>
      </trkpt>
      <trkpt lat="48.35266" lon="7.1824">
        <ele>679.831</ele>
        <time>2012-06-02T07:35:39Z</time>
      </trkpt>
      <trkpt lat="48.35254" lon="7.18262">
        <ele>678.42</ele>
        <time>2012-06-02T07:35:47Z</time>
      </trkpt>
      <trkpt lat="48.3524" lon="7.18289">
        <ele>679.59</ele>
        <time>2012-06-02T07:35:56Z</time>
      </trkpt>
      <trkpt lat="48.35224" lon="7.18311">
        <ele>682.211</ele>
        <time>2012-06-02T07:36:04Z</time>
      </trkpt>
      <trkpt lat="48.35209" lon="7.18329">
        <ele>685.702</ele>
        <time>2012-06-02T07:36:11Z</time>
      </trkpt>
      <trkpt lat="48.35195" lon="7.18349">
        <ele>685.12</ele>
        <time>2012-06-02T07:36:18Z</time>
      </trkpt>
      <trkpt lat="48.35183" lon="7.18375">
        <ele>686.34</ele>
        <time>2012-06-02T07:36:24Z</time>
      </trkpt>
      <trkpt lat="48.35178" lon="7.18386">
        <ele>686.81</ele>
        <time>2012-06-02T07:36:26Z</time>
      </trkpt>
      <trkpt lat="48.35157" lon="7.18438">
        <ele>688.73</ele>
        <time>2012-06-02T07:36:34Z</time>
      </trkpt>
      <trkpt lat="48.35135" lon="7.18484">
        <ele>689.71</ele>
        <time>2012-06-02T07:36:41Z</time>
      </trkpt>
      <trkpt lat="48.35113" lon="7.18528">
        <ele>690.94</ele>
        <time>2012-06-02T07:36:47Z</time>
      </trkpt>
      <trkpt lat="48.35087" lon="7.18575">
        <ele>691.06</ele>
        <time>2012-06-02T07:36:53Z</time>
      </trkpt>
      <trkpt lat="48.35062" lon="7.18611">
        <ele>689.088</ele>
        <time>2012-06-02T07:36:58Z</time>
      </trkpt>
      <trkpt lat="48.35024" lon="7.18654">
        <ele>684.908</ele>
        <time>2012-06-02T07:37:05Z</time>
      </trkpt>
      <trkpt lat="48.34984" lon="7.18697">
        <ele>683.309</ele>
        <time>2012-06-02T07:37:12Z</time>
      </trkpt>
      <trkpt lat="48.34961" lon="7.18728">
        <ele>682.889</ele>
        <time>2012-06-02T07:37:17Z</time>
      </trkpt>
      <trkpt lat="48.34937" lon="7.18781">
        <ele>682.9</ele>
        <time>2012-06-02T07:37:23Z</time>
      </trkpt>
      <trkpt lat="48.34916" lon="7.18854">
        <ele>683.189</ele>
        <time>2012-06-02T07:37:31Z</time>
      </trkpt>
      <trkpt lat="48.34896" lon="7.1894">
        <ele>681.508</ele>
        <time>2012-06-02T07:37:40Z</time>
      </trkpt>
      <trkpt lat="48.34887" lon="7.18967">
        <ele>681.148</ele>
        <time>2012-06-02T07:37:43Z</time>
      </trkpt>
      <trkpt lat="48.34856" lon="7.19026">
        <ele>682.169</ele>
        <time>2012-06-02T07:37:50Z</time>
      </trkpt>
      <trkpt lat="48.34828" lon="7.19076">
        <ele>683.171</ele>
        <time>2012-06-02T07:37:57Z</time>
      </trkpt>
      <trkpt lat="48.34798" lon="7.19124">
        <ele>683.139</ele>
        <time>2012-06-02T07:38:05Z</time>
      </trkpt>
      <trkpt lat="48.34774" lon="7.19146">
        <ele>682.419</ele>
        <time>2012-06-02T07:38:10Z</time>
      </trkpt>
      <trkpt lat="48.34745" lon="7.19152">
        <ele>681.509</ele>
        <time>2012-06-02T07:38:15Z</time>
      </trkpt>
      <trkpt lat="48.34707" lon="7.19138">
        <ele>680.488</ele>
        <time>2012-06-02T07:38:21Z</time>
      </trkpt>
      <trkpt lat="48.34636" lon="7.19096">
        <ele>679.209</ele>
        <time>2012-06-02T07:38:32Z</time>
      </trkpt>
      <trkpt lat="48.3458" lon="7.19073">
        <ele>679.398</ele>
        <time>2012-06-02T07:38:40Z</time>
      </trkpt>
      <trkpt lat="48.34528" lon="7.19072">
        <ele>678.737</ele>
        <time>2012-06-02T07:38:46Z</time>
      </trkpt>
      <trkpt lat="48.34453" lon="7.19071">
        <ele>677.698</ele>
        <time>2012-06-02T07:38:54Z</time>
      </trkpt>
      <trkpt lat="48.34386" lon="7.19065">
        <ele>676.618</ele>
        <time>2012-06-02T07:39:02Z</time>
      </trkpt>
      <trkpt lat="48.34311" lon="7.19054">
        <ele>677.781</ele>
        <time>2012-06-02T07:39:11Z</time>
      </trkpt>
      <trkpt lat="48.34253" lon="7.19043">
        <ele>678.409</ele>
        <time>2012-06-02T07:39:19Z</time>
      </trkpt>
      <trkpt lat="48.34239" lon="7.19039">
        <ele>678.009</ele>
        <time>2012-06-02T07:39:21Z</time>
      </trkpt>
      <trkpt lat="48.342" lon="7.19012">
        <ele>677.419</ele>
        <time>2012-06-02T07:39:27Z</time>
      </trkpt>
      <trkpt lat="48.34167" lon="7.18969">
        <ele>678.289</ele>
        <time>2012-06-02T07:39:33Z</time>
      </trkpt>
      <trkpt lat="48.34135" lon="7.18898">
        <ele>675.737</ele>
        <time>2012-06-02T07:39:41Z</time>
      </trkpt>
      <trkpt lat="48.34089" lon="7.18823">
        <ele>675.067</ele>
        <time>2012-06-02T07:39:50Z</time>
      </trkpt>
      <trkpt lat="48.3406" lon="7.18769">
        <ele>677.658</ele>
        <time>2012-06-02T07:39:56Z</time>
      </trkpt>
      <trkpt lat="48.34047" lon="7.18749">
        <ele>677.317</ele>
        <time>2012-06-02T07:39:58Z</time>
      </trkpt>
      <trkpt lat="48.34016" lon="7.18723">
        <ele>673.384</ele>
        <time>2012-06-02T07:40:02Z</time>
      </trkpt>
      <trkpt lat="48.33984" lon="7.18701">
        <ele>672.327</ele>
        <time>2012-06-02T07:40:06Z</time>
      </trkpt>
      <trkpt lat="48.33964" lon="7.18666">
        <ele>671.279</ele>
        <time>2012-06-02T07:40:10Z</time>
      </trkpt>
      <trkpt lat="48.33962" lon="7.18655">
        <ele>671.339</ele>
        <time>2012-06-02T07:40:11Z</time>
      </trkpt>
      <trkpt lat="48.3395" lon="7.18618">
        <ele>672.399</ele>
        <time>2012-06-02T07:40:15Z</time>
      </trkpt>
      <trkpt lat="48.33927" lon="7.18584">
        <ele>673.439</ele>
        <time>2012-06-02T07:40:20Z</time>
      </trkpt>
      <trkpt lat="48.33859" lon="7.18537">
        <ele>671.176</ele>
        <time>2012-06-02T07:40:31Z</time>
      </trkpt>
      <trkpt lat="48.3383" lon="7.18523">
        <ele>669.283</ele>
        <time>2012-06-02T07:40:35Z</time>
      </trkpt>
      <trkpt lat="48.33762" lon="7.18517">
        <ele>668.367</ele>
        <time>2012-06-02T07:40:44Z</time>
      </trkpt>
      <trkpt lat="48.33717" lon="7.18506">
        <ele>666.295</ele>
        <time>2012-06-02T07:40:50Z</time>
      </trkpt>
      <trkpt lat="48.33692" lon="7.18498">
        <ele>665.355</ele>
        <time>2012-06-02T07:40:53Z</time>
      </trkpt>
      <trkpt lat="48.33652" lon="7.18503">
        <ele>664.837</ele>
        <time>2012-06-02T07:40:58Z</time>
      </trkpt>
      <trkpt lat="48.33637" lon="7.18529">
        <ele>664.748</ele>
        <time>2012-06-02T07:41:01Z</time>
      </trkpt>
      <trkpt lat="48.33634" lon="7.18564">
        <ele>664.337</ele>
        <time>2012-06-02T07:41:04Z</time>
      </trkpt>
      <trkpt lat="48.33646" lon="7.18665">
        <ele>663.094</ele>
        <time>2012-06-02T07:41:12Z</time>
      </trkpt>
      <trkpt lat="48.33658" lon="7.18748">
        <ele>660.374</ele>
        <time>2012-06-02T07:41:18Z</time>
      </trkpt>
      <trkpt lat="48.33653" lon="7.18801">
        <ele>658.333</ele>
        <time>2012-06-02T07:41:22Z</time>
      </trkpt>
      <trkpt lat="48.33633" lon="7.18807">
        <ele>657.203</ele>
        <time>2012-06-02T07:41:24Z</time>
      </trkpt>
      <trkpt lat="48.33618" lon="7.18792">
        <ele>656.124</ele>
        <time>2012-06-02T07:41:26Z</time>
      </trkpt>
      <trkpt lat="48.33606" lon="7.18754">
        <ele>654.624</ele>
        <time>2012-06-02T07:41:29Z</time>
      </trkpt>
      <trkpt lat="48.33601" lon="7.18732">
        <ele>654.036</ele>
        <time>2012-06-02T07:41:31Z</time>
      </trkpt>
      <trkpt lat="48.33594" lon="7.18722">
        <ele>653.08</ele>
        <time>2012-06-02T07:41:35Z</time>
      </trkpt>
      <trkpt lat="48.33594" lon="7.18725">
        <ele>652.757</ele>
        <time>2012-06-02T07:41:39Z</time>
      </trkpt>
      <trkpt lat="48.33593" lon="7.18727">
        <ele>652.658</ele>
        <time>2012-06-02T07:41:45Z</time>
      </trkpt>
      <trkpt lat="48.33597" lon="7.18729">
        <ele>651.7</ele>
        <time>2012-06-02T07:42:28Z</time>
      </trkpt>
      <trkpt lat="48.33598" lon="7.18728">
        <ele>652.636</ele>
        <time>2012-06-02T07:42:40Z</time>
      </trkpt>
      <trkpt lat="48.33596" lon="7.18712">
        <ele>652.566</ele>
        <time>2012-06-02T07:42:45Z</time>
      </trkpt>
      <trkpt lat="48.33594" lon="7.187">
        <ele>652.225</ele>
        <time>2012-06-02T07:42:47Z</time>
      </trkpt>
      <trkpt lat="48.33583" lon="7.18661">
        <ele>651.048</ele>
        <time>2012-06-02T07:42:52Z</time>
      </trkpt>
      <trkpt lat="48.33569" lon="7.18608">
        <ele>648.596</ele>
        <time>2012-06-02T07:42:57Z</time>
      </trkpt>
      <trkpt lat="48.33556" lon="7.18545">
        <ele>645.934</ele>
        <time>2012-06-02T07:43:02Z</time>
      </trkpt>
      <trkpt lat="48.33534" lon="7.18495">
        <ele>642.816</ele>
        <time>2012-06-02T07:43:06Z</time>
      </trkpt>
      <trkpt lat="48.33526" lon="7.18485">
        <ele>641.94</ele>
        <time>2012-06-02T07:43:07Z</time>
      </trkpt>
      <trkpt lat="48.33487" lon="7.18427">
        <ele>637.923</ele>
        <time>2012-06-02T07:43:12Z</time>
      </trkpt>
      <trkpt lat="48.33454" lon="7.18354">
        <ele>633.359</ele>
        <time>2012-06-02T07:43:17Z</time>
      </trkpt>
      <trkpt lat="48.33407" lon="7.18237">
        <ele>626.258</ele>
        <time>2012-06-02T07:43:24Z</time>
      </trkpt>
      <trkpt lat="48.334" lon="7.18219">
        <ele>625.225</ele>
        <time>2012-06-02T07:43:25Z</time>
      </trkpt>
      <trkpt lat="48.33366" lon="7.18181">
        <ele>621.705</ele>
        <time>2012-06-02T07:43:28Z</time>
      </trkpt>
      <trkpt lat="48.33337" lon="7.18178">
        <ele>618.888</ele>
        <time>2012-06-02T07:43:30Z</time>
      </trkpt>
      <trkpt lat="48.33214" lon="7.18178">
        <ele>610.821</ele>
        <time>2012-06-02T07:43:39Z</time>
      </trkpt>
      <trkpt lat="48.33155" lon="7.1818">
        <ele>610.848</ele>
        <time>2012-06-02T07:43:44Z</time>
      </trkpt>
      <trkpt lat="48.33115" lon="7.18185">
        <ele>612.419</ele>
        <time>2012-06-02T07:43:49Z</time>
      </trkpt>
      <trkpt lat="48.33095" lon="7.18202">
        <ele>617.202</ele>
        <time>2012-06-02T07:43:54Z</time>
      </trkpt>
      <trkpt lat="48.33082" lon="7.18221">
        <ele>618.24</ele>
        <time>2012-06-02T07:43:59Z</time>
      </trkpt>
      <trkpt lat="48.3308" lon="7.18227">
        <ele>618.57</ele>
        <time>2012-06-02T07:44:00Z</time>
      </trkpt>
      <trkpt lat="48.33066" lon="7.1827">
        <ele>619.918</ele>
        <time>2012-06-02T07:44:07Z</time>
      </trkpt>
      <trkpt lat="48.33062" lon="7.18301">
        <ele>620.938</ele>
        <time>2012-06-02T07:44:12Z</time>
      </trkpt>
      <trkpt lat="48.3306" lon="7.18342">
        <ele>623.689</ele>
        <time>2012-06-02T07:44:20Z</time>
      </trkpt>
      <trkpt lat="48.33062" lon="7.18373">
        <ele>626.861</ele>
        <time>2012-06-02T07:44:27Z</time>
      </trkpt>
      <trkpt lat="48.33063" lon="7.184">
        <ele>629.878</ele>
        <time>2012-06-02T07:44:33Z</time>
      </trkpt>
      <trkpt lat="48.33064" lon="7.18426">
        <ele>630.937</ele>
        <time>2012-06-02T07:44:39Z</time>
      </trkpt>
      <trkpt lat="48.33067" lon="7.1846">
        <ele>633.107</ele>
        <time>2012-06-02T07:44:47Z</time>
      </trkpt>
      <trkpt lat="48.33068" lon="7.18494">
        <ele>634.577</ele>
        <time>2012-06-02T07:44:55Z</time>
      </trkpt>
      <trkpt lat="48.3307" lon="7.18533">
        <ele>635.348</ele>
        <time>2012-06-02T07:45:04Z</time>
      </trkpt>
      <trkpt lat="48.33071" lon="7.18574">
        <ele>637.188</ele>
        <time>2012-06-02T07:45:13Z</time>
      </trkpt>
      <trkpt lat="48.33071" lon="7.18617">
        <ele>639.159</ele>
        <time>2012-06-02T07:45:22Z</time>
      </trkpt>
      <trkpt lat="48.33068" lon="7.18667">
        <ele>642.559</ele>
        <time>2012-06-02T07:45:33Z</time>
      </trkpt>
      <trkpt lat="48.33064" lon="7.18706">
        <ele>642.837</ele>
        <time>2012-06-02T07:45:42Z</time>
      </trkpt>
      <trkpt lat="48.3306" lon="7.18735">
        <ele>642.877</ele>
        <time>2012-06-02T07:45:49Z</time>
      </trkpt>
      <trkpt lat="48.33051" lon="7.18758">
        <ele>643.318</ele>
        <time>2012-06-02T07:45:55Z</time>
      </trkpt>
      <trkpt lat="48.3304" lon="7.18765">
        <ele>644.297</ele>
        <time>2012-06-02T07:45:59Z</time>
      </trkpt>
      <trkpt lat="48.33043" lon="7.18769">
        <ele>644.917</ele>
        <time>2012-06-02T07:46:03Z</time>
      </trkpt>
      <trkpt lat="48.3305" lon="7.18763">
        <ele>650.577</ele>
        <time>2012-06-02T07:54:41Z</time>
      </trkpt>
      <trkpt lat="48.3305" lon="7.18762">
        <ele>649.746</ele>
        <time>2012-06-02T07:54:43Z</time>
      </trkpt>
      <trkpt lat="48.33048" lon="7.18764">
        <ele>649.206</ele>
        <time>2012-06-02T07:54:45Z</time>
      </trkpt>
      <trkpt lat="48.33037" lon="7.18763">
        <ele>648.496</ele>
        <time>2012-06-02T07:54:49Z</time>
      </trkpt>
      <trkpt lat="48.33021" lon="7.18731">
        <ele>647.346</ele>
        <time>2012-06-02T07:54:54Z</time>
      </trkpt>
      <trkpt lat="48.33004" lon="7.18666">
        <ele>647.996</ele>
        <time>2012-06-02T07:55:01Z</time>
      </trkpt>
      <trkpt lat="48.3299" lon="7.18607">
        <ele>647.456</ele>
        <time>2012-06-02T07:55:06Z</time>
      </trkpt>
      <trkpt lat="48.32967" lon="7.18524">
        <ele>644.514</ele>
        <time>2012-06-02T07:55:12Z</time>
      </trkpt>
      <trkpt lat="48.32946" lon="7.18428">
        <ele>638.693</ele>
        <time>2012-06-02T07:55:18Z</time>
      </trkpt>
      <trkpt lat="48.32919" lon="7.18285">
        <ele>632.863</ele>
        <time>2012-06-02T07:55:27Z</time>
      </trkpt>
      <trkpt lat="48.32899" lon="7.1817">
        <ele>627.933</ele>
        <time>2012-06-02T07:55:34Z</time>
      </trkpt>
      <trkpt lat="48.32878" lon="7.18071">
        <ele>624.423</ele>
        <time>2012-06-02T07:55:40Z</time>
      </trkpt>
      <trkpt lat="48.32853" lon="7.17995">
        <ele>621.543</ele>
        <time>2012-06-02T07:55:45Z</time>
      </trkpt>
      <trkpt lat="48.3282" lon="7.17929">
        <ele>615.482</ele>
        <time>2012-06-02T07:55:50Z</time>
      </trkpt>
      <trkpt lat="48.3277" lon="7.17859">
        <ele>609.78</ele>
        <time>2012-06-02T07:55:56Z</time>
      </trkpt>
      <trkpt lat="48.32714" lon="7.17787">
        <ele>602.64</ele>
        <time>2012-06-02T07:56:02Z</time>
      </trkpt>
      <trkpt lat="48.32704" lon="7.17774">
        <ele>601.55</ele>
        <time>2012-06-02T07:56:03Z</time>
      </trkpt>
      <trkpt lat="48.32662" lon="7.17745">
        <ele>597.881</ele>
        <time>2012-06-02T07:56:07Z</time>
      </trkpt>
      <trkpt lat="48.32645" lon="7.17746">
        <ele>596.673</ele>
        <time>2012-06-02T07:56:09Z</time>
      </trkpt>
      <trkpt lat="48.32624" lon="7.17738">
        <ele>596.076</ele>
        <time>2012-06-02T07:56:13Z</time>
      </trkpt>
      <trkpt lat="48.32621" lon="7.17716">
        <ele>596.106</ele>
        <time>2012-06-02T07:56:16Z</time>
      </trkpt>
      <trkpt lat="48.32622" lon="7.17657">
        <ele>595.625</ele>
        <time>2012-06-02T07:56:22Z</time>
      </trkpt>
      <trkpt lat="48.32619" lon="7.17584">
        <ele>593.124</ele>
        <time>2012-06-02T07:56:28Z</time>
      </trkpt>
      <trkpt lat="48.32617" lon="7.17571">
        <ele>592.813</ele>
        <time>2012-06-02T07:56:29Z</time>
      </trkpt>
      <trkpt lat="48.32594" lon="7.17512">
        <ele>590.673</ele>
        <time>2012-06-02T07:56:34Z</time>
      </trkpt>
      <trkpt lat="48.32545" lon="7.17429">
        <ele>587.103</ele>
        <time>2012-06-02T07:56:42Z</time>
      </trkpt>
      <trkpt lat="48.32506" lon="7.1739">
        <ele>585.744</ele>
        <time>2012-06-02T07:56:47Z</time>
      </trkpt>
      <trkpt lat="48.32454" lon="7.17344">
        <ele>584.534</ele>
        <time>2012-06-02T07:56:53Z</time>
      </trkpt>
      <trkpt lat="48.32415" lon="7.17327">
        <ele>583.904</ele>
        <time>2012-06-02T07:56:57Z</time>
      </trkpt>
      <trkpt lat="48.32376" lon="7.17331">
        <ele>582.724</ele>
        <time>2012-06-02T07:57:01Z</time>
      </trkpt>
      <trkpt lat="48.3236" lon="7.17347">
        <ele>580.673</ele>
        <time>2012-06-02T07:57:03Z</time>
      </trkpt>
      <trkpt lat="48.32315" lon="7.17368">
        <ele>578.493</ele>
        <time>2012-06-02T07:57:08Z</time>
      </trkpt>
      <trkpt lat="48.32298" lon="7.17358">
        <ele>577.203</ele>
        <time>2012-06-02T07:57:10Z</time>
      </trkpt>
      <trkpt lat="48.32271" lon="7.1734">
        <ele>575.243</ele>
        <time>2012-06-02T07:57:13Z</time>
      </trkpt>
      <trkpt lat="48.32233" lon="7.17332">
        <ele>573.904</ele>
        <time>2012-06-02T07:57:17Z</time>
      </trkpt>
      <trkpt lat="48.32223" lon="7.17335">
        <ele>574.004</ele>
        <time>2012-06-02T07:57:18Z</time>
      </trkpt>
      <trkpt lat="48.32174" lon="7.17355">
        <ele>571.864</ele>
        <time>2012-06-02T07:57:23Z</time>
      </trkpt>
      <trkpt lat="48.32152" lon="7.17378">
        <ele>570.884</ele>
        <time>2012-06-02T07:57:26Z</time>
      </trkpt>
      <trkpt lat="48.32146" lon="7.17405">
        <ele>569.893</ele>
        <time>2012-06-02T07:57:28Z</time>
      </trkpt>
      <trkpt lat="48.32148" lon="7.1745">
        <ele>567.983</ele>
        <time>2012-06-02T07:57:31Z</time>
      </trkpt>
      <trkpt lat="48.32151" lon="7.17465">
        <ele>567.293</ele>
        <time>2012-06-02T07:57:32Z</time>
      </trkpt>
      <trkpt lat="48.32176" lon="7.1755">
        <ele>565.664</ele>
        <time>2012-06-02T07:57:38Z</time>
      </trkpt>
      <trkpt lat="48.322" lon="7.1764">
        <ele>567.195</ele>
        <time>2012-06-02T07:57:44Z</time>
      </trkpt>
      <trkpt lat="48.32229" lon="7.17704">
        <ele>568.064</ele>
        <time>2012-06-02T07:57:49Z</time>
      </trkpt>
      <trkpt lat="48.32243" lon="7.17727">
        <ele>567.873</ele>
        <time>2012-06-02T07:57:51Z</time>
      </trkpt>
      <trkpt lat="48.32253" lon="7.1777">
        <ele>566.742</ele>
        <time>2012-06-02T07:57:54Z</time>
      </trkpt>
      <trkpt lat="48.3226" lon="7.17809">
        <ele>564.852</ele>
        <time>2012-06-02T07:57:57Z</time>
      </trkpt>
      <trkpt lat="48.32291" lon="7.17837">
        <ele>563.232</ele>
        <time>2012-06-02T07:58:01Z</time>
      </trkpt>
      <trkpt lat="48.32309" lon="7.17847">
        <ele>561.56</ele>
        <time>2012-06-02T07:58:03Z</time>
      </trkpt>
      <trkpt lat="48.32318" lon="7.17895">
        <ele>557.719</ele>
        <time>2012-06-02T07:58:07Z</time>
      </trkpt>
      <trkpt lat="48.3231" lon="7.17911">
        <ele>556.777</ele>
        <time>2012-06-02T07:58:09Z</time>
      </trkpt>
      <trkpt lat="48.32292" lon="7.17925">
        <ele>555.676</ele>
        <time>2012-06-02T07:58:11Z</time>
      </trkpt>
      <trkpt lat="48.32278" lon="7.17932">
        <ele>555.02</ele>
        <time>2012-06-02T07:58:12Z</time>
      </trkpt>
      <trkpt lat="48.32229" lon="7.17968">
        <ele>555.322</ele>
        <time>2012-06-02T07:58:17Z</time>
      </trkpt>
      <trkpt lat="48.32222" lon="7.17983">
        <ele>555.253</ele>
        <time>2012-06-02T07:58:18Z</time>
      </trkpt>
      <trkpt lat="48.32193" lon="7.18081">
        <ele>554.343</ele>
        <time>2012-06-02T07:58:25Z</time>
      </trkpt>
      <trkpt lat="48.32175" lon="7.1815">
        <ele>553.282</ele>
        <time>2012-06-02T07:58:30Z</time>
      </trkpt>
      <trkpt lat="48.32161" lon="7.18216">
        <ele>551.933</ele>
        <time>2012-06-02T07:58:35Z</time>
      </trkpt>
      <trkpt lat="48.32159" lon="7.18228">
        <ele>551.944</ele>
        <time>2012-06-02T07:58:36Z</time>
      </trkpt>
      <trkpt lat="48.3214" lon="7.18254">
        <ele>551.503</ele>
        <time>2012-06-02T07:58:39Z</time>
      </trkpt>
      <trkpt lat="48.32121" lon="7.18246">
        <ele>551.034</ele>
        <time>2012-06-02T07:58:41Z</time>
      </trkpt>
      <trkpt lat="48.32113" lon="7.18223">
        <ele>549.333</ele>
        <time>2012-06-02T07:58:43Z</time>
      </trkpt>
      <trkpt lat="48.32114" lon="7.18193">
        <ele>548.843</ele>
        <time>2012-06-02T07:58:45Z</time>
      </trkpt>
      <trkpt lat="48.32129" lon="7.18067">
        <ele>546.923</ele>
        <time>2012-06-02T07:58:53Z</time>
      </trkpt>
      <trkpt lat="48.32146" lon="7.17919">
        <ele>543.853</ele>
        <time>2012-06-02T07:59:02Z</time>
      </trkpt>
      <trkpt lat="48.32147" lon="7.17902">
        <ele>543.473</ele>
        <time>2012-06-02T07:59:03Z</time>
      </trkpt>
      <trkpt lat="48.32138" lon="7.1782">
        <ele>540.732</ele>
        <time>2012-06-02T07:59:08Z</time>
      </trkpt>
      <trkpt lat="48.32123" lon="7.17772">
        <ele>539.892</ele>
        <time>2012-06-02T07:59:11Z</time>
      </trkpt>
      <trkpt lat="48.32083" lon="7.17683">
        <ele>535.852</ele>
        <time>2012-06-02T07:59:17Z</time>
      </trkpt>
      <trkpt lat="48.32054" lon="7.17626">
        <ele>533.572</ele>
        <time>2012-06-02T07:59:21Z</time>
      </trkpt>
      <trkpt lat="48.32003" lon="7.17522">
        <ele>529.223</ele>
        <time>2012-06-02T07:59:28Z</time>
      </trkpt>
      <trkpt lat="48.31937" lon="7.17392">
        <ele>523.682</ele>
        <time>2012-06-02T07:59:37Z</time>
      </trkpt>
      <trkpt lat="48.31883" lon="7.17298">
        <ele>519.212</ele>
        <time>2012-06-02T07:59:44Z</time>
      </trkpt>
      <trkpt lat="48.31864" lon="7.17275">
        <ele>518.692</ele>
        <time>2012-06-02T07:59:46Z</time>
      </trkpt>
      <trkpt lat="48.31797" lon="7.17229">
        <ele>515.992</ele>
        <time>2012-06-02T07:59:52Z</time>
      </trkpt>
      <trkpt lat="48.31708" lon="7.17176">
        <ele>511.252</ele>
        <time>2012-06-02T08:00:00Z</time>
      </trkpt>
      <trkpt lat="48.31654" lon="7.17142">
        <ele>509.573</ele>
        <time>2012-06-02T08:00:05Z</time>
      </trkpt>
      <trkpt lat="48.31596" lon="7.17135">
        <ele>507.502</ele>
        <time>2012-06-02T08:00:10Z</time>
      </trkpt>
      <trkpt lat="48.31585" lon="7.17133">
        <ele>506.891</ele>
        <time>2012-06-02T08:00:11Z</time>
      </trkpt>
      <trkpt lat="48.31552" lon="7.17115">
        <ele>505.222</ele>
        <time>2012-06-02T08:00:14Z</time>
      </trkpt>
      <trkpt lat="48.31539" lon="7.17087">
        <ele>504.653</ele>
        <time>2012-06-02T08:00:16Z</time>
      </trkpt>
      <trkpt lat="48.31537" lon="7.17053">
        <ele>503.442</ele>
        <time>2012-06-02T08:00:18Z</time>
      </trkpt>
      <trkpt lat="48.31543" lon="7.17018">
        <ele>502.402</ele>
        <time>2012-06-02T08:00:20Z</time>
      </trkpt>
      <trkpt lat="48.31551" lon="7.16982">
        <ele>501.572</ele>
        <time>2012-06-02T08:00:22Z</time>
      </trkpt>
      <trkpt lat="48.31551" lon="7.1691">
        <ele>499.332</ele>
        <time>2012-06-02T08:00:26Z</time>
      </trkpt>
      <trkpt lat="48.31548" lon="7.16892">
        <ele>498.762</ele>
        <time>2012-06-02T08:00:27Z</time>
      </trkpt>
      <trkpt lat="48.31517" lon="7.16754">
        <ele>496.402</ele>
        <time>2012-06-02T08:00:35Z</time>
      </trkpt>
      <trkpt lat="48.31486" lon="7.16617">
        <ele>496.874</ele>
        <time>2012-06-02T08:00:43Z</time>
      </trkpt>
      <trkpt lat="48.31465" lon="7.16511">
        <ele>494.023</ele>
        <time>2012-06-02T08:00:49Z</time>
      </trkpt>
      <trkpt lat="48.31457" lon="7.16417">
        <ele>491.571</ele>
        <time>2012-06-02T08:00:54Z</time>
      </trkpt>
      <trkpt lat="48.31454" lon="7.16282">
        <ele>493.653</ele>
        <time>2012-06-02T08:01:01Z</time>
      </trkpt>
      <trkpt lat="48.31451" lon="7.16113">
        <ele>488.792</ele>
        <time>2012-06-02T08:01:10Z</time>
      </trkpt>
      <trkpt lat="48.31466" lon="7.16028">
        <ele>483.863</ele>
        <time>2012-06-02T08:01:15Z</time>
      </trkpt>
      <trkpt lat="48.31475" lon="7.15895">
        <ele>478.222</ele>
        <time>2012-06-02T08:01:23Z</time>
      </trkpt>
      <trkpt lat="48.31483" lon="7.15799">
        <ele>474.931</ele>
        <time>2012-06-02T08:01:29Z</time>
      </trkpt>
      <trkpt lat="48.31501" lon="7.15741">
        <ele>471.581</ele>
        <time>2012-06-02T08:01:33Z</time>
      </trkpt>
      <trkpt lat="48.31541" lon="7.15652">
        <ele>467.653</ele>
        <time>2012-06-02T08:01:40Z</time>
      </trkpt>
      <trkpt lat="48.31571" lon="7.15607">
        <ele>465.833</ele>
        <time>2012-06-02T08:01:44Z</time>
      </trkpt>
      <trkpt lat="48.31612" lon="7.15538">
        <ele>464.333</ele>
        <time>2012-06-02T08:01:50Z</time>
      </trkpt>
      <trkpt lat="48.31626" lon="7.15481">
        <ele>462.903</ele>
        <time>2012-06-02T08:01:54Z</time>
      </trkpt>
      <trkpt lat="48.31637" lon="7.15358">
        <ele>460.833</ele>
        <time>2012-06-02T08:02:02Z</time>
      </trkpt>
      <trkpt lat="48.31648" lon="7.15249">
        <ele>459.283</ele>
        <time>2012-06-02T08:02:09Z</time>
      </trkpt>
      <trkpt lat="48.3166" lon="7.15144">
        <ele>461.254</ele>
        <time>2012-06-02T08:02:16Z</time>
      </trkpt>
      <trkpt lat="48.31663" lon="7.15114">
        <ele>461.504</ele>
        <time>2012-06-02T08:02:18Z</time>
      </trkpt>
      <trkpt lat="48.31653" lon="7.15026">
        <ele>462.424</ele>
        <time>2012-06-02T08:02:24Z</time>
      </trkpt>
      <trkpt lat="48.31627" lon="7.14908">
        <ele>461.544</ele>
        <time>2012-06-02T08:02:32Z</time>
      </trkpt>
      <trkpt lat="48.316" lon="7.1479">
        <ele>460.754</ele>
        <time>2012-06-02T08:02:40Z</time>
      </trkpt>
      <trkpt lat="48.31576" lon="7.1472">
        <ele>459.233</ele>
        <time>2012-06-02T08:02:45Z</time>
      </trkpt>
      <trkpt lat="48.31566" lon="7.14691">
        <ele>458.182</ele>
        <time>2012-06-02T08:02:47Z</time>
      </trkpt>
      <trkpt lat="48.31556" lon="7.14626">
        <ele>456.071</ele>
        <time>2012-06-02T08:02:51Z</time>
      </trkpt>
      <trkpt lat="48.31559" lon="7.14592">
        <ele>455.192</ele>
        <time>2012-06-02T08:02:53Z</time>
      </trkpt>
      <trkpt lat="48.31568" lon="7.14543">
        <ele>453.572</ele>
        <time>2012-06-02T08:02:56Z</time>
      </trkpt>
      <trkpt lat="48.31569" lon="7.14478">
        <ele>453.384</ele>
        <time>2012-06-02T08:03:00Z</time>
      </trkpt>
      <trkpt lat="48.31556" lon="7.14436">
        <ele>453.225</ele>
        <time>2012-06-02T08:03:03Z</time>
      </trkpt>
      <trkpt lat="48.31538" lon="7.14399">
        <ele>453.425</ele>
        <time>2012-06-02T08:03:06Z</time>
      </trkpt>
      <trkpt lat="48.31501" lon="7.14328">
        <ele>453.715</ele>
        <time>2012-06-02T08:03:12Z</time>
      </trkpt>
      <trkpt lat="48.31474" lon="7.14251">
        <ele>453.684</ele>
        <time>2012-06-02T08:03:18Z</time>
      </trkpt>
      <trkpt lat="48.31453" lon="7.14172">
        <ele>453.063</ele>
        <time>2012-06-02T08:03:24Z</time>
      </trkpt>
      <trkpt lat="48.31437" lon="7.14072">
        <ele>451.012</ele>
        <time>2012-06-02T08:03:31Z</time>
      </trkpt>
      <trkpt lat="48.31424" lon="7.13967">
        <ele>449.763</ele>
        <time>2012-06-02T08:03:38Z</time>
      </trkpt>
      <trkpt lat="48.31424" lon="7.13858">
        <ele>451.684</ele>
        <time>2012-06-02T08:03:45Z</time>
      </trkpt>
      <trkpt lat="48.31431" lon="7.1375">
        <ele>450.563</ele>
        <time>2012-06-02T08:03:52Z</time>
      </trkpt>
      <trkpt lat="48.3145" lon="7.13692">
        <ele>449.423</ele>
        <time>2012-06-02T08:03:56Z</time>
      </trkpt>
      <trkpt lat="48.31492" lon="7.136">
        <ele>444.132</ele>
        <time>2012-06-02T08:04:03Z</time>
      </trkpt>
      <trkpt lat="48.31507" lon="7.1354">
        <ele>441.852</ele>
        <time>2012-06-02T08:04:07Z</time>
      </trkpt>
      <trkpt lat="48.31522" lon="7.13404">
        <ele>439.653</ele>
        <time>2012-06-02T08:04:16Z</time>
      </trkpt>
      <trkpt lat="48.3153" lon="7.13309">
        <ele>440.034</ele>
        <time>2012-06-02T08:04:23Z</time>
      </trkpt>
      <trkpt lat="48.31524" lon="7.13242">
        <ele>440.495</ele>
        <time>2012-06-02T08:04:28Z</time>
      </trkpt>
      <trkpt lat="48.31516" lon="7.13153">
        <ele>444.187</ele>
        <time>2012-06-02T08:04:35Z</time>
      </trkpt>
      <trkpt lat="48.31519" lon="7.13089">
        <ele>445.696</ele>
        <time>2012-06-02T08:04:40Z</time>
      </trkpt>
      <trkpt lat="48.31532" lon="7.12975">
        <ele>444.854</ele>
        <time>2012-06-02T08:04:48Z</time>
      </trkpt>
      <trkpt lat="48.31558" lon="7.12902">
        <ele>439.451</ele>
        <time>2012-06-02T08:04:54Z</time>
      </trkpt>
      <trkpt lat="48.31597" lon="7.12799">
        <ele>434.733</ele>
        <time>2012-06-02T08:05:02Z</time>
      </trkpt>
      <trkpt lat="48.31638" lon="7.12689">
        <ele>429.8</ele>
        <time>2012-06-02T08:05:10Z</time>
      </trkpt>
      <trkpt lat="48.3168" lon="7.12595">
        <ele>425.891</ele>
        <time>2012-06-02T08:05:17Z</time>
      </trkpt>
      <trkpt lat="48.31736" lon="7.12498">
        <ele>422.552</ele>
        <time>2012-06-02T08:05:25Z</time>
      </trkpt>
      <trkpt lat="48.31781" lon="7.1243">
        <ele>423.383</ele>
        <time>2012-06-02T08:05:31Z</time>
      </trkpt>
      <trkpt lat="48.31841" lon="7.12339">
        <ele>422.614</ele>
        <time>2012-06-02T08:05:39Z</time>
      </trkpt>
      <trkpt lat="48.31858" lon="7.12282">
        <ele>422.114</ele>
        <time>2012-06-02T08:05:43Z</time>
      </trkpt>
      <trkpt lat="48.31859" lon="7.12236">
        <ele>420.203</ele>
        <time>2012-06-02T08:05:46Z</time>
      </trkpt>
      <trkpt lat="48.31849" lon="7.12192">
        <ele>419.324</ele>
        <time>2012-06-02T08:05:49Z</time>
      </trkpt>
      <trkpt lat="48.31844" lon="7.12178">
        <ele>419.304</ele>
        <time>2012-06-02T08:05:50Z</time>
      </trkpt>
      <trkpt lat="48.318" lon="7.12076">
        <ele>417.974</ele>
        <time>2012-06-02T08:05:58Z</time>
      </trkpt>
      <trkpt lat="48.31783" lon="7.12021">
        <ele>418.094</ele>
        <time>2012-06-02T08:06:02Z</time>
      </trkpt>
      <trkpt lat="48.31757" lon="7.1189">
        <ele>421.166</ele>
        <time>2012-06-02T08:06:11Z</time>
      </trkpt>
      <trkpt lat="48.31745" lon="7.11818">
        <ele>423.337</ele>
        <time>2012-06-02T08:06:16Z</time>
      </trkpt>
      <trkpt lat="48.31725" lon="7.11735">
        <ele>424.566</ele>
        <time>2012-06-02T08:06:22Z</time>
      </trkpt>
      <trkpt lat="48.31729" lon="7.11678">
        <ele>425.066</ele>
        <time>2012-06-02T08:06:26Z</time>
      </trkpt>
      <trkpt lat="48.31738" lon="7.11637">
        <ele>424.016</ele>
        <time>2012-06-02T08:06:29Z</time>
      </trkpt>
      <trkpt lat="48.31736" lon="7.11579">
        <ele>422.986</ele>
        <time>2012-06-02T08:06:33Z</time>
      </trkpt>
      <trkpt lat="48.31708" lon="7.11469">
        <ele>420.164</ele>
        <time>2012-06-02T08:06:41Z</time>
      </trkpt>
      <trkpt lat="48.31676" lon="7.11363">
        <ele>419.976</ele>
        <time>2012-06-02T08:06:49Z</time>
      </trkpt>
      <trkpt lat="48.31669" lon="7.11338">
        <ele>419.615</ele>
        <time>2012-06-02T08:06:51Z</time>
      </trkpt>
      <trkpt lat="48.31665" lon="7.11271">
        <ele>420.577</ele>
        <time>2012-06-02T08:06:56Z</time>
      </trkpt>
      <trkpt lat="48.31664" lon="7.11233">
        <ele>421.336</ele>
        <time>2012-06-02T08:06:59Z</time>
      </trkpt>
      <trkpt lat="48.31652" lon="7.11184">
        <ele>420.655</ele>
        <time>2012-06-02T08:07:03Z</time>
      </trkpt>
      <trkpt lat="48.31638" lon="7.1112">
        <ele>420.815</ele>
        <time>2012-06-02T08:07:08Z</time>
      </trkpt>
      <trkpt lat="48.31638" lon="7.11094">
        <ele>420.966</ele>
        <time>2012-06-02T08:07:10Z</time>
      </trkpt>
      <trkpt lat="48.3165" lon="7.11047">
        <ele>421.066</ele>
        <time>2012-06-02T08:07:14Z</time>
      </trkpt>
      <trkpt lat="48.31657" lon="7.11038">
        <ele>421.296</ele>
        <time>2012-06-02T08:07:15Z</time>
      </trkpt>
      <trkpt lat="48.31669" lon="7.11023">
        <ele>420.476</ele>
        <time>2012-06-02T08:07:17Z</time>
      </trkpt>
      <trkpt lat="48.31678" lon="7.10979">
        <ele>418.924</ele>
        <time>2012-06-02T08:07:21Z</time>
      </trkpt>
      <trkpt lat="48.31668" lon="7.10943">
        <ele>419.155</ele>
        <time>2012-06-02T08:07:24Z</time>
      </trkpt>
      <trkpt lat="48.3162" lon="7.10832">
        <ele>418.595</ele>
        <time>2012-06-02T08:07:34Z</time>
      </trkpt>
      <trkpt lat="48.31607" lon="7.10799">
        <ele>417.945</ele>
        <time>2012-06-02T08:07:37Z</time>
      </trkpt>
      <trkpt lat="48.31593" lon="7.10737">
        <ele>417.515</ele>
        <time>2012-06-02T08:07:42Z</time>
      </trkpt>
      <trkpt lat="48.31566" lon="7.10653">
        <ele>417.615</ele>
        <time>2012-06-02T08:07:49Z</time>
      </trkpt>
      <trkpt lat="48.31526" lon="7.1056">
        <ele>417.364</ele>
        <time>2012-06-02T08:07:57Z</time>
      </trkpt>
      <trkpt lat="48.31487" lon="7.1048">
        <ele>416.465</ele>
        <time>2012-06-02T08:08:04Z</time>
      </trkpt>
      <trkpt lat="48.31447" lon="7.10384">
        <ele>417.205</ele>
        <time>2012-06-02T08:08:12Z</time>
      </trkpt>
      <trkpt lat="48.31429" lon="7.10334">
        <ele>417.035</ele>
        <time>2012-06-02T08:08:16Z</time>
      </trkpt>
      <trkpt lat="48.31388" lon="7.10255">
        <ele>416.085</ele>
        <time>2012-06-02T08:08:23Z</time>
      </trkpt>
      <trkpt lat="48.31344" lon="7.102">
        <ele>414.453</ele>
        <time>2012-06-02T08:08:29Z</time>
      </trkpt>
      <trkpt lat="48.31336" lon="7.10191">
        <ele>414.564</ele>
        <time>2012-06-02T08:08:30Z</time>
      </trkpt>
      <trkpt lat="48.31309" lon="7.10135">
        <ele>414.505</ele>
        <time>2012-06-02T08:08:35Z</time>
      </trkpt>
      <trkpt lat="48.31294" lon="7.10057">
        <ele>414.455</ele>
        <time>2012-06-02T08:08:41Z</time>
      </trkpt>
      <trkpt lat="48.31284" lon="7.09955">
        <ele>414.585</ele>
        <time>2012-06-02T08:08:49Z</time>
      </trkpt>
      <trkpt lat="48.31269" lon="7.09858">
        <ele>414.585</ele>
        <time>2012-06-02T08:08:57Z</time>
      </trkpt>
      <trkpt lat="48.31241" lon="7.09733">
        <ele>413.283</ele>
        <time>2012-06-02T08:09:07Z</time>
      </trkpt>
      <trkpt lat="48.31233" lon="7.09663">
        <ele>412.164</ele>
        <time>2012-06-02T08:09:12Z</time>
      </trkpt>
      <trkpt lat="48.31227" lon="7.09609">
        <ele>411.725</ele>
        <time>2012-06-02T08:09:16Z</time>
      </trkpt>
      <trkpt lat="48.31199" lon="7.09522">
        <ele>411.405</ele>
        <time>2012-06-02T08:09:23Z</time>
      </trkpt>
      <trkpt lat="48.31155" lon="7.09419">
        <ele>410.925</ele>
        <time>2012-06-02T08:09:32Z</time>
      </trkpt>
      <trkpt lat="48.31114" lon="7.09346">
        <ele>410.695</ele>
        <time>2012-06-02T08:09:39Z</time>
      </trkpt>
      <trkpt lat="48.31101" lon="7.09297">
        <ele>410.745</ele>
        <time>2012-06-02T08:09:43Z</time>
      </trkpt>
      <trkpt lat="48.311" lon="7.09285">
        <ele>410.625</ele>
        <time>2012-06-02T08:09:44Z</time>
      </trkpt>
      <trkpt lat="48.31098" lon="7.09183">
        <ele>409.014</ele>
        <time>2012-06-02T08:09:52Z</time>
      </trkpt>
      <trkpt lat="48.31092" lon="7.09106">
        <ele>408.404</ele>
        <time>2012-06-02T08:09:58Z</time>
      </trkpt>
      <trkpt lat="48.31076" lon="7.09044">
        <ele>408.135</ele>
        <time>2012-06-02T08:10:03Z</time>
      </trkpt>
      <trkpt lat="48.31041" lon="7.0892">
        <ele>407.175</ele>
        <time>2012-06-02T08:10:13Z</time>
      </trkpt>
      <trkpt lat="48.31006" lon="7.08812">
        <ele>405.884</ele>
        <time>2012-06-02T08:10:22Z</time>
      </trkpt>
      <trkpt lat="48.31001" lon="7.08789">
        <ele>405.774</ele>
        <time>2012-06-02T08:10:24Z</time>
      </trkpt>
      <trkpt lat="48.30998" lon="7.08733">
        <ele>405.754</ele>
        <time>2012-06-02T08:10:29Z</time>
      </trkpt>
      <trkpt lat="48.31" lon="7.08702">
        <ele>405.955</ele>
        <time>2012-06-02T08:10:32Z</time>
      </trkpt>
      <trkpt lat="48.31009" lon="7.0867">
        <ele>407.446</ele>
        <time>2012-06-02T08:10:36Z</time>
      </trkpt>
      <trkpt lat="48.31019" lon="7.08642">
        <ele>408.005</ele>
        <time>2012-06-02T08:10:41Z</time>
      </trkpt>
      <trkpt lat="48.31011" lon="7.08621">
        <ele>408.045</ele>
        <time>2012-06-02T08:10:45Z</time>
      </trkpt>
      <trkpt lat="48.30971" lon="7.08571">
        <ele>407.955</ele>
        <time>2012-06-02T08:10:53Z</time>
      </trkpt>
      <trkpt lat="48.30927" lon="7.08512">
        <ele>407.925</ele>
        <time>2012-06-02T08:11:01Z</time>
      </trkpt>
      <trkpt lat="48.3088" lon="7.08442">
        <ele>408.886</ele>
        <time>2012-06-02T08:11:10Z</time>
      </trkpt>
      <trkpt lat="48.30852" lon="7.08385">
        <ele>409.235</ele>
        <time>2012-06-02T08:11:16Z</time>
      </trkpt>
      <trkpt lat="48.30826" lon="7.0832">
        <ele>409.715</ele>
        <time>2012-06-02T08:11:22Z</time>
      </trkpt>
      <trkpt lat="48.3082" lon="7.08272">
        <ele>409.405</ele>
        <time>2012-06-02T08:11:26Z</time>
      </trkpt>
      <trkpt lat="48.30825" lon="7.08236">
        <ele>408.803</ele>
        <time>2012-06-02T08:11:29Z</time>
      </trkpt>
      <trkpt lat="48.3084" lon="7.08204">
        <ele>408.354</ele>
        <time>2012-06-02T08:11:32Z</time>
      </trkpt>
      <trkpt lat="48.30871" lon="7.08127">
        <ele>407.904</ele>
        <time>2012-06-02T08:11:39Z</time>
      </trkpt>
      <trkpt lat="48.30884" lon="7.08052">
        <ele>407.955</ele>
        <time>2012-06-02T08:11:45Z</time>
      </trkpt>
      <trkpt lat="48.30881" lon="7.07999">
        <ele>407.234</ele>
        <time>2012-06-02T08:11:49Z</time>
      </trkpt>
      <trkpt lat="48.30857" lon="7.07956">
        <ele>407.064</ele>
        <time>2012-06-02T08:11:53Z</time>
      </trkpt>
      <trkpt lat="48.3085" lon="7.07947">
        <ele>406.844</ele>
        <time>2012-06-02T08:11:54Z</time>
      </trkpt>
      <trkpt lat="48.30786" lon="7.07873">
        <ele>406.835</ele>
        <time>2012-06-02T08:12:03Z</time>
      </trkpt>
      <trkpt lat="48.30736" lon="7.07825">
        <ele>407.796</ele>
        <time>2012-06-02T08:12:10Z</time>
      </trkpt>
      <trkpt lat="48.30682" lon="7.07767">
        <ele>409.857</ele>
        <time>2012-06-02T08:12:18Z</time>
      </trkpt>
      <trkpt lat="48.30629" lon="7.07704">
        <ele>409.734</ele>
        <time>2012-06-02T08:12:26Z</time>
      </trkpt>
      <trkpt lat="48.30572" lon="7.07633">
        <ele>407.353</ele>
        <time>2012-06-02T08:12:34Z</time>
      </trkpt>
      <trkpt lat="48.30519" lon="7.07577">
        <ele>407.275</ele>
        <time>2012-06-02T08:12:41Z</time>
      </trkpt>
      <trkpt lat="48.30503" lon="7.07565">
        <ele>407.404</ele>
        <time>2012-06-02T08:12:43Z</time>
      </trkpt>
      <trkpt lat="48.3046" lon="7.07553">
        <ele>406.884</ele>
        <time>2012-06-02T08:12:48Z</time>
      </trkpt>
      <trkpt lat="48.30388" lon="7.07553">
        <ele>406.053</ele>
        <time>2012-06-02T08:12:56Z</time>
      </trkpt>
      <trkpt lat="48.303" lon="7.07554">
        <ele>401.892</ele>
        <time>2012-06-02T08:13:05Z</time>
      </trkpt>
      <trkpt lat="48.30212" lon="7.07553">
        <ele>400.764</ele>
        <time>2012-06-02T08:13:14Z</time>
      </trkpt>
      <trkpt lat="48.30167" lon="7.0754">
        <ele>400.584</ele>
        <time>2012-06-02T08:13:19Z</time>
      </trkpt>
      <trkpt lat="48.30125" lon="7.07513">
        <ele>400.315</ele>
        <time>2012-06-02T08:13:24Z</time>
      </trkpt>
      <trkpt lat="48.30088" lon="7.07472">
        <ele>400.084</ele>
        <time>2012-06-02T08:13:29Z</time>
      </trkpt>
      <trkpt lat="48.30032" lon="7.07385">
        <ele>399.174</ele>
        <time>2012-06-02T08:13:38Z</time>
      </trkpt>
      <trkpt lat="48.29973" lon="7.0729">
        <ele>399.754</ele>
        <time>2012-06-02T08:13:48Z</time>
      </trkpt>
      <trkpt lat="48.29923" lon="7.07227">
        <ele>400.225</ele>
        <time>2012-06-02T08:13:56Z</time>
      </trkpt>
      <trkpt lat="48.29887" lon="7.07201">
        <ele>400.955</ele>
        <time>2012-06-02T08:14:01Z</time>
      </trkpt>
      <trkpt lat="48.29836" lon="7.0718">
        <ele>401.264</ele>
        <time>2012-06-02T08:14:08Z</time>
      </trkpt>
      <trkpt lat="48.29779" lon="7.07177">
        <ele>400.123</ele>
        <time>2012-06-02T08:14:15Z</time>
      </trkpt>
      <trkpt lat="48.29687" lon="7.0717">
        <ele>396.572</ele>
        <time>2012-06-02T08:14:26Z</time>
      </trkpt>
      <trkpt lat="48.29601" lon="7.0716">
        <ele>394.443</ele>
        <time>2012-06-02T08:14:36Z</time>
      </trkpt>
      <trkpt lat="48.29544" lon="7.07163">
        <ele>393.699</ele>
        <time>2012-06-02T08:14:43Z</time>
      </trkpt>
      <trkpt lat="48.29494" lon="7.07175">
        <ele>392.523</ele>
        <time>2012-06-02T08:14:49Z</time>
      </trkpt>
      <trkpt lat="48.29429" lon="7.07191">
        <ele>391.793</ele>
        <time>2012-06-02T08:14:57Z</time>
      </trkpt>
      <trkpt lat="48.29385" lon="7.07198">
        <ele>391.494</ele>
        <time>2012-06-02T08:15:03Z</time>
      </trkpt>
      <trkpt lat="48.29372" lon="7.07197">
        <ele>391.464</ele>
        <time>2012-06-02T08:15:05Z</time>
      </trkpt>
      <trkpt lat="48.29352" lon="7.07178">
        <ele>391.534</ele>
        <time>2012-06-02T08:15:09Z</time>
      </trkpt>
      <trkpt lat="48.29329" lon="7.07159">
        <ele>391.704</ele>
        <time>2012-06-02T08:15:13Z</time>
      </trkpt>
      <trkpt lat="48.2931" lon="7.0716">
        <ele>392.045</ele>
        <time>2012-06-02T08:15:16Z</time>
      </trkpt>
      <trkpt lat="48.29286" lon="7.07178">
        <ele>392.364</ele>
        <time>2012-06-02T08:15:20Z</time>
      </trkpt>
      <trkpt lat="48.29266" lon="7.07182">
        <ele>392.124</ele>
        <time>2012-06-02T08:15:23Z</time>
      </trkpt>
      <trkpt lat="48.29259" lon="7.0718">
        <ele>392.114</ele>
        <time>2012-06-02T08:15:24Z</time>
      </trkpt>
      <trkpt lat="48.29197" lon="7.07149">
        <ele>391.843</ele>
        <time>2012-06-02T08:15:33Z</time>
      </trkpt>
      <trkpt lat="48.29111" lon="7.0711">
        <ele>390.122</ele>
        <time>2012-06-02T08:15:44Z</time>
      </trkpt>
      <trkpt lat="48.2902" lon="7.07071">
        <ele>388.743</ele>
        <time>2012-06-02T08:15:55Z</time>
      </trkpt>
      <trkpt lat="48.28973" lon="7.07051">
        <ele>389.443</ele>
        <time>2012-06-02T08:16:01Z</time>
      </trkpt>
      <trkpt lat="48.28897" lon="7.07017">
        <ele>390.593</ele>
        <time>2012-06-02T08:16:11Z</time>
      </trkpt>
      <trkpt lat="48.28815" lon="7.0698">
        <ele>391.563</ele>
        <time>2012-06-02T08:16:22Z</time>
      </trkpt>
      <trkpt lat="48.28714" lon="7.06934">
        <ele>391.852</ele>
        <time>2012-06-02T08:16:35Z</time>
      </trkpt>
      <trkpt lat="48.28619" lon="7.06891">
        <ele>391.652</ele>
        <time>2012-06-02T08:16:47Z</time>
      </trkpt>
      <trkpt lat="48.28521" lon="7.06846">
        <ele>391.502</ele>
        <time>2012-06-02T08:16:59Z</time>
      </trkpt>
      <trkpt lat="48.28424" lon="7.068">
        <ele>391.422</ele>
        <time>2012-06-02T08:17:11Z</time>
      </trkpt>
      <trkpt lat="48.28343" lon="7.06751">
        <ele>391.332</ele>
        <time>2012-06-02T08:17:21Z</time>
      </trkpt>
      <trkpt lat="48.28266" lon="7.06691">
        <ele>391.332</ele>
        <time>2012-06-02T08:17:31Z</time>
      </trkpt>
      <trkpt lat="48.28186" lon="7.06615">
        <ele>391.271</ele>
        <time>2012-06-02T08:17:42Z</time>
      </trkpt>
      <trkpt lat="48.28127" lon="7.06542">
        <ele>391.322</ele>
        <time>2012-06-02T08:17:51Z</time>
      </trkpt>
      <trkpt lat="48.28058" lon="7.06444">
        <ele>391.352</ele>
        <time>2012-06-02T08:18:02Z</time>
      </trkpt>
      <trkpt lat="48.27979" lon="7.06319">
        <ele>391.282</ele>
        <time>2012-06-02T08:18:15Z</time>
      </trkpt>
      <trkpt lat="48.27912" lon="7.06214">
        <ele>392.052</ele>
        <time>2012-06-02T08:18:26Z</time>
      </trkpt>
      <trkpt lat="48.2786" lon="7.06132">
        <ele>392.802</ele>
        <time>2012-06-02T08:18:35Z</time>
      </trkpt>
      <trkpt lat="48.27789" lon="7.06021">
        <ele>393.251</ele>
        <time>2012-06-02T08:18:47Z</time>
      </trkpt>
      <trkpt lat="48.27732" lon="7.05931">
        <ele>392.941</ele>
        <time>2012-06-02T08:18:57Z</time>
      </trkpt>
      <trkpt lat="48.27675" lon="7.0584">
        <ele>392.19</ele>
        <time>2012-06-02T08:19:07Z</time>
      </trkpt>
      <trkpt lat="48.27608" lon="7.05735">
        <ele>390.52</ele>
        <time>2012-06-02T08:19:18Z</time>
      </trkpt>
      <trkpt lat="48.27545" lon="7.05635">
        <ele>388.98</ele>
        <time>2012-06-02T08:19:28Z</time>
      </trkpt>
      <trkpt lat="48.27474" lon="7.05523">
        <ele>387.83</ele>
        <time>2012-06-02T08:19:39Z</time>
      </trkpt>
      <trkpt lat="48.27406" lon="7.05407">
        <ele>387.38</ele>
        <time>2012-06-02T08:19:50Z</time>
      </trkpt>
      <trkpt lat="48.27352" lon="7.05309">
        <ele>387.215</ele>
        <time>2012-06-02T08:19:59Z</time>
      </trkpt>
      <trkpt lat="48.27315" lon="7.05238">
        <ele>386.784</ele>
        <time>2012-06-02T08:20:06Z</time>
      </trkpt>
      <trkpt lat="48.27281" lon="7.05174">
        <ele>385.985</ele>
        <time>2012-06-02T08:20:13Z</time>
      </trkpt>
      <trkpt lat="48.27224" lon="7.05066">
        <ele>384.225</ele>
        <time>2012-06-02T08:20:25Z</time>
      </trkpt>
      <trkpt lat="48.2714" lon="7.04904">
        <ele>379.978</ele>
        <time>2012-06-02T08:20:43Z</time>
      </trkpt>
      <trkpt lat="48.2709" lon="7.04809">
        <ele>377.798</ele>
        <time>2012-06-02T08:20:53Z</time>
      </trkpt>
      <trkpt lat="48.27039" lon="7.04713">
        <ele>377.168</ele>
        <time>2012-06-02T08:21:03Z</time>
      </trkpt>
      <trkpt lat="48.26995" lon="7.0463">
        <ele>377.29</ele>
        <time>2012-06-02T08:21:12Z</time>
      </trkpt>
      <trkpt lat="48.26962" lon="7.04564">
        <ele>376.199</ele>
        <time>2012-06-02T08:21:19Z</time>
      </trkpt>
      <trkpt lat="48.26915" lon="7.04469">
        <ele>373.808</ele>
        <time>2012-06-02T08:21:29Z</time>
      </trkpt>
      <trkpt lat="48.26876" lon="7.04383">
        <ele>374.209</ele>
        <time>2012-06-02T08:21:38Z</time>
      </trkpt>
      <trkpt lat="48.26866" lon="7.04353">
        <ele>374.372</ele>
        <time>2012-06-02T08:21:41Z</time>
      </trkpt>
      <trkpt lat="48.26851" lon="7.04268">
        <ele>374.438</ele>
        <time>2012-06-02T08:21:49Z</time>
      </trkpt>
      <trkpt lat="48.26838" lon="7.04213">
        <ele>372.936</ele>
        <time>2012-06-02T08:21:54Z</time>
      </trkpt>
      <trkpt lat="48.26819" lon="7.04189">
        <ele>370.928</ele>
        <time>2012-06-02T08:21:58Z</time>
      </trkpt>
      <trkpt lat="48.26817" lon="7.04192">
        <ele>368.078</ele>
        <time>2012-06-02T08:22:01Z</time>
      </trkpt>
      <trkpt lat="48.26818" lon="7.04193">
        <ele>365.899</ele>
        <time>2012-06-02T08:22:06Z</time>
      </trkpt>
      <trkpt lat="48.26806" lon="7.04198">
        <ele>366.309</ele>
        <time>2012-06-02T08:22:11Z</time>
      </trkpt>
      <trkpt lat="48.26803" lon="7.04201">
        <ele>366.29</ele>
        <time>2012-06-02T08:22:12Z</time>
      </trkpt>
      <trkpt lat="48.26796" lon="7.0421">
        <ele>369.431</ele>
        <time>2012-06-02T08:22:15Z</time>
      </trkpt>
      <trkpt lat="48.26768" lon="7.04228">
        <ele>369.681</ele>
        <time>2012-06-02T08:22:21Z</time>
      </trkpt>
      <trkpt lat="48.26759" lon="7.04237">
        <ele>369.801</ele>
        <time>2012-06-02T08:22:23Z</time>
      </trkpt>
      <trkpt lat="48.2675" lon="7.04251">
        <ele>370.531</ele>
        <time>2012-06-02T08:22:26Z</time>
      </trkpt>
      <trkpt lat="48.26741" lon="7.04267">
        <ele>370.98</ele>
        <time>2012-06-02T08:22:29Z</time>
      </trkpt>
      <trkpt lat="48.26727" lon="7.04318">
        <ele>372.541</ele>
        <time>2012-06-02T08:22:36Z</time>
      </trkpt>
      <trkpt lat="48.26712" lon="7.04369">
        <ele>373.881</ele>
        <time>2012-06-02T08:22:42Z</time>
      </trkpt>
      <trkpt lat="48.2669" lon="7.04455">
        <ele>377.452</ele>
        <time>2012-06-02T08:22:51Z</time>
      </trkpt>
      <trkpt lat="48.26665" lon="7.04538">
        <ele>380.501</ele>
        <time>2012-06-02T08:23:00Z</time>
      </trkpt>
      <trkpt lat="48.26637" lon="7.04591">
        <ele>382.882</ele>
        <time>2012-06-02T08:23:07Z</time>
      </trkpt>
      <trkpt lat="48.26603" lon="7.04639">
        <ele>383.611</ele>
        <time>2012-06-02T08:23:14Z</time>
      </trkpt>
      <trkpt lat="48.26552" lon="7.0471">
        <ele>382.749</ele>
        <time>2012-06-02T08:23:24Z</time>
      </trkpt>
      <trkpt lat="48.26512" lon="7.04766">
        <ele>383.44</ele>
        <time>2012-06-02T08:23:32Z</time>
      </trkpt>
      <trkpt lat="48.26463" lon="7.04833">
        <ele>383.06</ele>
        <time>2012-06-02T08:23:42Z</time>
      </trkpt>
      <trkpt lat="48.26421" lon="7.04893">
        <ele>383.12</ele>
        <time>2012-06-02T08:23:51Z</time>
      </trkpt>
      <trkpt lat="48.26382" lon="7.04946">
        <ele>383.959</ele>
        <time>2012-06-02T08:23:59Z</time>
      </trkpt>
      <trkpt lat="48.26352" lon="7.04987">
        <ele>382.539</ele>
        <time>2012-06-02T08:24:06Z</time>
      </trkpt>
      <trkpt lat="48.26349" lon="7.0499">
        <ele>382.359</ele>
        <time>2012-06-02T08:24:07Z</time>
      </trkpt>
      <trkpt lat="48.26343" lon="7.04995">
        <ele>382.839</ele>
        <time>2012-06-02T08:24:11Z</time>
      </trkpt>
      <trkpt lat="48.26344" lon="7.04996">
        <ele>384.94</ele>
        <time>2012-06-02T08:24:19Z</time>
      </trkpt>
      <trkpt lat="48.26345" lon="7.04993">
        <ele>388.44</ele>
        <time>2012-06-02T08:26:27Z</time>
      </trkpt>
      <trkpt lat="48.26336" lon="7.05009">
        <ele>388.208</ele>
        <time>2012-06-02T08:26:33Z</time>
      </trkpt>
      <trkpt lat="48.26319" lon="7.05025">
        <ele>389.99</ele>
        <time>2012-06-02T08:26:38Z</time>
      </trkpt>
      <trkpt lat="48.26292" lon="7.05044">
        <ele>388.749</ele>
        <time>2012-06-02T08:26:43Z</time>
      </trkpt>
      <trkpt lat="48.26245" lon="7.05079">
        <ele>385.899</ele>
        <time>2012-06-02T08:26:51Z</time>
      </trkpt>
      <trkpt lat="48.26187" lon="7.05125">
        <ele>385.599</ele>
        <time>2012-06-02T08:27:01Z</time>
      </trkpt>
      <trkpt lat="48.26122" lon="7.05176">
        <ele>385.049</ele>
        <time>2012-06-02T08:27:12Z</time>
      </trkpt>
      <trkpt lat="48.26057" lon="7.05228">
        <ele>384.049</ele>
        <time>2012-06-02T08:27:23Z</time>
      </trkpt>
      <trkpt lat="48.26006" lon="7.0527">
        <ele>385.391</ele>
        <time>2012-06-02T08:27:32Z</time>
      </trkpt>
      <trkpt lat="48.25949" lon="7.05313">
        <ele>386.74</ele>
        <time>2012-06-02T08:27:42Z</time>
      </trkpt>
      <trkpt lat="48.25891" lon="7.05359">
        <ele>387.549</ele>
        <time>2012-06-02T08:27:52Z</time>
      </trkpt>
      <trkpt lat="48.25823" lon="7.05413">
        <ele>388.919</ele>
        <time>2012-06-02T08:28:04Z</time>
      </trkpt>
      <trkpt lat="48.25763" lon="7.05462">
        <ele>390.26</ele>
        <time>2012-06-02T08:28:14Z</time>
      </trkpt>
      <trkpt lat="48.25708" lon="7.05505">
        <ele>391.604</ele>
        <time>2012-06-02T08:28:23Z</time>
      </trkpt>
      <trkpt lat="48.25657" lon="7.05546">
        <ele>392.6</ele>
        <time>2012-06-02T08:28:31Z</time>
      </trkpt>
      <trkpt lat="48.25614" lon="7.05581">
        <ele>392.999</ele>
        <time>2012-06-02T08:28:38Z</time>
      </trkpt>
      <trkpt lat="48.25562" lon="7.05622">
        <ele>393.249</ele>
        <time>2012-06-02T08:28:46Z</time>
      </trkpt>
      <trkpt lat="48.25487" lon="7.05682">
        <ele>394.018</ele>
        <time>2012-06-02T08:28:58Z</time>
      </trkpt>
      <trkpt lat="48.25429" lon="7.05729">
        <ele>395.099</ele>
        <time>2012-06-02T08:29:08Z</time>
      </trkpt>
      <trkpt lat="48.254" lon="7.05762">
        <ele>395.048</ele>
        <time>2012-06-02T08:29:14Z</time>
      </trkpt>
      <trkpt lat="48.25377" lon="7.05807">
        <ele>395.458</ele>
        <time>2012-06-02T08:29:20Z</time>
      </trkpt>
      <trkpt lat="48.25364" lon="7.05866">
        <ele>395.848</ele>
        <time>2012-06-02T08:29:26Z</time>
      </trkpt>
      <trkpt lat="48.25342" lon="7.05978">
        <ele>401.08</ele>
        <time>2012-06-02T08:29:37Z</time>
      </trkpt>
      <trkpt lat="48.25325" lon="7.06074">
        <ele>404.049</ele>
        <time>2012-06-02T08:29:47Z</time>
      </trkpt>
      <trkpt lat="48.25309" lon="7.0616">
        <ele>405.618</ele>
        <time>2012-06-02T08:29:56Z</time>
      </trkpt>
      <trkpt lat="48.25291" lon="7.06254">
        <ele>406.648</ele>
        <time>2012-06-02T08:30:06Z</time>
      </trkpt>
      <trkpt lat="48.25273" lon="7.06347">
        <ele>407.709</ele>
        <time>2012-06-02T08:30:16Z</time>
      </trkpt>
      <trkpt lat="48.25252" lon="7.06451">
        <ele>408.399</ele>
        <time>2012-06-02T08:30:27Z</time>
      </trkpt>
      <trkpt lat="48.25234" lon="7.06544">
        <ele>409.689</ele>
        <time>2012-06-02T08:30:37Z</time>
      </trkpt>
      <trkpt lat="48.25216" lon="7.06631">
        <ele>411.839</ele>
        <time>2012-06-02T08:30:47Z</time>
      </trkpt>
      <trkpt lat="48.25201" lon="7.06725">
        <ele>413.198</ele>
        <time>2012-06-02T08:30:57Z</time>
      </trkpt>
      <trkpt lat="48.25193" lon="7.06814">
        <ele>413.372</ele>
        <time>2012-06-02T08:31:06Z</time>
      </trkpt>
      <trkpt lat="48.25187" lon="7.06894">
        <ele>412.628</ele>
        <time>2012-06-02T08:31:15Z</time>
      </trkpt>
      <trkpt lat="48.25186" lon="7.0697">
        <ele>412.417</ele>
        <time>2012-06-02T08:31:23Z</time>
      </trkpt>
      <trkpt lat="48.25192" lon="7.07068">
        <ele>412.238</ele>
        <time>2012-06-02T08:31:33Z</time>
      </trkpt>
      <trkpt lat="48.25208" lon="7.07181">
        <ele>414.249</ele>
        <time>2012-06-02T08:31:45Z</time>
      </trkpt>
      <trkpt lat="48.2522" lon="7.07271">
        <ele>416.049</ele>
        <time>2012-06-02T08:31:55Z</time>
      </trkpt>
      <trkpt lat="48.25232" lon="7.07353">
        <ele>417.438</ele>
        <time>2012-06-02T08:32:04Z</time>
      </trkpt>
      <trkpt lat="48.25249" lon="7.07453">
        <ele>419.089</ele>
        <time>2012-06-02T08:32:15Z</time>
      </trkpt>
      <trkpt lat="48.25261" lon="7.07531">
        <ele>421.17</ele>
        <time>2012-06-02T08:32:24Z</time>
      </trkpt>
      <trkpt lat="48.25275" lon="7.07619">
        <ele>423.028</ele>
        <time>2012-06-02T08:32:34Z</time>
      </trkpt>
      <trkpt lat="48.25293" lon="7.07734">
        <ele>425.178</ele>
        <time>2012-06-02T08:32:46Z</time>
      </trkpt>
      <trkpt lat="48.25309" lon="7.07831">
        <ele>427.519</ele>
        <time>2012-06-02T08:32:57Z</time>
      </trkpt>
      <trkpt lat="48.25323" lon="7.07914">
        <ele>429.499</ele>
        <time>2012-06-02T08:33:07Z</time>
      </trkpt>
      <trkpt lat="48.25341" lon="7.08019">
        <ele>431.048</ele>
        <time>2012-06-02T08:33:19Z</time>
      </trkpt>
      <trkpt lat="48.25358" lon="7.08124">
        <ele>432.749</ele>
        <time>2012-06-02T08:33:31Z</time>
      </trkpt>
      <trkpt lat="48.25374" lon="7.08222">
        <ele>433.248</ele>
        <time>2012-06-02T08:33:42Z</time>
      </trkpt>
      <trkpt lat="48.25387" lon="7.08305">
        <ele>433.829</ele>
        <time>2012-06-02T08:33:52Z</time>
      </trkpt>
      <trkpt lat="48.25401" lon="7.08394">
        <ele>434.879</ele>
        <time>2012-06-02T08:34:03Z</time>
      </trkpt>
      <trkpt lat="48.25408" lon="7.08452">
        <ele>436.088</ele>
        <time>2012-06-02T08:34:11Z</time>
      </trkpt>
      <trkpt lat="48.25406" lon="7.085">
        <ele>437.88</ele>
        <time>2012-06-02T08:34:18Z</time>
      </trkpt>
      <trkpt lat="48.25405" lon="7.08514">
        <ele>438.41</ele>
        <time>2012-06-02T08:34:20Z</time>
      </trkpt>
      <trkpt lat="48.25407" lon="7.08541">
        <ele>439.38</ele>
        <time>2012-06-02T08:34:24Z</time>
      </trkpt>
      <trkpt lat="48.25421" lon="7.08606">
        <ele>441.939</ele>
        <time>2012-06-02T08:34:34Z</time>
      </trkpt>
      <trkpt lat="48.25442" lon="7.08685">
        <ele>443.489</ele>
        <time>2012-06-02T08:34:47Z</time>
      </trkpt>
      <trkpt lat="48.25455" lon="7.08748">
        <ele>446</ele>
        <time>2012-06-02T08:34:57Z</time>
      </trkpt>
      <trkpt lat="48.25464" lon="7.08799">
        <ele>449.78</ele>
        <time>2012-06-02T08:35:05Z</time>
      </trkpt>
      <trkpt lat="48.25469" lon="7.08863">
        <ele>452.199</ele>
        <time>2012-06-02T08:35:15Z</time>
      </trkpt>
      <trkpt lat="48.25471" lon="7.0892">
        <ele>454.059</ele>
        <time>2012-06-02T08:35:23Z</time>
      </trkpt>
      <trkpt lat="48.25473" lon="7.08993">
        <ele>455.829</ele>
        <time>2012-06-02T08:35:33Z</time>
      </trkpt>
      <trkpt lat="48.25474" lon="7.0908">
        <ele>457.911</ele>
        <time>2012-06-02T08:35:45Z</time>
      </trkpt>
      <trkpt lat="48.25475" lon="7.09144">
        <ele>459.319</ele>
        <time>2012-06-02T08:35:54Z</time>
      </trkpt>
      <trkpt lat="48.25476" lon="7.09221">
        <ele>460.769</ele>
        <time>2012-06-02T08:36:05Z</time>
      </trkpt>
      <trkpt lat="48.25478" lon="7.093">
        <ele>462.419</ele>
        <time>2012-06-02T08:36:16Z</time>
      </trkpt>
      <trkpt lat="48.25479" lon="7.09366">
        <ele>463.258</ele>
        <time>2012-06-02T08:36:25Z</time>
      </trkpt>
      <trkpt lat="48.2548" lon="7.09443">
        <ele>463.428</ele>
        <time>2012-06-02T08:36:34Z</time>
      </trkpt>
      <trkpt lat="48.25482" lon="7.09527">
        <ele>463.168</ele>
        <time>2012-06-02T08:36:44Z</time>
      </trkpt>
      <trkpt lat="48.25484" lon="7.09602">
        <ele>463.818</ele>
        <time>2012-06-02T08:36:53Z</time>
      </trkpt>
      <trkpt lat="48.25492" lon="7.0967">
        <ele>464.507</ele>
        <time>2012-06-02T08:37:01Z</time>
      </trkpt>
      <trkpt lat="48.25514" lon="7.09743">
        <ele>465.747</ele>
        <time>2012-06-02T08:37:10Z</time>
      </trkpt>
      <trkpt lat="48.25542" lon="7.0983">
        <ele>466.437</ele>
        <time>2012-06-02T08:37:21Z</time>
      </trkpt>
      <trkpt lat="48.25569" lon="7.09914">
        <ele>467.498</ele>
        <time>2012-06-02T08:37:32Z</time>
      </trkpt>
      <trkpt lat="48.25595" lon="7.09993">
        <ele>469.498</ele>
        <time>2012-06-02T08:37:43Z</time>
      </trkpt>
      <trkpt lat="48.25621" lon="7.10078">
        <ele>471.148</ele>
        <time>2012-06-02T08:37:55Z</time>
      </trkpt>
      <trkpt lat="48.25641" lon="7.10143">
        <ele>470.327</ele>
        <time>2012-06-02T08:38:03Z</time>
      </trkpt>
      <trkpt lat="48.25665" lon="7.10222">
        <ele>469.377</ele>
        <time>2012-06-02T08:38:12Z</time>
      </trkpt>
      <trkpt lat="48.25687" lon="7.10294">
        <ele>470.203</ele>
        <time>2012-06-02T08:38:21Z</time>
      </trkpt>
      <trkpt lat="48.25704" lon="7.10354">
        <ele>471.779</ele>
        <time>2012-06-02T08:38:29Z</time>
      </trkpt>
      <trkpt lat="48.25723" lon="7.10408">
        <ele>474.459</ele>
        <time>2012-06-02T08:38:37Z</time>
      </trkpt>
      <trkpt lat="48.25746" lon="7.10468">
        <ele>476.238</ele>
        <time>2012-06-02T08:38:46Z</time>
      </trkpt>
      <trkpt lat="48.25772" lon="7.10514">
        <ele>477.528</ele>
        <time>2012-06-02T08:38:53Z</time>
      </trkpt>
      <trkpt lat="48.25786" lon="7.10541">
        <ele>477.868</ele>
        <time>2012-06-02T08:38:57Z</time>
      </trkpt>
      <trkpt lat="48.25801" lon="7.10596">
        <ele>478.399</ele>
        <time>2012-06-02T08:39:04Z</time>
      </trkpt>
      <trkpt lat="48.25802" lon="7.10603">
        <ele>478.369</ele>
        <time>2012-06-02T08:39:05Z</time>
      </trkpt>
      <trkpt lat="48.25806" lon="7.10655">
        <ele>478.429</ele>
        <time>2012-06-02T08:39:12Z</time>
      </trkpt>
      <trkpt lat="48.2581" lon="7.10703">
        <ele>479.069</ele>
        <time>2012-06-02T08:39:20Z</time>
      </trkpt>
      <trkpt lat="48.25815" lon="7.10762">
        <ele>479.579</ele>
        <time>2012-06-02T08:39:30Z</time>
      </trkpt>
      <trkpt lat="48.25823" lon="7.10817">
        <ele>480.919</ele>
        <time>2012-06-02T08:39:40Z</time>
      </trkpt>
      <trkpt lat="48.25826" lon="7.10864">
        <ele>482.06</ele>
        <time>2012-06-02T08:39:49Z</time>
      </trkpt>
      <trkpt lat="48.2582" lon="7.10905">
        <ele>482.629</ele>
        <time>2012-06-02T08:39:58Z</time>
      </trkpt>
      <trkpt lat="48.25813" lon="7.10948">
        <ele>482.688</ele>
        <time>2012-06-02T08:40:06Z</time>
      </trkpt>
      <trkpt lat="48.25805" lon="7.11004">
        <ele>482.647</ele>
        <time>2012-06-02T08:40:14Z</time>
      </trkpt>
      <trkpt lat="48.25805" lon="7.11061">
        <ele>482.457</ele>
        <time>2012-06-02T08:40:22Z</time>
      </trkpt>
      <trkpt lat="48.25811" lon="7.11123">
        <ele>483.108</ele>
        <time>2012-06-02T08:40:31Z</time>
      </trkpt>
      <trkpt lat="48.25817" lon="7.11178">
        <ele>483.978</ele>
        <time>2012-06-02T08:40:40Z</time>
      </trkpt>
      <trkpt lat="48.25823" lon="7.11245">
        <ele>485.809</ele>
        <time>2012-06-02T08:40:51Z</time>
      </trkpt>
      <trkpt lat="48.25821" lon="7.11297">
        <ele>486.698</ele>
        <time>2012-06-02T08:40:59Z</time>
      </trkpt>
      <trkpt lat="48.25813" lon="7.11342">
        <ele>487.477</ele>
        <time>2012-06-02T08:41:06Z</time>
      </trkpt>
      <trkpt lat="48.25799" lon="7.11391">
        <ele>488.738</ele>
        <time>2012-06-02T08:41:15Z</time>
      </trkpt>
      <trkpt lat="48.25789" lon="7.11421">
        <ele>492.389</ele>
        <time>2012-06-02T08:41:22Z</time>
      </trkpt>
      <trkpt lat="48.25775" lon="7.1145">
        <ele>491.844</ele>
        <time>2012-06-02T08:41:30Z</time>
      </trkpt>
      <trkpt lat="48.25757" lon="7.11488">
        <ele>501.048</ele>
        <time>2012-06-02T08:41:38Z</time>
      </trkpt>
      <trkpt lat="48.25745" lon="7.11513">
        <ele>503.809</ele>
        <time>2012-06-02T08:41:45Z</time>
      </trkpt>
      <trkpt lat="48.25735" lon="7.11531">
        <ele>503.537</ele>
        <time>2012-06-02T08:41:50Z</time>
      </trkpt>
      <trkpt lat="48.25727" lon="7.11553">
        <ele>504.958</ele>
        <time>2012-06-02T08:41:56Z</time>
      </trkpt>
      <trkpt lat="48.25717" lon="7.11573">
        <ele>505.598</ele>
        <time>2012-06-02T08:42:02Z</time>
      </trkpt>
      <trkpt lat="48.25703" lon="7.11605">
        <ele>507.127</ele>
        <time>2012-06-02T08:42:09Z</time>
      </trkpt>
      <trkpt lat="48.25685" lon="7.11647">
        <ele>508.758</ele>
        <time>2012-06-02T08:42:17Z</time>
      </trkpt>
      <trkpt lat="48.25665" lon="7.11693">
        <ele>511.119</ele>
        <time>2012-06-02T08:42:26Z</time>
      </trkpt>
      <trkpt lat="48.25642" lon="7.11732">
        <ele>512.049</ele>
        <time>2012-06-02T08:42:35Z</time>
      </trkpt>
      <trkpt lat="48.25612" lon="7.11768">
        <ele>513.979</ele>
        <time>2012-06-02T08:42:45Z</time>
      </trkpt>
      <trkpt lat="48.2558" lon="7.11802">
        <ele>515.197</ele>
        <time>2012-06-02T08:42:56Z</time>
      </trkpt>
      <trkpt lat="48.25558" lon="7.11828">
        <ele>517.758</ele>
        <time>2012-06-02T08:43:04Z</time>
      </trkpt>
      <trkpt lat="48.25537" lon="7.11861">
        <ele>521.279</ele>
        <time>2012-06-02T08:43:13Z</time>
      </trkpt>
      <trkpt lat="48.25515" lon="7.11906">
        <ele>524.758</ele>
        <time>2012-06-02T08:43:23Z</time>
      </trkpt>
      <trkpt lat="48.25502" lon="7.11933">
        <ele>527</ele>
        <time>2012-06-02T08:43:29Z</time>
      </trkpt>
      <trkpt lat="48.25485" lon="7.11966">
        <ele>529.89</ele>
        <time>2012-06-02T08:43:37Z</time>
      </trkpt>
      <trkpt lat="48.25468" lon="7.11995">
        <ele>533.204</ele>
        <time>2012-06-02T08:43:45Z</time>
      </trkpt>
      <trkpt lat="48.25448" lon="7.12022">
        <ele>536.871</ele>
        <time>2012-06-02T08:43:54Z</time>
      </trkpt>
      <trkpt lat="48.25422" lon="7.12056">
        <ele>542.031</ele>
        <time>2012-06-02T08:44:06Z</time>
      </trkpt>
      <trkpt lat="48.25399" lon="7.12082">
        <ele>546.18</ele>
        <time>2012-06-02T08:44:16Z</time>
      </trkpt>
      <trkpt lat="48.25373" lon="7.12101">
        <ele>549.38</ele>
        <time>2012-06-02T08:44:26Z</time>
      </trkpt>
      <trkpt lat="48.25352" lon="7.12114">
        <ele>551.799</ele>
        <time>2012-06-02T08:44:34Z</time>
      </trkpt>
      <trkpt lat="48.25321" lon="7.12135">
        <ele>554.118</ele>
        <time>2012-06-02T08:44:46Z</time>
      </trkpt>
      <trkpt lat="48.25297" lon="7.12153">
        <ele>555.749</ele>
        <time>2012-06-02T08:44:56Z</time>
      </trkpt>
      <trkpt lat="48.25275" lon="7.12177">
        <ele>560.33</ele>
        <time>2012-06-02T08:45:05Z</time>
      </trkpt>
      <trkpt lat="48.25256" lon="7.1219">
        <ele>556.986</ele>
        <time>2012-06-02T08:45:13Z</time>
      </trkpt>
      <trkpt lat="48.25229" lon="7.12203">
        <ele>556.857</ele>
        <time>2012-06-02T08:45:23Z</time>
      </trkpt>
      <trkpt lat="48.25201" lon="7.12219">
        <ele>560.108</ele>
        <time>2012-06-02T08:45:34Z</time>
      </trkpt>
      <trkpt lat="48.25187" lon="7.12228">
        <ele>561.348</ele>
        <time>2012-06-02T08:45:40Z</time>
      </trkpt>
      <trkpt lat="48.25163" lon="7.1224">
        <ele>562.779</ele>
        <time>2012-06-02T08:45:50Z</time>
      </trkpt>
      <trkpt lat="48.25143" lon="7.12248">
        <ele>564.929</ele>
        <time>2012-06-02T08:45:58Z</time>
      </trkpt>
      <trkpt lat="48.25118" lon="7.12256">
        <ele>567.059</ele>
        <time>2012-06-02T08:46:08Z</time>
      </trkpt>
      <trkpt lat="48.2509" lon="7.12261">
        <ele>571.769</ele>
        <time>2012-06-02T08:46:19Z</time>
      </trkpt>
      <trkpt lat="48.25063" lon="7.12264">
        <ele>571.948</ele>
        <time>2012-06-02T08:46:30Z</time>
      </trkpt>
      <trkpt lat="48.25043" lon="7.12269">
        <ele>572.968</ele>
        <time>2012-06-02T08:46:38Z</time>
      </trkpt>
      <trkpt lat="48.25022" lon="7.12277">
        <ele>576.51</ele>
        <time>2012-06-02T08:46:46Z</time>
      </trkpt>
      <trkpt lat="48.24995" lon="7.12281">
        <ele>581.571</ele>
        <time>2012-06-02T08:46:56Z</time>
      </trkpt>
      <trkpt lat="48.24968" lon="7.12277">
        <ele>579.937</ele>
        <time>2012-06-02T08:47:06Z</time>
      </trkpt>
      <trkpt lat="48.24939" lon="7.12277">
        <ele>581.597</ele>
        <time>2012-06-02T08:47:17Z</time>
      </trkpt>
      <trkpt lat="48.24921" lon="7.12284">
        <ele>583.617</ele>
        <time>2012-06-02T08:47:24Z</time>
      </trkpt>
      <trkpt lat="48.24901" lon="7.12292">
        <ele>584.507</ele>
        <time>2012-06-02T08:47:32Z</time>
      </trkpt>
      <trkpt lat="48.24885" lon="7.12299">
        <ele>585.508</ele>
        <time>2012-06-02T08:47:39Z</time>
      </trkpt>
      <trkpt lat="48.24867" lon="7.12303">
        <ele>586.938</ele>
        <time>2012-06-02T08:47:46Z</time>
      </trkpt>
      <trkpt lat="48.24842" lon="7.12309">
        <ele>588.489</ele>
        <time>2012-06-02T08:47:55Z</time>
      </trkpt>
      <trkpt lat="48.2482" lon="7.12308">
        <ele>590.029</ele>
        <time>2012-06-02T08:48:03Z</time>
      </trkpt>
      <trkpt lat="48.24798" lon="7.12303">
        <ele>596.939</ele>
        <time>2012-06-02T08:48:12Z</time>
      </trkpt>
      <trkpt lat="48.24775" lon="7.12295">
        <ele>598.587</ele>
        <time>2012-06-02T08:48:21Z</time>
      </trkpt>
      <trkpt lat="48.24755" lon="7.12289">
        <ele>599.017</ele>
        <time>2012-06-02T08:48:29Z</time>
      </trkpt>
      <trkpt lat="48.2474" lon="7.12286">
        <ele>600.428</ele>
        <time>2012-06-02T08:48:35Z</time>
      </trkpt>
      <trkpt lat="48.24715" lon="7.1228">
        <ele>604.53</ele>
        <time>2012-06-02T08:48:45Z</time>
      </trkpt>
      <trkpt lat="48.24699" lon="7.12276">
        <ele>605.657</ele>
        <time>2012-06-02T08:48:52Z</time>
      </trkpt>
      <trkpt lat="48.24686" lon="7.12273">
        <ele>606.127</ele>
        <time>2012-06-02T08:48:59Z</time>
      </trkpt>
      <trkpt lat="48.24675" lon="7.12279">
        <ele>609.437</ele>
        <time>2012-06-02T08:49:05Z</time>
      </trkpt>
      <trkpt lat="48.2467" lon="7.12284">
        <ele>611.177</ele>
        <time>2012-06-02T08:49:08Z</time>
      </trkpt>
      <trkpt lat="48.24664" lon="7.12303">
        <ele>612.887</ele>
        <time>2012-06-02T08:49:14Z</time>
      </trkpt>
      <trkpt lat="48.24667" lon="7.12318">
        <ele>613.217</ele>
        <time>2012-06-02T08:49:17Z</time>
      </trkpt>
      <trkpt lat="48.24683" lon="7.12359">
        <ele>621.258</ele>
        <time>2012-06-02T08:49:26Z</time>
      </trkpt>
      <trkpt lat="48.247" lon="7.12392">
        <ele>624.679</ele>
        <time>2012-06-02T08:49:35Z</time>
      </trkpt>
      <trkpt lat="48.24719" lon="7.12431">
        <ele>627.538</ele>
        <time>2012-06-02T08:49:46Z</time>
      </trkpt>
      <trkpt lat="48.24736" lon="7.12461">
        <ele>627.536</ele>
        <time>2012-06-02T08:49:55Z</time>
      </trkpt>
      <trkpt lat="48.24753" lon="7.12473">
        <ele>627.597</ele>
        <time>2012-06-02T08:50:01Z</time>
      </trkpt>
      <trkpt lat="48.24778" lon="7.12474">
        <ele>628.418</ele>
        <time>2012-06-02T08:50:09Z</time>
      </trkpt>
      <trkpt lat="48.248" lon="7.12472">
        <ele>631.268</ele>
        <time>2012-06-02T08:50:16Z</time>
      </trkpt>
      <trkpt lat="48.2482" lon="7.12468">
        <ele>633.717</ele>
        <time>2012-06-02T08:50:23Z</time>
      </trkpt>
      <trkpt lat="48.24844" lon="7.12466">
        <ele>637.057</ele>
        <time>2012-06-02T08:50:30Z</time>
      </trkpt>
      <trkpt lat="48.2487" lon="7.12466">
        <ele>640.096</ele>
        <time>2012-06-02T08:50:38Z</time>
      </trkpt>
      <trkpt lat="48.24886" lon="7.12466">
        <ele>641.457</ele>
        <time>2012-06-02T08:50:44Z</time>
      </trkpt>
      <trkpt lat="48.24906" lon="7.1247">
        <ele>640.514</ele>
        <time>2012-06-02T08:50:51Z</time>
      </trkpt>
      <trkpt lat="48.24923" lon="7.12473">
        <ele>641.193</ele>
        <time>2012-06-02T08:50:57Z</time>
      </trkpt>
      <trkpt lat="48.24949" lon="7.12482">
        <ele>636.55</ele>
        <time>2012-06-02T08:51:06Z</time>
      </trkpt>
      <trkpt lat="48.24971" lon="7.12487">
        <ele>634.431</ele>
        <time>2012-06-02T08:51:14Z</time>
      </trkpt>
      <trkpt lat="48.24988" lon="7.12497">
        <ele>637.651</ele>
        <time>2012-06-02T08:51:21Z</time>
      </trkpt>
      <trkpt lat="48.25008" lon="7.12506">
        <ele>641.923</ele>
        <time>2012-06-02T08:51:29Z</time>
      </trkpt>
      <trkpt lat="48.2502" lon="7.12513">
        <ele>643.724</ele>
        <time>2012-06-02T08:51:34Z</time>
      </trkpt>
      <trkpt lat="48.25045" lon="7.12529">
        <ele>646.504</ele>
        <time>2012-06-02T08:51:43Z</time>
      </trkpt>
      <trkpt lat="48.25064" lon="7.12545">
        <ele>650.277</ele>
        <time>2012-06-02T08:51:51Z</time>
      </trkpt>
      <trkpt lat="48.2507" lon="7.12565">
        <ele>653.334</ele>
        <time>2012-06-02T08:51:57Z</time>
      </trkpt>
      <trkpt lat="48.25069" lon="7.12589">
        <ele>654.557</ele>
        <time>2012-06-02T08:52:03Z</time>
      </trkpt>
      <trkpt lat="48.25062" lon="7.12623">
        <ele>655.707</ele>
        <time>2012-06-02T08:52:13Z</time>
      </trkpt>
      <trkpt lat="48.25059" lon="7.12653">
        <ele>656.507</ele>
        <time>2012-06-02T08:52:21Z</time>
      </trkpt>
      <trkpt lat="48.25065" lon="7.12676">
        <ele>660.879</ele>
        <time>2012-06-02T08:52:27Z</time>
      </trkpt>
      <trkpt lat="48.25074" lon="7.12691">
        <ele>665.279</ele>
        <time>2012-06-02T08:52:33Z</time>
      </trkpt>
      <trkpt lat="48.2509" lon="7.12693">
        <ele>667.269</ele>
        <time>2012-06-02T08:52:39Z</time>
      </trkpt>
      <trkpt lat="48.25109" lon="7.12693">
        <ele>669.879</ele>
        <time>2012-06-02T08:52:45Z</time>
      </trkpt>
      <trkpt lat="48.25129" lon="7.12696">
        <ele>672.939</ele>
        <time>2012-06-02T08:52:51Z</time>
      </trkpt>
      <trkpt lat="48.25146" lon="7.12706">
        <ele>674.508</ele>
        <time>2012-06-02T08:52:57Z</time>
      </trkpt>
      <trkpt lat="48.25161" lon="7.12733">
        <ele>676.169</ele>
        <time>2012-06-02T08:53:05Z</time>
      </trkpt>
      <trkpt lat="48.25176" lon="7.12772">
        <ele>678.278</ele>
        <time>2012-06-02T08:53:15Z</time>
      </trkpt>
      <trkpt lat="48.25191" lon="7.12804">
        <ele>679.748</ele>
        <time>2012-06-02T08:53:24Z</time>
      </trkpt>
      <trkpt lat="48.25207" lon="7.12836">
        <ele>681.337</ele>
        <time>2012-06-02T08:53:33Z</time>
      </trkpt>
      <trkpt lat="48.25223" lon="7.12863">
        <ele>683.408</ele>
        <time>2012-06-02T08:53:41Z</time>
      </trkpt>
      <trkpt lat="48.25237" lon="7.12877">
        <ele>684.458</ele>
        <time>2012-06-02T08:53:47Z</time>
      </trkpt>
      <trkpt lat="48.25258" lon="7.12893">
        <ele>686.018</ele>
        <time>2012-06-02T08:53:55Z</time>
      </trkpt>
      <trkpt lat="48.25267" lon="7.12907">
        <ele>687.398</ele>
        <time>2012-06-02T08:54:00Z</time>
      </trkpt>
      <trkpt lat="48.25262" lon="7.12915">
        <ele>687.568</ele>
        <time>2012-06-02T08:54:04Z</time>
      </trkpt>
      <trkpt lat="48.25252" lon="7.12912">
        <ele>687.898</ele>
        <time>2012-06-02T08:54:07Z</time>
      </trkpt>
      <trkpt lat="48.25224" lon="7.12889">
        <ele>690.389</ele>
        <time>2012-06-02T08:54:16Z</time>
      </trkpt>
      <trkpt lat="48.252" lon="7.12869">
        <ele>693.3</ele>
        <time>2012-06-02T08:54:25Z</time>
      </trkpt>
      <trkpt lat="48.25178" lon="7.12848">
        <ele>696.88</ele>
        <time>2012-06-02T08:54:34Z</time>
      </trkpt>
      <trkpt lat="48.25158" lon="7.12827">
        <ele>700.149</ele>
        <time>2012-06-02T08:54:43Z</time>
      </trkpt>
      <trkpt lat="48.2514" lon="7.12812">
        <ele>699.306</ele>
        <time>2012-06-02T08:54:51Z</time>
      </trkpt>
      <trkpt lat="48.2512" lon="7.12807">
        <ele>697.616</ele>
        <time>2012-06-02T08:54:59Z</time>
      </trkpt>
      <trkpt lat="48.25094" lon="7.12804">
        <ele>696.57</ele>
        <time>2012-06-02T08:55:08Z</time>
      </trkpt>
      <trkpt lat="48.25073" lon="7.12804">
        <ele>696.557</ele>
        <time>2012-06-02T08:55:16Z</time>
      </trkpt>
      <trkpt lat="48.25049" lon="7.12804">
        <ele>699.429</ele>
        <time>2012-06-02T08:55:25Z</time>
      </trkpt>
      <trkpt lat="48.25025" lon="7.12797">
        <ele>700.899</ele>
        <time>2012-06-02T08:55:34Z</time>
      </trkpt>
      <trkpt lat="48.25014" lon="7.12789">
        <ele>703.779</ele>
        <time>2012-06-02T08:55:39Z</time>
      </trkpt>
      <trkpt lat="48.24992" lon="7.12768">
        <ele>704.808</ele>
        <time>2012-06-02T08:55:47Z</time>
      </trkpt>
      <trkpt lat="48.24969" lon="7.12746">
        <ele>708.95</ele>
        <time>2012-06-02T08:55:55Z</time>
      </trkpt>
      <trkpt lat="48.24949" lon="7.12733">
        <ele>710.338</ele>
        <time>2012-06-02T08:56:02Z</time>
      </trkpt>
      <trkpt lat="48.24926" lon="7.12729">
        <ele>709.188</ele>
        <time>2012-06-02T08:56:10Z</time>
      </trkpt>
      <trkpt lat="48.24906" lon="7.12736">
        <ele>708.558</ele>
        <time>2012-06-02T08:56:17Z</time>
      </trkpt>
      <trkpt lat="48.24882" lon="7.12751">
        <ele>708.328</ele>
        <time>2012-06-02T08:56:26Z</time>
      </trkpt>
      <trkpt lat="48.2486" lon="7.1277">
        <ele>710.088</ele>
        <time>2012-06-02T08:56:35Z</time>
      </trkpt>
      <trkpt lat="48.24838" lon="7.12791">
        <ele>714.629</ele>
        <time>2012-06-02T08:56:44Z</time>
      </trkpt>
      <trkpt lat="48.24814" lon="7.12813">
        <ele>719.419</ele>
        <time>2012-06-02T08:56:54Z</time>
      </trkpt>
      <trkpt lat="48.2479" lon="7.12835">
        <ele>721.028</ele>
        <time>2012-06-02T08:57:04Z</time>
      </trkpt>
      <trkpt lat="48.24766" lon="7.12858">
        <ele>724.638</ele>
        <time>2012-06-02T08:57:14Z</time>
      </trkpt>
      <trkpt lat="48.24742" lon="7.12882">
        <ele>726.548</ele>
        <time>2012-06-02T08:57:25Z</time>
      </trkpt>
      <trkpt lat="48.24724" lon="7.12897">
        <ele>728.208</ele>
        <time>2012-06-02T08:57:33Z</time>
      </trkpt>
      <trkpt lat="48.24701" lon="7.1292">
        <ele>730.738</ele>
        <time>2012-06-02T08:57:44Z</time>
      </trkpt>
      <trkpt lat="48.24689" lon="7.12931">
        <ele>730.398</ele>
        <time>2012-06-02T08:57:51Z</time>
      </trkpt>
      <trkpt lat="48.24678" lon="7.12943">
        <ele>730.037</ele>
        <time>2012-06-02T08:57:57Z</time>
      </trkpt>
      <trkpt lat="48.24666" lon="7.12955">
        <ele>730.988</ele>
        <time>2012-06-02T08:58:02Z</time>
      </trkpt>
      <trkpt lat="48.24647" lon="7.12976">
        <ele>733.989</ele>
        <time>2012-06-02T08:58:11Z</time>
      </trkpt>
      <trkpt lat="48.24626" lon="7.12998">
        <ele>737.519</ele>
        <time>2012-06-02T08:58:21Z</time>
      </trkpt>
      <trkpt lat="48.24611" lon="7.13012">
        <ele>739.458</ele>
        <time>2012-06-02T08:58:29Z</time>
      </trkpt>
      <trkpt lat="48.24593" lon="7.1303">
        <ele>741.227</ele>
        <time>2012-06-02T08:58:38Z</time>
      </trkpt>
      <trkpt lat="48.24573" lon="7.1305">
        <ele>743.539</ele>
        <time>2012-06-02T08:58:48Z</time>
      </trkpt>
      <trkpt lat="48.2455" lon="7.1307">
        <ele>747.078</ele>
        <time>2012-06-02T08:58:59Z</time>
      </trkpt>
      <trkpt lat="48.24531" lon="7.13084">
        <ele>749.398</ele>
        <time>2012-06-02T08:59:08Z</time>
      </trkpt>
      <trkpt lat="48.24511" lon="7.13094">
        <ele>751.548</ele>
        <time>2012-06-02T08:59:17Z</time>
      </trkpt>
      <trkpt lat="48.24493" lon="7.13104">
        <ele>753.868</ele>
        <time>2012-06-02T08:59:26Z</time>
      </trkpt>
      <trkpt lat="48.24466" lon="7.13115">
        <ele>757.008</ele>
        <time>2012-06-02T08:59:38Z</time>
      </trkpt>
      <trkpt lat="48.24446" lon="7.13124">
        <ele>759.298</ele>
        <time>2012-06-02T08:59:47Z</time>
      </trkpt>
      <trkpt lat="48.24424" lon="7.13134">
        <ele>762.308</ele>
        <time>2012-06-02T08:59:57Z</time>
      </trkpt>
      <trkpt lat="48.24405" lon="7.13141">
        <ele>763.858</ele>
        <time>2012-06-02T09:00:06Z</time>
      </trkpt>
      <trkpt lat="48.2439" lon="7.13147">
        <ele>765.118</ele>
        <time>2012-06-02T09:00:14Z</time>
      </trkpt>
      <trkpt lat="48.2437" lon="7.13159">
        <ele>767.327</ele>
        <time>2012-06-02T09:00:24Z</time>
      </trkpt>
      <trkpt lat="48.24357" lon="7.13173">
        <ele>769.207</ele>
        <time>2012-06-02T09:00:31Z</time>
      </trkpt>
      <trkpt lat="48.24343" lon="7.13198">
        <ele>770.137</ele>
        <time>2012-06-02T09:00:40Z</time>
      </trkpt>
      <trkpt lat="48.24336" lon="7.13224">
        <ele>770.637</ele>
        <time>2012-06-02T09:00:47Z</time>
      </trkpt>
      <trkpt lat="48.24335" lon="7.1326">
        <ele>770.215</ele>
        <time>2012-06-02T09:00:56Z</time>
      </trkpt>
      <trkpt lat="48.24339" lon="7.13297">
        <ele>770.894</ele>
        <time>2012-06-02T09:01:03Z</time>
      </trkpt>
      <trkpt lat="48.24341" lon="7.13318">
        <ele>771.193</ele>
        <time>2012-06-02T09:01:06Z</time>
      </trkpt>
      <trkpt lat="48.24348" lon="7.13353">
        <ele>770.831</ele>
        <time>2012-06-02T09:01:10Z</time>
      </trkpt>
      <trkpt lat="48.24363" lon="7.13412">
        <ele>767.987</ele>
        <time>2012-06-02T09:01:15Z</time>
      </trkpt>
      <trkpt lat="48.2437" lon="7.13475">
        <ele>763.845</ele>
        <time>2012-06-02T09:01:19Z</time>
      </trkpt>
      <trkpt lat="48.24368" lon="7.13528">
        <ele>760.164</ele>
        <time>2012-06-02T09:01:22Z</time>
      </trkpt>
      <trkpt lat="48.24382" lon="7.13605">
        <ele>754.631</ele>
        <time>2012-06-02T09:01:26Z</time>
      </trkpt>
      <trkpt lat="48.24408" lon="7.13653">
        <ele>749.638</ele>
        <time>2012-06-02T09:01:29Z</time>
      </trkpt>
      <trkpt lat="48.24446" lon="7.13687">
        <ele>744.448</ele>
        <time>2012-06-02T09:01:32Z</time>
      </trkpt>
      <trkpt lat="48.24484" lon="7.13718">
        <ele>740.98</ele>
        <time>2012-06-02T09:01:35Z</time>
      </trkpt>
      <trkpt lat="48.24535" lon="7.13793">
        <ele>735.123</ele>
        <time>2012-06-02T09:01:40Z</time>
      </trkpt>
      <trkpt lat="48.24599" lon="7.13899">
        <ele>727.202</ele>
        <time>2012-06-02T09:01:47Z</time>
      </trkpt>
      <trkpt lat="48.24615" lon="7.13932">
        <ele>724.692</ele>
        <time>2012-06-02T09:01:49Z</time>
      </trkpt>
      <trkpt lat="48.24634" lon="7.14008">
        <ele>718.411</ele>
        <time>2012-06-02T09:01:53Z</time>
      </trkpt>
      <trkpt lat="48.24651" lon="7.14131">
        <ele>710.659</ele>
        <time>2012-06-02T09:01:59Z</time>
      </trkpt>
      <trkpt lat="48.24667" lon="7.14233">
        <ele>704.07</ele>
        <time>2012-06-02T09:02:04Z</time>
      </trkpt>
      <trkpt lat="48.2466" lon="7.1434">
        <ele>696.999</ele>
        <time>2012-06-02T09:02:09Z</time>
      </trkpt>
      <trkpt lat="48.24651" lon="7.14427">
        <ele>691.591</ele>
        <time>2012-06-02T09:02:13Z</time>
      </trkpt>
      <trkpt lat="48.24669" lon="7.14499">
        <ele>687.19</ele>
        <time>2012-06-02T09:02:17Z</time>
      </trkpt>
      <trkpt lat="48.2471" lon="7.1451">
        <ele>686.523</ele>
        <time>2012-06-02T09:02:20Z</time>
      </trkpt>
      <trkpt lat="48.24742" lon="7.14504">
        <ele>686.373</ele>
        <time>2012-06-02T09:02:22Z</time>
      </trkpt>
      <trkpt lat="48.24754" lon="7.14502">
        <ele>685.804</ele>
        <time>2012-06-02T09:02:23Z</time>
      </trkpt>
      <trkpt lat="48.24813" lon="7.14533">
        <ele>680.691</ele>
        <time>2012-06-02T09:02:28Z</time>
      </trkpt>
      <trkpt lat="48.24822" lon="7.14574">
        <ele>678.671</ele>
        <time>2012-06-02T09:02:30Z</time>
      </trkpt>
      <trkpt lat="48.24824" lon="7.14616">
        <ele>676.604</ele>
        <time>2012-06-02T09:02:32Z</time>
      </trkpt>
      <trkpt lat="48.24822" lon="7.14637">
        <ele>674.752</ele>
        <time>2012-06-02T09:02:33Z</time>
      </trkpt>
      <trkpt lat="48.24814" lon="7.14702">
        <ele>669.53</ele>
        <time>2012-06-02T09:02:36Z</time>
      </trkpt>
      <trkpt lat="48.24787" lon="7.14782">
        <ele>663.682</ele>
        <time>2012-06-02T09:02:40Z</time>
      </trkpt>
      <trkpt lat="48.24756" lon="7.14838">
        <ele>658.699</ele>
        <time>2012-06-02T09:02:43Z</time>
      </trkpt>
      <trkpt lat="48.24696" lon="7.14949">
        <ele>649.378</ele>
        <time>2012-06-02T09:02:49Z</time>
      </trkpt>
      <trkpt lat="48.24669" lon="7.15006">
        <ele>644.107</ele>
        <time>2012-06-02T09:02:52Z</time>
      </trkpt>
      <trkpt lat="48.24663" lon="7.15076">
        <ele>638.477</ele>
        <time>2012-06-02T09:02:55Z</time>
      </trkpt>
      <trkpt lat="48.24661" lon="7.15203">
        <ele>631.9</ele>
        <time>2012-06-02T09:03:00Z</time>
      </trkpt>
      <trkpt lat="48.24648" lon="7.15352">
        <ele>624</ele>
        <time>2012-06-02T09:03:06Z</time>
      </trkpt>
      <trkpt lat="48.24644" lon="7.15454">
        <ele>619.39</ele>
        <time>2012-06-02T09:03:10Z</time>
      </trkpt>
      <trkpt lat="48.24649" lon="7.15582">
        <ele>611.367</ele>
        <time>2012-06-02T09:03:15Z</time>
      </trkpt>
      <trkpt lat="48.24668" lon="7.1574">
        <ele>603.2</ele>
        <time>2012-06-02T09:03:21Z</time>
      </trkpt>
      <trkpt lat="48.24673" lon="7.15814">
        <ele>598.639</ele>
        <time>2012-06-02T09:03:24Z</time>
      </trkpt>
      <trkpt lat="48.247" lon="7.15877">
        <ele>592.768</ele>
        <time>2012-06-02T09:03:28Z</time>
      </trkpt>
      <trkpt lat="48.24727" lon="7.15874">
        <ele>590.348</ele>
        <time>2012-06-02T09:03:30Z</time>
      </trkpt>
      <trkpt lat="48.24752" lon="7.15837">
        <ele>586.12</ele>
        <time>2012-06-02T09:03:32Z</time>
      </trkpt>
      <trkpt lat="48.24772" lon="7.15773">
        <ele>586.884</ele>
        <time>2012-06-02T09:03:35Z</time>
      </trkpt>
      <trkpt lat="48.24776" lon="7.15736">
        <ele>586.344</ele>
        <time>2012-06-02T09:03:37Z</time>
      </trkpt>
      <trkpt lat="48.24813" lon="7.15703">
        <ele>586.387</ele>
        <time>2012-06-02T09:03:40Z</time>
      </trkpt>
      <trkpt lat="48.24859" lon="7.15669">
        <ele>582.394</ele>
        <time>2012-06-02T09:03:43Z</time>
      </trkpt>
      <trkpt lat="48.24946" lon="7.15605">
        <ele>574.501</ele>
        <time>2012-06-02T09:03:49Z</time>
      </trkpt>
      <trkpt lat="48.25023" lon="7.15571">
        <ele>566.428</ele>
        <time>2012-06-02T09:03:54Z</time>
      </trkpt>
      <trkpt lat="48.25131" lon="7.15529">
        <ele>556.339</ele>
        <time>2012-06-02T09:04:01Z</time>
      </trkpt>
      <trkpt lat="48.25157" lon="7.15517">
        <ele>553.039</ele>
        <time>2012-06-02T09:04:03Z</time>
      </trkpt>
      <trkpt lat="48.25188" lon="7.15522">
        <ele>547.567</ele>
        <time>2012-06-02T09:04:06Z</time>
      </trkpt>
      <trkpt lat="48.25199" lon="7.15549">
        <ele>542.246</ele>
        <time>2012-06-02T09:04:08Z</time>
      </trkpt>
      <trkpt lat="48.25195" lon="7.15581">
        <ele>536.463</ele>
        <time>2012-06-02T09:04:10Z</time>
      </trkpt>
      <trkpt lat="48.25179" lon="7.15607">
        <ele>534.216</ele>
        <time>2012-06-02T09:04:12Z</time>
      </trkpt>
      <trkpt lat="48.25159" lon="7.15632">
        <ele>532.581</ele>
        <time>2012-06-02T09:04:14Z</time>
      </trkpt>
      <trkpt lat="48.25102" lon="7.15699">
        <ele>526.772</ele>
        <time>2012-06-02T09:04:19Z</time>
      </trkpt>
      <trkpt lat="48.25057" lon="7.15762">
        <ele>520.719</ele>
        <time>2012-06-02T09:04:23Z</time>
      </trkpt>
      <trkpt lat="48.24971" lon="7.15875">
        <ele>509.747</ele>
        <time>2012-06-02T09:04:30Z</time>
      </trkpt>
      <trkpt lat="48.24942" lon="7.15933">
        <ele>505.681</ele>
        <time>2012-06-02T09:04:33Z</time>
      </trkpt>
      <trkpt lat="48.24903" lon="7.16013">
        <ele>499.86</ele>
        <time>2012-06-02T09:04:37Z</time>
      </trkpt>
      <trkpt lat="48.2488" lon="7.16052">
        <ele>496.942</ele>
        <time>2012-06-02T09:04:39Z</time>
      </trkpt>
      <trkpt lat="48.24826" lon="7.1611">
        <ele>490.24</ele>
        <time>2012-06-02T09:04:43Z</time>
      </trkpt>
      <trkpt lat="48.24809" lon="7.16117">
        <ele>488.711</ele>
        <time>2012-06-02T09:04:44Z</time>
      </trkpt>
      <trkpt lat="48.24729" lon="7.16162">
        <ele>480.1</ele>
        <time>2012-06-02T09:04:49Z</time>
      </trkpt>
      <trkpt lat="48.24608" lon="7.16262">
        <ele>465.758</ele>
        <time>2012-06-02T09:04:57Z</time>
      </trkpt>
      <trkpt lat="48.24592" lon="7.16272">
        <ele>463.918</ele>
        <time>2012-06-02T09:04:58Z</time>
      </trkpt>
      <trkpt lat="48.24542" lon="7.16282">
        <ele>458.016</ele>
        <time>2012-06-02T09:05:01Z</time>
      </trkpt>
      <trkpt lat="48.24525" lon="7.1628">
        <ele>455.875</ele>
        <time>2012-06-02T09:05:02Z</time>
      </trkpt>
      <trkpt lat="48.24495" lon="7.16274">
        <ele>451.825</ele>
        <time>2012-06-02T09:05:04Z</time>
      </trkpt>
      <trkpt lat="48.24462" lon="7.16246">
        <ele>447.606</ele>
        <time>2012-06-02T09:05:07Z</time>
      </trkpt>
      <trkpt lat="48.2443" lon="7.16196">
        <ele>445.38</ele>
        <time>2012-06-02T09:05:10Z</time>
      </trkpt>
      <trkpt lat="48.2438" lon="7.16168">
        <ele>440.972</ele>
        <time>2012-06-02T09:05:14Z</time>
      </trkpt>
      <trkpt lat="48.24357" lon="7.16185">
        <ele>438.441</ele>
        <time>2012-06-02T09:05:16Z</time>
      </trkpt>
      <trkpt lat="48.24342" lon="7.16209">
        <ele>437.113</ele>
        <time>2012-06-02T09:05:18Z</time>
      </trkpt>
      <trkpt lat="48.24331" lon="7.16226">
        <ele>436.574</ele>
        <time>2012-06-02T09:05:20Z</time>
      </trkpt>
      <trkpt lat="48.24325" lon="7.16236">
        <ele>434.946</ele>
        <time>2012-06-02T09:05:24Z</time>
      </trkpt>
      <trkpt lat="48.24324" lon="7.16242">
        <ele>429.309</ele>
        <time>2012-06-02T09:05:34Z</time>
      </trkpt>
      <trkpt lat="48.24311" lon="7.16276">
        <ele>432.432</ele>
        <time>2012-06-02T09:05:38Z</time>
      </trkpt>
      <trkpt lat="48.24302" lon="7.16331">
        <ele>431.589</ele>
        <time>2012-06-02T09:05:42Z</time>
      </trkpt>
      <trkpt lat="48.24291" lon="7.1642">
        <ele>428.887</ele>
        <time>2012-06-02T09:05:47Z</time>
      </trkpt>
      <trkpt lat="48.24274" lon="7.16515">
        <ele>425.137</ele>
        <time>2012-06-02T09:05:52Z</time>
      </trkpt>
      <trkpt lat="48.2425" lon="7.16627">
        <ele>420.668</ele>
        <time>2012-06-02T09:05:58Z</time>
      </trkpt>
      <trkpt lat="48.24255" lon="7.167">
        <ele>417.698</ele>
        <time>2012-06-02T09:06:02Z</time>
      </trkpt>
      <trkpt lat="48.24281" lon="7.16818">
        <ele>412.511</ele>
        <time>2012-06-02T09:06:09Z</time>
      </trkpt>
      <trkpt lat="48.243" lon="7.16931">
        <ele>410.333</ele>
        <time>2012-06-02T09:06:16Z</time>
      </trkpt>
      <trkpt lat="48.24304" lon="7.17008">
        <ele>408.382</ele>
        <time>2012-06-02T09:06:21Z</time>
      </trkpt>
      <trkpt lat="48.24303" lon="7.17098">
        <ele>405.902</ele>
        <time>2012-06-02T09:06:27Z</time>
      </trkpt>
      <trkpt lat="48.24303" lon="7.17128">
        <ele>404.881</ele>
        <time>2012-06-02T09:06:29Z</time>
      </trkpt>
      <trkpt lat="48.24303" lon="7.17204">
        <ele>401.782</ele>
        <time>2012-06-02T09:06:34Z</time>
      </trkpt>
      <trkpt lat="48.24304" lon="7.17322">
        <ele>398.972</ele>
        <time>2012-06-02T09:06:42Z</time>
      </trkpt>
      <trkpt lat="48.24304" lon="7.17403">
        <ele>396.693</ele>
        <time>2012-06-02T09:06:48Z</time>
      </trkpt>
      <trkpt lat="48.24311" lon="7.17454">
        <ele>395.563</ele>
        <time>2012-06-02T09:06:52Z</time>
      </trkpt>
      <trkpt lat="48.24328" lon="7.17503">
        <ele>394.662</ele>
        <time>2012-06-02T09:06:56Z</time>
      </trkpt>
      <trkpt lat="48.24355" lon="7.1758">
        <ele>392.792</ele>
        <time>2012-06-02T09:07:02Z</time>
      </trkpt>
      <trkpt lat="48.2438" lon="7.17652">
        <ele>393.013</ele>
        <time>2012-06-02T09:07:08Z</time>
      </trkpt>
      <trkpt lat="48.244" lon="7.17723">
        <ele>391.002</ele>
        <time>2012-06-02T09:07:15Z</time>
      </trkpt>
      <trkpt lat="48.24413" lon="7.17786">
        <ele>392.813</ele>
        <time>2012-06-02T09:07:21Z</time>
      </trkpt>
      <trkpt lat="48.24431" lon="7.17859">
        <ele>392.183</ele>
        <time>2012-06-02T09:07:28Z</time>
      </trkpt>
      <trkpt lat="48.2445" lon="7.17902">
        <ele>394.385</ele>
        <time>2012-06-02T09:07:33Z</time>
      </trkpt>
      <trkpt lat="48.24473" lon="7.17932">
        <ele>393.934</ele>
        <time>2012-06-02T09:07:38Z</time>
      </trkpt>
      <trkpt lat="48.24476" lon="7.17943">
        <ele>392.404</ele>
        <time>2012-06-02T09:07:41Z</time>
      </trkpt>
      <trkpt lat="48.24477" lon="7.17943">
        <ele>392.195</ele>
        <time>2012-06-02T09:07:50Z</time>
      </trkpt>
      <trkpt lat="48.24478" lon="7.1795">
        <ele>391.774</ele>
        <time>2012-06-02T09:07:58Z</time>
      </trkpt>
      <trkpt lat="48.24484" lon="7.17967">
        <ele>390.864</ele>
        <time>2012-06-02T09:08:03Z</time>
      </trkpt>
      <trkpt lat="48.24484" lon="7.17985">
        <ele>389.583</ele>
        <time>2012-06-02T09:08:06Z</time>
      </trkpt>
      <trkpt lat="48.24475" lon="7.17993">
        <ele>388.404</ele>
        <time>2012-06-02T09:08:08Z</time>
      </trkpt>
      <trkpt lat="48.24465" lon="7.17999">
        <ele>387.814</ele>
        <time>2012-06-02T09:08:10Z</time>
      </trkpt>
      <trkpt lat="48.24417" lon="7.18017">
        <ele>384.225</ele>
        <time>2012-06-02T09:08:19Z</time>
      </trkpt>
      <trkpt lat="48.24389" lon="7.18016">
        <ele>383.835</ele>
        <time>2012-06-02T09:08:24Z</time>
      </trkpt>
      <trkpt lat="48.24382" lon="7.18015">
        <ele>383.644</ele>
        <time>2012-06-02T09:08:25Z</time>
      </trkpt>
      <trkpt lat="48.24346" lon="7.17999">
        <ele>382.855</ele>
        <time>2012-06-02T09:08:31Z</time>
      </trkpt>
      <trkpt lat="48.24314" lon="7.17985">
        <ele>382.385</ele>
        <time>2012-06-02T09:08:37Z</time>
      </trkpt>
      <trkpt lat="48.24282" lon="7.1798">
        <ele>382.445</ele>
        <time>2012-06-02T09:08:43Z</time>
      </trkpt>
      <trkpt lat="48.24243" lon="7.17987">
        <ele>382.985</ele>
        <time>2012-06-02T09:08:49Z</time>
      </trkpt>
      <trkpt lat="48.24224" lon="7.17992">
        <ele>382.605</ele>
        <time>2012-06-02T09:08:52Z</time>
      </trkpt>
      <trkpt lat="48.24188" lon="7.17988">
        <ele>384.996</ele>
        <time>2012-06-02T09:08:59Z</time>
      </trkpt>
      <trkpt lat="48.24152" lon="7.17976">
        <ele>386.136</ele>
        <time>2012-06-02T09:09:06Z</time>
      </trkpt>
      <trkpt lat="48.24125" lon="7.17947">
        <ele>385.786</ele>
        <time>2012-06-02T09:09:12Z</time>
      </trkpt>
      <trkpt lat="48.24086" lon="7.17897">
        <ele>387.426</ele>
        <time>2012-06-02T09:09:21Z</time>
      </trkpt>
      <trkpt lat="48.24052" lon="7.17857">
        <ele>389.236</ele>
        <time>2012-06-02T09:09:29Z</time>
      </trkpt>
      <trkpt lat="48.24014" lon="7.17814">
        <ele>390.046</ele>
        <time>2012-06-02T09:09:38Z</time>
      </trkpt>
      <trkpt lat="48.23972" lon="7.17774">
        <ele>390.436</ele>
        <time>2012-06-02T09:09:48Z</time>
      </trkpt>
      <trkpt lat="48.23928" lon="7.17728">
        <ele>389.225</ele>
        <time>2012-06-02T09:09:58Z</time>
      </trkpt>
      <trkpt lat="48.23911" lon="7.17708">
        <ele>389.254</ele>
        <time>2012-06-02T09:10:02Z</time>
      </trkpt>
      <trkpt lat="48.23896" lon="7.17684">
        <ele>390.005</ele>
        <time>2012-06-02T09:10:06Z</time>
      </trkpt>
      <trkpt lat="48.23891" lon="7.17662">
        <ele>390.886</ele>
        <time>2012-06-02T09:10:09Z</time>
      </trkpt>
      <trkpt lat="48.23882" lon="7.17592">
        <ele>390.875</ele>
        <time>2012-06-02T09:10:19Z</time>
      </trkpt>
      <trkpt lat="48.23879" lon="7.17573">
        <ele>391.445</ele>
        <time>2012-06-02T09:10:22Z</time>
      </trkpt>
      <trkpt lat="48.23878" lon="7.17562">
        <ele>391.745</ele>
        <time>2012-06-02T09:10:24Z</time>
      </trkpt>
      <trkpt lat="48.2386" lon="7.17496">
        <ele>396.496</ele>
        <time>2012-06-02T09:10:34Z</time>
      </trkpt>
      <trkpt lat="48.23853" lon="7.17476">
        <ele>398.986</ele>
        <time>2012-06-02T09:10:37Z</time>
      </trkpt>
      <trkpt lat="48.23831" lon="7.17437">
        <ele>401.907</ele>
        <time>2012-06-02T09:10:43Z</time>
      </trkpt>
      <trkpt lat="48.2381" lon="7.17393">
        <ele>402.675</ele>
        <time>2012-06-02T09:10:50Z</time>
      </trkpt>
      <trkpt lat="48.23787" lon="7.17332">
        <ele>402.095</ele>
        <time>2012-06-02T09:10:59Z</time>
      </trkpt>
      <trkpt lat="48.23771" lon="7.17287">
        <ele>401.404</ele>
        <time>2012-06-02T09:11:06Z</time>
      </trkpt>
      <trkpt lat="48.23749" lon="7.17238">
        <ele>402.315</ele>
        <time>2012-06-02T09:11:14Z</time>
      </trkpt>
      <trkpt lat="48.23727" lon="7.17182">
        <ele>403.565</ele>
        <time>2012-06-02T09:11:23Z</time>
      </trkpt>
      <trkpt lat="48.23717" lon="7.17143">
        <ele>402.845</ele>
        <time>2012-06-02T09:11:29Z</time>
      </trkpt>
      <trkpt lat="48.23704" lon="7.17068">
        <ele>402.484</ele>
        <time>2012-06-02T09:11:40Z</time>
      </trkpt>
      <trkpt lat="48.23692" lon="7.17001">
        <ele>404.216</ele>
        <time>2012-06-02T09:11:50Z</time>
      </trkpt>
      <trkpt lat="48.23678" lon="7.16939">
        <ele>407.03</ele>
        <time>2012-06-02T09:11:59Z</time>
      </trkpt>
      <trkpt lat="48.23663" lon="7.16887">
        <ele>407.685</ele>
        <time>2012-06-02T09:12:06Z</time>
      </trkpt>
      <trkpt lat="48.23638" lon="7.16818">
        <ele>409.054</ele>
        <time>2012-06-02T09:12:15Z</time>
      </trkpt>
      <trkpt lat="48.23621" lon="7.16755">
        <ele>410.715</ele>
        <time>2012-06-02T09:12:23Z</time>
      </trkpt>
      <trkpt lat="48.23614" lon="7.16701">
        <ele>411.405</ele>
        <time>2012-06-02T09:12:30Z</time>
      </trkpt>
      <trkpt lat="48.23606" lon="7.16622">
        <ele>412.625</ele>
        <time>2012-06-02T09:12:40Z</time>
      </trkpt>
      <trkpt lat="48.23594" lon="7.16567">
        <ele>413.445</ele>
        <time>2012-06-02T09:12:47Z</time>
      </trkpt>
      <trkpt lat="48.23574" lon="7.16503">
        <ele>415.195</ele>
        <time>2012-06-02T09:12:56Z</time>
      </trkpt>
      <trkpt lat="48.23563" lon="7.16442">
        <ele>416.855</ele>
        <time>2012-06-02T09:13:04Z</time>
      </trkpt>
      <trkpt lat="48.23549" lon="7.16386">
        <ele>418.515</ele>
        <time>2012-06-02T09:13:12Z</time>
      </trkpt>
      <trkpt lat="48.23528" lon="7.1634">
        <ele>420.005</ele>
        <time>2012-06-02T09:13:19Z</time>
      </trkpt>
      <trkpt lat="48.23499" lon="7.16302">
        <ele>421.214</ele>
        <time>2012-06-02T09:13:26Z</time>
      </trkpt>
      <trkpt lat="48.23466" lon="7.1628">
        <ele>421.334</ele>
        <time>2012-06-02T09:13:33Z</time>
      </trkpt>
      <trkpt lat="48.23433" lon="7.1626">
        <ele>421.182</ele>
        <time>2012-06-02T09:13:39Z</time>
      </trkpt>
      <trkpt lat="48.23399" lon="7.16229">
        <ele>421.374</ele>
        <time>2012-06-02T09:13:45Z</time>
      </trkpt>
      <trkpt lat="48.23364" lon="7.16194">
        <ele>422.885</ele>
        <time>2012-06-02T09:13:52Z</time>
      </trkpt>
      <trkpt lat="48.23323" lon="7.16165">
        <ele>424.615</ele>
        <time>2012-06-02T09:14:00Z</time>
      </trkpt>
      <trkpt lat="48.23286" lon="7.1615">
        <ele>426.855</ele>
        <time>2012-06-02T09:14:07Z</time>
      </trkpt>
      <trkpt lat="48.23236" lon="7.16122">
        <ele>425.854</ele>
        <time>2012-06-02T09:14:17Z</time>
      </trkpt>
      <trkpt lat="48.23203" lon="7.16112">
        <ele>425.243</ele>
        <time>2012-06-02T09:14:23Z</time>
      </trkpt>
      <trkpt lat="48.23182" lon="7.16105">
        <ele>424.163</ele>
        <time>2012-06-02T09:14:27Z</time>
      </trkpt>
      <trkpt lat="48.23156" lon="7.16092">
        <ele>427.154</ele>
        <time>2012-06-02T09:14:32Z</time>
      </trkpt>
      <trkpt lat="48.23134" lon="7.16088">
        <ele>427.365</ele>
        <time>2012-06-02T09:14:36Z</time>
      </trkpt>
      <trkpt lat="48.23093" lon="7.16085">
        <ele>428.075</ele>
        <time>2012-06-02T09:14:44Z</time>
      </trkpt>
      <trkpt lat="48.23075" lon="7.1607">
        <ele>429.745</ele>
        <time>2012-06-02T09:14:48Z</time>
      </trkpt>
      <trkpt lat="48.23059" lon="7.1605">
        <ele>430.265</ele>
        <time>2012-06-02T09:14:52Z</time>
      </trkpt>
      <trkpt lat="48.23034" lon="7.1602">
        <ele>431.744</ele>
        <time>2012-06-02T09:14:58Z</time>
      </trkpt>
      <trkpt lat="48.23016" lon="7.15996">
        <ele>431.143</ele>
        <time>2012-06-02T09:15:02Z</time>
      </trkpt>
      <trkpt lat="48.22997" lon="7.1595">
        <ele>432.104</ele>
        <time>2012-06-02T09:15:08Z</time>
      </trkpt>
      <trkpt lat="48.22995" lon="7.15933">
        <ele>432.374</ele>
        <time>2012-06-02T09:15:10Z</time>
      </trkpt>
      <trkpt lat="48.22986" lon="7.15845">
        <ele>434.214</ele>
        <time>2012-06-02T09:15:21Z</time>
      </trkpt>
      <trkpt lat="48.22972" lon="7.15763">
        <ele>436.004</ele>
        <time>2012-06-02T09:15:32Z</time>
      </trkpt>
      <trkpt lat="48.22962" lon="7.15697">
        <ele>437.384</ele>
        <time>2012-06-02T09:15:41Z</time>
      </trkpt>
      <trkpt lat="48.22958" lon="7.15669">
        <ele>438.164</ele>
        <time>2012-06-02T09:15:45Z</time>
      </trkpt>
      <trkpt lat="48.22952" lon="7.15626">
        <ele>438.724</ele>
        <time>2012-06-02T09:15:51Z</time>
      </trkpt>
      <trkpt lat="48.22946" lon="7.1558">
        <ele>438.843</ele>
        <time>2012-06-02T09:15:57Z</time>
      </trkpt>
      <trkpt lat="48.22921" lon="7.1552">
        <ele>442.395</ele>
        <time>2012-06-02T09:16:05Z</time>
      </trkpt>
      <trkpt lat="48.22903" lon="7.15475">
        <ele>445.165</ele>
        <time>2012-06-02T09:16:12Z</time>
      </trkpt>
      <trkpt lat="48.22877" lon="7.15421">
        <ele>448.525</ele>
        <time>2012-06-02T09:16:21Z</time>
      </trkpt>
      <trkpt lat="48.22842" lon="7.15376">
        <ele>447.924</ele>
        <time>2012-06-02T09:16:30Z</time>
      </trkpt>
      <trkpt lat="48.22804" lon="7.15329">
        <ele>449.424</ele>
        <time>2012-06-02T09:16:39Z</time>
      </trkpt>
      <trkpt lat="48.22768" lon="7.15279">
        <ele>448.363</ele>
        <time>2012-06-02T09:16:49Z</time>
      </trkpt>
      <trkpt lat="48.22731" lon="7.15231">
        <ele>448.194</ele>
        <time>2012-06-02T09:16:58Z</time>
      </trkpt>
      <trkpt lat="48.22688" lon="7.15171">
        <ele>448.574</ele>
        <time>2012-06-02T09:17:09Z</time>
      </trkpt>
      <trkpt lat="48.22652" lon="7.15121">
        <ele>452.435</ele>
        <time>2012-06-02T09:17:18Z</time>
      </trkpt>
      <trkpt lat="48.22614" lon="7.15078">
        <ele>454.445</ele>
        <time>2012-06-02T09:17:27Z</time>
      </trkpt>
      <trkpt lat="48.2257" lon="7.15033">
        <ele>454.884</ele>
        <time>2012-06-02T09:17:37Z</time>
      </trkpt>
      <trkpt lat="48.22524" lon="7.14992">
        <ele>457.335</ele>
        <time>2012-06-02T09:17:47Z</time>
      </trkpt>
      <trkpt lat="48.22491" lon="7.14969">
        <ele>458.224</ele>
        <time>2012-06-02T09:17:54Z</time>
      </trkpt>
      <trkpt lat="48.22457" lon="7.14945">
        <ele>459.894</ele>
        <time>2012-06-02T09:18:01Z</time>
      </trkpt>
      <trkpt lat="48.22422" lon="7.14919">
        <ele>460.673</ele>
        <time>2012-06-02T09:18:08Z</time>
      </trkpt>
      <trkpt lat="48.224" lon="7.14897">
        <ele>461.634</ele>
        <time>2012-06-02T09:18:13Z</time>
      </trkpt>
      <trkpt lat="48.22375" lon="7.14851">
        <ele>467.998</ele>
        <time>2012-06-02T09:18:20Z</time>
      </trkpt>
      <trkpt lat="48.22353" lon="7.14791">
        <ele>468.944</ele>
        <time>2012-06-02T09:18:29Z</time>
      </trkpt>
      <trkpt lat="48.2233" lon="7.14742">
        <ele>469.464</ele>
        <time>2012-06-02T09:18:37Z</time>
      </trkpt>
      <trkpt lat="48.22295" lon="7.14688">
        <ele>470.894</ele>
        <time>2012-06-02T09:18:47Z</time>
      </trkpt>
      <trkpt lat="48.22267" lon="7.14668">
        <ele>471.284</ele>
        <time>2012-06-02T09:18:53Z</time>
      </trkpt>
      <trkpt lat="48.22244" lon="7.14663">
        <ele>471.695</ele>
        <time>2012-06-02T09:18:58Z</time>
      </trkpt>
      <trkpt lat="48.22235" lon="7.14659">
        <ele>472.115</ele>
        <time>2012-06-02T09:19:00Z</time>
      </trkpt>
      <trkpt lat="48.22217" lon="7.14638">
        <ele>473.046</ele>
        <time>2012-06-02T09:19:05Z</time>
      </trkpt>
      <trkpt lat="48.22184" lon="7.1458">
        <ele>477.755</ele>
        <time>2012-06-02T09:19:16Z</time>
      </trkpt>
      <trkpt lat="48.22165" lon="7.14548">
        <ele>479.745</ele>
        <time>2012-06-02T09:19:23Z</time>
      </trkpt>
      <trkpt lat="48.22158" lon="7.14537">
        <ele>480.014</ele>
        <time>2012-06-02T09:19:26Z</time>
      </trkpt>
      <trkpt lat="48.2214" lon="7.1452">
        <ele>480.153</ele>
        <time>2012-06-02T09:19:33Z</time>
      </trkpt>
      <trkpt lat="48.22123" lon="7.14507">
        <ele>479.823</ele>
        <time>2012-06-02T09:19:39Z</time>
      </trkpt>
      <trkpt lat="48.221" lon="7.1449">
        <ele>480.783</ele>
        <time>2012-06-02T09:19:47Z</time>
      </trkpt>
      <trkpt lat="48.22084" lon="7.1448">
        <ele>481.964</ele>
        <time>2012-06-02T09:19:53Z</time>
      </trkpt>
      <trkpt lat="48.22058" lon="7.14463">
        <ele>484.484</ele>
        <time>2012-06-02T09:20:02Z</time>
      </trkpt>
      <trkpt lat="48.22034" lon="7.14446">
        <ele>487.145</ele>
        <time>2012-06-02T09:20:10Z</time>
      </trkpt>
      <trkpt lat="48.22004" lon="7.1443">
        <ele>489.114</ele>
        <time>2012-06-02T09:20:19Z</time>
      </trkpt>
      <trkpt lat="48.21964" lon="7.14421">
        <ele>490.143</ele>
        <time>2012-06-02T09:20:30Z</time>
      </trkpt>
      <trkpt lat="48.21936" lon="7.14401">
        <ele>491.333</ele>
        <time>2012-06-02T09:20:38Z</time>
      </trkpt>
      <trkpt lat="48.21918" lon="7.14373">
        <ele>491.774</ele>
        <time>2012-06-02T09:20:45Z</time>
      </trkpt>
      <trkpt lat="48.21896" lon="7.1434">
        <ele>495.435</ele>
        <time>2012-06-02T09:20:53Z</time>
      </trkpt>
      <trkpt lat="48.21872" lon="7.14309">
        <ele>496.954</ele>
        <time>2012-06-02T09:21:01Z</time>
      </trkpt>
      <trkpt lat="48.21844" lon="7.14285">
        <ele>496.092</ele>
        <time>2012-06-02T09:21:09Z</time>
      </trkpt>
      <trkpt lat="48.21812" lon="7.1426">
        <ele>495.663</ele>
        <time>2012-06-02T09:21:16Z</time>
      </trkpt>
      <trkpt lat="48.21808" lon="7.14256">
        <ele>495.783</ele>
        <time>2012-06-02T09:21:17Z</time>
      </trkpt>
      <trkpt lat="48.21779" lon="7.14219">
        <ele>496.473</ele>
        <time>2012-06-02T09:21:24Z</time>
      </trkpt>
      <trkpt lat="48.21756" lon="7.14178">
        <ele>496.342</ele>
        <time>2012-06-02T09:21:31Z</time>
      </trkpt>
      <trkpt lat="48.21726" lon="7.14125">
        <ele>497.233</ele>
        <time>2012-06-02T09:21:40Z</time>
      </trkpt>
      <trkpt lat="48.21712" lon="7.14103">
        <ele>498.444</ele>
        <time>2012-06-02T09:21:44Z</time>
      </trkpt>
      <trkpt lat="48.21704" lon="7.14094">
        <ele>500.325</ele>
        <time>2012-06-02T09:21:46Z</time>
      </trkpt>
      <trkpt lat="48.21675" lon="7.14071">
        <ele>504.675</ele>
        <time>2012-06-02T09:21:53Z</time>
      </trkpt>
      <trkpt lat="48.21658" lon="7.14064">
        <ele>506.375</ele>
        <time>2012-06-02T09:21:57Z</time>
      </trkpt>
      <trkpt lat="48.21614" lon="7.14056">
        <ele>507.854</ele>
        <time>2012-06-02T09:22:06Z</time>
      </trkpt>
      <trkpt lat="48.21582" lon="7.14044">
        <ele>507.123</ele>
        <time>2012-06-02T09:22:13Z</time>
      </trkpt>
      <trkpt lat="48.21552" lon="7.14024">
        <ele>508.944</ele>
        <time>2012-06-02T09:22:21Z</time>
      </trkpt>
      <trkpt lat="48.21528" lon="7.13994">
        <ele>514.986</ele>
        <time>2012-06-02T09:22:29Z</time>
      </trkpt>
      <trkpt lat="48.21504" lon="7.13958">
        <ele>518.343</ele>
        <time>2012-06-02T09:22:38Z</time>
      </trkpt>
      <trkpt lat="48.21484" lon="7.13918">
        <ele>520.993</ele>
        <time>2012-06-02T09:22:47Z</time>
      </trkpt>
      <trkpt lat="48.21467" lon="7.13881">
        <ele>523.433</ele>
        <time>2012-06-02T09:22:55Z</time>
      </trkpt>
      <trkpt lat="48.2145" lon="7.13834">
        <ele>525.283</ele>
        <time>2012-06-02T09:23:05Z</time>
      </trkpt>
      <trkpt lat="48.21436" lon="7.13801">
        <ele>526.203</ele>
        <time>2012-06-02T09:23:13Z</time>
      </trkpt>
      <trkpt lat="48.21417" lon="7.13769">
        <ele>526.583</ele>
        <time>2012-06-02T09:23:22Z</time>
      </trkpt>
      <trkpt lat="48.21394" lon="7.13736">
        <ele>527.553</ele>
        <time>2012-06-02T09:23:31Z</time>
      </trkpt>
      <trkpt lat="48.21383" lon="7.13706">
        <ele>529.283</ele>
        <time>2012-06-02T09:23:37Z</time>
      </trkpt>
      <trkpt lat="48.2138" lon="7.13669">
        <ele>529.123</ele>
        <time>2012-06-02T09:23:44Z</time>
      </trkpt>
      <trkpt lat="48.21376" lon="7.13623">
        <ele>529.873</ele>
        <time>2012-06-02T09:23:53Z</time>
      </trkpt>
      <trkpt lat="48.21361" lon="7.13589">
        <ele>531.973</ele>
        <time>2012-06-02T09:24:00Z</time>
      </trkpt>
      <trkpt lat="48.21334" lon="7.13559">
        <ele>533.863</ele>
        <time>2012-06-02T09:24:08Z</time>
      </trkpt>
      <trkpt lat="48.21298" lon="7.13521">
        <ele>537.253</ele>
        <time>2012-06-02T09:24:19Z</time>
      </trkpt>
      <trkpt lat="48.21273" lon="7.13509">
        <ele>539.404</ele>
        <time>2012-06-02T09:24:26Z</time>
      </trkpt>
      <trkpt lat="48.21247" lon="7.13489">
        <ele>541.644</ele>
        <time>2012-06-02T09:24:34Z</time>
      </trkpt>
      <trkpt lat="48.21226" lon="7.13461">
        <ele>543.963</ele>
        <time>2012-06-02T09:24:42Z</time>
      </trkpt>
      <trkpt lat="48.21196" lon="7.13421">
        <ele>546.133</ele>
        <time>2012-06-02T09:24:53Z</time>
      </trkpt>
      <trkpt lat="48.21171" lon="7.134">
        <ele>546.082</ele>
        <time>2012-06-02T09:25:00Z</time>
      </trkpt>
      <trkpt lat="48.21132" lon="7.13378">
        <ele>546.321</ele>
        <time>2012-06-02T09:25:09Z</time>
      </trkpt>
      <trkpt lat="48.21098" lon="7.13377">
        <ele>547.072</ele>
        <time>2012-06-02T09:25:16Z</time>
      </trkpt>
      <trkpt lat="48.21076" lon="7.13383">
        <ele>547.403</ele>
        <time>2012-06-02T09:25:21Z</time>
      </trkpt>
      <trkpt lat="48.21046" lon="7.13385">
        <ele>549.273</ele>
        <time>2012-06-02T09:25:28Z</time>
      </trkpt>
      <trkpt lat="48.2102" lon="7.13366">
        <ele>562.34</ele>
        <time>2012-06-02T09:25:35Z</time>
      </trkpt>
      <trkpt lat="48.2099" lon="7.13328">
        <ele>574.88</ele>
        <time>2012-06-02T09:25:44Z</time>
      </trkpt>
      <trkpt lat="48.20963" lon="7.13297">
        <ele>576.736</ele>
        <time>2012-06-02T09:25:52Z</time>
      </trkpt>
      <trkpt lat="48.20932" lon="7.13268">
        <ele>573.801</ele>
        <time>2012-06-02T09:25:59Z</time>
      </trkpt>
      <trkpt lat="48.20927" lon="7.13264">
        <ele>573.11</ele>
        <time>2012-06-02T09:26:00Z</time>
      </trkpt>
      <trkpt lat="48.20898" lon="7.13224">
        <ele>562.965</ele>
        <time>2012-06-02T09:26:08Z</time>
      </trkpt>
      <trkpt lat="48.20883" lon="7.13181">
        <ele>565.529</ele>
        <time>2012-06-02T09:26:15Z</time>
      </trkpt>
      <trkpt lat="48.20871" lon="7.13136">
        <ele>561.148</ele>
        <time>2012-06-02T09:26:23Z</time>
      </trkpt>
      <trkpt lat="48.20861" lon="7.13095">
        <ele>559.041</ele>
        <time>2012-06-02T09:26:31Z</time>
      </trkpt>
      <trkpt lat="48.20847" lon="7.13055">
        <ele>561.112</ele>
        <time>2012-06-02T09:26:39Z</time>
      </trkpt>
      <trkpt lat="48.20831" lon="7.13021">
        <ele>562.652</ele>
        <time>2012-06-02T09:26:46Z</time>
      </trkpt>
      <trkpt lat="48.20817" lon="7.12996">
        <ele>563.753</ele>
        <time>2012-06-02T09:26:51Z</time>
      </trkpt>
      <trkpt lat="48.20785" lon="7.12955">
        <ele>565.863</ele>
        <time>2012-06-02T09:27:01Z</time>
      </trkpt>
      <trkpt lat="48.20752" lon="7.12921">
        <ele>567.302</ele>
        <time>2012-06-02T09:27:11Z</time>
      </trkpt>
      <trkpt lat="48.2072" lon="7.12883">
        <ele>569.013</ele>
        <time>2012-06-02T09:27:22Z</time>
      </trkpt>
      <trkpt lat="48.20694" lon="7.12849">
        <ele>571.754</ele>
        <time>2012-06-02T09:27:31Z</time>
      </trkpt>
      <trkpt lat="48.2067" lon="7.12822">
        <ele>575.033</ele>
        <time>2012-06-02T09:27:39Z</time>
      </trkpt>
      <trkpt lat="48.20648" lon="7.12799">
        <ele>577.253</ele>
        <time>2012-06-02T09:27:47Z</time>
      </trkpt>
      <trkpt lat="48.2063" lon="7.12783">
        <ele>579.413</ele>
        <time>2012-06-02T09:27:54Z</time>
      </trkpt>
      <trkpt lat="48.20615" lon="7.12766">
        <ele>581.313</ele>
        <time>2012-06-02T09:28:00Z</time>
      </trkpt>
      <trkpt lat="48.20598" lon="7.12745">
        <ele>583.433</ele>
        <time>2012-06-02T09:28:07Z</time>
      </trkpt>
      <trkpt lat="48.20573" lon="7.12711">
        <ele>588.374</ele>
        <time>2012-06-02T09:28:17Z</time>
      </trkpt>
      <trkpt lat="48.20551" lon="7.12682">
        <ele>590.293</ele>
        <time>2012-06-02T09:28:26Z</time>
      </trkpt>
      <trkpt lat="48.20525" lon="7.12652">
        <ele>591.302</ele>
        <time>2012-06-02T09:28:36Z</time>
      </trkpt>
      <trkpt lat="48.20507" lon="7.12622">
        <ele>592.652</ele>
        <time>2012-06-02T09:28:44Z</time>
      </trkpt>
      <trkpt lat="48.20485" lon="7.12585">
        <ele>597.422</ele>
        <time>2012-06-02T09:28:54Z</time>
      </trkpt>
      <trkpt lat="48.20458" lon="7.12547">
        <ele>601.912</ele>
        <time>2012-06-02T09:29:06Z</time>
      </trkpt>
      <trkpt lat="48.20433" lon="7.12518">
        <ele>603.481</ele>
        <time>2012-06-02T09:29:17Z</time>
      </trkpt>
      <trkpt lat="48.20408" lon="7.12505">
        <ele>604.502</ele>
        <time>2012-06-02T09:29:26Z</time>
      </trkpt>
      <trkpt lat="48.20384" lon="7.12487">
        <ele>606.653</ele>
        <time>2012-06-02T09:29:35Z</time>
      </trkpt>
      <trkpt lat="48.20366" lon="7.12457">
        <ele>609.882</ele>
        <time>2012-06-02T09:29:44Z</time>
      </trkpt>
      <trkpt lat="48.20348" lon="7.12417">
        <ele>615.223</ele>
        <time>2012-06-02T09:29:55Z</time>
      </trkpt>
      <trkpt lat="48.2033" lon="7.12397">
        <ele>618.341</ele>
        <time>2012-06-02T09:30:02Z</time>
      </trkpt>
      <trkpt lat="48.20305" lon="7.1238">
        <ele>618.761</ele>
        <time>2012-06-02T09:30:12Z</time>
      </trkpt>
      <trkpt lat="48.20286" lon="7.12372">
        <ele>622.192</ele>
        <time>2012-06-02T09:30:18Z</time>
      </trkpt>
      <trkpt lat="48.20262" lon="7.12357">
        <ele>622.26</ele>
        <time>2012-06-02T09:30:27Z</time>
      </trkpt>
      <trkpt lat="48.20236" lon="7.12337">
        <ele>621.421</ele>
        <time>2012-06-02T09:30:37Z</time>
      </trkpt>
      <trkpt lat="48.2021" lon="7.12319">
        <ele>622.322</ele>
        <time>2012-06-02T09:30:47Z</time>
      </trkpt>
      <trkpt lat="48.20183" lon="7.12299">
        <ele>624.192</ele>
        <time>2012-06-02T09:30:57Z</time>
      </trkpt>
      <trkpt lat="48.20154" lon="7.12278">
        <ele>627.492</ele>
        <time>2012-06-02T09:31:08Z</time>
      </trkpt>
      <trkpt lat="48.20131" lon="7.1226">
        <ele>630.332</ele>
        <time>2012-06-02T09:31:17Z</time>
      </trkpt>
      <trkpt lat="48.20105" lon="7.12238">
        <ele>632.201</ele>
        <time>2012-06-02T09:31:27Z</time>
      </trkpt>
      <trkpt lat="48.20085" lon="7.12218">
        <ele>634.662</ele>
        <time>2012-06-02T09:31:35Z</time>
      </trkpt>
      <trkpt lat="48.20068" lon="7.1219">
        <ele>636.812</ele>
        <time>2012-06-02T09:31:44Z</time>
      </trkpt>
      <trkpt lat="48.20053" lon="7.12163">
        <ele>638.332</ele>
        <time>2012-06-02T09:31:52Z</time>
      </trkpt>
      <trkpt lat="48.20033" lon="7.12155">
        <ele>638.221</ele>
        <time>2012-06-02T09:31:58Z</time>
      </trkpt>
      <trkpt lat="48.20016" lon="7.1216">
        <ele>637.921</ele>
        <time>2012-06-02T09:32:03Z</time>
      </trkpt>
      <trkpt lat="48.20002" lon="7.12178">
        <ele>638.511</ele>
        <time>2012-06-02T09:32:08Z</time>
      </trkpt>
      <trkpt lat="48.19995" lon="7.12208">
        <ele>640.212</ele>
        <time>2012-06-02T09:32:14Z</time>
      </trkpt>
      <trkpt lat="48.19997" lon="7.12232">
        <ele>640.782</ele>
        <time>2012-06-02T09:32:19Z</time>
      </trkpt>
      <trkpt lat="48.20009" lon="7.12255">
        <ele>646.634</ele>
        <time>2012-06-02T09:32:25Z</time>
      </trkpt>
      <trkpt lat="48.20028" lon="7.12289">
        <ele>646.602</ele>
        <time>2012-06-02T09:32:34Z</time>
      </trkpt>
      <trkpt lat="48.20043" lon="7.1233">
        <ele>645.05</ele>
        <time>2012-06-02T09:32:44Z</time>
      </trkpt>
      <trkpt lat="48.20055" lon="7.12354">
        <ele>648.19</ele>
        <time>2012-06-02T09:32:50Z</time>
      </trkpt>
      <trkpt lat="48.2007" lon="7.12386">
        <ele>649.46</ele>
        <time>2012-06-02T09:32:58Z</time>
      </trkpt>
      <trkpt lat="48.20082" lon="7.12417">
        <ele>649.139</ele>
        <time>2012-06-02T09:33:06Z</time>
      </trkpt>
      <trkpt lat="48.20097" lon="7.12449">
        <ele>649.288</ele>
        <time>2012-06-02T09:33:15Z</time>
      </trkpt>
      <trkpt lat="48.20118" lon="7.12491">
        <ele>649.359</ele>
        <time>2012-06-02T09:33:27Z</time>
      </trkpt>
      <trkpt lat="48.20133" lon="7.12522">
        <ele>655.622</ele>
        <time>2012-06-02T09:33:35Z</time>
      </trkpt>
      <trkpt lat="48.20138" lon="7.12553">
        <ele>655.32</ele>
        <time>2012-06-02T09:33:42Z</time>
      </trkpt>
      <trkpt lat="48.20133" lon="7.12579">
        <ele>655.821</ele>
        <time>2012-06-02T09:33:48Z</time>
      </trkpt>
      <trkpt lat="48.20118" lon="7.12601">
        <ele>657.791</ele>
        <time>2012-06-02T09:33:55Z</time>
      </trkpt>
      <trkpt lat="48.20098" lon="7.12619">
        <ele>658.841</ele>
        <time>2012-06-02T09:34:03Z</time>
      </trkpt>
      <trkpt lat="48.2009" lon="7.1264">
        <ele>662.732</ele>
        <time>2012-06-02T09:34:08Z</time>
      </trkpt>
      <trkpt lat="48.20093" lon="7.12662">
        <ele>665.822</ele>
        <time>2012-06-02T09:34:13Z</time>
      </trkpt>
      <trkpt lat="48.20108" lon="7.12689">
        <ele>669.713</ele>
        <time>2012-06-02T09:34:20Z</time>
      </trkpt>
      <trkpt lat="48.20122" lon="7.12718">
        <ele>674.143</ele>
        <time>2012-06-02T09:34:28Z</time>
      </trkpt>
      <trkpt lat="48.20124" lon="7.12741">
        <ele>677.382</ele>
        <time>2012-06-02T09:34:33Z</time>
      </trkpt>
      <trkpt lat="48.20122" lon="7.12763">
        <ele>675.96</ele>
        <time>2012-06-02T09:34:38Z</time>
      </trkpt>
      <trkpt lat="48.20118" lon="7.12783">
        <ele>681.033</ele>
        <time>2012-06-02T09:34:43Z</time>
      </trkpt>
      <trkpt lat="48.20109" lon="7.12805">
        <ele>684.654</ele>
        <time>2012-06-02T09:34:48Z</time>
      </trkpt>
      <trkpt lat="48.20094" lon="7.12841">
        <ele>685.961</ele>
        <time>2012-06-02T09:34:57Z</time>
      </trkpt>
      <trkpt lat="48.20084" lon="7.12862">
        <ele>692.305</ele>
        <time>2012-06-02T09:35:03Z</time>
      </trkpt>
      <trkpt lat="48.20087" lon="7.12877">
        <ele>697.507</ele>
        <time>2012-06-02T09:35:07Z</time>
      </trkpt>
      <trkpt lat="48.20101" lon="7.12875">
        <ele>707.031</ele>
        <time>2012-06-02T09:35:11Z</time>
      </trkpt>
      <trkpt lat="48.20122" lon="7.12862">
        <ele>719.351</ele>
        <time>2012-06-02T09:35:18Z</time>
      </trkpt>
      <trkpt lat="48.20137" lon="7.1285">
        <ele>726.109</ele>
        <time>2012-06-02T09:35:24Z</time>
      </trkpt>
      <trkpt lat="48.20156" lon="7.12833">
        <ele>722.721</ele>
        <time>2012-06-02T09:35:31Z</time>
      </trkpt>
      <trkpt lat="48.20178" lon="7.12821">
        <ele>719.047</ele>
        <time>2012-06-02T09:35:39Z</time>
      </trkpt>
      <trkpt lat="48.20197" lon="7.12813">
        <ele>711.961</ele>
        <time>2012-06-02T09:35:45Z</time>
      </trkpt>
      <trkpt lat="48.20209" lon="7.12811">
        <ele>709.335</ele>
        <time>2012-06-02T09:35:49Z</time>
      </trkpt>
      <trkpt lat="48.20225" lon="7.12817">
        <ele>706.676</ele>
        <time>2012-06-02T09:35:54Z</time>
      </trkpt>
      <trkpt lat="48.20239" lon="7.12835">
        <ele>700.024</ele>
        <time>2012-06-02T09:36:00Z</time>
      </trkpt>
      <trkpt lat="48.20246" lon="7.12854">
        <ele>697.567</ele>
        <time>2012-06-02T09:36:05Z</time>
      </trkpt>
      <trkpt lat="48.20256" lon="7.12879">
        <ele>697.32</ele>
        <time>2012-06-02T09:36:12Z</time>
      </trkpt>
      <trkpt lat="48.2027" lon="7.12913">
        <ele>697.79</ele>
        <time>2012-06-02T09:36:21Z</time>
      </trkpt>
      <trkpt lat="48.20291" lon="7.12951">
        <ele>701.642</ele>
        <time>2012-06-02T09:36:32Z</time>
      </trkpt>
      <trkpt lat="48.20298" lon="7.12976">
        <ele>702.791</ele>
        <time>2012-06-02T09:36:39Z</time>
      </trkpt>
      <trkpt lat="48.20299" lon="7.13001">
        <ele>703.761</ele>
        <time>2012-06-02T09:36:45Z</time>
      </trkpt>
      <trkpt lat="48.20294" lon="7.13031">
        <ele>707.162</ele>
        <time>2012-06-02T09:36:52Z</time>
      </trkpt>
      <trkpt lat="48.203" lon="7.13061">
        <ele>712.513</ele>
        <time>2012-06-02T09:36:59Z</time>
      </trkpt>
      <trkpt lat="48.20311" lon="7.13089">
        <ele>716.853</ele>
        <time>2012-06-02T09:37:06Z</time>
      </trkpt>
      <trkpt lat="48.20325" lon="7.13119">
        <ele>721.673</ele>
        <time>2012-06-02T09:37:14Z</time>
      </trkpt>
      <trkpt lat="48.20341" lon="7.13136">
        <ele>728.425</ele>
        <time>2012-06-02T09:37:21Z</time>
      </trkpt>
      <trkpt lat="48.20355" lon="7.13145">
        <ele>728.302</ele>
        <time>2012-06-02T09:37:27Z</time>
      </trkpt>
      <trkpt lat="48.20377" lon="7.13154">
        <ele>724.287</ele>
        <time>2012-06-02T09:37:35Z</time>
      </trkpt>
      <trkpt lat="48.20398" lon="7.1317">
        <ele>721.739</ele>
        <time>2012-06-02T09:37:43Z</time>
      </trkpt>
      <trkpt lat="48.20418" lon="7.13194">
        <ele>725.541</ele>
        <time>2012-06-02T09:37:51Z</time>
      </trkpt>
      <trkpt lat="48.20444" lon="7.13232">
        <ele>721.918</ele>
        <time>2012-06-02T09:38:02Z</time>
      </trkpt>
      <trkpt lat="48.20463" lon="7.13251">
        <ele>723.409</ele>
        <time>2012-06-02T09:38:09Z</time>
      </trkpt>
      <trkpt lat="48.2048" lon="7.13271">
        <ele>725.389</ele>
        <time>2012-06-02T09:38:16Z</time>
      </trkpt>
      <trkpt lat="48.20496" lon="7.13293">
        <ele>722.025</ele>
        <time>2012-06-02T09:38:23Z</time>
      </trkpt>
      <trkpt lat="48.20511" lon="7.13317">
        <ele>721.18</ele>
        <time>2012-06-02T09:38:30Z</time>
      </trkpt>
      <trkpt lat="48.20527" lon="7.13341">
        <ele>724.832</ele>
        <time>2012-06-02T09:38:37Z</time>
      </trkpt>
      <trkpt lat="48.20548" lon="7.13372">
        <ele>725.06</ele>
        <time>2012-06-02T09:38:46Z</time>
      </trkpt>
      <trkpt lat="48.20564" lon="7.13398">
        <ele>725.27</ele>
        <time>2012-06-02T09:38:53Z</time>
      </trkpt>
      <trkpt lat="48.20581" lon="7.13431">
        <ele>728.581</ele>
        <time>2012-06-02T09:39:01Z</time>
      </trkpt>
      <trkpt lat="48.20596" lon="7.13461">
        <ele>730.53</ele>
        <time>2012-06-02T09:39:08Z</time>
      </trkpt>
      <trkpt lat="48.20609" lon="7.13485">
        <ele>728.678</ele>
        <time>2012-06-02T09:39:14Z</time>
      </trkpt>
      <trkpt lat="48.20618" lon="7.13505">
        <ele>725.377</ele>
        <time>2012-06-02T09:39:19Z</time>
      </trkpt>
      <trkpt lat="48.20618" lon="7.13525">
        <ele>725.97</ele>
        <time>2012-06-02T09:39:23Z</time>
      </trkpt>
      <trkpt lat="48.20616" lon="7.13529">
        <ele>726.54</ele>
        <time>2012-06-02T09:39:24Z</time>
      </trkpt>
      <trkpt lat="48.20603" lon="7.13532">
        <ele>728.931</ele>
        <time>2012-06-02T09:39:28Z</time>
      </trkpt>
      <trkpt lat="48.20593" lon="7.13517">
        <ele>730.922</ele>
        <time>2012-06-02T09:39:32Z</time>
      </trkpt>
      <trkpt lat="48.20591" lon="7.13512">
        <ele>732.383</ele>
        <time>2012-06-02T09:39:33Z</time>
      </trkpt>
      <trkpt lat="48.2058" lon="7.13477">
        <ele>741.426</ele>
        <time>2012-06-02T09:39:40Z</time>
      </trkpt>
      <trkpt lat="48.20564" lon="7.13443">
        <ele>747.649</ele>
        <time>2012-06-02T09:39:47Z</time>
      </trkpt>
      <trkpt lat="48.20544" lon="7.13411">
        <ele>749.419</ele>
        <time>2012-06-02T09:39:55Z</time>
      </trkpt>
      <trkpt lat="48.20517" lon="7.1338">
        <ele>743.524</ele>
        <time>2012-06-02T09:40:05Z</time>
      </trkpt>
      <trkpt lat="48.20488" lon="7.13357">
        <ele>745.206</ele>
        <time>2012-06-02T09:40:15Z</time>
      </trkpt>
      <trkpt lat="48.20461" lon="7.1334">
        <ele>748.71</ele>
        <time>2012-06-02T09:40:24Z</time>
      </trkpt>
      <trkpt lat="48.20433" lon="7.13321">
        <ele>753.094</ele>
        <time>2012-06-02T09:40:34Z</time>
      </trkpt>
      <trkpt lat="48.20404" lon="7.13299">
        <ele>758.607</ele>
        <time>2012-06-02T09:40:45Z</time>
      </trkpt>
      <trkpt lat="48.20377" lon="7.13281">
        <ele>759.713</ele>
        <time>2012-06-02T09:40:54Z</time>
      </trkpt>
      <trkpt lat="48.20354" lon="7.13264">
        <ele>769.818</ele>
        <time>2012-06-02T09:41:02Z</time>
      </trkpt>
      <trkpt lat="48.20318" lon="7.13244">
        <ele>780.907</ele>
        <time>2012-06-02T09:41:13Z</time>
      </trkpt>
      <trkpt lat="48.20293" lon="7.13234">
        <ele>778.251</ele>
        <time>2012-06-02T09:41:21Z</time>
      </trkpt>
      <trkpt lat="48.20278" lon="7.13225">
        <ele>776.27</ele>
        <time>2012-06-02T09:41:26Z</time>
      </trkpt>
      <trkpt lat="48.20256" lon="7.13207">
        <ele>776.09</ele>
        <time>2012-06-02T09:41:34Z</time>
      </trkpt>
      <trkpt lat="48.20233" lon="7.13185">
        <ele>774.759</ele>
        <time>2012-06-02T09:41:43Z</time>
      </trkpt>
      <trkpt lat="48.20208" lon="7.13157">
        <ele>775.77</ele>
        <time>2012-06-02T09:41:53Z</time>
      </trkpt>
      <trkpt lat="48.20183" lon="7.1313">
        <ele>782.102</ele>
        <time>2012-06-02T09:42:03Z</time>
      </trkpt>
      <trkpt lat="48.20162" lon="7.13114">
        <ele>783.422</ele>
        <time>2012-06-02T09:42:10Z</time>
      </trkpt>
      <trkpt lat="48.20144" lon="7.13105">
        <ele>785.492</ele>
        <time>2012-06-02T09:42:16Z</time>
      </trkpt>
      <trkpt lat="48.20119" lon="7.13101">
        <ele>791.614</ele>
        <time>2012-06-02T09:42:24Z</time>
      </trkpt>
      <trkpt lat="48.20096" lon="7.13103">
        <ele>788.481</ele>
        <time>2012-06-02T09:42:31Z</time>
      </trkpt>
      <trkpt lat="48.20068" lon="7.13113">
        <ele>792.262</ele>
        <time>2012-06-02T09:42:39Z</time>
      </trkpt>
      <trkpt lat="48.20047" lon="7.13123">
        <ele>793.131</ele>
        <time>2012-06-02T09:42:46Z</time>
      </trkpt>
      <trkpt lat="48.20017" lon="7.13141">
        <ele>793.849</ele>
        <time>2012-06-02T09:42:56Z</time>
      </trkpt>
      <trkpt lat="48.1999" lon="7.13161">
        <ele>797.35</ele>
        <time>2012-06-02T09:43:05Z</time>
      </trkpt>
      <trkpt lat="48.19967" lon="7.1318">
        <ele>799.81</ele>
        <time>2012-06-02T09:43:13Z</time>
      </trkpt>
      <trkpt lat="48.19948" lon="7.13197">
        <ele>801.37</ele>
        <time>2012-06-02T09:43:20Z</time>
      </trkpt>
      <trkpt lat="48.19931" lon="7.13214">
        <ele>801.99</ele>
        <time>2012-06-02T09:43:27Z</time>
      </trkpt>
      <trkpt lat="48.19908" lon="7.13238">
        <ele>807.301</ele>
        <time>2012-06-02T09:43:36Z</time>
      </trkpt>
      <trkpt lat="48.1989" lon="7.13248">
        <ele>809.961</ele>
        <time>2012-06-02T09:43:42Z</time>
      </trkpt>
      <trkpt lat="48.19878" lon="7.13237">
        <ele>814.434</ele>
        <time>2012-06-02T09:43:47Z</time>
      </trkpt>
      <trkpt lat="48.1987" lon="7.13206">
        <ele>818.694</ele>
        <time>2012-06-02T09:43:54Z</time>
      </trkpt>
      <trkpt lat="48.19872" lon="7.13164">
        <ele>821.615</ele>
        <time>2012-06-02T09:44:03Z</time>
      </trkpt>
      <trkpt lat="48.19875" lon="7.13125">
        <ele>814.588</ele>
        <time>2012-06-02T09:44:11Z</time>
      </trkpt>
      <trkpt lat="48.1988" lon="7.13079">
        <ele>806.805</ele>
        <time>2012-06-02T09:44:20Z</time>
      </trkpt>
      <trkpt lat="48.19879" lon="7.13038">
        <ele>805.266</ele>
        <time>2012-06-02T09:44:28Z</time>
      </trkpt>
      <trkpt lat="48.19878" lon="7.12995">
        <ele>806.643</ele>
        <time>2012-06-02T09:44:36Z</time>
      </trkpt>
      <trkpt lat="48.19877" lon="7.12949">
        <ele>810.974</ele>
        <time>2012-06-02T09:44:45Z</time>
      </trkpt>
      <trkpt lat="48.19871" lon="7.12904">
        <ele>813.982</ele>
        <time>2012-06-02T09:44:54Z</time>
      </trkpt>
      <trkpt lat="48.1986" lon="7.12878">
        <ele>814.861</ele>
        <time>2012-06-02T09:45:00Z</time>
      </trkpt>
      <trkpt lat="48.19845" lon="7.12862">
        <ele>810.34</ele>
        <time>2012-06-02T09:45:06Z</time>
      </trkpt>
      <trkpt lat="48.19821" lon="7.12851">
        <ele>814.2</ele>
        <time>2012-06-02T09:45:14Z</time>
      </trkpt>
      <trkpt lat="48.19801" lon="7.12846">
        <ele>815.84</ele>
        <time>2012-06-02T09:45:21Z</time>
      </trkpt>
      <trkpt lat="48.19775" lon="7.12841">
        <ele>819.982</ele>
        <time>2012-06-02T09:45:29Z</time>
      </trkpt>
      <trkpt lat="48.19757" lon="7.12838">
        <ele>824.963</ele>
        <time>2012-06-02T09:45:35Z</time>
      </trkpt>
      <trkpt lat="48.19737" lon="7.12827">
        <ele>832.795</ele>
        <time>2012-06-02T09:45:42Z</time>
      </trkpt>
      <trkpt lat="48.19732" lon="7.12806">
        <ele>834.684</ele>
        <time>2012-06-02T09:45:47Z</time>
      </trkpt>
      <trkpt lat="48.19736" lon="7.12774">
        <ele>835.162</ele>
        <time>2012-06-02T09:45:54Z</time>
      </trkpt>
      <trkpt lat="48.19738" lon="7.12738">
        <ele>841.611</ele>
        <time>2012-06-02T09:46:02Z</time>
      </trkpt>
      <trkpt lat="48.19736" lon="7.12713">
        <ele>842.379</ele>
        <time>2012-06-02T09:46:08Z</time>
      </trkpt>
      <trkpt lat="48.19732" lon="7.12686">
        <ele>846.08</ele>
        <time>2012-06-02T09:46:14Z</time>
      </trkpt>
      <trkpt lat="48.19731" lon="7.1266">
        <ele>845.909</ele>
        <time>2012-06-02T09:46:20Z</time>
      </trkpt>
      <trkpt lat="48.19731" lon="7.12632">
        <ele>851.472</ele>
        <time>2012-06-02T09:46:26Z</time>
      </trkpt>
      <trkpt lat="48.19731" lon="7.12594">
        <ele>853.73</ele>
        <time>2012-06-02T09:46:34Z</time>
      </trkpt>
      <trkpt lat="48.19719" lon="7.12572">
        <ele>853.549</ele>
        <time>2012-06-02T09:46:40Z</time>
      </trkpt>
      <trkpt lat="48.19702" lon="7.12559">
        <ele>842.406</ele>
        <time>2012-06-02T09:46:46Z</time>
      </trkpt>
      <trkpt lat="48.19679" lon="7.12546">
        <ele>837.735</ele>
        <time>2012-06-02T09:46:54Z</time>
      </trkpt>
      <trkpt lat="48.19665" lon="7.12536">
        <ele>839.326</ele>
        <time>2012-06-02T09:46:59Z</time>
      </trkpt>
      <trkpt lat="48.19641" lon="7.12523">
        <ele>839.397</ele>
        <time>2012-06-02T09:47:07Z</time>
      </trkpt>
      <trkpt lat="48.19613" lon="7.12505">
        <ele>842.459</ele>
        <time>2012-06-02T09:47:17Z</time>
      </trkpt>
      <trkpt lat="48.19588" lon="7.12485">
        <ele>854.244</ele>
        <time>2012-06-02T09:47:26Z</time>
      </trkpt>
      <trkpt lat="48.19567" lon="7.12465">
        <ele>858.833</ele>
        <time>2012-06-02T09:47:34Z</time>
      </trkpt>
      <trkpt lat="48.19542" lon="7.12441">
        <ele>852.008</ele>
        <time>2012-06-02T09:47:44Z</time>
      </trkpt>
      <trkpt lat="48.19517" lon="7.12425">
        <ele>850.588</ele>
        <time>2012-06-02T09:47:53Z</time>
      </trkpt>
      <trkpt lat="48.19499" lon="7.12415">
        <ele>857.09</ele>
        <time>2012-06-02T09:48:00Z</time>
      </trkpt>
      <trkpt lat="48.19493" lon="7.12395">
        <ele>860.891</ele>
        <time>2012-06-02T09:48:05Z</time>
      </trkpt>
      <trkpt lat="48.19497" lon="7.12366">
        <ele>861.019</ele>
        <time>2012-06-02T09:48:11Z</time>
      </trkpt>
      <trkpt lat="48.19507" lon="7.12336">
        <ele>858.466</ele>
        <time>2012-06-02T09:48:18Z</time>
      </trkpt>
      <trkpt lat="48.19523" lon="7.12305">
        <ele>859.518</ele>
        <time>2012-06-02T09:48:26Z</time>
      </trkpt>
      <trkpt lat="48.19532" lon="7.12289">
        <ele>860.337</ele>
        <time>2012-06-02T09:48:32Z</time>
      </trkpt>
      <trkpt lat="48.19538" lon="7.12269">
        <ele>860.058</ele>
        <time>2012-06-02T09:48:38Z</time>
      </trkpt>
      <trkpt lat="48.19537" lon="7.12246">
        <ele>861.159</ele>
        <time>2012-06-02T09:48:44Z</time>
      </trkpt>
      <trkpt lat="48.19533" lon="7.12235">
        <ele>862.958</ele>
        <time>2012-06-02T09:48:48Z</time>
      </trkpt>
      <trkpt lat="48.1953" lon="7.12215">
        <ele>868.72</ele>
        <time>2012-06-02T09:48:53Z</time>
      </trkpt>
      <trkpt lat="48.19524" lon="7.12184">
        <ele>879.405</ele>
        <time>2012-06-02T09:49:00Z</time>
      </trkpt>
      <trkpt lat="48.19519" lon="7.12156">
        <ele>884.904</ele>
        <time>2012-06-02T09:49:07Z</time>
      </trkpt>
      <trkpt lat="48.19512" lon="7.12119">
        <ele>882.288</ele>
        <time>2012-06-02T09:49:16Z</time>
      </trkpt>
      <trkpt lat="48.19505" lon="7.12084">
        <ele>883.397</ele>
        <time>2012-06-02T09:49:24Z</time>
      </trkpt>
      <trkpt lat="48.19498" lon="7.12057">
        <ele>884.759</ele>
        <time>2012-06-02T09:49:30Z</time>
      </trkpt>
      <trkpt lat="48.19489" lon="7.12022">
        <ele>891.061</ele>
        <time>2012-06-02T09:49:38Z</time>
      </trkpt>
      <trkpt lat="48.19475" lon="7.11977">
        <ele>893.471</ele>
        <time>2012-06-02T09:49:48Z</time>
      </trkpt>
      <trkpt lat="48.19465" lon="7.11938">
        <ele>887.837</ele>
        <time>2012-06-02T09:49:57Z</time>
      </trkpt>
      <trkpt lat="48.19456" lon="7.11902">
        <ele>892.66</ele>
        <time>2012-06-02T09:50:05Z</time>
      </trkpt>
      <trkpt lat="48.19443" lon="7.11861">
        <ele>892.328</ele>
        <time>2012-06-02T09:50:15Z</time>
      </trkpt>
      <trkpt lat="48.19431" lon="7.11835">
        <ele>888.566</ele>
        <time>2012-06-02T09:50:22Z</time>
      </trkpt>
      <trkpt lat="48.19419" lon="7.11813">
        <ele>885.406</ele>
        <time>2012-06-02T09:50:28Z</time>
      </trkpt>
      <trkpt lat="48.19396" lon="7.11776">
        <ele>883.028</ele>
        <time>2012-06-02T09:50:39Z</time>
      </trkpt>
      <trkpt lat="48.19373" lon="7.11751">
        <ele>884.679</ele>
        <time>2012-06-02T09:50:48Z</time>
      </trkpt>
      <trkpt lat="48.19353" lon="7.11723">
        <ele>900.637</ele>
        <time>2012-06-02T09:50:57Z</time>
      </trkpt>
      <trkpt lat="48.19345" lon="7.11692">
        <ele>907.484</ele>
        <time>2012-06-02T09:51:04Z</time>
      </trkpt>
      <trkpt lat="48.19339" lon="7.11644">
        <ele>901.637</ele>
        <time>2012-06-02T09:51:13Z</time>
      </trkpt>
      <trkpt lat="48.19329" lon="7.11593">
        <ele>900.267</ele>
        <time>2012-06-02T09:51:23Z</time>
      </trkpt>
      <trkpt lat="48.19316" lon="7.11539">
        <ele>899.109</ele>
        <time>2012-06-02T09:51:34Z</time>
      </trkpt>
      <trkpt lat="48.19306" lon="7.11504">
        <ele>900.258</ele>
        <time>2012-06-02T09:51:42Z</time>
      </trkpt>
      <trkpt lat="48.19292" lon="7.11469">
        <ele>904.95</ele>
        <time>2012-06-02T09:51:51Z</time>
      </trkpt>
      <trkpt lat="48.1928" lon="7.11444">
        <ele>907.921</ele>
        <time>2012-06-02T09:51:58Z</time>
      </trkpt>
      <trkpt lat="48.19277" lon="7.11433">
        <ele>908.101</ele>
        <time>2012-06-02T09:52:03Z</time>
      </trkpt>
      <trkpt lat="48.19279" lon="7.11431">
        <ele>904.118</ele>
        <time>2012-06-02T09:56:47Z</time>
      </trkpt>
      <trkpt lat="48.1928" lon="7.1143">
        <ele>903.178</ele>
        <time>2012-06-02T09:57:41Z</time>
      </trkpt>
      <trkpt lat="48.1885" lon="7.11404">
        <ele>857.071</ele>
        <time>2012-06-02T10:04:47Z</time>
      </trkpt>
      <trkpt lat="48.18824" lon="7.1136">
        <ele>855.244</ele>
        <time>2012-06-02T10:04:50Z</time>
      </trkpt>
      <trkpt lat="48.18773" lon="7.11304">
        <ele>849.331</ele>
        <time>2012-06-02T10:04:55Z</time>
      </trkpt>
      <trkpt lat="48.18716" lon="7.11258">
        <ele>846.201</ele>
        <time>2012-06-02T10:05:00Z</time>
      </trkpt>
      <trkpt lat="48.18692" lon="7.11244">
        <ele>844.511</ele>
        <time>2012-06-02T10:05:02Z</time>
      </trkpt>
      <trkpt lat="48.1864" lon="7.11239">
        <ele>841.01</ele>
        <time>2012-06-02T10:05:06Z</time>
      </trkpt>
      <trkpt lat="48.18603" lon="7.11258">
        <ele>839.341</ele>
        <time>2012-06-02T10:05:09Z</time>
      </trkpt>
      <trkpt lat="48.18568" lon="7.11254">
        <ele>835.5</ele>
        <time>2012-06-02T10:05:12Z</time>
      </trkpt>
      <trkpt lat="48.1855" lon="7.11229">
        <ele>832.809</ele>
        <time>2012-06-02T10:05:14Z</time>
      </trkpt>
      <trkpt lat="48.18542" lon="7.11216">
        <ele>831.979</ele>
        <time>2012-06-02T10:05:15Z</time>
      </trkpt>
      <trkpt lat="48.18491" lon="7.11169">
        <ele>828.049</ele>
        <time>2012-06-02T10:05:20Z</time>
      </trkpt>
      <trkpt lat="48.18467" lon="7.11173">
        <ele>825.399</ele>
        <time>2012-06-02T10:05:22Z</time>
      </trkpt>
      <trkpt lat="48.18429" lon="7.11184">
        <ele>823.601</ele>
        <time>2012-06-02T10:05:26Z</time>
      </trkpt>
      <trkpt lat="48.18416" lon="7.1117">
        <ele>821.111</ele>
        <time>2012-06-02T10:05:29Z</time>
      </trkpt>
      <trkpt lat="48.18427" lon="7.11146">
        <ele>819.061</ele>
        <time>2012-06-02T10:05:32Z</time>
      </trkpt>
      <trkpt lat="48.18434" lon="7.11144">
        <ele>818.708</ele>
        <time>2012-06-02T10:05:33Z</time>
      </trkpt>
      <trkpt lat="48.18484" lon="7.11135">
        <ele>816.653</ele>
        <time>2012-06-02T10:05:39Z</time>
      </trkpt>
      <trkpt lat="48.18518" lon="7.11122">
        <ele>815.043</ele>
        <time>2012-06-02T10:05:43Z</time>
      </trkpt>
      <trkpt lat="48.18554" lon="7.11131">
        <ele>815.554</ele>
        <time>2012-06-02T10:05:47Z</time>
      </trkpt>
      <trkpt lat="48.1856" lon="7.11145">
        <ele>815.426</ele>
        <time>2012-06-02T10:05:48Z</time>
      </trkpt>
      <trkpt lat="48.18587" lon="7.11174">
        <ele>813.465</ele>
        <time>2012-06-02T10:05:52Z</time>
      </trkpt>
      <trkpt lat="48.18597" lon="7.11157">
        <ele>811.514</ele>
        <time>2012-06-02T10:05:54Z</time>
      </trkpt>
      <trkpt lat="48.18589" lon="7.11136">
        <ele>810.595</ele>
        <time>2012-06-02T10:05:56Z</time>
      </trkpt>
      <trkpt lat="48.18568" lon="7.11112">
        <ele>807.272</ele>
        <time>2012-06-02T10:05:59Z</time>
      </trkpt>
      <trkpt lat="48.18553" lon="7.1108">
        <ele>806.684</ele>
        <time>2012-06-02T10:06:02Z</time>
      </trkpt>
      <trkpt lat="48.18529" lon="7.11063">
        <ele>805.105</ele>
        <time>2012-06-02T10:06:05Z</time>
      </trkpt>
      <trkpt lat="48.18488" lon="7.11055">
        <ele>801.402</ele>
        <time>2012-06-02T10:06:09Z</time>
      </trkpt>
      <trkpt lat="48.18434" lon="7.11067">
        <ele>797.923</ele>
        <time>2012-06-02T10:06:14Z</time>
      </trkpt>
      <trkpt lat="48.18389" lon="7.11067">
        <ele>795.153</ele>
        <time>2012-06-02T10:06:18Z</time>
      </trkpt>
      <trkpt lat="48.18357" lon="7.1107">
        <ele>793.181</ele>
        <time>2012-06-02T10:06:21Z</time>
      </trkpt>
      <trkpt lat="48.18332" lon="7.11079">
        <ele>791.842</ele>
        <time>2012-06-02T10:06:24Z</time>
      </trkpt>
      <trkpt lat="48.18326" lon="7.11056">
        <ele>787.6</ele>
        <time>2012-06-02T10:06:26Z</time>
      </trkpt>
      <trkpt lat="48.18333" lon="7.11034">
        <ele>786.091</ele>
        <time>2012-06-02T10:06:28Z</time>
      </trkpt>
      <trkpt lat="48.18352" lon="7.11028">
        <ele>784.612</ele>
        <time>2012-06-02T10:06:30Z</time>
      </trkpt>
      <trkpt lat="48.18362" lon="7.11027">
        <ele>784.343</ele>
        <time>2012-06-02T10:06:31Z</time>
      </trkpt>
      <trkpt lat="48.18381" lon="7.1103">
        <ele>784.133</ele>
        <time>2012-06-02T10:06:33Z</time>
      </trkpt>
      <trkpt lat="48.18415" lon="7.11017">
        <ele>781.464</ele>
        <time>2012-06-02T10:06:37Z</time>
      </trkpt>
      <trkpt lat="48.18462" lon="7.10991">
        <ele>780.396</ele>
        <time>2012-06-02T10:06:43Z</time>
      </trkpt>
      <trkpt lat="48.18514" lon="7.10995">
        <ele>777.864</ele>
        <time>2012-06-02T10:06:49Z</time>
      </trkpt>
      <trkpt lat="48.18565" lon="7.11005">
        <ele>774.564</ele>
        <time>2012-06-02T10:06:55Z</time>
      </trkpt>
      <trkpt lat="48.18599" lon="7.11021">
        <ele>773.134</ele>
        <time>2012-06-02T10:06:59Z</time>
      </trkpt>
      <trkpt lat="48.18616" lon="7.11021">
        <ele>771.893</ele>
        <time>2012-06-02T10:07:01Z</time>
      </trkpt>
      <trkpt lat="48.18669" lon="7.11021">
        <ele>771.105</ele>
        <time>2012-06-02T10:07:07Z</time>
      </trkpt>
      <trkpt lat="48.18717" lon="7.11037">
        <ele>767.283</ele>
        <time>2012-06-02T10:07:12Z</time>
      </trkpt>
      <trkpt lat="48.18726" lon="7.1104">
        <ele>766.403</ele>
        <time>2012-06-02T10:07:13Z</time>
      </trkpt>
      <trkpt lat="48.18748" lon="7.11011">
        <ele>762.529</ele>
        <time>2012-06-02T10:07:17Z</time>
      </trkpt>
      <trkpt lat="48.18738" lon="7.10988">
        <ele>762.301</ele>
        <time>2012-06-02T10:07:19Z</time>
      </trkpt>
      <trkpt lat="48.18717" lon="7.1097">
        <ele>763.483</ele>
        <time>2012-06-02T10:07:21Z</time>
      </trkpt>
      <trkpt lat="48.18652" lon="7.10933">
        <ele>764.693</ele>
        <time>2012-06-02T10:07:28Z</time>
      </trkpt>
      <trkpt lat="48.18632" lon="7.10926">
        <ele>763.893</ele>
        <time>2012-06-02T10:07:30Z</time>
      </trkpt>
      <trkpt lat="48.18585" lon="7.10888">
        <ele>761.712</ele>
        <time>2012-06-02T10:07:35Z</time>
      </trkpt>
      <trkpt lat="48.18544" lon="7.10858">
        <ele>760.322</ele>
        <time>2012-06-02T10:07:39Z</time>
      </trkpt>
      <trkpt lat="48.18479" lon="7.10828">
        <ele>757.181</ele>
        <time>2012-06-02T10:07:45Z</time>
      </trkpt>
      <trkpt lat="48.18398" lon="7.10805">
        <ele>752.281</ele>
        <time>2012-06-02T10:07:52Z</time>
      </trkpt>
      <trkpt lat="48.18316" lon="7.10793">
        <ele>746.889</ele>
        <time>2012-06-02T10:07:59Z</time>
      </trkpt>
      <trkpt lat="48.18223" lon="7.10793">
        <ele>741.43</ele>
        <time>2012-06-02T10:08:07Z</time>
      </trkpt>
      <trkpt lat="48.18132" lon="7.10795">
        <ele>734.23</ele>
        <time>2012-06-02T10:08:15Z</time>
      </trkpt>
      <trkpt lat="48.18033" lon="7.10779">
        <ele>728.13</ele>
        <time>2012-06-02T10:08:24Z</time>
      </trkpt>
      <trkpt lat="48.17971" lon="7.10767">
        <ele>724.209</ele>
        <time>2012-06-02T10:08:30Z</time>
      </trkpt>
      <trkpt lat="48.17895" lon="7.10753">
        <ele>720.601</ele>
        <time>2012-06-02T10:08:38Z</time>
      </trkpt>
      <trkpt lat="48.17803" lon="7.10741">
        <ele>714.801</ele>
        <time>2012-06-02T10:08:48Z</time>
      </trkpt>
      <trkpt lat="48.17747" lon="7.10753">
        <ele>712.442</ele>
        <time>2012-06-02T10:08:54Z</time>
      </trkpt>
      <trkpt lat="48.17702" lon="7.1078">
        <ele>710.542</ele>
        <time>2012-06-02T10:08:59Z</time>
      </trkpt>
      <trkpt lat="48.17633" lon="7.10834">
        <ele>714.446</ele>
        <time>2012-06-02T10:09:07Z</time>
      </trkpt>
      <trkpt lat="48.17605" lon="7.10877">
        <ele>715.456</ele>
        <time>2012-06-02T10:09:11Z</time>
      </trkpt>
      <trkpt lat="48.17595" lon="7.1092">
        <ele>713.244</ele>
        <time>2012-06-02T10:09:14Z</time>
      </trkpt>
      <trkpt lat="48.17583" lon="7.10977">
        <ele>709.142</ele>
        <time>2012-06-02T10:09:18Z</time>
      </trkpt>
      <trkpt lat="48.17561" lon="7.11021">
        <ele>707.523</ele>
        <time>2012-06-02T10:09:22Z</time>
      </trkpt>
      <trkpt lat="48.17531" lon="7.11071">
        <ele>703.204</ele>
        <time>2012-06-02T10:09:28Z</time>
      </trkpt>
      <trkpt lat="48.17516" lon="7.11116">
        <ele>701.003</ele>
        <time>2012-06-02T10:09:33Z</time>
      </trkpt>
      <trkpt lat="48.17495" lon="7.1118">
        <ele>697.853</ele>
        <time>2012-06-02T10:09:40Z</time>
      </trkpt>
      <trkpt lat="48.17469" lon="7.11222">
        <ele>696.303</ele>
        <time>2012-06-02T10:09:45Z</time>
      </trkpt>
      <trkpt lat="48.1742" lon="7.11273">
        <ele>694.853</ele>
        <time>2012-06-02T10:09:52Z</time>
      </trkpt>
      <trkpt lat="48.17406" lon="7.11288">
        <ele>694.103</ele>
        <time>2012-06-02T10:09:54Z</time>
      </trkpt>
      <trkpt lat="48.1734" lon="7.11341">
        <ele>692.812</ele>
        <time>2012-06-02T10:10:03Z</time>
      </trkpt>
      <trkpt lat="48.17321" lon="7.11357">
        <ele>692.323</ele>
        <time>2012-06-02T10:10:06Z</time>
      </trkpt>
      <trkpt lat="48.17294" lon="7.11365">
        <ele>693.195</ele>
        <time>2012-06-02T10:10:10Z</time>
      </trkpt>
      <trkpt lat="48.17255" lon="7.11366">
        <ele>691.174</ele>
        <time>2012-06-02T10:10:17Z</time>
      </trkpt>
      <trkpt lat="48.17236" lon="7.11369">
        <ele>692.715</ele>
        <time>2012-06-02T10:10:22Z</time>
      </trkpt>
      <trkpt lat="48.17236" lon="7.11368">
        <ele>691.175</ele>
        <time>2012-06-02T10:10:27Z</time>
      </trkpt>
      <trkpt lat="48.17232" lon="7.11372">
        <ele>692.066</ele>
        <time>2012-06-02T10:10:30Z</time>
      </trkpt>
      <trkpt lat="48.17231" lon="7.11396">
        <ele>691.905</ele>
        <time>2012-06-02T10:10:35Z</time>
      </trkpt>
      <trkpt lat="48.17226" lon="7.11449">
        <ele>689.264</ele>
        <time>2012-06-02T10:10:42Z</time>
      </trkpt>
      <trkpt lat="48.17225" lon="7.11499">
        <ele>685.351</ele>
        <time>2012-06-02T10:10:47Z</time>
      </trkpt>
      <trkpt lat="48.17216" lon="7.11573">
        <ele>683.942</ele>
        <time>2012-06-02T10:10:53Z</time>
      </trkpt>
      <trkpt lat="48.172" lon="7.11655">
        <ele>681.913</ele>
        <time>2012-06-02T10:11:00Z</time>
      </trkpt>
      <trkpt lat="48.17194" lon="7.11688">
        <ele>681.433</ele>
        <time>2012-06-02T10:11:03Z</time>
      </trkpt>
      <trkpt lat="48.17193" lon="7.11759">
        <ele>677.131</ele>
        <time>2012-06-02T10:11:10Z</time>
      </trkpt>
      <trkpt lat="48.17193" lon="7.11804">
        <ele>677.502</ele>
        <time>2012-06-02T10:11:14Z</time>
      </trkpt>
      <trkpt lat="48.1718" lon="7.11898">
        <ele>680.703</ele>
        <time>2012-06-02T10:11:22Z</time>
      </trkpt>
      <trkpt lat="48.17159" lon="7.11948">
        <ele>679.262</ele>
        <time>2012-06-02T10:11:27Z</time>
      </trkpt>
      <trkpt lat="48.17152" lon="7.11955">
        <ele>678.272</ele>
        <time>2012-06-02T10:11:28Z</time>
      </trkpt>
      <trkpt lat="48.17138" lon="7.11969">
        <ele>677.301</ele>
        <time>2012-06-02T10:11:30Z</time>
      </trkpt>
      <trkpt lat="48.17102" lon="7.12027">
        <ele>675.852</ele>
        <time>2012-06-02T10:11:36Z</time>
      </trkpt>
      <trkpt lat="48.17076" lon="7.12103">
        <ele>675.003</ele>
        <time>2012-06-02T10:11:43Z</time>
      </trkpt>
      <trkpt lat="48.17064" lon="7.12174">
        <ele>668.7</ele>
        <time>2012-06-02T10:11:49Z</time>
      </trkpt>
      <trkpt lat="48.17053" lon="7.12266">
        <ele>668.351</ele>
        <time>2012-06-02T10:11:56Z</time>
      </trkpt>
      <trkpt lat="48.17033" lon="7.12348">
        <ele>666.572</ele>
        <time>2012-06-02T10:12:03Z</time>
      </trkpt>
      <trkpt lat="48.17011" lon="7.12434">
        <ele>665.202</ele>
        <time>2012-06-02T10:12:10Z</time>
      </trkpt>
      <trkpt lat="48.17004" lon="7.1246">
        <ele>664.331</ele>
        <time>2012-06-02T10:12:12Z</time>
      </trkpt>
      <trkpt lat="48.16996" lon="7.12544">
        <ele>665.123</ele>
        <time>2012-06-02T10:12:18Z</time>
      </trkpt>
      <trkpt lat="48.16992" lon="7.12599">
        <ele>665.604</ele>
        <time>2012-06-02T10:12:22Z</time>
      </trkpt>
      <trkpt lat="48.16996" lon="7.12654">
        <ele>660.741</ele>
        <time>2012-06-02T10:12:26Z</time>
      </trkpt>
      <trkpt lat="48.17021" lon="7.12769">
        <ele>653.601</ele>
        <time>2012-06-02T10:12:35Z</time>
      </trkpt>
      <trkpt lat="48.17044" lon="7.12854">
        <ele>652.112</ele>
        <time>2012-06-02T10:12:42Z</time>
      </trkpt>
      <trkpt lat="48.17062" lon="7.12968">
        <ele>650.294</ele>
        <time>2012-06-02T10:12:51Z</time>
      </trkpt>
      <trkpt lat="48.17068" lon="7.1304">
        <ele>650.904</ele>
        <time>2012-06-02T10:12:57Z</time>
      </trkpt>
      <trkpt lat="48.17061" lon="7.13112">
        <ele>649.542</ele>
        <time>2012-06-02T10:13:03Z</time>
      </trkpt>
      <trkpt lat="48.1705" lon="7.13204">
        <ele>645.51</ele>
        <time>2012-06-02T10:13:10Z</time>
      </trkpt>
      <trkpt lat="48.17035" lon="7.13303">
        <ele>639.077</ele>
        <time>2012-06-02T10:13:17Z</time>
      </trkpt>
      <trkpt lat="48.17017" lon="7.13356">
        <ele>636.008</ele>
        <time>2012-06-02T10:13:21Z</time>
      </trkpt>
      <trkpt lat="48.1699" lon="7.13402">
        <ele>633.659</ele>
        <time>2012-06-02T10:13:25Z</time>
      </trkpt>
      <trkpt lat="48.16933" lon="7.13488">
        <ele>629.796</ele>
        <time>2012-06-02T10:13:33Z</time>
      </trkpt>
      <trkpt lat="48.16898" lon="7.13557">
        <ele>627.611</ele>
        <time>2012-06-02T10:13:39Z</time>
      </trkpt>
      <trkpt lat="48.16873" lon="7.13636">
        <ele>626.162</ele>
        <time>2012-06-02T10:13:45Z</time>
      </trkpt>
      <trkpt lat="48.16856" lon="7.13727">
        <ele>620.839</ele>
        <time>2012-06-02T10:13:51Z</time>
      </trkpt>
      <trkpt lat="48.16849" lon="7.13848">
        <ele>617.119</ele>
        <time>2012-06-02T10:13:58Z</time>
      </trkpt>
      <trkpt lat="48.16839" lon="7.13995">
        <ele>607.567</ele>
        <time>2012-06-02T10:14:06Z</time>
      </trkpt>
      <trkpt lat="48.16832" lon="7.14033">
        <ele>605.756</ele>
        <time>2012-06-02T10:14:08Z</time>
      </trkpt>
      <trkpt lat="48.16805" lon="7.14102">
        <ele>600.525</ele>
        <time>2012-06-02T10:14:12Z</time>
      </trkpt>
      <trkpt lat="48.16785" lon="7.14131">
        <ele>598.835</ele>
        <time>2012-06-02T10:14:14Z</time>
      </trkpt>
      <trkpt lat="48.1667" lon="7.14275">
        <ele>594.07</ele>
        <time>2012-06-02T10:14:25Z</time>
      </trkpt>
      <trkpt lat="48.16637" lon="7.14335">
        <ele>590.528</ele>
        <time>2012-06-02T10:14:29Z</time>
      </trkpt>
      <trkpt lat="48.16619" lon="7.14406">
        <ele>587.295</ele>
        <time>2012-06-02T10:14:33Z</time>
      </trkpt>
      <trkpt lat="48.16616" lon="7.14425">
        <ele>585.186</ele>
        <time>2012-06-02T10:14:34Z</time>
      </trkpt>
      <trkpt lat="48.1661" lon="7.14579">
        <ele>576.036</ele>
        <time>2012-06-02T10:14:42Z</time>
      </trkpt>
      <trkpt lat="48.16601" lon="7.14706">
        <ele>563.952</ele>
        <time>2012-06-02T10:14:49Z</time>
      </trkpt>
      <trkpt lat="48.16582" lon="7.14841">
        <ele>560.571</ele>
        <time>2012-06-02T10:14:56Z</time>
      </trkpt>
      <trkpt lat="48.16575" lon="7.1488">
        <ele>559.063</ele>
        <time>2012-06-02T10:14:58Z</time>
      </trkpt>
      <trkpt lat="48.16539" lon="7.1496">
        <ele>554.542</ele>
        <time>2012-06-02T10:15:03Z</time>
      </trkpt>
      <trkpt lat="48.1649" lon="7.15066">
        <ele>535.864</ele>
        <time>2012-06-02T10:15:10Z</time>
      </trkpt>
      <trkpt lat="48.16438" lon="7.15186">
        <ele>528.878</ele>
        <time>2012-06-02T10:15:17Z</time>
      </trkpt>
      <trkpt lat="48.16418" lon="7.15238">
        <ele>529.383</ele>
        <time>2012-06-02T10:15:20Z</time>
      </trkpt>
      <trkpt lat="48.164" lon="7.15333">
        <ele>530.988</ele>
        <time>2012-06-02T10:15:25Z</time>
      </trkpt>
      <trkpt lat="48.164" lon="7.15408">
        <ele>528.538</ele>
        <time>2012-06-02T10:15:29Z</time>
      </trkpt>
      <trkpt lat="48.16414" lon="7.15501">
        <ele>523.085</ele>
        <time>2012-06-02T10:15:34Z</time>
      </trkpt>
      <trkpt lat="48.16437" lon="7.15651">
        <ele>517.906</ele>
        <time>2012-06-02T10:15:42Z</time>
      </trkpt>
      <trkpt lat="48.16445" lon="7.15744">
        <ele>511.783</ele>
        <time>2012-06-02T10:15:47Z</time>
      </trkpt>
      <trkpt lat="48.16438" lon="7.1582">
        <ele>509.363</ele>
        <time>2012-06-02T10:15:51Z</time>
      </trkpt>
      <trkpt lat="48.16422" lon="7.15896">
        <ele>505.883</ele>
        <time>2012-06-02T10:15:55Z</time>
      </trkpt>
      <trkpt lat="48.16395" lon="7.15967">
        <ele>505.966</ele>
        <time>2012-06-02T10:15:59Z</time>
      </trkpt>
      <trkpt lat="48.16351" lon="7.16072">
        <ele>500.696</ele>
        <time>2012-06-02T10:16:05Z</time>
      </trkpt>
      <trkpt lat="48.16336" lon="7.1615">
        <ele>496.404</ele>
        <time>2012-06-02T10:16:09Z</time>
      </trkpt>
      <trkpt lat="48.16331" lon="7.16252">
        <ele>491.394</ele>
        <time>2012-06-02T10:16:14Z</time>
      </trkpt>
      <trkpt lat="48.16305" lon="7.1633">
        <ele>484.104</ele>
        <time>2012-06-02T10:16:18Z</time>
      </trkpt>
      <trkpt lat="48.16287" lon="7.16352">
        <ele>476.96</ele>
        <time>2012-06-02T10:16:20Z</time>
      </trkpt>
      <trkpt lat="48.16218" lon="7.16438">
        <ele>471.232</ele>
        <time>2012-06-02T10:16:26Z</time>
      </trkpt>
      <trkpt lat="48.16157" lon="7.16542">
        <ele>468.901</ele>
        <time>2012-06-02T10:16:33Z</time>
      </trkpt>
      <trkpt lat="48.16108" lon="7.16623">
        <ele>468.915</ele>
        <time>2012-06-02T10:16:39Z</time>
      </trkpt>
      <trkpt lat="48.16053" lon="7.16683">
        <ele>467.828</ele>
        <time>2012-06-02T10:16:45Z</time>
      </trkpt>
      <trkpt lat="48.16014" lon="7.16709">
        <ele>468.029</ele>
        <time>2012-06-02T10:16:49Z</time>
      </trkpt>
      <trkpt lat="48.1595" lon="7.16728">
        <ele>466.913</ele>
        <time>2012-06-02T10:16:55Z</time>
      </trkpt>
      <trkpt lat="48.15873" lon="7.1673">
        <ele>463.991</ele>
        <time>2012-06-02T10:17:02Z</time>
      </trkpt>
      <trkpt lat="48.15785" lon="7.1673">
        <ele>457.843</ele>
        <time>2012-06-02T10:17:10Z</time>
      </trkpt>
      <trkpt lat="48.15729" lon="7.16738">
        <ele>454.905</ele>
        <time>2012-06-02T10:17:15Z</time>
      </trkpt>
      <trkpt lat="48.15676" lon="7.1676">
        <ele>450.873</ele>
        <time>2012-06-02T10:17:20Z</time>
      </trkpt>
      <trkpt lat="48.15625" lon="7.16795">
        <ele>447.08</ele>
        <time>2012-06-02T10:17:25Z</time>
      </trkpt>
      <trkpt lat="48.15579" lon="7.1684">
        <ele>443.983</ele>
        <time>2012-06-02T10:17:30Z</time>
      </trkpt>
      <trkpt lat="48.155" lon="7.16928">
        <ele>438.443</ele>
        <time>2012-06-02T10:17:39Z</time>
      </trkpt>
      <trkpt lat="48.1544" lon="7.16999">
        <ele>435.074</ele>
        <time>2012-06-02T10:17:46Z</time>
      </trkpt>
      <trkpt lat="48.1538" lon="7.17065">
        <ele>432.526</ele>
        <time>2012-06-02T10:17:53Z</time>
      </trkpt>
      <trkpt lat="48.15328" lon="7.17119">
        <ele>431.14</ele>
        <time>2012-06-02T10:17:59Z</time>
      </trkpt>
      <trkpt lat="48.15266" lon="7.17174">
        <ele>429.441</ele>
        <time>2012-06-02T10:18:06Z</time>
      </trkpt>
      <trkpt lat="48.15232" lon="7.17202">
        <ele>428.398</ele>
        <time>2012-06-02T10:18:10Z</time>
      </trkpt>
      <trkpt lat="48.15148" lon="7.17274">
        <ele>425.618</ele>
        <time>2012-06-02T10:18:20Z</time>
      </trkpt>
      <trkpt lat="48.15072" lon="7.17338">
        <ele>422.196</ele>
        <time>2012-06-02T10:18:29Z</time>
      </trkpt>
      <trkpt lat="48.14977" lon="7.17419">
        <ele>415.434</ele>
        <time>2012-06-02T10:18:40Z</time>
      </trkpt>
      <trkpt lat="48.14908" lon="7.17476">
        <ele>411.039</ele>
        <time>2012-06-02T10:18:48Z</time>
      </trkpt>
      <trkpt lat="48.14843" lon="7.17529">
        <ele>406.119</ele>
        <time>2012-06-02T10:18:56Z</time>
      </trkpt>
      <trkpt lat="48.14779" lon="7.17582">
        <ele>397.237</ele>
        <time>2012-06-02T10:19:05Z</time>
      </trkpt>
      <trkpt lat="48.14729" lon="7.17635">
        <ele>392.188</ele>
        <time>2012-06-02T10:19:13Z</time>
      </trkpt>
      <trkpt lat="48.14701" lon="7.17679">
        <ele>391.029</ele>
        <time>2012-06-02T10:19:18Z</time>
      </trkpt>
      <trkpt lat="48.14652" lon="7.17769">
        <ele>388.917</ele>
        <time>2012-06-02T10:19:27Z</time>
      </trkpt>
      <trkpt lat="48.14642" lon="7.17791">
        <ele>388.769</ele>
        <time>2012-06-02T10:19:29Z</time>
      </trkpt>
      <trkpt lat="48.14623" lon="7.17864">
        <ele>388.569</ele>
        <time>2012-06-02T10:19:35Z</time>
      </trkpt>
      <trkpt lat="48.1461" lon="7.1797">
        <ele>390.069</ele>
        <time>2012-06-02T10:19:43Z</time>
      </trkpt>
      <trkpt lat="48.14596" lon="7.1803">
        <ele>388.459</ele>
        <time>2012-06-02T10:19:48Z</time>
      </trkpt>
      <trkpt lat="48.14567" lon="7.18121">
        <ele>385.689</ele>
        <time>2012-06-02T10:19:56Z</time>
      </trkpt>
      <trkpt lat="48.14545" lon="7.18174">
        <ele>384.79</ele>
        <time>2012-06-02T10:20:02Z</time>
      </trkpt>
      <trkpt lat="48.14522" lon="7.18219">
        <ele>383.77</ele>
        <time>2012-06-02T10:20:08Z</time>
      </trkpt>
      <trkpt lat="48.14507" lon="7.18234">
        <ele>383.901</ele>
        <time>2012-06-02T10:20:11Z</time>
      </trkpt>
      <trkpt lat="48.14491" lon="7.18259">
        <ele>384.041</ele>
        <time>2012-06-02T10:20:15Z</time>
      </trkpt>
      <trkpt lat="48.14492" lon="7.18285">
        <ele>383.309</ele>
        <time>2012-06-02T10:20:18Z</time>
      </trkpt>
      <trkpt lat="48.14507" lon="7.18306">
        <ele>382.889</ele>
        <time>2012-06-02T10:20:21Z</time>
      </trkpt>
      <trkpt lat="48.14514" lon="7.18311">
        <ele>383.049</ele>
        <time>2012-06-02T10:20:22Z</time>
      </trkpt>
      <trkpt lat="48.14542" lon="7.18345">
        <ele>382.79</ele>
        <time>2012-06-02T10:20:27Z</time>
      </trkpt>
      <trkpt lat="48.14572" lon="7.1841">
        <ele>380.806</ele>
        <time>2012-06-02T10:20:34Z</time>
      </trkpt>
      <trkpt lat="48.14595" lon="7.18487">
        <ele>380.247</ele>
        <time>2012-06-02T10:20:41Z</time>
      </trkpt>
      <trkpt lat="48.14617" lon="7.18573">
        <ele>378.598</ele>
        <time>2012-06-02T10:20:49Z</time>
      </trkpt>
      <trkpt lat="48.14645" lon="7.18683">
        <ele>377.9</ele>
        <time>2012-06-02T10:21:00Z</time>
      </trkpt>
      <trkpt lat="48.14669" lon="7.1877">
        <ele>376.939</ele>
        <time>2012-06-02T10:21:09Z</time>
      </trkpt>
      <trkpt lat="48.1468" lon="7.18796">
        <ele>376.24</ele>
        <time>2012-06-02T10:21:12Z</time>
      </trkpt>
      <trkpt lat="48.14716" lon="7.18848">
        <ele>374.77</ele>
        <time>2012-06-02T10:21:19Z</time>
      </trkpt>
      <trkpt lat="48.14747" lon="7.18874">
        <ele>374.28</ele>
        <time>2012-06-02T10:21:24Z</time>
      </trkpt>
      <trkpt lat="48.14766" lon="7.189">
        <ele>373.279</ele>
        <time>2012-06-02T10:21:28Z</time>
      </trkpt>
      <trkpt lat="48.14779" lon="7.18936">
        <ele>372.56</ele>
        <time>2012-06-02T10:21:32Z</time>
      </trkpt>
      <trkpt lat="48.148" lon="7.1902">
        <ele>369.939</ele>
        <time>2012-06-02T10:21:40Z</time>
      </trkpt>
      <trkpt lat="48.14815" lon="7.19071">
        <ele>369.63</ele>
        <time>2012-06-02T10:21:45Z</time>
      </trkpt>
      <trkpt lat="48.14833" lon="7.19087">
        <ele>369.04</ele>
        <time>2012-06-02T10:21:49Z</time>
      </trkpt>
      <trkpt lat="48.14841" lon="7.19084">
        <ele>368.54</ele>
        <time>2012-06-02T10:21:50Z</time>
      </trkpt>
      <trkpt lat="48.14888" lon="7.19068">
        <ele>366.016</ele>
        <time>2012-06-02T10:21:56Z</time>
      </trkpt>
      <trkpt lat="48.1491" lon="7.19078">
        <ele>364.689</ele>
        <time>2012-06-02T10:21:59Z</time>
      </trkpt>
      <trkpt lat="48.14916" lon="7.19101">
        <ele>364.419</ele>
        <time>2012-06-02T10:22:01Z</time>
      </trkpt>
      <trkpt lat="48.14918" lon="7.19113">
        <ele>364.31</ele>
        <time>2012-06-02T10:22:02Z</time>
      </trkpt>
      <trkpt lat="48.14917" lon="7.19148">
        <ele>363.319</ele>
        <time>2012-06-02T10:22:05Z</time>
      </trkpt>
      <trkpt lat="48.1492" lon="7.19171">
        <ele>361.909</ele>
        <time>2012-06-02T10:22:07Z</time>
      </trkpt>
      <trkpt lat="48.14931" lon="7.19229">
        <ele>360.478</ele>
        <time>2012-06-02T10:22:12Z</time>
      </trkpt>
      <trkpt lat="48.14954" lon="7.19262">
        <ele>357.678</ele>
        <time>2012-06-02T10:22:16Z</time>
      </trkpt>
      <trkpt lat="48.14972" lon="7.19262">
        <ele>356.668</ele>
        <time>2012-06-02T10:22:18Z</time>
      </trkpt>
      <trkpt lat="48.14982" lon="7.19258">
        <ele>356.688</ele>
        <time>2012-06-02T10:22:19Z</time>
      </trkpt>
      <trkpt lat="48.15017" lon="7.19247">
        <ele>355.869</ele>
        <time>2012-06-02T10:22:23Z</time>
      </trkpt>
      <trkpt lat="48.1504" lon="7.19259">
        <ele>355.8</ele>
        <time>2012-06-02T10:22:26Z</time>
      </trkpt>
      <trkpt lat="48.15045" lon="7.19268">
        <ele>355.76</ele>
        <time>2012-06-02T10:22:27Z</time>
      </trkpt>
      <trkpt lat="48.15071" lon="7.19328">
        <ele>355.1</ele>
        <time>2012-06-02T10:22:34Z</time>
      </trkpt>
      <trkpt lat="48.15104" lon="7.19395">
        <ele>354.87</ele>
        <time>2012-06-02T10:22:43Z</time>
      </trkpt>
      <trkpt lat="48.15138" lon="7.19452">
        <ele>357.331</ele>
        <time>2012-06-02T10:22:51Z</time>
      </trkpt>
      <trkpt lat="48.15181" lon="7.19522">
        <ele>360.121</ele>
        <time>2012-06-02T10:23:01Z</time>
      </trkpt>
      <trkpt lat="48.15227" lon="7.19592">
        <ele>361.311</ele>
        <time>2012-06-02T10:23:12Z</time>
      </trkpt>
      <trkpt lat="48.15256" lon="7.1964">
        <ele>361.581</ele>
        <time>2012-06-02T10:23:20Z</time>
      </trkpt>
      <trkpt lat="48.1529" lon="7.1969">
        <ele>361.781</ele>
        <time>2012-06-02T10:23:29Z</time>
      </trkpt>
      <trkpt lat="48.15325" lon="7.1974">
        <ele>361.611</ele>
        <time>2012-06-02T10:23:38Z</time>
      </trkpt>
      <trkpt lat="48.15363" lon="7.1978">
        <ele>358.562</ele>
        <time>2012-06-02T10:23:47Z</time>
      </trkpt>
      <trkpt lat="48.15397" lon="7.19805">
        <ele>355.472</ele>
        <time>2012-06-02T10:23:55Z</time>
      </trkpt>
      <trkpt lat="48.15439" lon="7.1985">
        <ele>356.773</ele>
        <time>2012-06-02T10:24:06Z</time>
      </trkpt>
      <trkpt lat="48.15471" lon="7.19893">
        <ele>357.772</ele>
        <time>2012-06-02T10:24:15Z</time>
      </trkpt>
      <trkpt lat="48.15499" lon="7.19945">
        <ele>357.842</ele>
        <time>2012-06-02T10:24:24Z</time>
      </trkpt>
      <trkpt lat="48.15511" lon="7.19976">
        <ele>362.344</ele>
        <time>2012-06-02T10:24:29Z</time>
      </trkpt>
      <trkpt lat="48.15522" lon="7.20012">
        <ele>364.322</ele>
        <time>2012-06-02T10:24:35Z</time>
      </trkpt>
      <trkpt lat="48.15529" lon="7.20041">
        <ele>362.93</ele>
        <time>2012-06-02T10:24:40Z</time>
      </trkpt>
      <trkpt lat="48.15533" lon="7.2006">
        <ele>365.421</ele>
        <time>2012-06-02T10:24:43Z</time>
      </trkpt>
      <trkpt lat="48.15543" lon="7.20114">
        <ele>371.853</ele>
        <time>2012-06-02T10:24:52Z</time>
      </trkpt>
      <trkpt lat="48.1555" lon="7.20165">
        <ele>374.162</ele>
        <time>2012-06-02T10:25:01Z</time>
      </trkpt>
      <trkpt lat="48.15554" lon="7.20206">
        <ele>372.941</ele>
        <time>2012-06-02T10:25:09Z</time>
      </trkpt>
      <trkpt lat="48.15563" lon="7.20241">
        <ele>373.421</ele>
        <time>2012-06-02T10:25:16Z</time>
      </trkpt>
      <trkpt lat="48.15581" lon="7.20289">
        <ele>377.442</ele>
        <time>2012-06-02T10:25:26Z</time>
      </trkpt>
      <trkpt lat="48.15595" lon="7.20319">
        <ele>376.738</ele>
        <time>2012-06-02T10:25:33Z</time>
      </trkpt>
      <trkpt lat="48.15611" lon="7.20333">
        <ele>376.861</ele>
        <time>2012-06-02T10:25:38Z</time>
      </trkpt>
      <trkpt lat="48.15615" lon="7.20333">
        <ele>375.371</ele>
        <time>2012-06-02T10:25:39Z</time>
      </trkpt>
      <trkpt lat="48.15629" lon="7.2033">
        <ele>374.181</ele>
        <time>2012-06-02T10:25:42Z</time>
      </trkpt>
      <trkpt lat="48.1565" lon="7.20318">
        <ele>370.251</ele>
        <time>2012-06-02T10:25:46Z</time>
      </trkpt>
      <trkpt lat="48.15682" lon="7.2029">
        <ele>366.541</ele>
        <time>2012-06-02T10:25:52Z</time>
      </trkpt>
      <trkpt lat="48.15722" lon="7.20262">
        <ele>364.151</ele>
        <time>2012-06-02T10:25:59Z</time>
      </trkpt>
      <trkpt lat="48.15767" lon="7.20239">
        <ele>363.061</ele>
        <time>2012-06-02T10:26:06Z</time>
      </trkpt>
      <trkpt lat="48.15828" lon="7.20206">
        <ele>360.28</ele>
        <time>2012-06-02T10:26:15Z</time>
      </trkpt>
      <trkpt lat="48.15869" lon="7.20181">
        <ele>357.777</ele>
        <time>2012-06-02T10:26:21Z</time>
      </trkpt>
      <trkpt lat="48.15916" lon="7.20138">
        <ele>354.931</ele>
        <time>2012-06-02T10:26:29Z</time>
      </trkpt>
      <trkpt lat="48.15939" lon="7.20114">
        <ele>355.393</ele>
        <time>2012-06-02T10:26:34Z</time>
      </trkpt>
      <trkpt lat="48.15962" lon="7.20095">
        <ele>356.744</ele>
        <time>2012-06-02T10:26:40Z</time>
      </trkpt>
      <trkpt lat="48.15986" lon="7.20083">
        <ele>358.714</ele>
        <time>2012-06-02T10:26:48Z</time>
      </trkpt>
      <trkpt lat="48.16004" lon="7.20076">
        <ele>360.924</ele>
        <time>2012-06-02T10:26:55Z</time>
      </trkpt>
      <trkpt lat="48.16024" lon="7.20067">
        <ele>363.224</ele>
        <time>2012-06-02T10:27:03Z</time>
      </trkpt>
      <trkpt lat="48.16043" lon="7.20057">
        <ele>365.244</ele>
        <time>2012-06-02T10:27:11Z</time>
      </trkpt>
      <trkpt lat="48.16055" lon="7.2005">
        <ele>366.214</ele>
        <time>2012-06-02T10:27:16Z</time>
      </trkpt>
      <trkpt lat="48.16066" lon="7.20055">
        <ele>367.475</ele>
        <time>2012-06-02T10:27:21Z</time>
      </trkpt>
      <trkpt lat="48.16077" lon="7.20068">
        <ele>369.264</ele>
        <time>2012-06-02T10:27:27Z</time>
      </trkpt>
      <trkpt lat="48.16087" lon="7.20064">
        <ele>369.663</ele>
        <time>2012-06-02T10:27:31Z</time>
      </trkpt>
      <trkpt lat="48.16104" lon="7.20044">
        <ele>371.604</ele>
        <time>2012-06-02T10:27:38Z</time>
      </trkpt>
      <trkpt lat="48.16121" lon="7.20024">
        <ele>374.195</ele>
        <time>2012-06-02T10:27:45Z</time>
      </trkpt>
      <trkpt lat="48.16143" lon="7.20002">
        <ele>376.034</ele>
        <time>2012-06-02T10:27:53Z</time>
      </trkpt>
      <trkpt lat="48.16168" lon="7.19978">
        <ele>377.024</ele>
        <time>2012-06-02T10:28:02Z</time>
      </trkpt>
      <trkpt lat="48.16192" lon="7.19954">
        <ele>378.059</ele>
        <time>2012-06-02T10:28:11Z</time>
      </trkpt>
      <trkpt lat="48.16209" lon="7.19938">
        <ele>379.424</ele>
        <time>2012-06-02T10:28:18Z</time>
      </trkpt>
      <trkpt lat="48.16231" lon="7.19917">
        <ele>381.053</ele>
        <time>2012-06-02T10:28:28Z</time>
      </trkpt>
      <trkpt lat="48.16253" lon="7.19901">
        <ele>383.254</ele>
        <time>2012-06-02T10:28:38Z</time>
      </trkpt>
      <trkpt lat="48.1627" lon="7.19894">
        <ele>384.665</ele>
        <time>2012-06-02T10:28:45Z</time>
      </trkpt>
      <trkpt lat="48.16286" lon="7.19894">
        <ele>383.573</ele>
        <time>2012-06-02T10:28:51Z</time>
      </trkpt>
      <trkpt lat="48.16298" lon="7.19893">
        <ele>383.283</ele>
        <time>2012-06-02T10:28:56Z</time>
      </trkpt>
      <trkpt lat="48.16321" lon="7.19891">
        <ele>384.854</ele>
        <time>2012-06-02T10:29:05Z</time>
      </trkpt>
      <trkpt lat="48.16342" lon="7.1989">
        <ele>386.715</ele>
        <time>2012-06-02T10:29:13Z</time>
      </trkpt>
      <trkpt lat="48.16365" lon="7.19886">
        <ele>392.216</ele>
        <time>2012-06-02T10:29:22Z</time>
      </trkpt>
      <trkpt lat="48.16382" lon="7.19879">
        <ele>397.066</ele>
        <time>2012-06-02T10:29:29Z</time>
      </trkpt>
      <trkpt lat="48.16406" lon="7.19866">
        <ele>400.725</ele>
        <time>2012-06-02T10:29:38Z</time>
      </trkpt>
      <trkpt lat="48.16431" lon="7.19853">
        <ele>401.304</ele>
        <time>2012-06-02T10:29:45Z</time>
      </trkpt>
      <trkpt lat="48.16466" lon="7.19831">
        <ele>403.134</ele>
        <time>2012-06-02T10:29:53Z</time>
      </trkpt>
      <trkpt lat="48.16494" lon="7.19815">
        <ele>403.834</ele>
        <time>2012-06-02T10:29:59Z</time>
      </trkpt>
      <trkpt lat="48.16538" lon="7.19795">
        <ele>399.653</ele>
        <time>2012-06-02T10:30:08Z</time>
      </trkpt>
      <trkpt lat="48.16583" lon="7.19769">
        <ele>399.182</ele>
        <time>2012-06-02T10:30:18Z</time>
      </trkpt>
      <trkpt lat="48.16618" lon="7.19751">
        <ele>400.334</ele>
        <time>2012-06-02T10:30:26Z</time>
      </trkpt>
      <trkpt lat="48.16659" lon="7.19728">
        <ele>400.334</ele>
        <time>2012-06-02T10:30:36Z</time>
      </trkpt>
      <trkpt lat="48.16676" lon="7.19717">
        <ele>400.554</ele>
        <time>2012-06-02T10:30:40Z</time>
      </trkpt>
      <trkpt lat="48.16706" lon="7.19684">
        <ele>400.615</ele>
        <time>2012-06-02T10:30:48Z</time>
      </trkpt>
      <trkpt lat="48.16743" lon="7.19643">
        <ele>401.795</ele>
        <time>2012-06-02T10:30:58Z</time>
      </trkpt>
      <trkpt lat="48.16778" lon="7.19607">
        <ele>404.205</ele>
        <time>2012-06-02T10:31:08Z</time>
      </trkpt>
      <trkpt lat="48.16811" lon="7.19574">
        <ele>407.136</ele>
        <time>2012-06-02T10:31:18Z</time>
      </trkpt>
      <trkpt lat="48.16845" lon="7.19543">
        <ele>411.396</ele>
        <time>2012-06-02T10:31:29Z</time>
      </trkpt>
      <trkpt lat="48.16879" lon="7.19522">
        <ele>413.595</ele>
        <time>2012-06-02T10:31:40Z</time>
      </trkpt>
      <trkpt lat="48.16908" lon="7.19491">
        <ele>414.675</ele>
        <time>2012-06-02T10:31:50Z</time>
      </trkpt>
      <trkpt lat="48.16928" lon="7.19459">
        <ele>416.186</ele>
        <time>2012-06-02T10:31:58Z</time>
      </trkpt>
      <trkpt lat="48.16953" lon="7.19424">
        <ele>418.405</ele>
        <time>2012-06-02T10:32:09Z</time>
      </trkpt>
      <trkpt lat="48.16973" lon="7.19404">
        <ele>420.035</ele>
        <time>2012-06-02T10:32:17Z</time>
      </trkpt>
      <trkpt lat="48.16994" lon="7.19384">
        <ele>422.677</ele>
        <time>2012-06-02T10:32:25Z</time>
      </trkpt>
      <trkpt lat="48.17014" lon="7.19367">
        <ele>422.626</ele>
        <time>2012-06-02T10:32:33Z</time>
      </trkpt>
      <trkpt lat="48.17039" lon="7.19346">
        <ele>422.065</ele>
        <time>2012-06-02T10:32:43Z</time>
      </trkpt>
      <trkpt lat="48.17061" lon="7.1933">
        <ele>423.967</ele>
        <time>2012-06-02T10:32:52Z</time>
      </trkpt>
      <trkpt lat="48.17082" lon="7.19314">
        <ele>424.645</ele>
        <time>2012-06-02T10:33:00Z</time>
      </trkpt>
      <trkpt lat="48.17106" lon="7.19291">
        <ele>426.936</ele>
        <time>2012-06-02T10:33:10Z</time>
      </trkpt>
      <trkpt lat="48.17128" lon="7.19261">
        <ele>429.626</ele>
        <time>2012-06-02T10:33:20Z</time>
      </trkpt>
      <trkpt lat="48.17146" lon="7.19233">
        <ele>431.246</ele>
        <time>2012-06-02T10:33:29Z</time>
      </trkpt>
      <trkpt lat="48.17161" lon="7.1921">
        <ele>431.316</ele>
        <time>2012-06-02T10:33:36Z</time>
      </trkpt>
      <trkpt lat="48.1718" lon="7.19185">
        <ele>432.917</ele>
        <time>2012-06-02T10:33:44Z</time>
      </trkpt>
      <trkpt lat="48.17198" lon="7.1916">
        <ele>434.415</ele>
        <time>2012-06-02T10:33:52Z</time>
      </trkpt>
      <trkpt lat="48.17224" lon="7.19131">
        <ele>433.146</ele>
        <time>2012-06-02T10:34:03Z</time>
      </trkpt>
      <trkpt lat="48.17244" lon="7.19115">
        <ele>437.048</ele>
        <time>2012-06-02T10:34:11Z</time>
      </trkpt>
      <trkpt lat="48.17267" lon="7.19105">
        <ele>440.515</ele>
        <time>2012-06-02T10:34:20Z</time>
      </trkpt>
      <trkpt lat="48.17288" lon="7.19099">
        <ele>442.386</ele>
        <time>2012-06-02T10:34:27Z</time>
      </trkpt>
      <trkpt lat="48.17306" lon="7.191">
        <ele>440.164</ele>
        <time>2012-06-02T10:34:33Z</time>
      </trkpt>
      <trkpt lat="48.1733" lon="7.19105">
        <ele>440.784</ele>
        <time>2012-06-02T10:34:41Z</time>
      </trkpt>
      <trkpt lat="48.17352" lon="7.19114">
        <ele>441.886</ele>
        <time>2012-06-02T10:34:49Z</time>
      </trkpt>
      <trkpt lat="48.17377" lon="7.19125">
        <ele>444.897</ele>
        <time>2012-06-02T10:34:58Z</time>
      </trkpt>
      <trkpt lat="48.17395" lon="7.19133">
        <ele>447.187</ele>
        <time>2012-06-02T10:35:05Z</time>
      </trkpt>
      <trkpt lat="48.1742" lon="7.19143">
        <ele>450.347</ele>
        <time>2012-06-02T10:35:14Z</time>
      </trkpt>
      <trkpt lat="48.17437" lon="7.19148">
        <ele>451.596</ele>
        <time>2012-06-02T10:35:21Z</time>
      </trkpt>
      <trkpt lat="48.17457" lon="7.19151">
        <ele>452.417</ele>
        <time>2012-06-02T10:35:29Z</time>
      </trkpt>
      <trkpt lat="48.17472" lon="7.19152">
        <ele>453.397</ele>
        <time>2012-06-02T10:35:35Z</time>
      </trkpt>
      <trkpt lat="48.17484" lon="7.19148">
        <ele>457.667</ele>
        <time>2012-06-02T10:35:41Z</time>
      </trkpt>
      <trkpt lat="48.17494" lon="7.19141">
        <ele>464.141</ele>
        <time>2012-06-02T10:35:46Z</time>
      </trkpt>
      <trkpt lat="48.17515" lon="7.19145">
        <ele>460.309</ele>
        <time>2012-06-02T10:35:53Z</time>
      </trkpt>
      <trkpt lat="48.17538" lon="7.19145">
        <ele>459.208</ele>
        <time>2012-06-02T10:36:02Z</time>
      </trkpt>
      <trkpt lat="48.17553" lon="7.1914">
        <ele>459.878</ele>
        <time>2012-06-02T10:36:08Z</time>
      </trkpt>
      <trkpt lat="48.17579" lon="7.1913">
        <ele>462.258</ele>
        <time>2012-06-02T10:36:18Z</time>
      </trkpt>
      <trkpt lat="48.17603" lon="7.19122">
        <ele>462.126</ele>
        <time>2012-06-02T10:36:28Z</time>
      </trkpt>
      <trkpt lat="48.17616" lon="7.19118">
        <ele>461.118</ele>
        <time>2012-06-02T10:36:34Z</time>
      </trkpt>
      <trkpt lat="48.17639" lon="7.1911">
        <ele>461.126</ele>
        <time>2012-06-02T10:36:44Z</time>
      </trkpt>
      <trkpt lat="48.17654" lon="7.19104">
        <ele>461.646</ele>
        <time>2012-06-02T10:36:51Z</time>
      </trkpt>
      <trkpt lat="48.17672" lon="7.19096">
        <ele>462.666</ele>
        <time>2012-06-02T10:36:59Z</time>
      </trkpt>
      <trkpt lat="48.17694" lon="7.19085">
        <ele>464.036</ele>
        <time>2012-06-02T10:37:08Z</time>
      </trkpt>
      <trkpt lat="48.17714" lon="7.19071">
        <ele>465.531</ele>
        <time>2012-06-02T10:37:17Z</time>
      </trkpt>
      <trkpt lat="48.17734" lon="7.19051">
        <ele>466.827</ele>
        <time>2012-06-02T10:37:27Z</time>
      </trkpt>
      <trkpt lat="48.17751" lon="7.1903">
        <ele>467.859</ele>
        <time>2012-06-02T10:37:36Z</time>
      </trkpt>
      <trkpt lat="48.17766" lon="7.19003">
        <ele>469.756</ele>
        <time>2012-06-02T10:37:45Z</time>
      </trkpt>
      <trkpt lat="48.1778" lon="7.1897">
        <ele>471.596</ele>
        <time>2012-06-02T10:37:54Z</time>
      </trkpt>
      <trkpt lat="48.17793" lon="7.18935">
        <ele>473.066</ele>
        <time>2012-06-02T10:38:03Z</time>
      </trkpt>
      <trkpt lat="48.17803" lon="7.18912">
        <ele>474.367</ele>
        <time>2012-06-02T10:38:09Z</time>
      </trkpt>
      <trkpt lat="48.17814" lon="7.18883">
        <ele>474.586</ele>
        <time>2012-06-02T10:38:17Z</time>
      </trkpt>
      <trkpt lat="48.17821" lon="7.18846">
        <ele>475.827</ele>
        <time>2012-06-02T10:38:27Z</time>
      </trkpt>
      <trkpt lat="48.17823" lon="7.18805">
        <ele>481.717</ele>
        <time>2012-06-02T10:38:37Z</time>
      </trkpt>
      <trkpt lat="48.17829" lon="7.18773">
        <ele>482.407</ele>
        <time>2012-06-02T10:38:46Z</time>
      </trkpt>
      <trkpt lat="48.17836" lon="7.18757">
        <ele>483.443</ele>
        <time>2012-06-02T10:38:52Z</time>
      </trkpt>
      <trkpt lat="48.17846" lon="7.18742">
        <ele>484.367</ele>
        <time>2012-06-02T10:38:59Z</time>
      </trkpt>
      <trkpt lat="48.17858" lon="7.18728">
        <ele>484.306</ele>
        <time>2012-06-02T10:39:06Z</time>
      </trkpt>
      <trkpt lat="48.17877" lon="7.18708">
        <ele>484.497</ele>
        <time>2012-06-02T10:39:16Z</time>
      </trkpt>
      <trkpt lat="48.17895" lon="7.18689">
        <ele>483.006</ele>
        <time>2012-06-02T10:39:26Z</time>
      </trkpt>
      <trkpt lat="48.17912" lon="7.1867">
        <ele>483.356</ele>
        <time>2012-06-02T10:39:36Z</time>
      </trkpt>
      <trkpt lat="48.17926" lon="7.1865">
        <ele>484.687</ele>
        <time>2012-06-02T10:39:45Z</time>
      </trkpt>
      <trkpt lat="48.17941" lon="7.18629">
        <ele>486.767</ele>
        <time>2012-06-02T10:39:55Z</time>
      </trkpt>
      <trkpt lat="48.17955" lon="7.18619">
        <ele>487.757</ele>
        <time>2012-06-02T10:40:03Z</time>
      </trkpt>
      <trkpt lat="48.17962" lon="7.18631">
        <ele>489.597</ele>
        <time>2012-06-02T10:40:08Z</time>
      </trkpt>
      <trkpt lat="48.17958" lon="7.1865">
        <ele>490.827</ele>
        <time>2012-06-02T10:40:14Z</time>
      </trkpt>
      <trkpt lat="48.17944" lon="7.1867">
        <ele>493.177</ele>
        <time>2012-06-02T10:40:22Z</time>
      </trkpt>
      <trkpt lat="48.17928" lon="7.18693">
        <ele>496.178</ele>
        <time>2012-06-02T10:40:31Z</time>
      </trkpt>
      <trkpt lat="48.17911" lon="7.18717">
        <ele>500.158</ele>
        <time>2012-06-02T10:40:41Z</time>
      </trkpt>
      <trkpt lat="48.17902" lon="7.18737">
        <ele>502.507</ele>
        <time>2012-06-02T10:40:48Z</time>
      </trkpt>
      <trkpt lat="48.179" lon="7.18762">
        <ele>502.155</ele>
        <time>2012-06-02T10:40:55Z</time>
      </trkpt>
      <trkpt lat="48.17909" lon="7.1878">
        <ele>501.795</ele>
        <time>2012-06-02T10:41:00Z</time>
      </trkpt>
      <trkpt lat="48.17912" lon="7.18784">
        <ele>502.076</ele>
        <time>2012-06-02T10:41:01Z</time>
      </trkpt>
      <trkpt lat="48.17951" lon="7.18807">
        <ele>505.166</ele>
        <time>2012-06-02T10:41:09Z</time>
      </trkpt>
      <trkpt lat="48.1799" lon="7.18832">
        <ele>505.604</ele>
        <time>2012-06-02T10:41:18Z</time>
      </trkpt>
      <trkpt lat="48.18021" lon="7.18862">
        <ele>508.335</ele>
        <time>2012-06-02T10:41:27Z</time>
      </trkpt>
      <trkpt lat="48.1804" lon="7.1888">
        <ele>512.908</ele>
        <time>2012-06-02T10:41:33Z</time>
      </trkpt>
      <trkpt lat="48.18057" lon="7.18896">
        <ele>518.058</ele>
        <time>2012-06-02T10:41:38Z</time>
      </trkpt>
      <trkpt lat="48.18081" lon="7.18919">
        <ele>518.565</ele>
        <time>2012-06-02T10:41:46Z</time>
      </trkpt>
      <trkpt lat="48.18099" lon="7.1895">
        <ele>516.955</ele>
        <time>2012-06-02T10:41:54Z</time>
      </trkpt>
      <trkpt lat="48.18115" lon="7.18984">
        <ele>517.465</ele>
        <time>2012-06-02T10:42:03Z</time>
      </trkpt>
      <trkpt lat="48.18126" lon="7.19003">
        <ele>518.145</ele>
        <time>2012-06-02T10:42:09Z</time>
      </trkpt>
      <trkpt lat="48.18138" lon="7.19032">
        <ele>516.633</ele>
        <time>2012-06-02T10:42:17Z</time>
      </trkpt>
      <trkpt lat="48.18145" lon="7.19053">
        <ele>515.993</ele>
        <time>2012-06-02T10:42:23Z</time>
      </trkpt>
      <trkpt lat="48.18152" lon="7.1908">
        <ele>517.564</ele>
        <time>2012-06-02T10:42:30Z</time>
      </trkpt>
      <trkpt lat="48.18164" lon="7.19115">
        <ele>519.595</ele>
        <time>2012-06-02T10:42:40Z</time>
      </trkpt>
      <trkpt lat="48.1818" lon="7.19142">
        <ele>520.906</ele>
        <time>2012-06-02T10:42:49Z</time>
      </trkpt>
      <trkpt lat="48.18194" lon="7.19161">
        <ele>522.666</ele>
        <time>2012-06-02T10:42:56Z</time>
      </trkpt>
      <trkpt lat="48.18209" lon="7.19183">
        <ele>526.057</ele>
        <time>2012-06-02T10:43:05Z</time>
      </trkpt>
      <trkpt lat="48.18224" lon="7.19205">
        <ele>530.247</ele>
        <time>2012-06-02T10:43:14Z</time>
      </trkpt>
      <trkpt lat="48.18238" lon="7.19232">
        <ele>532.196</ele>
        <time>2012-06-02T10:43:24Z</time>
      </trkpt>
      <trkpt lat="48.18238" lon="7.19243">
        <ele>532.846</ele>
        <time>2012-06-02T10:43:27Z</time>
      </trkpt>
      <trkpt lat="48.18226" lon="7.1925">
        <ele>529.757</ele>
        <time>2012-06-02T10:43:33Z</time>
      </trkpt>
      <trkpt lat="48.18209" lon="7.19241">
        <ele>528.887</ele>
        <time>2012-06-02T10:43:40Z</time>
      </trkpt>
      <trkpt lat="48.18186" lon="7.19226">
        <ele>530.551</ele>
        <time>2012-06-02T10:43:49Z</time>
      </trkpt>
      <trkpt lat="48.18162" lon="7.19212">
        <ele>532.536</ele>
        <time>2012-06-02T10:43:59Z</time>
      </trkpt>
      <trkpt lat="48.1814" lon="7.192">
        <ele>534.406</ele>
        <time>2012-06-02T10:44:08Z</time>
      </trkpt>
      <trkpt lat="48.18121" lon="7.19186">
        <ele>537.628</ele>
        <time>2012-06-02T10:44:16Z</time>
      </trkpt>
      <trkpt lat="48.18103" lon="7.19168">
        <ele>543.328</ele>
        <time>2012-06-02T10:44:24Z</time>
      </trkpt>
      <trkpt lat="48.18091" lon="7.19155">
        <ele>547.729</ele>
        <time>2012-06-02T10:44:30Z</time>
      </trkpt>
      <trkpt lat="48.18079" lon="7.19143">
        <ele>550.229</ele>
        <time>2012-06-02T10:44:36Z</time>
      </trkpt>
      <trkpt lat="48.18064" lon="7.1913">
        <ele>550.998</ele>
        <time>2012-06-02T10:44:43Z</time>
      </trkpt>
      <trkpt lat="48.18048" lon="7.19111">
        <ele>553.417</ele>
        <time>2012-06-02T10:44:51Z</time>
      </trkpt>
      <trkpt lat="48.18032" lon="7.19095">
        <ele>555.913</ele>
        <time>2012-06-02T10:44:59Z</time>
      </trkpt>
      <trkpt lat="48.18013" lon="7.19076">
        <ele>558.617</ele>
        <time>2012-06-02T10:45:08Z</time>
      </trkpt>
      <trkpt lat="48.17993" lon="7.19065">
        <ele>557.346</ele>
        <time>2012-06-02T10:45:17Z</time>
      </trkpt>
      <trkpt lat="48.17975" lon="7.19064">
        <ele>552.473</ele>
        <time>2012-06-02T10:45:25Z</time>
      </trkpt>
      <trkpt lat="48.17956" lon="7.19067">
        <ele>550.735</ele>
        <time>2012-06-02T10:45:33Z</time>
      </trkpt>
      <trkpt lat="48.17938" lon="7.19073">
        <ele>550.244</ele>
        <time>2012-06-02T10:45:41Z</time>
      </trkpt>
      <trkpt lat="48.17923" lon="7.19078">
        <ele>551.375</ele>
        <time>2012-06-02T10:45:47Z</time>
      </trkpt>
      <trkpt lat="48.17909" lon="7.19083">
        <ele>552.085</ele>
        <time>2012-06-02T10:45:53Z</time>
      </trkpt>
      <trkpt lat="48.17896" lon="7.1909">
        <ele>553.544</ele>
        <time>2012-06-02T10:45:59Z</time>
      </trkpt>
      <trkpt lat="48.17887" lon="7.19093">
        <ele>557.476</ele>
        <time>2012-06-02T10:46:03Z</time>
      </trkpt>
      <trkpt lat="48.17873" lon="7.19104">
        <ele>559.095</ele>
        <time>2012-06-02T10:46:10Z</time>
      </trkpt>
      <trkpt lat="48.17858" lon="7.1912">
        <ele>559.484</ele>
        <time>2012-06-02T10:46:18Z</time>
      </trkpt>
      <trkpt lat="48.1785" lon="7.19135">
        <ele>558.623</ele>
        <time>2012-06-02T10:46:24Z</time>
      </trkpt>
      <trkpt lat="48.17844" lon="7.19153">
        <ele>559.845</ele>
        <time>2012-06-02T10:46:30Z</time>
      </trkpt>
      <trkpt lat="48.17841" lon="7.19182">
        <ele>560.983</ele>
        <time>2012-06-02T10:46:39Z</time>
      </trkpt>
      <trkpt lat="48.17842" lon="7.19203">
        <ele>561.544</ele>
        <time>2012-06-02T10:46:46Z</time>
      </trkpt>
      <trkpt lat="48.1784" lon="7.19225">
        <ele>562.894</ele>
        <time>2012-06-02T10:46:53Z</time>
      </trkpt>
      <trkpt lat="48.17833" lon="7.19242">
        <ele>564.605</ele>
        <time>2012-06-02T10:46:59Z</time>
      </trkpt>
      <trkpt lat="48.17824" lon="7.19256">
        <ele>565.565</ele>
        <time>2012-06-02T10:47:06Z</time>
      </trkpt>
      <trkpt lat="48.17815" lon="7.19267">
        <ele>564.915</ele>
        <time>2012-06-02T10:47:11Z</time>
      </trkpt>
      <trkpt lat="48.17814" lon="7.19271">
        <ele>565.205</ele>
        <time>2012-06-02T10:47:12Z</time>
      </trkpt>
      <trkpt lat="48.17809" lon="7.19292">
        <ele>564.844</ele>
        <time>2012-06-02T10:47:19Z</time>
      </trkpt>
      <trkpt lat="48.17811" lon="7.19314">
        <ele>563.925</ele>
        <time>2012-06-02T10:47:26Z</time>
      </trkpt>
      <trkpt lat="48.17818" lon="7.1934">
        <ele>566.727</ele>
        <time>2012-06-02T10:47:34Z</time>
      </trkpt>
      <trkpt lat="48.1783" lon="7.19363">
        <ele>569.197</ele>
        <time>2012-06-02T10:47:43Z</time>
      </trkpt>
      <trkpt lat="48.17842" lon="7.19382">
        <ele>571.697</ele>
        <time>2012-06-02T10:47:51Z</time>
      </trkpt>
      <trkpt lat="48.17857" lon="7.19408">
        <ele>574.897</ele>
        <time>2012-06-02T10:48:01Z</time>
      </trkpt>
      <trkpt lat="48.17865" lon="7.19419">
        <ele>576.687</ele>
        <time>2012-06-02T10:48:07Z</time>
      </trkpt>
      <trkpt lat="48.17868" lon="7.19426">
        <ele>577.962</ele>
        <time>2012-06-02T10:48:11Z</time>
      </trkpt>
      <trkpt lat="48.17877" lon="7.19439">
        <ele>579.576</ele>
        <time>2012-06-02T10:48:19Z</time>
      </trkpt>
      <trkpt lat="48.17885" lon="7.19458">
        <ele>578.915</ele>
        <time>2012-06-02T10:48:27Z</time>
      </trkpt>
      <trkpt lat="48.17889" lon="7.19474">
        <ele>578.415</ele>
        <time>2012-06-02T10:48:33Z</time>
      </trkpt>
      <trkpt lat="48.17895" lon="7.19494">
        <ele>578.447</ele>
        <time>2012-06-02T10:48:40Z</time>
      </trkpt>
      <trkpt lat="48.17901" lon="7.19521">
        <ele>579.077</ele>
        <time>2012-06-02T10:48:49Z</time>
      </trkpt>
      <trkpt lat="48.17908" lon="7.19547">
        <ele>579.867</ele>
        <time>2012-06-02T10:48:58Z</time>
      </trkpt>
      <trkpt lat="48.17916" lon="7.19576">
        <ele>580.377</ele>
        <time>2012-06-02T10:49:08Z</time>
      </trkpt>
      <trkpt lat="48.17923" lon="7.19603">
        <ele>582.727</ele>
        <time>2012-06-02T10:49:16Z</time>
      </trkpt>
      <trkpt lat="48.17933" lon="7.1964">
        <ele>585.676</ele>
        <time>2012-06-02T10:49:27Z</time>
      </trkpt>
      <trkpt lat="48.17941" lon="7.19667">
        <ele>587.756</ele>
        <time>2012-06-02T10:49:35Z</time>
      </trkpt>
      <trkpt lat="48.17948" lon="7.19698">
        <ele>590.686</ele>
        <time>2012-06-02T10:49:44Z</time>
      </trkpt>
      <trkpt lat="48.17953" lon="7.19725">
        <ele>591.555</ele>
        <time>2012-06-02T10:49:53Z</time>
      </trkpt>
      <trkpt lat="48.17962" lon="7.19749">
        <ele>592.175</ele>
        <time>2012-06-02T10:50:02Z</time>
      </trkpt>
      <trkpt lat="48.17969" lon="7.19763">
        <ele>593.624</ele>
        <time>2012-06-02T10:50:09Z</time>
      </trkpt>
      <trkpt lat="48.17983" lon="7.19783">
        <ele>596.386</ele>
        <time>2012-06-02T10:50:17Z</time>
      </trkpt>
      <trkpt lat="48.1799" lon="7.1979">
        <ele>599.276</ele>
        <time>2012-06-02T10:50:21Z</time>
      </trkpt>
      <trkpt lat="48.17999" lon="7.19803">
        <ele>602.627</ele>
        <time>2012-06-02T10:50:27Z</time>
      </trkpt>
      <trkpt lat="48.18003" lon="7.19808">
        <ele>604.547</ele>
        <time>2012-06-02T10:50:29Z</time>
      </trkpt>
      <trkpt lat="48.18009" lon="7.19816">
        <ele>607.479</ele>
        <time>2012-06-02T10:50:33Z</time>
      </trkpt>
      <trkpt lat="48.18016" lon="7.19825">
        <ele>607.066</ele>
        <time>2012-06-02T10:50:37Z</time>
      </trkpt>
      <trkpt lat="48.18024" lon="7.19838">
        <ele>606.895</ele>
        <time>2012-06-02T10:50:44Z</time>
      </trkpt>
      <trkpt lat="48.18026" lon="7.19851">
        <ele>609.947</ele>
        <time>2012-06-02T10:50:49Z</time>
      </trkpt>
      <trkpt lat="48.18026" lon="7.19857">
        <ele>611.257</ele>
        <time>2012-06-02T10:50:51Z</time>
      </trkpt>
      <trkpt lat="48.18025" lon="7.19879">
        <ele>616.368</ele>
        <time>2012-06-02T10:50:57Z</time>
      </trkpt>
      <trkpt lat="48.18026" lon="7.19893">
        <ele>612.814</ele>
        <time>2012-06-02T10:51:03Z</time>
      </trkpt>
      <trkpt lat="48.18024" lon="7.19916">
        <ele>610.144</ele>
        <time>2012-06-02T10:51:10Z</time>
      </trkpt>
      <trkpt lat="48.18028" lon="7.19935">
        <ele>608.805</ele>
        <time>2012-06-02T10:51:16Z</time>
      </trkpt>
      <trkpt lat="48.18036" lon="7.19954">
        <ele>609.986</ele>
        <time>2012-06-02T10:51:23Z</time>
      </trkpt>
      <trkpt lat="48.18046" lon="7.19975">
        <ele>610.265</ele>
        <time>2012-06-02T10:51:31Z</time>
      </trkpt>
      <trkpt lat="48.18053" lon="7.19991">
        <ele>612.526</ele>
        <time>2012-06-02T10:51:38Z</time>
      </trkpt>
      <trkpt lat="48.18061" lon="7.20003">
        <ele>612.684</ele>
        <time>2012-06-02T10:51:43Z</time>
      </trkpt>
      <trkpt lat="48.18069" lon="7.20017">
        <ele>612.933</ele>
        <time>2012-06-02T10:51:49Z</time>
      </trkpt>
      <trkpt lat="48.18076" lon="7.20031">
        <ele>613.924</ele>
        <time>2012-06-02T10:51:55Z</time>
      </trkpt>
      <trkpt lat="48.18077" lon="7.20034">
        <ele>614.865</ele>
        <time>2012-06-02T10:51:56Z</time>
      </trkpt>
      <trkpt lat="48.18087" lon="7.20052">
        <ele>616.405</ele>
        <time>2012-06-02T10:52:02Z</time>
      </trkpt>
      <trkpt lat="48.18097" lon="7.2007">
        <ele>620.266</ele>
        <time>2012-06-02T10:52:09Z</time>
      </trkpt>
      <trkpt lat="48.18106" lon="7.20085">
        <ele>622.466</ele>
        <time>2012-06-02T10:52:15Z</time>
      </trkpt>
      <trkpt lat="48.18114" lon="7.20099">
        <ele>623.405</ele>
        <time>2012-06-02T10:52:21Z</time>
      </trkpt>
      <trkpt lat="48.18119" lon="7.2011">
        <ele>622.614</ele>
        <time>2012-06-02T10:52:25Z</time>
      </trkpt>
      <trkpt lat="48.18125" lon="7.20135">
        <ele>620.074</ele>
        <time>2012-06-02T10:52:32Z</time>
      </trkpt>
      <trkpt lat="48.18128" lon="7.20155">
        <ele>617.533</ele>
        <time>2012-06-02T10:52:37Z</time>
      </trkpt>
      <trkpt lat="48.18132" lon="7.20177">
        <ele>616.433</ele>
        <time>2012-06-02T10:52:43Z</time>
      </trkpt>
      <trkpt lat="48.18134" lon="7.20196">
        <ele>617.594</ele>
        <time>2012-06-02T10:52:48Z</time>
      </trkpt>
      <trkpt lat="48.18136" lon="7.20204">
        <ele>621.125</ele>
        <time>2012-06-02T10:52:51Z</time>
      </trkpt>
      <trkpt lat="48.18136" lon="7.20215">
        <ele>628.408</ele>
        <time>2012-06-02T10:52:55Z</time>
      </trkpt>
      <trkpt lat="48.18135" lon="7.20225">
        <ele>637.6</ele>
        <time>2012-06-02T10:53:00Z</time>
      </trkpt>
      <trkpt lat="48.18133" lon="7.20236">
        <ele>638.737</ele>
        <time>2012-06-02T10:53:04Z</time>
      </trkpt>
      <trkpt lat="48.18134" lon="7.20254">
        <ele>636.364</ele>
        <time>2012-06-02T10:53:10Z</time>
      </trkpt>
      <trkpt lat="48.18136" lon="7.20263">
        <ele>635.272</ele>
        <time>2012-06-02T10:53:13Z</time>
      </trkpt>
      <trkpt lat="48.18139" lon="7.20289">
        <ele>628.131</ele>
        <time>2012-06-02T10:53:21Z</time>
      </trkpt>
      <trkpt lat="48.18142" lon="7.20316">
        <ele>625.054</ele>
        <time>2012-06-02T10:53:29Z</time>
      </trkpt>
      <trkpt lat="48.18147" lon="7.20337">
        <ele>624.374</ele>
        <time>2012-06-02T10:53:36Z</time>
      </trkpt>
      <trkpt lat="48.18153" lon="7.20359">
        <ele>624.565</ele>
        <time>2012-06-02T10:53:44Z</time>
      </trkpt>
      <trkpt lat="48.18161" lon="7.20381">
        <ele>625.104</ele>
        <time>2012-06-02T10:53:52Z</time>
      </trkpt>
      <trkpt lat="48.18167" lon="7.20398">
        <ele>625.494</ele>
        <time>2012-06-02T10:53:58Z</time>
      </trkpt>
      <trkpt lat="48.18174" lon="7.20419">
        <ele>626.474</ele>
        <time>2012-06-02T10:54:05Z</time>
      </trkpt>
      <trkpt lat="48.18182" lon="7.2045">
        <ele>628.895</ele>
        <time>2012-06-02T10:54:15Z</time>
      </trkpt>
      <trkpt lat="48.1819" lon="7.20475">
        <ele>632.165</ele>
        <time>2012-06-02T10:54:23Z</time>
      </trkpt>
      <trkpt lat="48.18198" lon="7.20495">
        <ele>633.876</ele>
        <time>2012-06-02T10:54:30Z</time>
      </trkpt>
      <trkpt lat="48.18207" lon="7.20515">
        <ele>634.905</ele>
        <time>2012-06-02T10:54:37Z</time>
      </trkpt>
      <trkpt lat="48.18218" lon="7.20529">
        <ele>637.265</ele>
        <time>2012-06-02T10:54:43Z</time>
      </trkpt>
      <trkpt lat="48.18222" lon="7.20533">
        <ele>641.567</ele>
        <time>2012-06-02T10:54:48Z</time>
      </trkpt>
      <trkpt lat="48.18227" lon="7.20539">
        <ele>643.707</ele>
        <time>2012-06-02T10:54:52Z</time>
      </trkpt>
      <trkpt lat="48.18241" lon="7.20543">
        <ele>646.446</ele>
        <time>2012-06-02T10:54:59Z</time>
      </trkpt>
      <trkpt lat="48.18259" lon="7.20544">
        <ele>647.066</ele>
        <time>2012-06-02T10:55:06Z</time>
      </trkpt>
      <trkpt lat="48.18275" lon="7.20548">
        <ele>650.137</ele>
        <time>2012-06-02T10:55:13Z</time>
      </trkpt>
      <trkpt lat="48.1829" lon="7.20555">
        <ele>652.716</ele>
        <time>2012-06-02T10:55:21Z</time>
      </trkpt>
      <trkpt lat="48.18306" lon="7.20565">
        <ele>653.305</ele>
        <time>2012-06-02T10:55:27Z</time>
      </trkpt>
      <trkpt lat="48.18321" lon="7.2058">
        <ele>653.206</ele>
        <time>2012-06-02T10:55:35Z</time>
      </trkpt>
      <trkpt lat="48.1833" lon="7.20594">
        <ele>652.446</ele>
        <time>2012-06-02T10:55:41Z</time>
      </trkpt>
      <trkpt lat="48.18342" lon="7.20621">
        <ele>652.727</ele>
        <time>2012-06-02T10:55:51Z</time>
      </trkpt>
      <trkpt lat="48.18348" lon="7.20643">
        <ele>653.377</ele>
        <time>2012-06-02T10:55:58Z</time>
      </trkpt>
      <trkpt lat="48.18359" lon="7.20665">
        <ele>656.017</ele>
        <time>2012-06-02T10:56:06Z</time>
      </trkpt>
      <trkpt lat="48.18366" lon="7.20676">
        <ele>657.716</ele>
        <time>2012-06-02T10:56:11Z</time>
      </trkpt>
      <trkpt lat="48.18375" lon="7.2069">
        <ele>658.075</ele>
        <time>2012-06-02T10:56:18Z</time>
      </trkpt>
      <trkpt lat="48.18384" lon="7.20709">
        <ele>657.234</ele>
        <time>2012-06-02T10:56:25Z</time>
      </trkpt>
      <trkpt lat="48.18395" lon="7.20728">
        <ele>657.576</ele>
        <time>2012-06-02T10:56:33Z</time>
      </trkpt>
      <trkpt lat="48.18407" lon="7.2076">
        <ele>659.007</ele>
        <time>2012-06-02T10:56:44Z</time>
      </trkpt>
      <trkpt lat="48.18402" lon="7.20782">
        <ele>660.617</ele>
        <time>2012-06-02T10:56:50Z</time>
      </trkpt>
      <trkpt lat="48.1839" lon="7.20794">
        <ele>662.307</ele>
        <time>2012-06-02T10:56:56Z</time>
      </trkpt>
      <trkpt lat="48.18376" lon="7.20794">
        <ele>663.597</ele>
        <time>2012-06-02T10:57:02Z</time>
      </trkpt>
      <trkpt lat="48.18362" lon="7.20788">
        <ele>665.537</ele>
        <time>2012-06-02T10:57:08Z</time>
      </trkpt>
      <trkpt lat="48.18338" lon="7.20775">
        <ele>669.267</ele>
        <time>2012-06-02T10:57:19Z</time>
      </trkpt>
      <trkpt lat="48.18323" lon="7.20766">
        <ele>671.007</ele>
        <time>2012-06-02T10:57:26Z</time>
      </trkpt>
      <trkpt lat="48.18307" lon="7.20765">
        <ele>672.509</ele>
        <time>2012-06-02T10:57:33Z</time>
      </trkpt>
      <trkpt lat="48.18298" lon="7.20777">
        <ele>673.527</ele>
        <time>2012-06-02T10:57:38Z</time>
      </trkpt>
      <trkpt lat="48.18298" lon="7.20797">
        <ele>673.646</ele>
        <time>2012-06-02T10:57:44Z</time>
      </trkpt>
      <trkpt lat="48.18302" lon="7.20815">
        <ele>675.337</ele>
        <time>2012-06-02T10:57:50Z</time>
      </trkpt>
      <trkpt lat="48.18301" lon="7.20833">
        <ele>678.447</ele>
        <time>2012-06-02T10:57:56Z</time>
      </trkpt>
      <trkpt lat="48.18298" lon="7.20849">
        <ele>683.969</ele>
        <time>2012-06-02T10:58:02Z</time>
      </trkpt>
      <trkpt lat="48.1829" lon="7.20864">
        <ele>688.869</ele>
        <time>2012-06-02T10:58:08Z</time>
      </trkpt>
      <trkpt lat="48.1828" lon="7.20879">
        <ele>693.109</ele>
        <time>2012-06-02T10:58:14Z</time>
      </trkpt>
      <trkpt lat="48.18269" lon="7.20891">
        <ele>693.677</ele>
        <time>2012-06-02T10:58:21Z</time>
      </trkpt>
      <trkpt lat="48.18259" lon="7.20897">
        <ele>693.514</ele>
        <time>2012-06-02T10:58:27Z</time>
      </trkpt>
      <trkpt lat="48.18239" lon="7.20895">
        <ele>697.667</ele>
        <time>2012-06-02T10:58:34Z</time>
      </trkpt>
      <trkpt lat="48.18219" lon="7.20893">
        <ele>699.636</ele>
        <time>2012-06-02T10:58:42Z</time>
      </trkpt>
      <trkpt lat="48.18205" lon="7.20891">
        <ele>701.536</ele>
        <time>2012-06-02T10:58:48Z</time>
      </trkpt>
      <trkpt lat="48.18191" lon="7.20896">
        <ele>702.426</ele>
        <time>2012-06-02T10:58:54Z</time>
      </trkpt>
      <trkpt lat="48.18176" lon="7.20912">
        <ele>706.587</ele>
        <time>2012-06-02T10:59:01Z</time>
      </trkpt>
      <trkpt lat="48.18162" lon="7.20928">
        <ele>711.358</ele>
        <time>2012-06-02T10:59:08Z</time>
      </trkpt>
      <trkpt lat="48.18148" lon="7.20947">
        <ele>714.698</ele>
        <time>2012-06-02T10:59:15Z</time>
      </trkpt>
      <trkpt lat="48.18134" lon="7.20959">
        <ele>719.498</ele>
        <time>2012-06-02T10:59:22Z</time>
      </trkpt>
      <trkpt lat="48.1812" lon="7.20958">
        <ele>721.057</ele>
        <time>2012-06-02T10:59:28Z</time>
      </trkpt>
      <trkpt lat="48.18113" lon="7.2095">
        <ele>720.216</ele>
        <time>2012-06-02T10:59:34Z</time>
      </trkpt>
      <trkpt lat="48.18115" lon="7.20947">
        <ele>716.264</ele>
        <time>2012-06-02T10:59:39Z</time>
      </trkpt>
      <trkpt lat="48.18111" lon="7.20939">
        <ele>712.454</ele>
        <time>2012-06-02T10:59:45Z</time>
      </trkpt>
      <trkpt lat="48.18101" lon="7.20927">
        <ele>705.672</ele>
        <time>2012-06-02T10:59:52Z</time>
      </trkpt>
      <trkpt lat="48.1809" lon="7.20912">
        <ele>706.616</ele>
        <time>2012-06-02T10:59:58Z</time>
      </trkpt>
      <trkpt lat="48.1808" lon="7.20897">
        <ele>710.549</ele>
        <time>2012-06-02T11:00:04Z</time>
      </trkpt>
      <trkpt lat="48.1807" lon="7.20883">
        <ele>713.738</ele>
        <time>2012-06-02T11:00:11Z</time>
      </trkpt>
      <trkpt lat="48.1806" lon="7.20868">
        <ele>719.781</ele>
        <time>2012-06-02T11:00:17Z</time>
      </trkpt>
      <trkpt lat="48.18045" lon="7.20853">
        <ele>717.857</ele>
        <time>2012-06-02T11:00:24Z</time>
      </trkpt>
      <trkpt lat="48.18028" lon="7.20841">
        <ele>710.342</ele>
        <time>2012-06-02T11:00:33Z</time>
      </trkpt>
      <trkpt lat="48.18017" lon="7.20836">
        <ele>711.476</ele>
        <time>2012-06-02T11:00:39Z</time>
      </trkpt>
      <trkpt lat="48.18003" lon="7.20832">
        <ele>713.246</ele>
        <time>2012-06-02T11:00:45Z</time>
      </trkpt>
      <trkpt lat="48.17988" lon="7.20834">
        <ele>713.236</ele>
        <time>2012-06-02T11:00:53Z</time>
      </trkpt>
      <trkpt lat="48.17974" lon="7.20837">
        <ele>714.856</ele>
        <time>2012-06-02T11:00:59Z</time>
      </trkpt>
      <trkpt lat="48.17966" lon="7.20838">
        <ele>717.377</ele>
        <time>2012-06-02T11:01:04Z</time>
      </trkpt>
      <trkpt lat="48.17955" lon="7.20839">
        <ele>720.567</ele>
        <time>2012-06-02T11:01:09Z</time>
      </trkpt>
      <trkpt lat="48.17939" lon="7.20838">
        <ele>719.446</ele>
        <time>2012-06-02T11:01:15Z</time>
      </trkpt>
      <trkpt lat="48.17919" lon="7.20839">
        <ele>723.957</ele>
        <time>2012-06-02T11:01:23Z</time>
      </trkpt>
      <trkpt lat="48.17902" lon="7.20841">
        <ele>725.427</ele>
        <time>2012-06-02T11:01:30Z</time>
      </trkpt>
      <trkpt lat="48.17888" lon="7.20842">
        <ele>726.887</ele>
        <time>2012-06-02T11:01:37Z</time>
      </trkpt>
      <trkpt lat="48.17873" lon="7.20845">
        <ele>723.794</ele>
        <time>2012-06-02T11:01:44Z</time>
      </trkpt>
      <trkpt lat="48.17854" lon="7.20844">
        <ele>722.244</ele>
        <time>2012-06-02T11:01:52Z</time>
      </trkpt>
      <trkpt lat="48.1783" lon="7.20839">
        <ele>723.196</ele>
        <time>2012-06-02T11:02:02Z</time>
      </trkpt>
      <trkpt lat="48.17809" lon="7.20833">
        <ele>725.296</ele>
        <time>2012-06-02T11:02:11Z</time>
      </trkpt>
      <trkpt lat="48.17803" lon="7.2083">
        <ele>725.606</ele>
        <time>2012-06-02T11:02:14Z</time>
      </trkpt>
      <trkpt lat="48.17798" lon="7.20829">
        <ele>725.916</ele>
        <time>2012-06-02T11:02:18Z</time>
      </trkpt>
      <trkpt lat="48.17793" lon="7.20824">
        <ele>728.997</ele>
        <time>2012-06-02T11:02:21Z</time>
      </trkpt>
      <trkpt lat="48.17788" lon="7.2082">
        <ele>728.986</ele>
        <time>2012-06-02T11:02:26Z</time>
      </trkpt>
      <trkpt lat="48.17772" lon="7.208">
        <ele>728.715</ele>
        <time>2012-06-02T11:02:36Z</time>
      </trkpt>
      <trkpt lat="48.17761" lon="7.20791">
        <ele>728.486</ele>
        <time>2012-06-02T11:02:42Z</time>
      </trkpt>
      <trkpt lat="48.17749" lon="7.20793">
        <ele>727.705</ele>
        <time>2012-06-02T11:02:47Z</time>
      </trkpt>
      <trkpt lat="48.17746" lon="7.20806">
        <ele>727.495</ele>
        <time>2012-06-02T11:02:51Z</time>
      </trkpt>
      <trkpt lat="48.17746" lon="7.20822">
        <ele>728.846</ele>
        <time>2012-06-02T11:02:56Z</time>
      </trkpt>
      <trkpt lat="48.17761" lon="7.20837">
        <ele>733.759</ele>
        <time>2012-06-02T11:03:02Z</time>
      </trkpt>
      <trkpt lat="48.17783" lon="7.20849">
        <ele>740.248</ele>
        <time>2012-06-02T11:03:10Z</time>
      </trkpt>
      <trkpt lat="48.17801" lon="7.20861">
        <ele>745.01</ele>
        <time>2012-06-02T11:03:17Z</time>
      </trkpt>
      <trkpt lat="48.17826" lon="7.20876">
        <ele>748.945</ele>
        <time>2012-06-02T11:03:26Z</time>
      </trkpt>
      <trkpt lat="48.17846" lon="7.20886">
        <ele>751.286</ele>
        <time>2012-06-02T11:03:34Z</time>
      </trkpt>
      <trkpt lat="48.17865" lon="7.20898">
        <ele>750.136</ele>
        <time>2012-06-02T11:03:43Z</time>
      </trkpt>
      <trkpt lat="48.17877" lon="7.2091">
        <ele>748.515</ele>
        <time>2012-06-02T11:03:50Z</time>
      </trkpt>
      <trkpt lat="48.17898" lon="7.20921">
        <ele>753.646</ele>
        <time>2012-06-02T11:03:57Z</time>
      </trkpt>
      <trkpt lat="48.17913" lon="7.20932">
        <ele>753.006</ele>
        <time>2012-06-02T11:04:03Z</time>
      </trkpt>
      <trkpt lat="48.17921" lon="7.20939">
        <ele>754.052</ele>
        <time>2012-06-02T11:04:07Z</time>
      </trkpt>
      <trkpt lat="48.17934" lon="7.20948">
        <ele>755.097</ele>
        <time>2012-06-02T11:04:12Z</time>
      </trkpt>
      <trkpt lat="48.17949" lon="7.20958">
        <ele>758.996</ele>
        <time>2012-06-02T11:04:18Z</time>
      </trkpt>
      <trkpt lat="48.17963" lon="7.20972">
        <ele>758.405</ele>
        <time>2012-06-02T11:04:25Z</time>
      </trkpt>
      <trkpt lat="48.17978" lon="7.2099">
        <ele>756.722</ele>
        <time>2012-06-02T11:04:33Z</time>
      </trkpt>
      <trkpt lat="48.17994" lon="7.21008">
        <ele>757.484</ele>
        <time>2012-06-02T11:04:41Z</time>
      </trkpt>
      <trkpt lat="48.18005" lon="7.21024">
        <ele>755.423</ele>
        <time>2012-06-02T11:04:48Z</time>
      </trkpt>
      <trkpt lat="48.18021" lon="7.21045">
        <ele>755.237</ele>
        <time>2012-06-02T11:04:57Z</time>
      </trkpt>
      <trkpt lat="48.18034" lon="7.21063">
        <ele>755.563</ele>
        <time>2012-06-02T11:05:04Z</time>
      </trkpt>
      <trkpt lat="48.18046" lon="7.21085">
        <ele>754.402</ele>
        <time>2012-06-02T11:05:12Z</time>
      </trkpt>
      <trkpt lat="48.18058" lon="7.21107">
        <ele>754.044</ele>
        <time>2012-06-02T11:05:19Z</time>
      </trkpt>
      <trkpt lat="48.18071" lon="7.21124">
        <ele>758.866</ele>
        <time>2012-06-02T11:05:25Z</time>
      </trkpt>
      <trkpt lat="48.18089" lon="7.2114">
        <ele>768.272</ele>
        <time>2012-06-02T11:05:31Z</time>
      </trkpt>
      <trkpt lat="48.181" lon="7.21152">
        <ele>773.373</ele>
        <time>2012-06-02T11:05:36Z</time>
      </trkpt>
      <trkpt lat="48.18115" lon="7.21162">
        <ele>775</ele>
        <time>2012-06-02T11:05:42Z</time>
      </trkpt>
      <trkpt lat="48.18126" lon="7.21168">
        <ele>776.95</ele>
        <time>2012-06-02T11:05:46Z</time>
      </trkpt>
      <trkpt lat="48.18139" lon="7.21171">
        <ele>778.418</ele>
        <time>2012-06-02T11:05:53Z</time>
      </trkpt>
      <trkpt lat="48.18157" lon="7.21165">
        <ele>782.148</ele>
        <time>2012-06-02T11:06:01Z</time>
      </trkpt>
      <trkpt lat="48.18181" lon="7.21152">
        <ele>784.899</ele>
        <time>2012-06-02T11:06:10Z</time>
      </trkpt>
      <trkpt lat="48.18197" lon="7.21148">
        <ele>781.574</ele>
        <time>2012-06-02T11:06:15Z</time>
      </trkpt>
      <trkpt lat="48.18212" lon="7.21142">
        <ele>782.405</ele>
        <time>2012-06-02T11:06:20Z</time>
      </trkpt>
      <trkpt lat="48.18232" lon="7.21142">
        <ele>776.583</ele>
        <time>2012-06-02T11:06:26Z</time>
      </trkpt>
      <trkpt lat="48.18262" lon="7.2114">
        <ele>777.247</ele>
        <time>2012-06-02T11:06:36Z</time>
      </trkpt>
      <trkpt lat="48.18287" lon="7.21139">
        <ele>777.187</ele>
        <time>2012-06-02T11:06:44Z</time>
      </trkpt>
      <trkpt lat="48.1831" lon="7.2114">
        <ele>778.827</ele>
        <time>2012-06-02T11:06:51Z</time>
      </trkpt>
      <trkpt lat="48.18334" lon="7.21141">
        <ele>780.107</ele>
        <time>2012-06-02T11:06:59Z</time>
      </trkpt>
      <trkpt lat="48.18356" lon="7.21142">
        <ele>780.397</ele>
        <time>2012-06-02T11:07:06Z</time>
      </trkpt>
      <trkpt lat="48.18382" lon="7.21143">
        <ele>782.547</ele>
        <time>2012-06-02T11:07:15Z</time>
      </trkpt>
      <trkpt lat="48.18412" lon="7.21146">
        <ele>784.437</ele>
        <time>2012-06-02T11:07:25Z</time>
      </trkpt>
      <trkpt lat="48.18427" lon="7.21146">
        <ele>788.819</ele>
        <time>2012-06-02T11:07:31Z</time>
      </trkpt>
      <trkpt lat="48.18448" lon="7.21144">
        <ele>793.551</ele>
        <time>2012-06-02T11:07:38Z</time>
      </trkpt>
      <trkpt lat="48.18457" lon="7.21144">
        <ele>794.819</ele>
        <time>2012-06-02T11:07:42Z</time>
      </trkpt>
      <trkpt lat="48.18475" lon="7.2115">
        <ele>794.917</ele>
        <time>2012-06-02T11:07:49Z</time>
      </trkpt>
      <trkpt lat="48.185" lon="7.21156">
        <ele>794.517</ele>
        <time>2012-06-02T11:07:58Z</time>
      </trkpt>
      <trkpt lat="48.18531" lon="7.21163">
        <ele>795.058</ele>
        <time>2012-06-02T11:08:09Z</time>
      </trkpt>
      <trkpt lat="48.18548" lon="7.21164">
        <ele>795.127</ele>
        <time>2012-06-02T11:08:15Z</time>
      </trkpt>
      <trkpt lat="48.18566" lon="7.21155">
        <ele>797.197</ele>
        <time>2012-06-02T11:08:22Z</time>
      </trkpt>
      <trkpt lat="48.18581" lon="7.2114">
        <ele>795.325</ele>
        <time>2012-06-02T11:08:29Z</time>
      </trkpt>
      <trkpt lat="48.18584" lon="7.21139">
        <ele>793.824</ele>
        <time>2012-06-02T11:08:31Z</time>
      </trkpt>
      <trkpt lat="48.18586" lon="7.21132">
        <ele>792.244</ele>
        <time>2012-06-02T11:08:35Z</time>
      </trkpt>
      <trkpt lat="48.186" lon="7.21113">
        <ele>790.906</ele>
        <time>2012-06-02T11:08:43Z</time>
      </trkpt>
      <trkpt lat="48.18611" lon="7.21093">
        <ele>790.266</ele>
        <time>2012-06-02T11:08:50Z</time>
      </trkpt>
      <trkpt lat="48.18626" lon="7.21087">
        <ele>790.657</ele>
        <time>2012-06-02T11:08:56Z</time>
      </trkpt>
      <trkpt lat="48.18639" lon="7.21091">
        <ele>789.156</ele>
        <time>2012-06-02T11:09:01Z</time>
      </trkpt>
      <trkpt lat="48.18659" lon="7.21095">
        <ele>792.108</ele>
        <time>2012-06-02T11:09:08Z</time>
      </trkpt>
      <trkpt lat="48.18673" lon="7.21095">
        <ele>793.277</ele>
        <time>2012-06-02T11:09:14Z</time>
      </trkpt>
      <trkpt lat="48.18695" lon="7.21091">
        <ele>793.837</ele>
        <time>2012-06-02T11:09:22Z</time>
      </trkpt>
      <trkpt lat="48.18713" lon="7.21088">
        <ele>793.037</ele>
        <time>2012-06-02T11:09:30Z</time>
      </trkpt>
      <trkpt lat="48.18738" lon="7.21084">
        <ele>795.978</ele>
        <time>2012-06-02T11:09:40Z</time>
      </trkpt>
      <trkpt lat="48.18754" lon="7.21084">
        <ele>798.531</ele>
        <time>2012-06-02T11:09:47Z</time>
      </trkpt>
      <trkpt lat="48.18766" lon="7.21088">
        <ele>800.538</ele>
        <time>2012-06-02T11:09:53Z</time>
      </trkpt>
      <trkpt lat="48.18781" lon="7.21097">
        <ele>803.491</ele>
        <time>2012-06-02T11:10:00Z</time>
      </trkpt>
      <trkpt lat="48.18793" lon="7.21114">
        <ele>806.461</ele>
        <time>2012-06-02T11:10:07Z</time>
      </trkpt>
      <trkpt lat="48.18808" lon="7.21134">
        <ele>810.985</ele>
        <time>2012-06-02T11:10:14Z</time>
      </trkpt>
      <trkpt lat="48.18826" lon="7.21164">
        <ele>813.276</ele>
        <time>2012-06-02T11:10:24Z</time>
      </trkpt>
      <trkpt lat="48.1884" lon="7.21184">
        <ele>814.489</ele>
        <time>2012-06-02T11:10:32Z</time>
      </trkpt>
      <trkpt lat="48.18858" lon="7.21206">
        <ele>814.056</ele>
        <time>2012-06-02T11:10:40Z</time>
      </trkpt>
      <trkpt lat="48.18876" lon="7.21232">
        <ele>814.831</ele>
        <time>2012-06-02T11:10:49Z</time>
      </trkpt>
      <trkpt lat="48.18889" lon="7.21254">
        <ele>814.956</ele>
        <time>2012-06-02T11:10:56Z</time>
      </trkpt>
      <trkpt lat="48.18906" lon="7.21282">
        <ele>815.226</ele>
        <time>2012-06-02T11:11:05Z</time>
      </trkpt>
      <trkpt lat="48.18926" lon="7.21312">
        <ele>816.377</ele>
        <time>2012-06-02T11:11:15Z</time>
      </trkpt>
      <trkpt lat="48.18947" lon="7.21343">
        <ele>817.779</ele>
        <time>2012-06-02T11:11:25Z</time>
      </trkpt>
      <trkpt lat="48.18958" lon="7.21362">
        <ele>818.677</ele>
        <time>2012-06-02T11:11:31Z</time>
      </trkpt>
      <trkpt lat="48.18975" lon="7.21393">
        <ele>819.759</ele>
        <time>2012-06-02T11:11:40Z</time>
      </trkpt>
      <trkpt lat="48.18989" lon="7.21415">
        <ele>821.162</ele>
        <time>2012-06-02T11:11:47Z</time>
      </trkpt>
      <trkpt lat="48.19008" lon="7.21433">
        <ele>822.018</ele>
        <time>2012-06-02T11:11:55Z</time>
      </trkpt>
      <trkpt lat="48.19034" lon="7.21447">
        <ele>824.073</ele>
        <time>2012-06-02T11:12:04Z</time>
      </trkpt>
      <trkpt lat="48.19058" lon="7.21452">
        <ele>825.145</ele>
        <time>2012-06-02T11:12:12Z</time>
      </trkpt>
      <trkpt lat="48.19076" lon="7.21452">
        <ele>825.229</ele>
        <time>2012-06-02T11:12:19Z</time>
      </trkpt>
      <trkpt lat="48.19089" lon="7.21454">
        <ele>825.169</ele>
        <time>2012-06-02T11:12:27Z</time>
      </trkpt>
      <trkpt lat="48.19096" lon="7.21453">
        <ele>825.09</ele>
        <time>2012-06-02T11:12:32Z</time>
      </trkpt>
      <trkpt lat="48.19112" lon="7.2145">
        <ele>825.497</ele>
        <time>2012-06-02T11:12:38Z</time>
      </trkpt>
      <trkpt lat="48.19137" lon="7.21441">
        <ele>825.585</ele>
        <time>2012-06-02T11:12:47Z</time>
      </trkpt>
      <trkpt lat="48.19162" lon="7.21431">
        <ele>826.568</ele>
        <time>2012-06-02T11:12:56Z</time>
      </trkpt>
      <trkpt lat="48.19189" lon="7.21432">
        <ele>827.547</ele>
        <time>2012-06-02T11:13:06Z</time>
      </trkpt>
      <trkpt lat="48.19207" lon="7.21435">
        <ele>828.168</ele>
        <time>2012-06-02T11:13:13Z</time>
      </trkpt>
      <trkpt lat="48.19233" lon="7.2145">
        <ele>831.058</ele>
        <time>2012-06-02T11:13:23Z</time>
      </trkpt>
      <trkpt lat="48.19246" lon="7.21467">
        <ele>835.179</ele>
        <time>2012-06-02T11:13:30Z</time>
      </trkpt>
      <trkpt lat="48.19266" lon="7.21493">
        <ele>837.658</ele>
        <time>2012-06-02T11:13:39Z</time>
      </trkpt>
      <trkpt lat="48.19284" lon="7.21519">
        <ele>838.527</ele>
        <time>2012-06-02T11:13:48Z</time>
      </trkpt>
      <trkpt lat="48.19291" lon="7.2153">
        <ele>839.087</ele>
        <time>2012-06-02T11:13:52Z</time>
      </trkpt>
      <trkpt lat="48.19302" lon="7.21546">
        <ele>839.457</ele>
        <time>2012-06-02T11:13:58Z</time>
      </trkpt>
      <trkpt lat="48.19314" lon="7.21574">
        <ele>839.536</ele>
        <time>2012-06-02T11:14:05Z</time>
      </trkpt>
      <trkpt lat="48.19328" lon="7.21606">
        <ele>838.444</ele>
        <time>2012-06-02T11:14:10Z</time>
      </trkpt>
      <trkpt lat="48.19348" lon="7.21652">
        <ele>835.652</ele>
        <time>2012-06-02T11:14:15Z</time>
      </trkpt>
      <trkpt lat="48.19372" lon="7.2171">
        <ele>832.901</ele>
        <time>2012-06-02T11:14:20Z</time>
      </trkpt>
      <trkpt lat="48.19417" lon="7.21776">
        <ele>828.781</ele>
        <time>2012-06-02T11:14:26Z</time>
      </trkpt>
      <trkpt lat="48.19469" lon="7.21839">
        <ele>825.912</ele>
        <time>2012-06-02T11:14:32Z</time>
      </trkpt>
      <trkpt lat="48.19529" lon="7.2191">
        <ele>822.175</ele>
        <time>2012-06-02T11:14:39Z</time>
      </trkpt>
      <trkpt lat="48.19573" lon="7.21962">
        <ele>822.046</ele>
        <time>2012-06-02T11:14:45Z</time>
      </trkpt>
      <trkpt lat="48.19612" lon="7.22003">
        <ele>820.776</ele>
        <time>2012-06-02T11:14:51Z</time>
      </trkpt>
      <trkpt lat="48.19631" lon="7.22017">
        <ele>818.995</ele>
        <time>2012-06-02T11:14:54Z</time>
      </trkpt>
      <trkpt lat="48.19657" lon="7.22046">
        <ele>815.518</ele>
        <time>2012-06-02T11:14:59Z</time>
      </trkpt>
      <trkpt lat="48.19688" lon="7.22091">
        <ele>811.951</ele>
        <time>2012-06-02T11:15:04Z</time>
      </trkpt>
      <trkpt lat="48.19719" lon="7.22123">
        <ele>808.562</ele>
        <time>2012-06-02T11:15:08Z</time>
      </trkpt>
      <trkpt lat="48.19742" lon="7.22147">
        <ele>805.532</ele>
        <time>2012-06-02T11:15:12Z</time>
      </trkpt>
      <trkpt lat="48.1976" lon="7.22153">
        <ele>804.323</ele>
        <time>2012-06-02T11:15:16Z</time>
      </trkpt>
      <trkpt lat="48.19767" lon="7.2215">
        <ele>804.014</ele>
        <time>2012-06-02T11:15:17Z</time>
      </trkpt>
      <trkpt lat="48.1979" lon="7.2213">
        <ele>804.166</ele>
        <time>2012-06-02T11:15:22Z</time>
      </trkpt>
      <trkpt lat="48.19794" lon="7.2213">
        <ele>803.616</ele>
        <time>2012-06-02T11:15:25Z</time>
      </trkpt>
      <trkpt lat="48.19793" lon="7.22134">
        <ele>805.118</ele>
        <time>2012-06-02T11:15:45Z</time>
      </trkpt>
      <trkpt lat="48.19785" lon="7.22129">
        <ele>803.818</ele>
        <time>2012-06-02T11:22:15Z</time>
      </trkpt>
      <trkpt lat="48.1979" lon="7.22118">
        <ele>800.486</ele>
        <time>2012-06-02T11:22:21Z</time>
      </trkpt>
      <trkpt lat="48.19802" lon="7.221">
        <ele>798.696</ele>
        <time>2012-06-02T11:22:26Z</time>
      </trkpt>
      <trkpt lat="48.19804" lon="7.22095">
        <ele>798.285</ele>
        <time>2012-06-02T11:22:27Z</time>
      </trkpt>
      <trkpt lat="48.19823" lon="7.22047">
        <ele>796.786</ele>
        <time>2012-06-02T11:22:34Z</time>
      </trkpt>
      <trkpt lat="48.19831" lon="7.22034">
        <ele>796.326</ele>
        <time>2012-06-02T11:22:36Z</time>
      </trkpt>
      <trkpt lat="48.19871" lon="7.21991">
        <ele>795.446</ele>
        <time>2012-06-02T11:22:44Z</time>
      </trkpt>
      <trkpt lat="48.19911" lon="7.21957">
        <ele>796.228</ele>
        <time>2012-06-02T11:22:52Z</time>
      </trkpt>
      <trkpt lat="48.19928" lon="7.21938">
        <ele>797.468</ele>
        <time>2012-06-02T11:22:56Z</time>
      </trkpt>
      <trkpt lat="48.19949" lon="7.21892">
        <ele>799.35</ele>
        <time>2012-06-02T11:23:04Z</time>
      </trkpt>
      <trkpt lat="48.19965" lon="7.21863">
        <ele>798.909</ele>
        <time>2012-06-02T11:23:11Z</time>
      </trkpt>
      <trkpt lat="48.19982" lon="7.2184">
        <ele>799.069</ele>
        <time>2012-06-02T11:23:18Z</time>
      </trkpt>
      <trkpt lat="48.20004" lon="7.21819">
        <ele>799.159</ele>
        <time>2012-06-02T11:23:25Z</time>
      </trkpt>
      <trkpt lat="48.20012" lon="7.21814">
        <ele>799.399</ele>
        <time>2012-06-02T11:23:27Z</time>
      </trkpt>
      <trkpt lat="48.20043" lon="7.21802">
        <ele>800.538</ele>
        <time>2012-06-02T11:23:35Z</time>
      </trkpt>
      <trkpt lat="48.20071" lon="7.21797">
        <ele>800.466</ele>
        <time>2012-06-02T11:23:41Z</time>
      </trkpt>
      <trkpt lat="48.20096" lon="7.21797">
        <ele>800.317</ele>
        <time>2012-06-02T11:23:45Z</time>
      </trkpt>
      <trkpt lat="48.20126" lon="7.21813">
        <ele>798.766</ele>
        <time>2012-06-02T11:23:50Z</time>
      </trkpt>
      <trkpt lat="48.20165" lon="7.21841">
        <ele>797.995</ele>
        <time>2012-06-02T11:23:56Z</time>
      </trkpt>
      <trkpt lat="48.20209" lon="7.21864">
        <ele>795.614</ele>
        <time>2012-06-02T11:24:02Z</time>
      </trkpt>
      <trkpt lat="48.20272" lon="7.21882">
        <ele>792.744</ele>
        <time>2012-06-02T11:24:09Z</time>
      </trkpt>
      <trkpt lat="48.20329" lon="7.21894">
        <ele>789.884</ele>
        <time>2012-06-02T11:24:15Z</time>
      </trkpt>
      <trkpt lat="48.20379" lon="7.21888">
        <ele>787.055</ele>
        <time>2012-06-02T11:24:20Z</time>
      </trkpt>
      <trkpt lat="48.20446" lon="7.21868">
        <ele>783.746</ele>
        <time>2012-06-02T11:24:27Z</time>
      </trkpt>
      <trkpt lat="48.20494" lon="7.21853">
        <ele>783.998</ele>
        <time>2012-06-02T11:24:33Z</time>
      </trkpt>
      <trkpt lat="48.205" lon="7.21852">
        <ele>784.088</ele>
        <time>2012-06-02T11:24:34Z</time>
      </trkpt>
      <trkpt lat="48.20531" lon="7.21861">
        <ele>784.739</ele>
        <time>2012-06-02T11:24:39Z</time>
      </trkpt>
      <trkpt lat="48.20558" lon="7.21874">
        <ele>784.939</ele>
        <time>2012-06-02T11:24:44Z</time>
      </trkpt>
      <trkpt lat="48.20588" lon="7.21874">
        <ele>785.339</ele>
        <time>2012-06-02T11:24:50Z</time>
      </trkpt>
      <trkpt lat="48.20618" lon="7.2187">
        <ele>787.419</ele>
        <time>2012-06-02T11:24:57Z</time>
      </trkpt>
      <trkpt lat="48.20637" lon="7.21872">
        <ele>787.788</ele>
        <time>2012-06-02T11:25:03Z</time>
      </trkpt>
      <trkpt lat="48.20656" lon="7.21885">
        <ele>790.7</ele>
        <time>2012-06-02T11:25:09Z</time>
      </trkpt>
      <trkpt lat="48.20682" lon="7.21899">
        <ele>793.55</ele>
        <time>2012-06-02T11:25:17Z</time>
      </trkpt>
      <trkpt lat="48.2071" lon="7.21904">
        <ele>796.33</ele>
        <time>2012-06-02T11:25:25Z</time>
      </trkpt>
      <trkpt lat="48.20734" lon="7.21908">
        <ele>798.19</ele>
        <time>2012-06-02T11:25:34Z</time>
      </trkpt>
      <trkpt lat="48.20758" lon="7.21912">
        <ele>799.369</ele>
        <time>2012-06-02T11:25:43Z</time>
      </trkpt>
      <trkpt lat="48.20777" lon="7.21909">
        <ele>800.999</ele>
        <time>2012-06-02T11:25:51Z</time>
      </trkpt>
      <trkpt lat="48.20793" lon="7.21899">
        <ele>802.659</ele>
        <time>2012-06-02T11:25:58Z</time>
      </trkpt>
      <trkpt lat="48.20804" lon="7.21888">
        <ele>803.059</ele>
        <time>2012-06-02T11:26:03Z</time>
      </trkpt>
      <trkpt lat="48.2082" lon="7.21876">
        <ele>803.208</ele>
        <time>2012-06-02T11:26:09Z</time>
      </trkpt>
      <trkpt lat="48.20836" lon="7.21862">
        <ele>802.447</ele>
        <time>2012-06-02T11:26:15Z</time>
      </trkpt>
      <trkpt lat="48.20854" lon="7.21848">
        <ele>801.187</ele>
        <time>2012-06-02T11:26:21Z</time>
      </trkpt>
      <trkpt lat="48.20875" lon="7.21824">
        <ele>796.836</ele>
        <time>2012-06-02T11:26:28Z</time>
      </trkpt>
      <trkpt lat="48.20893" lon="7.21786">
        <ele>795.896</ele>
        <time>2012-06-02T11:26:37Z</time>
      </trkpt>
      <trkpt lat="48.20909" lon="7.21756">
        <ele>795.521</ele>
        <time>2012-06-02T11:26:44Z</time>
      </trkpt>
      <trkpt lat="48.20927" lon="7.2172">
        <ele>795.651</ele>
        <time>2012-06-02T11:26:53Z</time>
      </trkpt>
      <trkpt lat="48.20947" lon="7.21678">
        <ele>797.139</ele>
        <time>2012-06-02T11:27:03Z</time>
      </trkpt>
      <trkpt lat="48.20966" lon="7.21641">
        <ele>797.719</ele>
        <time>2012-06-02T11:27:12Z</time>
      </trkpt>
      <trkpt lat="48.20985" lon="7.21603">
        <ele>798.172</ele>
        <time>2012-06-02T11:27:21Z</time>
      </trkpt>
      <trkpt lat="48.20998" lon="7.21563">
        <ele>798.88</ele>
        <time>2012-06-02T11:27:29Z</time>
      </trkpt>
      <trkpt lat="48.21007" lon="7.2152">
        <ele>800.031</ele>
        <time>2012-06-02T11:27:38Z</time>
      </trkpt>
      <trkpt lat="48.21018" lon="7.21466">
        <ele>801.209</ele>
        <time>2012-06-02T11:27:49Z</time>
      </trkpt>
      <trkpt lat="48.2103" lon="7.21416">
        <ele>801.859</ele>
        <time>2012-06-02T11:27:59Z</time>
      </trkpt>
      <trkpt lat="48.21036" lon="7.21409">
        <ele>801.549</ele>
        <time>2012-06-02T11:28:01Z</time>
      </trkpt>
      <trkpt lat="48.21053" lon="7.21409">
        <ele>802.349</ele>
        <time>2012-06-02T11:28:05Z</time>
      </trkpt>
      <trkpt lat="48.21062" lon="7.21423">
        <ele>803.161</ele>
        <time>2012-06-02T11:28:08Z</time>
      </trkpt>
      <trkpt lat="48.21077" lon="7.21457">
        <ele>807.562</ele>
        <time>2012-06-02T11:28:16Z</time>
      </trkpt>
      <trkpt lat="48.21088" lon="7.21492">
        <ele>810.993</ele>
        <time>2012-06-02T11:28:24Z</time>
      </trkpt>
      <trkpt lat="48.21092" lon="7.21521">
        <ele>813.281</ele>
        <time>2012-06-02T11:28:31Z</time>
      </trkpt>
      <trkpt lat="48.21095" lon="7.21555">
        <ele>814.821</ele>
        <time>2012-06-02T11:28:39Z</time>
      </trkpt>
      <trkpt lat="48.21097" lon="7.21586">
        <ele>816.271</ele>
        <time>2012-06-02T11:28:47Z</time>
      </trkpt>
      <trkpt lat="48.21101" lon="7.21614">
        <ele>818.221</ele>
        <time>2012-06-02T11:28:54Z</time>
      </trkpt>
      <trkpt lat="48.21105" lon="7.21643">
        <ele>820.541</ele>
        <time>2012-06-02T11:29:02Z</time>
      </trkpt>
      <trkpt lat="48.21111" lon="7.2168">
        <ele>822.271</ele>
        <time>2012-06-02T11:29:12Z</time>
      </trkpt>
      <trkpt lat="48.21119" lon="7.21707">
        <ele>823.991</ele>
        <time>2012-06-02T11:29:20Z</time>
      </trkpt>
      <trkpt lat="48.21125" lon="7.21733">
        <ele>824.59</ele>
        <time>2012-06-02T11:29:28Z</time>
      </trkpt>
      <trkpt lat="48.21131" lon="7.21758">
        <ele>825.451</ele>
        <time>2012-06-02T11:29:36Z</time>
      </trkpt>
      <trkpt lat="48.21141" lon="7.21792">
        <ele>827.741</ele>
        <time>2012-06-02T11:29:46Z</time>
      </trkpt>
      <trkpt lat="48.21149" lon="7.21819">
        <ele>829.592</ele>
        <time>2012-06-02T11:29:54Z</time>
      </trkpt>
      <trkpt lat="48.21157" lon="7.2185">
        <ele>830.701</ele>
        <time>2012-06-02T11:30:03Z</time>
      </trkpt>
      <trkpt lat="48.21166" lon="7.21878">
        <ele>831.621</ele>
        <time>2012-06-02T11:30:11Z</time>
      </trkpt>
      <trkpt lat="48.21175" lon="7.21897">
        <ele>832.672</ele>
        <time>2012-06-02T11:30:18Z</time>
      </trkpt>
      <trkpt lat="48.21184" lon="7.21913">
        <ele>833.201</ele>
        <time>2012-06-02T11:30:24Z</time>
      </trkpt>
      <trkpt lat="48.21196" lon="7.21935">
        <ele>835.091</ele>
        <time>2012-06-02T11:30:32Z</time>
      </trkpt>
      <trkpt lat="48.21208" lon="7.21955">
        <ele>836.521</ele>
        <time>2012-06-02T11:30:40Z</time>
      </trkpt>
      <trkpt lat="48.21219" lon="7.21977">
        <ele>838.062</ele>
        <time>2012-06-02T11:30:48Z</time>
      </trkpt>
      <trkpt lat="48.21234" lon="7.22004">
        <ele>839.492</ele>
        <time>2012-06-02T11:30:58Z</time>
      </trkpt>
      <trkpt lat="48.21248" lon="7.22028">
        <ele>841.392</ele>
        <time>2012-06-02T11:31:07Z</time>
      </trkpt>
      <trkpt lat="48.21259" lon="7.22048">
        <ele>842.712</ele>
        <time>2012-06-02T11:31:14Z</time>
      </trkpt>
      <trkpt lat="48.21273" lon="7.22071">
        <ele>844.272</ele>
        <time>2012-06-02T11:31:23Z</time>
      </trkpt>
      <trkpt lat="48.21289" lon="7.22101">
        <ele>845.861</ele>
        <time>2012-06-02T11:31:34Z</time>
      </trkpt>
      <trkpt lat="48.21303" lon="7.22125">
        <ele>848.557</ele>
        <time>2012-06-02T11:31:43Z</time>
      </trkpt>
      <trkpt lat="48.2132" lon="7.22137">
        <ele>851.251</ele>
        <time>2012-06-02T11:31:51Z</time>
      </trkpt>
      <trkpt lat="48.21337" lon="7.22133">
        <ele>852.005</ele>
        <time>2012-06-02T11:31:58Z</time>
      </trkpt>
      <trkpt lat="48.21353" lon="7.22112">
        <ele>852.541</ele>
        <time>2012-06-02T11:32:06Z</time>
      </trkpt>
      <trkpt lat="48.21368" lon="7.22086">
        <ele>854.061</ele>
        <time>2012-06-02T11:32:15Z</time>
      </trkpt>
      <trkpt lat="48.21384" lon="7.22066">
        <ele>853.951</ele>
        <time>2012-06-02T11:32:22Z</time>
      </trkpt>
      <trkpt lat="48.21399" lon="7.22044">
        <ele>854.95</ele>
        <time>2012-06-02T11:32:29Z</time>
      </trkpt>
      <trkpt lat="48.2141" lon="7.22025">
        <ele>853.698</ele>
        <time>2012-06-02T11:32:35Z</time>
      </trkpt>
      <trkpt lat="48.21421" lon="7.22003">
        <ele>849.846</ele>
        <time>2012-06-02T11:32:42Z</time>
      </trkpt>
      <trkpt lat="48.21437" lon="7.21977">
        <ele>850.047</ele>
        <time>2012-06-02T11:32:50Z</time>
      </trkpt>
      <trkpt lat="48.21456" lon="7.21953">
        <ele>847.765</ele>
        <time>2012-06-02T11:32:57Z</time>
      </trkpt>
      <trkpt lat="48.21472" lon="7.21927">
        <ele>850.757</ele>
        <time>2012-06-02T11:33:03Z</time>
      </trkpt>
      <trkpt lat="48.21475" lon="7.21922">
        <ele>851.827</ele>
        <time>2012-06-02T11:33:04Z</time>
      </trkpt>
      <trkpt lat="48.21488" lon="7.21904">
        <ele>853.659</ele>
        <time>2012-06-02T11:33:08Z</time>
      </trkpt>
      <trkpt lat="48.21495" lon="7.21894">
        <ele>853.279</ele>
        <time>2012-06-02T11:33:10Z</time>
      </trkpt>
      <trkpt lat="48.21515" lon="7.21853">
        <ele>850.716</ele>
        <time>2012-06-02T11:33:17Z</time>
      </trkpt>
      <trkpt lat="48.21521" lon="7.21842">
        <ele>851.708</ele>
        <time>2012-06-02T11:33:19Z</time>
      </trkpt>
      <trkpt lat="48.21547" lon="7.21808">
        <ele>853.401</ele>
        <time>2012-06-02T11:33:25Z</time>
      </trkpt>
      <trkpt lat="48.21583" lon="7.21762">
        <ele>867.158</ele>
        <time>2012-06-02T11:33:32Z</time>
      </trkpt>
      <trkpt lat="48.21609" lon="7.2173">
        <ele>874.667</ele>
        <time>2012-06-02T11:33:37Z</time>
      </trkpt>
      <trkpt lat="48.21625" lon="7.21715">
        <ele>876.738</ele>
        <time>2012-06-02T11:33:40Z</time>
      </trkpt>
      <trkpt lat="48.21656" lon="7.2171">
        <ele>878.406</ele>
        <time>2012-06-02T11:33:45Z</time>
      </trkpt>
      <trkpt lat="48.2167" lon="7.21717">
        <ele>877.153</ele>
        <time>2012-06-02T11:33:48Z</time>
      </trkpt>
      <trkpt lat="48.21704" lon="7.21747">
        <ele>873.419</ele>
        <time>2012-06-02T11:33:54Z</time>
      </trkpt>
      <trkpt lat="48.21709" lon="7.21752">
        <ele>872.868</ele>
        <time>2012-06-02T11:33:55Z</time>
      </trkpt>
      <trkpt lat="48.21742" lon="7.21777">
        <ele>870.657</ele>
        <time>2012-06-02T11:34:01Z</time>
      </trkpt>
      <trkpt lat="48.21748" lon="7.21779">
        <ele>870.326</ele>
        <time>2012-06-02T11:34:02Z</time>
      </trkpt>
      <trkpt lat="48.2176" lon="7.21783">
        <ele>870.937</ele>
        <time>2012-06-02T11:34:04Z</time>
      </trkpt>
      <trkpt lat="48.21788" lon="7.21778">
        <ele>867.576</ele>
        <time>2012-06-02T11:34:08Z</time>
      </trkpt>
      <trkpt lat="48.21801" lon="7.21768">
        <ele>864.895</ele>
        <time>2012-06-02T11:34:10Z</time>
      </trkpt>
      <trkpt lat="48.21858" lon="7.21708">
        <ele>862.227</ele>
        <time>2012-06-02T11:34:19Z</time>
      </trkpt>
      <trkpt lat="48.21903" lon="7.2165">
        <ele>862.079</ele>
        <time>2012-06-02T11:34:27Z</time>
      </trkpt>
      <trkpt lat="48.21912" lon="7.21634">
        <ele>862.991</ele>
        <time>2012-06-02T11:34:29Z</time>
      </trkpt>
      <trkpt lat="48.21922" lon="7.21606">
        <ele>861.49</ele>
        <time>2012-06-02T11:34:32Z</time>
      </trkpt>
      <trkpt lat="48.21922" lon="7.2155">
        <ele>860.49</ele>
        <time>2012-06-02T11:34:37Z</time>
      </trkpt>
      <trkpt lat="48.21919" lon="7.21483">
        <ele>860.211</ele>
        <time>2012-06-02T11:34:43Z</time>
      </trkpt>
      <trkpt lat="48.21919" lon="7.21416">
        <ele>859.449</ele>
        <time>2012-06-02T11:34:49Z</time>
      </trkpt>
      <trkpt lat="48.21918" lon="7.21351">
        <ele>857.728</ele>
        <time>2012-06-02T11:34:55Z</time>
      </trkpt>
      <trkpt lat="48.2192" lon="7.21329">
        <ele>857.358</ele>
        <time>2012-06-02T11:34:57Z</time>
      </trkpt>
      <trkpt lat="48.21923" lon="7.21289">
        <ele>857.008</ele>
        <time>2012-06-02T11:35:01Z</time>
      </trkpt>
      <trkpt lat="48.21941" lon="7.21239">
        <ele>860.912</ele>
        <time>2012-06-02T11:35:07Z</time>
      </trkpt>
      <trkpt lat="48.21944" lon="7.21231">
        <ele>861.262</ele>
        <time>2012-06-02T11:35:08Z</time>
      </trkpt>
      <trkpt lat="48.21965" lon="7.21192">
        <ele>860.551</ele>
        <time>2012-06-02T11:35:13Z</time>
      </trkpt>
      <trkpt lat="48.21971" lon="7.21187">
        <ele>859.991</ele>
        <time>2012-06-02T11:35:14Z</time>
      </trkpt>
      <trkpt lat="48.22011" lon="7.21169">
        <ele>864.433</ele>
        <time>2012-06-02T11:35:20Z</time>
      </trkpt>
      <trkpt lat="48.22025" lon="7.21169">
        <ele>866.113</ele>
        <time>2012-06-02T11:35:22Z</time>
      </trkpt>
      <trkpt lat="48.22043" lon="7.21174">
        <ele>866.283</ele>
        <time>2012-06-02T11:35:25Z</time>
      </trkpt>
      <trkpt lat="48.22069" lon="7.2119">
        <ele>864.65</ele>
        <time>2012-06-02T11:35:30Z</time>
      </trkpt>
      <trkpt lat="48.2211" lon="7.21199">
        <ele>862.799</ele>
        <time>2012-06-02T11:35:36Z</time>
      </trkpt>
      <trkpt lat="48.22156" lon="7.212">
        <ele>860.519</ele>
        <time>2012-06-02T11:35:42Z</time>
      </trkpt>
      <trkpt lat="48.22183" lon="7.21193">
        <ele>859.65</ele>
        <time>2012-06-02T11:35:46Z</time>
      </trkpt>
      <trkpt lat="48.22225" lon="7.21165">
        <ele>855.877</ele>
        <time>2012-06-02T11:35:52Z</time>
      </trkpt>
      <trkpt lat="48.22233" lon="7.21155">
        <ele>855.267</ele>
        <time>2012-06-02T11:35:53Z</time>
      </trkpt>
      <trkpt lat="48.22267" lon="7.21148">
        <ele>853.697</ele>
        <time>2012-06-02T11:35:57Z</time>
      </trkpt>
      <trkpt lat="48.22275" lon="7.21154">
        <ele>853.738</ele>
        <time>2012-06-02T11:35:58Z</time>
      </trkpt>
      <trkpt lat="48.22323" lon="7.21184">
        <ele>852.227</ele>
        <time>2012-06-02T11:36:04Z</time>
      </trkpt>
      <trkpt lat="48.22332" lon="7.21188">
        <ele>852.337</ele>
        <time>2012-06-02T11:36:05Z</time>
      </trkpt>
      <trkpt lat="48.22382" lon="7.21239">
        <ele>851.749</ele>
        <time>2012-06-02T11:36:12Z</time>
      </trkpt>
      <trkpt lat="48.22421" lon="7.21293">
        <ele>851.149</ele>
        <time>2012-06-02T11:36:18Z</time>
      </trkpt>
      <trkpt lat="48.22433" lon="7.21343">
        <ele>850.799</ele>
        <time>2012-06-02T11:36:22Z</time>
      </trkpt>
      <trkpt lat="48.22433" lon="7.21356">
        <ele>850.719</ele>
        <time>2012-06-02T11:36:23Z</time>
      </trkpt>
      <trkpt lat="48.22428" lon="7.21451">
        <ele>846.337</ele>
        <time>2012-06-02T11:36:30Z</time>
      </trkpt>
      <trkpt lat="48.22421" lon="7.2155">
        <ele>840.983</ele>
        <time>2012-06-02T11:36:37Z</time>
      </trkpt>
      <trkpt lat="48.22418" lon="7.21577">
        <ele>840.536</ele>
        <time>2012-06-02T11:36:39Z</time>
      </trkpt>
      <trkpt lat="48.2241" lon="7.21623">
        <ele>838.536</ele>
        <time>2012-06-02T11:36:42Z</time>
      </trkpt>
      <trkpt lat="48.22382" lon="7.21651">
        <ele>837.556</ele>
        <time>2012-06-02T11:36:46Z</time>
      </trkpt>
      <trkpt lat="48.2235" lon="7.21691">
        <ele>837.379</ele>
        <time>2012-06-02T11:36:51Z</time>
      </trkpt>
      <trkpt lat="48.2231" lon="7.21755">
        <ele>833.757</ele>
        <time>2012-06-02T11:36:57Z</time>
      </trkpt>
      <trkpt lat="48.22294" lon="7.21824">
        <ele>832.958</ele>
        <time>2012-06-02T11:37:02Z</time>
      </trkpt>
      <trkpt lat="48.22284" lon="7.21931">
        <ele>831.539</ele>
        <time>2012-06-02T11:37:09Z</time>
      </trkpt>
      <trkpt lat="48.22283" lon="7.21946">
        <ele>831.77</ele>
        <time>2012-06-02T11:37:10Z</time>
      </trkpt>
      <trkpt lat="48.22283" lon="7.22002">
        <ele>831.79</ele>
        <time>2012-06-02T11:37:14Z</time>
      </trkpt>
      <trkpt lat="48.22282" lon="7.22029">
        <ele>831.65</ele>
        <time>2012-06-02T11:37:16Z</time>
      </trkpt>
      <trkpt lat="48.22289" lon="7.22093">
        <ele>830.761</ele>
        <time>2012-06-02T11:37:21Z</time>
      </trkpt>
      <trkpt lat="48.22313" lon="7.22178">
        <ele>829.339</ele>
        <time>2012-06-02T11:37:28Z</time>
      </trkpt>
      <trkpt lat="48.22329" lon="7.22244">
        <ele>826.037</ele>
        <time>2012-06-02T11:37:33Z</time>
      </trkpt>
      <trkpt lat="48.22348" lon="7.22319">
        <ele>824.127</ele>
        <time>2012-06-02T11:37:39Z</time>
      </trkpt>
      <trkpt lat="48.22353" lon="7.22366">
        <ele>820.765</ele>
        <time>2012-06-02T11:37:43Z</time>
      </trkpt>
      <trkpt lat="48.22337" lon="7.22416">
        <ele>815.654</ele>
        <time>2012-06-02T11:37:47Z</time>
      </trkpt>
      <trkpt lat="48.22297" lon="7.22509">
        <ele>812.888</ele>
        <time>2012-06-02T11:37:55Z</time>
      </trkpt>
      <trkpt lat="48.22261" lon="7.22569">
        <ele>812.12</ele>
        <time>2012-06-02T11:38:01Z</time>
      </trkpt>
      <trkpt lat="48.2224" lon="7.22597">
        <ele>813.462</ele>
        <time>2012-06-02T11:38:04Z</time>
      </trkpt>
      <trkpt lat="48.22199" lon="7.2263">
        <ele>811.99</ele>
        <time>2012-06-02T11:38:09Z</time>
      </trkpt>
      <trkpt lat="48.22157" lon="7.22662">
        <ele>811.762</ele>
        <time>2012-06-02T11:38:14Z</time>
      </trkpt>
      <trkpt lat="48.2214" lon="7.22677">
        <ele>810.34</ele>
        <time>2012-06-02T11:38:16Z</time>
      </trkpt>
      <trkpt lat="48.22108" lon="7.2273">
        <ele>805.057</ele>
        <time>2012-06-02T11:38:21Z</time>
      </trkpt>
      <trkpt lat="48.221" lon="7.22785">
        <ele>802.957</ele>
        <time>2012-06-02T11:38:25Z</time>
      </trkpt>
      <trkpt lat="48.221" lon="7.22872">
        <ele>800.977</ele>
        <time>2012-06-02T11:38:31Z</time>
      </trkpt>
      <trkpt lat="48.22104" lon="7.22914">
        <ele>799.036</ele>
        <time>2012-06-02T11:38:34Z</time>
      </trkpt>
      <trkpt lat="48.22123" lon="7.22997">
        <ele>796.547</ele>
        <time>2012-06-02T11:38:40Z</time>
      </trkpt>
      <trkpt lat="48.22133" lon="7.23022">
        <ele>795.947</ele>
        <time>2012-06-02T11:38:42Z</time>
      </trkpt>
      <trkpt lat="48.22174" lon="7.23046">
        <ele>794.316</ele>
        <time>2012-06-02T11:38:46Z</time>
      </trkpt>
      <trkpt lat="48.22198" lon="7.23039">
        <ele>792.675</ele>
        <time>2012-06-02T11:38:48Z</time>
      </trkpt>
      <trkpt lat="48.22269" lon="7.23023">
        <ele>786.953</ele>
        <time>2012-06-02T11:38:54Z</time>
      </trkpt>
      <trkpt lat="48.22329" lon="7.23026">
        <ele>782.17</ele>
        <time>2012-06-02T11:38:59Z</time>
      </trkpt>
      <trkpt lat="48.22401" lon="7.23046">
        <ele>779.164</ele>
        <time>2012-06-02T11:39:05Z</time>
      </trkpt>
      <trkpt lat="48.2245" lon="7.23052">
        <ele>775.653</ele>
        <time>2012-06-02T11:39:09Z</time>
      </trkpt>
      <trkpt lat="48.22497" lon="7.23081">
        <ele>770.312</ele>
        <time>2012-06-02T11:39:13Z</time>
      </trkpt>
      <trkpt lat="48.22524" lon="7.23128">
        <ele>767.042</ele>
        <time>2012-06-02T11:39:16Z</time>
      </trkpt>
      <trkpt lat="48.22555" lon="7.23156">
        <ele>764.501</ele>
        <time>2012-06-02T11:39:19Z</time>
      </trkpt>
      <trkpt lat="48.22578" lon="7.23157">
        <ele>763.383</ele>
        <time>2012-06-02T11:39:21Z</time>
      </trkpt>
      <trkpt lat="48.22607" lon="7.23126">
        <ele>758.711</ele>
        <time>2012-06-02T11:39:24Z</time>
      </trkpt>
      <trkpt lat="48.22611" lon="7.2309">
        <ele>755.608</ele>
        <time>2012-06-02T11:39:26Z</time>
      </trkpt>
      <trkpt lat="48.2261" lon="7.23071">
        <ele>755.049</ele>
        <time>2012-06-02T11:39:27Z</time>
      </trkpt>
      <trkpt lat="48.22607" lon="7.22957">
        <ele>752.034</ele>
        <time>2012-06-02T11:39:33Z</time>
      </trkpt>
      <trkpt lat="48.22623" lon="7.22899">
        <ele>746.316</ele>
        <time>2012-06-02T11:39:37Z</time>
      </trkpt>
      <trkpt lat="48.22629" lon="7.22887">
        <ele>745.383</ele>
        <time>2012-06-02T11:39:38Z</time>
      </trkpt>
      <trkpt lat="48.22667" lon="7.22803">
        <ele>742.769</ele>
        <time>2012-06-02T11:39:45Z</time>
      </trkpt>
      <trkpt lat="48.22684" lon="7.22754">
        <ele>741.719</ele>
        <time>2012-06-02T11:39:49Z</time>
      </trkpt>
      <trkpt lat="48.22703" lon="7.22678">
        <ele>741.789</ele>
        <time>2012-06-02T11:39:55Z</time>
      </trkpt>
      <trkpt lat="48.2271" lon="7.22652">
        <ele>741.149</ele>
        <time>2012-06-02T11:39:57Z</time>
      </trkpt>
      <trkpt lat="48.22743" lon="7.22617">
        <ele>742.16</ele>
        <time>2012-06-02T11:40:01Z</time>
      </trkpt>
      <trkpt lat="48.22765" lon="7.22616">
        <ele>742.35</ele>
        <time>2012-06-02T11:40:03Z</time>
      </trkpt>
      <trkpt lat="48.22785" lon="7.22623">
        <ele>743.641</ele>
        <time>2012-06-02T11:40:05Z</time>
      </trkpt>
      <trkpt lat="48.22806" lon="7.2263">
        <ele>743.59</ele>
        <time>2012-06-02T11:40:07Z</time>
      </trkpt>
      <trkpt lat="48.22844" lon="7.22609">
        <ele>741.97</ele>
        <time>2012-06-02T11:40:11Z</time>
      </trkpt>
      <trkpt lat="48.22842" lon="7.22572">
        <ele>737.805</ele>
        <time>2012-06-02T11:40:13Z</time>
      </trkpt>
      <trkpt lat="48.22838" lon="7.2254">
        <ele>736.195</ele>
        <time>2012-06-02T11:40:15Z</time>
      </trkpt>
      <trkpt lat="48.22864" lon="7.22503">
        <ele>736.177</ele>
        <time>2012-06-02T11:40:20Z</time>
      </trkpt>
      <trkpt lat="48.22885" lon="7.22507">
        <ele>734.715</ele>
        <time>2012-06-02T11:40:22Z</time>
      </trkpt>
      <trkpt lat="48.22894" lon="7.2251">
        <ele>734.775</ele>
        <time>2012-06-02T11:40:23Z</time>
      </trkpt>
      <trkpt lat="48.22945" lon="7.22522">
        <ele>730.846</ele>
        <time>2012-06-02T11:40:28Z</time>
      </trkpt>
      <trkpt lat="48.2299" lon="7.22526">
        <ele>730.547</ele>
        <time>2012-06-02T11:40:32Z</time>
      </trkpt>
      <trkpt lat="48.23032" lon="7.22511">
        <ele>727.127</ele>
        <time>2012-06-02T11:40:36Z</time>
      </trkpt>
      <trkpt lat="48.23068" lon="7.22484">
        <ele>723.335</ele>
        <time>2012-06-02T11:40:39Z</time>
      </trkpt>
      <trkpt lat="48.23093" lon="7.2245">
        <ele>722.084</ele>
        <time>2012-06-02T11:40:42Z</time>
      </trkpt>
      <trkpt lat="48.23094" lon="7.22413">
        <ele>718.733</ele>
        <time>2012-06-02T11:40:44Z</time>
      </trkpt>
      <trkpt lat="48.2308" lon="7.22363">
        <ele>718.225</ele>
        <time>2012-06-02T11:40:47Z</time>
      </trkpt>
      <trkpt lat="48.23074" lon="7.22348">
        <ele>717.984</ele>
        <time>2012-06-02T11:40:48Z</time>
      </trkpt>
      <trkpt lat="48.23042" lon="7.22264">
        <ele>719.889</ele>
        <time>2012-06-02T11:40:54Z</time>
      </trkpt>
      <trkpt lat="48.23018" lon="7.22197">
        <ele>720.151</ele>
        <time>2012-06-02T11:40:59Z</time>
      </trkpt>
      <trkpt lat="48.23016" lon="7.22172">
        <ele>717.65</ele>
        <time>2012-06-02T11:41:01Z</time>
      </trkpt>
      <trkpt lat="48.2303" lon="7.22137">
        <ele>723.354</ele>
        <time>2012-06-02T11:41:05Z</time>
      </trkpt>
      <trkpt lat="48.23057" lon="7.2213">
        <ele>728.047</ele>
        <time>2012-06-02T11:41:07Z</time>
      </trkpt>
      <trkpt lat="48.23073" lon="7.22127">
        <ele>727.746</ele>
        <time>2012-06-02T11:41:08Z</time>
      </trkpt>
      <trkpt lat="48.23144" lon="7.22111">
        <ele>724.71</ele>
        <time>2012-06-02T11:41:13Z</time>
      </trkpt>
      <trkpt lat="48.23157" lon="7.2211">
        <ele>723.72</ele>
        <time>2012-06-02T11:41:14Z</time>
      </trkpt>
      <trkpt lat="48.23217" lon="7.22119">
        <ele>710.732</ele>
        <time>2012-06-02T11:41:19Z</time>
      </trkpt>
      <trkpt lat="48.23273" lon="7.2214">
        <ele>703.681</ele>
        <time>2012-06-02T11:41:24Z</time>
      </trkpt>
      <trkpt lat="48.23284" lon="7.22144">
        <ele>703.462</ele>
        <time>2012-06-02T11:41:25Z</time>
      </trkpt>
      <trkpt lat="48.23321" lon="7.22148">
        <ele>700.472</ele>
        <time>2012-06-02T11:41:28Z</time>
      </trkpt>
      <trkpt lat="48.23379" lon="7.22129">
        <ele>701.075</ele>
        <time>2012-06-02T11:41:33Z</time>
      </trkpt>
      <trkpt lat="48.23415" lon="7.22112">
        <ele>703.848</ele>
        <time>2012-06-02T11:41:37Z</time>
      </trkpt>
      <trkpt lat="48.23449" lon="7.22092">
        <ele>705.283</ele>
        <time>2012-06-02T11:41:41Z</time>
      </trkpt>
      <trkpt lat="48.23497" lon="7.22049">
        <ele>705.033</ele>
        <time>2012-06-02T11:41:47Z</time>
      </trkpt>
      <trkpt lat="48.23555" lon="7.22009">
        <ele>699.969</ele>
        <time>2012-06-02T11:41:54Z</time>
      </trkpt>
      <trkpt lat="48.23607" lon="7.21976">
        <ele>693.548</ele>
        <time>2012-06-02T11:42:00Z</time>
      </trkpt>
      <trkpt lat="48.23648" lon="7.2194">
        <ele>692.58</ele>
        <time>2012-06-02T11:42:05Z</time>
      </trkpt>
      <trkpt lat="48.23708" lon="7.21882">
        <ele>689.389</ele>
        <time>2012-06-02T11:42:12Z</time>
      </trkpt>
      <trkpt lat="48.23737" lon="7.21859">
        <ele>687.138</ele>
        <time>2012-06-02T11:42:15Z</time>
      </trkpt>
      <trkpt lat="48.23791" lon="7.2184">
        <ele>679.285</ele>
        <time>2012-06-02T11:42:20Z</time>
      </trkpt>
      <trkpt lat="48.23859" lon="7.21816">
        <ele>670.944</ele>
        <time>2012-06-02T11:42:26Z</time>
      </trkpt>
      <trkpt lat="48.23932" lon="7.21789">
        <ele>664.785</ele>
        <time>2012-06-02T11:42:32Z</time>
      </trkpt>
      <trkpt lat="48.23958" lon="7.21784">
        <ele>662.354</ele>
        <time>2012-06-02T11:42:34Z</time>
      </trkpt>
      <trkpt lat="48.23995" lon="7.218">
        <ele>658.09</ele>
        <time>2012-06-02T11:42:37Z</time>
      </trkpt>
      <trkpt lat="48.24005" lon="7.21811">
        <ele>656.904</ele>
        <time>2012-06-02T11:42:38Z</time>
      </trkpt>
      <trkpt lat="48.24056" lon="7.21869">
        <ele>651.285</ele>
        <time>2012-06-02T11:42:43Z</time>
      </trkpt>
      <trkpt lat="48.24088" lon="7.21877">
        <ele>647.76</ele>
        <time>2012-06-02T11:42:46Z</time>
      </trkpt>
      <trkpt lat="48.24111" lon="7.21863">
        <ele>645.432</ele>
        <time>2012-06-02T11:42:48Z</time>
      </trkpt>
      <trkpt lat="48.24167" lon="7.21796">
        <ele>639.79</ele>
        <time>2012-06-02T11:42:54Z</time>
      </trkpt>
      <trkpt lat="48.24204" lon="7.21788">
        <ele>637.372</ele>
        <time>2012-06-02T11:42:57Z</time>
      </trkpt>
      <trkpt lat="48.24309" lon="7.21792">
        <ele>629.937</ele>
        <time>2012-06-02T11:43:05Z</time>
      </trkpt>
      <trkpt lat="48.24336" lon="7.21793">
        <ele>628.156</ele>
        <time>2012-06-02T11:43:07Z</time>
      </trkpt>
      <trkpt lat="48.24389" lon="7.21775">
        <ele>623.158</ele>
        <time>2012-06-02T11:43:11Z</time>
      </trkpt>
      <trkpt lat="48.24449" lon="7.21722">
        <ele>619.04</ele>
        <time>2012-06-02T11:43:16Z</time>
      </trkpt>
      <trkpt lat="48.24469" lon="7.21696">
        <ele>617.168</ele>
        <time>2012-06-02T11:43:18Z</time>
      </trkpt>
      <trkpt lat="48.24506" lon="7.21686">
        <ele>613.821</ele>
        <time>2012-06-02T11:43:22Z</time>
      </trkpt>
      <trkpt lat="48.24526" lon="7.21704">
        <ele>614.732</ele>
        <time>2012-06-02T11:43:24Z</time>
      </trkpt>
      <trkpt lat="48.24548" lon="7.2174">
        <ele>613.492</ele>
        <time>2012-06-02T11:43:27Z</time>
      </trkpt>
      <trkpt lat="48.24557" lon="7.21785">
        <ele>612.891</ele>
        <time>2012-06-02T11:43:30Z</time>
      </trkpt>
      <trkpt lat="48.24567" lon="7.21825">
        <ele>612.501</ele>
        <time>2012-06-02T11:43:33Z</time>
      </trkpt>
      <trkpt lat="48.24584" lon="7.21829">
        <ele>612.111</ele>
        <time>2012-06-02T11:43:35Z</time>
      </trkpt>
      <trkpt lat="48.24605" lon="7.21816">
        <ele>609.19</ele>
        <time>2012-06-02T11:43:37Z</time>
      </trkpt>
      <trkpt lat="48.24631" lon="7.21779">
        <ele>606.179</ele>
        <time>2012-06-02T11:43:40Z</time>
      </trkpt>
      <trkpt lat="48.24629" lon="7.21743">
        <ele>605.269</ele>
        <time>2012-06-02T11:43:42Z</time>
      </trkpt>
      <trkpt lat="48.24622" lon="7.21724">
        <ele>604.91</ele>
        <time>2012-06-02T11:43:43Z</time>
      </trkpt>
      <trkpt lat="48.24608" lon="7.21654">
        <ele>606.332</ele>
        <time>2012-06-02T11:43:47Z</time>
      </trkpt>
      <trkpt lat="48.24606" lon="7.21635">
        <ele>606.103</ele>
        <time>2012-06-02T11:43:48Z</time>
      </trkpt>
      <trkpt lat="48.24599" lon="7.21587">
        <ele>605.123</ele>
        <time>2012-06-02T11:43:51Z</time>
      </trkpt>
      <trkpt lat="48.24589" lon="7.2156">
        <ele>605.544</ele>
        <time>2012-06-02T11:43:53Z</time>
      </trkpt>
      <trkpt lat="48.2456" lon="7.21482">
        <ele>605.784</ele>
        <time>2012-06-02T11:43:58Z</time>
      </trkpt>
      <trkpt lat="48.24554" lon="7.21466">
        <ele>605.563</ele>
        <time>2012-06-02T11:43:59Z</time>
      </trkpt>
      <trkpt lat="48.24523" lon="7.21431">
        <ele>602.091</ele>
        <time>2012-06-02T11:44:02Z</time>
      </trkpt>
      <trkpt lat="48.24495" lon="7.21425">
        <ele>598.18</ele>
        <time>2012-06-02T11:44:04Z</time>
      </trkpt>
      <trkpt lat="48.24419" lon="7.21414">
        <ele>591.849</ele>
        <time>2012-06-02T11:44:10Z</time>
      </trkpt>
      <trkpt lat="48.24382" lon="7.21419">
        <ele>588.257</ele>
        <time>2012-06-02T11:44:13Z</time>
      </trkpt>
      <trkpt lat="48.24356" lon="7.21409">
        <ele>585.196</ele>
        <time>2012-06-02T11:44:16Z</time>
      </trkpt>
      <trkpt lat="48.24353" lon="7.21383">
        <ele>583.018</ele>
        <time>2012-06-02T11:44:18Z</time>
      </trkpt>
      <trkpt lat="48.24357" lon="7.21337">
        <ele>581.249</ele>
        <time>2012-06-02T11:44:21Z</time>
      </trkpt>
      <trkpt lat="48.24372" lon="7.21296">
        <ele>578.6</ele>
        <time>2012-06-02T11:44:24Z</time>
      </trkpt>
      <trkpt lat="48.24421" lon="7.21207">
        <ele>572.119</ele>
        <time>2012-06-02T11:44:31Z</time>
      </trkpt>
      <trkpt lat="48.24468" lon="7.21144">
        <ele>568.731</ele>
        <time>2012-06-02T11:44:37Z</time>
      </trkpt>
      <trkpt lat="48.24529" lon="7.21079">
        <ele>563.649</ele>
        <time>2012-06-02T11:44:44Z</time>
      </trkpt>
      <trkpt lat="48.24587" lon="7.21001">
        <ele>559.87</ele>
        <time>2012-06-02T11:44:51Z</time>
      </trkpt>
      <trkpt lat="48.24615" lon="7.20972">
        <ele>558.701</ele>
        <time>2012-06-02T11:44:54Z</time>
      </trkpt>
      <trkpt lat="48.2466" lon="7.20952">
        <ele>557.381</ele>
        <time>2012-06-02T11:44:58Z</time>
      </trkpt>
      <trkpt lat="48.24684" lon="7.20939">
        <ele>556.571</ele>
        <time>2012-06-02T11:45:00Z</time>
      </trkpt>
      <trkpt lat="48.24726" lon="7.20894">
        <ele>554.722</ele>
        <time>2012-06-02T11:45:04Z</time>
      </trkpt>
      <trkpt lat="48.2472" lon="7.20847">
        <ele>549.458</ele>
        <time>2012-06-02T11:45:06Z</time>
      </trkpt>
      <trkpt lat="48.24719" lon="7.20826">
        <ele>547.598</ele>
        <time>2012-06-02T11:45:07Z</time>
      </trkpt>
      <trkpt lat="48.24709" lon="7.20682">
        <ele>541.187</ele>
        <time>2012-06-02T11:45:14Z</time>
      </trkpt>
      <trkpt lat="48.24703" lon="7.20587">
        <ele>537.077</ele>
        <time>2012-06-02T11:45:19Z</time>
      </trkpt>
      <trkpt lat="48.24707" lon="7.20512">
        <ele>533.578</ele>
        <time>2012-06-02T11:45:23Z</time>
      </trkpt>
      <trkpt lat="48.24711" lon="7.20493">
        <ele>532.418</ele>
        <time>2012-06-02T11:45:24Z</time>
      </trkpt>
      <trkpt lat="48.24707" lon="7.20418">
        <ele>528.302</ele>
        <time>2012-06-02T11:45:28Z</time>
      </trkpt>
      <trkpt lat="48.24677" lon="7.20379">
        <ele>526.747</ele>
        <time>2012-06-02T11:45:31Z</time>
      </trkpt>
      <trkpt lat="48.24635" lon="7.20361">
        <ele>521.817</ele>
        <time>2012-06-02T11:45:34Z</time>
      </trkpt>
      <trkpt lat="48.24622" lon="7.2036">
        <ele>520.907</ele>
        <time>2012-06-02T11:45:35Z</time>
      </trkpt>
      <trkpt lat="48.24547" lon="7.20359">
        <ele>513.096</ele>
        <time>2012-06-02T11:45:40Z</time>
      </trkpt>
      <trkpt lat="48.24534" lon="7.20356">
        <ele>511.946</ele>
        <time>2012-06-02T11:45:41Z</time>
      </trkpt>
      <trkpt lat="48.24472" lon="7.20325">
        <ele>504.273</ele>
        <time>2012-06-02T11:45:46Z</time>
      </trkpt>
      <trkpt lat="48.2446" lon="7.20317">
        <ele>503.125</ele>
        <time>2012-06-02T11:45:47Z</time>
      </trkpt>
      <trkpt lat="48.24435" lon="7.20263">
        <ele>501.498</ele>
        <time>2012-06-02T11:45:51Z</time>
      </trkpt>
      <trkpt lat="48.24424" lon="7.20242">
        <ele>500.839</ele>
        <time>2012-06-02T11:45:53Z</time>
      </trkpt>
      <trkpt lat="48.24413" lon="7.20227">
        <ele>499.941</ele>
        <time>2012-06-02T11:45:57Z</time>
      </trkpt>
      <trkpt lat="48.24411" lon="7.20225">
        <ele>499.091</ele>
        <time>2012-06-02T11:46:01Z</time>
      </trkpt>
      <trkpt lat="48.24409" lon="7.20228">
        <ele>492.587</ele>
        <time>2012-06-02T11:46:06Z</time>
      </trkpt>
      <trkpt lat="48.24407" lon="7.20228">
        <ele>492.751</ele>
        <time>2012-06-02T11:46:09Z</time>
      </trkpt>
      <trkpt lat="48.24395" lon="7.20223">
        <ele>495.923</ele>
        <time>2012-06-02T11:46:14Z</time>
      </trkpt>
      <trkpt lat="48.24391" lon="7.20222">
        <ele>496.263</ele>
        <time>2012-06-02T11:46:15Z</time>
      </trkpt>
      <trkpt lat="48.24375" lon="7.20222">
        <ele>501.196</ele>
        <time>2012-06-02T11:46:18Z</time>
      </trkpt>
      <trkpt lat="48.24354" lon="7.20206">
        <ele>498.723</ele>
        <time>2012-06-02T11:46:22Z</time>
      </trkpt>
      <trkpt lat="48.24359" lon="7.20196">
        <ele>498.042</ele>
        <time>2012-06-02T11:46:24Z</time>
      </trkpt>
      <trkpt lat="48.2438" lon="7.20195">
        <ele>495.817</ele>
        <time>2012-06-02T11:46:26Z</time>
      </trkpt>
      <trkpt lat="48.24426" lon="7.20196">
        <ele>487.236</ele>
        <time>2012-06-02T11:46:31Z</time>
      </trkpt>
      <trkpt lat="48.24463" lon="7.20222">
        <ele>486.098</ele>
        <time>2012-06-02T11:46:35Z</time>
      </trkpt>
      <trkpt lat="48.24515" lon="7.20251">
        <ele>483.446</ele>
        <time>2012-06-02T11:46:40Z</time>
      </trkpt>
      <trkpt lat="48.24547" lon="7.20257">
        <ele>482.575</ele>
        <time>2012-06-02T11:46:43Z</time>
      </trkpt>
      <trkpt lat="48.24599" lon="7.20245">
        <ele>479.846</ele>
        <time>2012-06-02T11:46:48Z</time>
      </trkpt>
      <trkpt lat="48.24611" lon="7.20243">
        <ele>479.298</ele>
        <time>2012-06-02T11:46:49Z</time>
      </trkpt>
      <trkpt lat="48.24681" lon="7.20249">
        <ele>475.818</ele>
        <time>2012-06-02T11:46:55Z</time>
      </trkpt>
      <trkpt lat="48.24698" lon="7.20255">
        <ele>473.379</ele>
        <time>2012-06-02T11:46:57Z</time>
      </trkpt>
      <trkpt lat="48.24715" lon="7.20248">
        <ele>471.229</ele>
        <time>2012-06-02T11:47:00Z</time>
      </trkpt>
      <trkpt lat="48.24709" lon="7.2023">
        <ele>468.289</ele>
        <time>2012-06-02T11:47:03Z</time>
      </trkpt>
      <trkpt lat="48.24702" lon="7.20229">
        <ele>467.606</ele>
        <time>2012-06-02T11:47:04Z</time>
      </trkpt>
      <trkpt lat="48.24661" lon="7.20209">
        <ele>462.148</ele>
        <time>2012-06-02T11:47:09Z</time>
      </trkpt>
      <trkpt lat="48.24628" lon="7.20192">
        <ele>459.682</ele>
        <time>2012-06-02T11:47:12Z</time>
      </trkpt>
      <trkpt lat="48.24568" lon="7.2017">
        <ele>457.119</ele>
        <time>2012-06-02T11:47:17Z</time>
      </trkpt>
      <trkpt lat="48.24517" lon="7.20126">
        <ele>454.064</ele>
        <time>2012-06-02T11:47:22Z</time>
      </trkpt>
      <trkpt lat="48.24456" lon="7.20066">
        <ele>450.044</ele>
        <time>2012-06-02T11:47:28Z</time>
      </trkpt>
      <trkpt lat="48.24421" lon="7.20044">
        <ele>447.146</ele>
        <time>2012-06-02T11:47:31Z</time>
      </trkpt>
      <trkpt lat="48.24376" lon="7.20007">
        <ele>444.851</ele>
        <time>2012-06-02T11:47:35Z</time>
      </trkpt>
      <trkpt lat="48.24355" lon="7.1999">
        <ele>443.395</ele>
        <time>2012-06-02T11:47:37Z</time>
      </trkpt>
      <trkpt lat="48.24294" lon="7.19968">
        <ele>438.438</ele>
        <time>2012-06-02T11:47:42Z</time>
      </trkpt>
      <trkpt lat="48.24281" lon="7.19966">
        <ele>437.598</ele>
        <time>2012-06-02T11:47:43Z</time>
      </trkpt>
      <trkpt lat="48.24214" lon="7.19962">
        <ele>433.067</ele>
        <time>2012-06-02T11:47:48Z</time>
      </trkpt>
      <trkpt lat="48.24174" lon="7.19921">
        <ele>430.088</ele>
        <time>2012-06-02T11:47:52Z</time>
      </trkpt>
      <trkpt lat="48.24181" lon="7.19891">
        <ele>427.899</ele>
        <time>2012-06-02T11:47:54Z</time>
      </trkpt>
      <trkpt lat="48.24202" lon="7.19876">
        <ele>427.678</ele>
        <time>2012-06-02T11:47:56Z</time>
      </trkpt>
      <trkpt lat="48.24252" lon="7.19842">
        <ele>427.631</ele>
        <time>2012-06-02T11:48:02Z</time>
      </trkpt>
      <trkpt lat="48.24288" lon="7.1983">
        <ele>426.19</ele>
        <time>2012-06-02T11:48:06Z</time>
      </trkpt>
      <trkpt lat="48.24307" lon="7.19833">
        <ele>424.41</ele>
        <time>2012-06-02T11:48:08Z</time>
      </trkpt>
      <trkpt lat="48.24376" lon="7.19854">
        <ele>423.47</ele>
        <time>2012-06-02T11:48:14Z</time>
      </trkpt>
      <trkpt lat="48.24436" lon="7.19881">
        <ele>419.149</ele>
        <time>2012-06-02T11:48:19Z</time>
      </trkpt>
      <trkpt lat="48.24448" lon="7.19889">
        <ele>418.427</ele>
        <time>2012-06-02T11:48:20Z</time>
      </trkpt>
      <trkpt lat="48.24494" lon="7.19907">
        <ele>414.739</ele>
        <time>2012-06-02T11:48:24Z</time>
      </trkpt>
      <trkpt lat="48.24551" lon="7.19909">
        <ele>408.339</ele>
        <time>2012-06-02T11:48:29Z</time>
      </trkpt>
      <trkpt lat="48.24619" lon="7.19915">
        <ele>400.85</ele>
        <time>2012-06-02T11:48:35Z</time>
      </trkpt>
      <trkpt lat="48.24686" lon="7.19935">
        <ele>396.818</ele>
        <time>2012-06-02T11:48:41Z</time>
      </trkpt>
      <trkpt lat="48.24697" lon="7.19938">
        <ele>396.149</ele>
        <time>2012-06-02T11:48:42Z</time>
      </trkpt>
      <trkpt lat="48.24736" lon="7.19955">
        <ele>393.714</ele>
        <time>2012-06-02T11:48:46Z</time>
      </trkpt>
      <trkpt lat="48.248" lon="7.19961">
        <ele>389.185</ele>
        <time>2012-06-02T11:48:52Z</time>
      </trkpt>
      <trkpt lat="48.2487" lon="7.19949">
        <ele>382.828</ele>
        <time>2012-06-02T11:48:58Z</time>
      </trkpt>
      <trkpt lat="48.24881" lon="7.19946">
        <ele>381.997</ele>
        <time>2012-06-02T11:48:59Z</time>
      </trkpt>
      <trkpt lat="48.24927" lon="7.19921">
        <ele>379.211</ele>
        <time>2012-06-02T11:49:03Z</time>
      </trkpt>
      <trkpt lat="48.24992" lon="7.19877">
        <ele>376.221</ele>
        <time>2012-06-02T11:49:09Z</time>
      </trkpt>
      <trkpt lat="48.25063" lon="7.19825">
        <ele>374.171</ele>
        <time>2012-06-02T11:49:16Z</time>
      </trkpt>
      <trkpt lat="48.25116" lon="7.19794">
        <ele>372.252</ele>
        <time>2012-06-02T11:49:21Z</time>
      </trkpt>
      <trkpt lat="48.25138" lon="7.19783">
        <ele>371.331</ele>
        <time>2012-06-02T11:49:23Z</time>
      </trkpt>
      <trkpt lat="48.25186" lon="7.19739">
        <ele>369.169</ele>
        <time>2012-06-02T11:49:28Z</time>
      </trkpt>
      <trkpt lat="48.25244" lon="7.19667">
        <ele>367.621</ele>
        <time>2012-06-02T11:49:35Z</time>
      </trkpt>
      <trkpt lat="48.25255" lon="7.19648">
        <ele>366.509</ele>
        <time>2012-06-02T11:49:37Z</time>
      </trkpt>
      <trkpt lat="48.25272" lon="7.19639">
        <ele>365.803</ele>
        <time>2012-06-02T11:49:40Z</time>
      </trkpt>
      <trkpt lat="48.25283" lon="7.19641">
        <ele>363.802</ele>
        <time>2012-06-02T11:49:42Z</time>
      </trkpt>
      <trkpt lat="48.25305" lon="7.19663">
        <ele>360.44</ele>
        <time>2012-06-02T11:49:46Z</time>
      </trkpt>
      <trkpt lat="48.25339" lon="7.19737">
        <ele>356.013</ele>
        <time>2012-06-02T11:49:53Z</time>
      </trkpt>
      <trkpt lat="48.25356" lon="7.19802">
        <ele>356.604</ele>
        <time>2012-06-02T11:49:58Z</time>
      </trkpt>
      <trkpt lat="48.25384" lon="7.19921">
        <ele>355.024</ele>
        <time>2012-06-02T11:50:07Z</time>
      </trkpt>
      <trkpt lat="48.2541" lon="7.20025">
        <ele>351.814</ele>
        <time>2012-06-02T11:50:15Z</time>
      </trkpt>
      <trkpt lat="48.25434" lon="7.20065">
        <ele>351.164</ele>
        <time>2012-06-02T11:50:19Z</time>
      </trkpt>
      <trkpt lat="48.25464" lon="7.20112">
        <ele>350.165</ele>
        <time>2012-06-02T11:50:24Z</time>
      </trkpt>
      <trkpt lat="48.25467" lon="7.20124">
        <ele>350.025</ele>
        <time>2012-06-02T11:50:25Z</time>
      </trkpt>
      <trkpt lat="48.25487" lon="7.20235">
        <ele>348.975</ele>
        <time>2012-06-02T11:50:34Z</time>
      </trkpt>
      <trkpt lat="48.25503" lon="7.20319">
        <ele>348.626</ele>
        <time>2012-06-02T11:50:42Z</time>
      </trkpt>
      <trkpt lat="48.25512" lon="7.20344">
        <ele>348.026</ele>
        <time>2012-06-02T11:50:45Z</time>
      </trkpt>
      <trkpt lat="48.25539" lon="7.20372">
        <ele>349.036</ele>
        <time>2012-06-02T11:50:50Z</time>
      </trkpt>
      <trkpt lat="48.25581" lon="7.20407">
        <ele>347.888</ele>
        <time>2012-06-02T11:50:58Z</time>
      </trkpt>
      <trkpt lat="48.25597" lon="7.20436">
        <ele>348.918</ele>
        <time>2012-06-02T11:51:03Z</time>
      </trkpt>
      <trkpt lat="48.25598" lon="7.20444">
        <ele>349.308</ele>
        <time>2012-06-02T11:51:04Z</time>
      </trkpt>
      <trkpt lat="48.25606" lon="7.20513">
        <ele>349.817</ele>
        <time>2012-06-02T11:51:12Z</time>
      </trkpt>
      <trkpt lat="48.25618" lon="7.20584">
        <ele>349.436</ele>
        <time>2012-06-02T11:51:20Z</time>
      </trkpt>
      <trkpt lat="48.25636" lon="7.20663">
        <ele>348.235</ele>
        <time>2012-06-02T11:51:28Z</time>
      </trkpt>
      <trkpt lat="48.25653" lon="7.20745">
        <ele>347.146</ele>
        <time>2012-06-02T11:51:36Z</time>
      </trkpt>
      <trkpt lat="48.25668" lon="7.20827">
        <ele>346.635</ele>
        <time>2012-06-02T11:51:44Z</time>
      </trkpt>
      <trkpt lat="48.25685" lon="7.20916">
        <ele>345.165</ele>
        <time>2012-06-02T11:51:52Z</time>
      </trkpt>
      <trkpt lat="48.25716" lon="7.21038">
        <ele>343.656</ele>
        <time>2012-06-02T11:52:03Z</time>
      </trkpt>
      <trkpt lat="48.25745" lon="7.21149">
        <ele>342.274</ele>
        <time>2012-06-02T11:52:13Z</time>
      </trkpt>
      <trkpt lat="48.25774" lon="7.21249">
        <ele>340.235</ele>
        <time>2012-06-02T11:52:22Z</time>
      </trkpt>
      <trkpt lat="48.25817" lon="7.21369">
        <ele>338.075</ele>
        <time>2012-06-02T11:52:33Z</time>
      </trkpt>
      <trkpt lat="48.25837" lon="7.21451">
        <ele>337.025</ele>
        <time>2012-06-02T11:52:40Z</time>
      </trkpt>
      <trkpt lat="48.25859" lon="7.21557">
        <ele>335.055</ele>
        <time>2012-06-02T11:52:49Z</time>
      </trkpt>
      <trkpt lat="48.25878" lon="7.21634">
        <ele>334.287</ele>
        <time>2012-06-02T11:52:56Z</time>
      </trkpt>
      <trkpt lat="48.25887" lon="7.21653">
        <ele>334.767</ele>
        <time>2012-06-02T11:52:58Z</time>
      </trkpt>
      <trkpt lat="48.2593" lon="7.21722">
        <ele>334.389</ele>
        <time>2012-06-02T11:53:06Z</time>
      </trkpt>
      <trkpt lat="48.25972" lon="7.21781">
        <ele>333.886</ele>
        <time>2012-06-02T11:53:13Z</time>
      </trkpt>
      <trkpt lat="48.26008" lon="7.21827">
        <ele>332.919</ele>
        <time>2012-06-02T11:53:19Z</time>
      </trkpt>
      <trkpt lat="48.26043" lon="7.21852">
        <ele>332.838</ele>
        <time>2012-06-02T11:53:24Z</time>
      </trkpt>
      <trkpt lat="48.2609" lon="7.21882">
        <ele>331.655</ele>
        <time>2012-06-02T11:53:31Z</time>
      </trkpt>
      <trkpt lat="48.26109" lon="7.219">
        <ele>330.475</ele>
        <time>2012-06-02T11:53:34Z</time>
      </trkpt>
      <trkpt lat="48.26131" lon="7.21946">
        <ele>329.465</ele>
        <time>2012-06-02T11:53:39Z</time>
      </trkpt>
      <trkpt lat="48.26134" lon="7.21957">
        <ele>329.515</ele>
        <time>2012-06-02T11:53:40Z</time>
      </trkpt>
      <trkpt lat="48.26149" lon="7.22038">
        <ele>329.506</ele>
        <time>2012-06-02T11:53:48Z</time>
      </trkpt>
      <trkpt lat="48.2616" lon="7.22091">
        <ele>329.236</ele>
        <time>2012-06-02T11:53:54Z</time>
      </trkpt>
      <trkpt lat="48.2618" lon="7.22145">
        <ele>330.658</ele>
        <time>2012-06-02T11:54:00Z</time>
      </trkpt>
      <trkpt lat="48.26203" lon="7.22203">
        <ele>330.197</ele>
        <time>2012-06-02T11:54:06Z</time>
      </trkpt>
      <trkpt lat="48.26224" lon="7.22267">
        <ele>330.246</ele>
        <time>2012-06-02T11:54:12Z</time>
      </trkpt>
      <trkpt lat="48.26251" lon="7.22338">
        <ele>330.057</ele>
        <time>2012-06-02T11:54:19Z</time>
      </trkpt>
      <trkpt lat="48.26254" lon="7.22348">
        <ele>329.537</ele>
        <time>2012-06-02T11:54:20Z</time>
      </trkpt>
      <trkpt lat="48.26265" lon="7.22413">
        <ele>327.206</ele>
        <time>2012-06-02T11:54:26Z</time>
      </trkpt>
      <trkpt lat="48.26264" lon="7.22471">
        <ele>326.587</ele>
        <time>2012-06-02T11:54:31Z</time>
      </trkpt>
      <trkpt lat="48.26276" lon="7.22533">
        <ele>325.297</ele>
        <time>2012-06-02T11:54:37Z</time>
      </trkpt>
      <trkpt lat="48.26282" lon="7.22552">
        <ele>325.037</ele>
        <time>2012-06-02T11:54:39Z</time>
      </trkpt>
      <trkpt lat="48.26288" lon="7.22616">
        <ele>323.386</ele>
        <time>2012-06-02T11:54:45Z</time>
      </trkpt>
      <trkpt lat="48.26291" lon="7.22694">
        <ele>321.786</ele>
        <time>2012-06-02T11:54:52Z</time>
      </trkpt>
      <trkpt lat="48.26302" lon="7.2277">
        <ele>321.146</ele>
        <time>2012-06-02T11:54:59Z</time>
      </trkpt>
      <trkpt lat="48.26315" lon="7.22837">
        <ele>320.986</ele>
        <time>2012-06-02T11:55:05Z</time>
      </trkpt>
      <trkpt lat="48.26336" lon="7.22925">
        <ele>320.746</ele>
        <time>2012-06-02T11:55:13Z</time>
      </trkpt>
      <trkpt lat="48.26367" lon="7.23045">
        <ele>320.417</ele>
        <time>2012-06-02T11:55:24Z</time>
      </trkpt>
      <trkpt lat="48.26394" lon="7.23141">
        <ele>319.517</ele>
        <time>2012-06-02T11:55:33Z</time>
      </trkpt>
      <trkpt lat="48.26434" lon="7.23266">
        <ele>318.316</ele>
        <time>2012-06-02T11:55:45Z</time>
      </trkpt>
      <trkpt lat="48.26472" lon="7.23364">
        <ele>316.907</ele>
        <time>2012-06-02T11:55:55Z</time>
      </trkpt>
      <trkpt lat="48.2651" lon="7.23458">
        <ele>315.827</ele>
        <time>2012-06-02T11:56:05Z</time>
      </trkpt>
      <trkpt lat="48.26548" lon="7.23551">
        <ele>315.808</ele>
        <time>2012-06-02T11:56:15Z</time>
      </trkpt>
      <trkpt lat="48.26589" lon="7.23649">
        <ele>315.607</ele>
        <time>2012-06-02T11:56:26Z</time>
      </trkpt>
      <trkpt lat="48.26612" lon="7.23724">
        <ele>314.527</ele>
        <time>2012-06-02T11:56:34Z</time>
      </trkpt>
      <trkpt lat="48.26629" lon="7.23804">
        <ele>313.607</ele>
        <time>2012-06-02T11:56:42Z</time>
      </trkpt>
      <trkpt lat="48.26642" lon="7.23898">
        <ele>312.827</ele>
        <time>2012-06-02T11:56:51Z</time>
      </trkpt>
      <trkpt lat="48.26644" lon="7.2398">
        <ele>310.836</ele>
        <time>2012-06-02T11:56:59Z</time>
      </trkpt>
      <trkpt lat="48.2664" lon="7.24092">
        <ele>307.726</ele>
        <time>2012-06-02T11:57:10Z</time>
      </trkpt>
      <trkpt lat="48.26636" lon="7.2419">
        <ele>306.697</ele>
        <time>2012-06-02T11:57:20Z</time>
      </trkpt>
      <trkpt lat="48.26636" lon="7.24269">
        <ele>306.987</ele>
        <time>2012-06-02T11:57:28Z</time>
      </trkpt>
      <trkpt lat="48.26645" lon="7.2436">
        <ele>309.719</ele>
        <time>2012-06-02T11:57:37Z</time>
      </trkpt>
      <trkpt lat="48.26664" lon="7.24448">
        <ele>313.069</ele>
        <time>2012-06-02T11:57:46Z</time>
      </trkpt>
      <trkpt lat="48.2668" lon="7.24514">
        <ele>314.438</ele>
        <time>2012-06-02T11:57:53Z</time>
      </trkpt>
      <trkpt lat="48.26704" lon="7.24605">
        <ele>314.738</ele>
        <time>2012-06-02T11:58:03Z</time>
      </trkpt>
      <trkpt lat="48.2673" lon="7.24694">
        <ele>310.557</ele>
        <time>2012-06-02T11:58:13Z</time>
      </trkpt>
      <trkpt lat="48.26751" lon="7.24777">
        <ele>309.257</ele>
        <time>2012-06-02T11:58:22Z</time>
      </trkpt>
      <trkpt lat="48.26766" lon="7.2486">
        <ele>308.616</ele>
        <time>2012-06-02T11:58:30Z</time>
      </trkpt>
      <trkpt lat="48.26774" lon="7.2494">
        <ele>306.555</ele>
        <time>2012-06-02T11:58:37Z</time>
      </trkpt>
      <trkpt lat="48.26781" lon="7.25034">
        <ele>304.425</ele>
        <time>2012-06-02T11:58:45Z</time>
      </trkpt>
      <trkpt lat="48.26787" lon="7.25113">
        <ele>303.046</ele>
        <time>2012-06-02T11:58:52Z</time>
      </trkpt>
      <trkpt lat="48.26798" lon="7.25174">
        <ele>302.406</ele>
        <time>2012-06-02T11:58:58Z</time>
      </trkpt>
      <trkpt lat="48.26818" lon="7.25244">
        <ele>302.357</ele>
        <time>2012-06-02T11:59:05Z</time>
      </trkpt>
      <trkpt lat="48.26853" lon="7.2533">
        <ele>300.216</ele>
        <time>2012-06-02T11:59:14Z</time>
      </trkpt>
      <trkpt lat="48.26881" lon="7.25394">
        <ele>298.085</ele>
        <time>2012-06-02T11:59:21Z</time>
      </trkpt>
      <trkpt lat="48.26911" lon="7.25465">
        <ele>294.975</ele>
        <time>2012-06-02T11:59:29Z</time>
      </trkpt>
      <trkpt lat="48.26942" lon="7.25549">
        <ele>295.737</ele>
        <time>2012-06-02T11:59:38Z</time>
      </trkpt>
      <trkpt lat="48.26965" lon="7.25622">
        <ele>297.518</ele>
        <time>2012-06-02T11:59:46Z</time>
      </trkpt>
      <trkpt lat="48.2698" lon="7.25688">
        <ele>296.687</ele>
        <time>2012-06-02T11:59:53Z</time>
      </trkpt>
      <trkpt lat="48.27006" lon="7.25803">
        <ele>295.487</ele>
        <time>2012-06-02T12:00:04Z</time>
      </trkpt>
      <trkpt lat="48.27023" lon="7.25889">
        <ele>292.885</ele>
        <time>2012-06-02T12:00:12Z</time>
      </trkpt>
      <trkpt lat="48.27044" lon="7.26016">
        <ele>290.325</ele>
        <time>2012-06-02T12:00:24Z</time>
      </trkpt>
      <trkpt lat="48.27049" lon="7.26112">
        <ele>288.355</ele>
        <time>2012-06-02T12:00:33Z</time>
      </trkpt>
      <trkpt lat="48.27049" lon="7.26123">
        <ele>288.125</ele>
        <time>2012-06-02T12:00:34Z</time>
      </trkpt>
      <trkpt lat="48.27041" lon="7.26211">
        <ele>286.496</ele>
        <time>2012-06-02T12:00:42Z</time>
      </trkpt>
      <trkpt lat="48.27028" lon="7.26282">
        <ele>285.216</ele>
        <time>2012-06-02T12:00:49Z</time>
      </trkpt>
      <trkpt lat="48.27013" lon="7.26352">
        <ele>283.006</ele>
        <time>2012-06-02T12:00:56Z</time>
      </trkpt>
      <trkpt lat="48.26993" lon="7.26429">
        <ele>280.936</ele>
        <time>2012-06-02T12:01:04Z</time>
      </trkpt>
      <trkpt lat="48.26977" lon="7.26508">
        <ele>279.836</ele>
        <time>2012-06-02T12:01:12Z</time>
      </trkpt>
      <trkpt lat="48.26973" lon="7.26536">
        <ele>279.477</ele>
        <time>2012-06-02T12:01:15Z</time>
      </trkpt>
      <trkpt lat="48.26976" lon="7.26572">
        <ele>278.047</ele>
        <time>2012-06-02T12:01:19Z</time>
      </trkpt>
      <trkpt lat="48.26991" lon="7.2664">
        <ele>276.787</ele>
        <time>2012-06-02T12:01:26Z</time>
      </trkpt>
      <trkpt lat="48.27011" lon="7.26742">
        <ele>278.037</ele>
        <time>2012-06-02T12:01:36Z</time>
      </trkpt>
      <trkpt lat="48.27015" lon="7.26809">
        <ele>278.507</ele>
        <time>2012-06-02T12:01:42Z</time>
      </trkpt>
      <trkpt lat="48.27011" lon="7.26899">
        <ele>278.837</ele>
        <time>2012-06-02T12:01:50Z</time>
      </trkpt>
      <trkpt lat="48.27005" lon="7.27029">
        <ele>279.257</ele>
        <time>2012-06-02T12:02:02Z</time>
      </trkpt>
      <trkpt lat="48.27002" lon="7.27101">
        <ele>274.896</ele>
        <time>2012-06-02T12:02:09Z</time>
      </trkpt>
      <trkpt lat="48.27005" lon="7.27152">
        <ele>272.846</ele>
        <time>2012-06-02T12:02:14Z</time>
      </trkpt>
      <trkpt lat="48.27018" lon="7.27233">
        <ele>270.806</ele>
        <time>2012-06-02T12:02:22Z</time>
      </trkpt>
      <trkpt lat="48.27035" lon="7.27335">
        <ele>271.637</ele>
        <time>2012-06-02T12:02:32Z</time>
      </trkpt>
      <trkpt lat="48.27046" lon="7.27412">
        <ele>271.937</ele>
        <time>2012-06-02T12:02:40Z</time>
      </trkpt>
      <trkpt lat="48.27045" lon="7.27469">
        <ele>272.758</ele>
        <time>2012-06-02T12:02:46Z</time>
      </trkpt>
      <trkpt lat="48.27044" lon="7.2752">
        <ele>272.087</ele>
        <time>2012-06-02T12:02:52Z</time>
      </trkpt>
      <trkpt lat="48.27046" lon="7.27571">
        <ele>269.716</ele>
        <time>2012-06-02T12:02:58Z</time>
      </trkpt>
      <trkpt lat="48.27048" lon="7.27633">
        <ele>268.836</ele>
        <time>2012-06-02T12:03:04Z</time>
      </trkpt>
      <trkpt lat="48.27053" lon="7.27709">
        <ele>269.237</ele>
        <time>2012-06-02T12:03:11Z</time>
      </trkpt>
      <trkpt lat="48.27058" lon="7.27771">
        <ele>269.297</ele>
        <time>2012-06-02T12:03:17Z</time>
      </trkpt>
      <trkpt lat="48.27063" lon="7.27849">
        <ele>270.048</ele>
        <time>2012-06-02T12:03:25Z</time>
      </trkpt>
      <trkpt lat="48.27068" lon="7.27924">
        <ele>270.397</ele>
        <time>2012-06-02T12:03:33Z</time>
      </trkpt>
      <trkpt lat="48.27076" lon="7.27998">
        <ele>270.207</ele>
        <time>2012-06-02T12:03:41Z</time>
      </trkpt>
      <trkpt lat="48.27082" lon="7.28064">
        <ele>270.107</ele>
        <time>2012-06-02T12:03:48Z</time>
      </trkpt>
      <trkpt lat="48.27085" lon="7.28098">
        <ele>269.607</ele>
        <time>2012-06-02T12:03:52Z</time>
      </trkpt>
      <trkpt lat="48.27092" lon="7.28121">
        <ele>269.867</ele>
        <time>2012-06-02T12:03:56Z</time>
      </trkpt>
      <trkpt lat="48.271" lon="7.28117">
        <ele>269.917</ele>
        <time>2012-06-02T12:03:58Z</time>
      </trkpt>
      <trkpt lat="48.27124" lon="7.28098">
        <ele>269.678</ele>
        <time>2012-06-02T12:04:04Z</time>
      </trkpt>
      <trkpt lat="48.27128" lon="7.28098">
        <ele>269.067</ele>
        <time>2012-06-02T12:04:08Z</time>
      </trkpt>
      <trkpt lat="48.27128" lon="7.28099">
        <ele>267.476</ele>
        <time>2012-06-02T12:04:16Z</time>
      </trkpt>
      <trkpt lat="48.27132" lon="7.28102">
        <ele>268.527</ele>
        <time>2012-06-02T12:04:38Z</time>
      </trkpt>
      <trkpt lat="48.27132" lon="7.28103">
        <ele>266.907</ele>
        <time>2012-06-02T12:04:54Z</time>
      </trkpt>
      <trkpt lat="48.27135" lon="7.28108">
        <ele>267.137</ele>
        <time>2012-06-02T12:04:58Z</time>
      </trkpt>
      <trkpt lat="48.27141" lon="7.28115">
        <ele>266.917</ele>
        <time>2012-06-02T12:05:06Z</time>
      </trkpt>
      <trkpt lat="48.27142" lon="7.28115">
        <ele>266.837</ele>
        <time>2012-06-02T12:05:13Z</time>
      </trkpt>
      <trkpt lat="48.29818" lon="7.25346">
        <ele>492.261</ele>
        <time>2012-06-02T12:35:12Z</time>
      </trkpt>
      <trkpt lat="48.29817" lon="7.25368">
        <ele>476.368</ele>
        <time>2012-06-02T12:35:17Z</time>
      </trkpt>
      <trkpt lat="48.2975" lon="7.25401">
        <ele>483.063</ele>
        <time>2012-06-02T12:35:46Z</time>
      </trkpt>
      <trkpt lat="48.29718" lon="7.25446">
        <ele>482.999</ele>
        <time>2012-06-02T12:36:04Z</time>
      </trkpt>
      <trkpt lat="48.29701" lon="7.2547">
        <ele>490.954</ele>
        <time>2012-06-02T12:36:13Z</time>
      </trkpt>
      <trkpt lat="48.29687" lon="7.25484">
        <ele>488.51</ele>
        <time>2012-06-02T12:36:20Z</time>
      </trkpt>
      <trkpt lat="48.29676" lon="7.2549">
        <ele>490.871</ele>
        <time>2012-06-02T12:36:25Z</time>
      </trkpt>
      <trkpt lat="48.29668" lon="7.25489">
        <ele>491.591</ele>
        <time>2012-06-02T12:36:28Z</time>
      </trkpt>
      <trkpt lat="48.2966" lon="7.25496">
        <ele>489.919</ele>
        <time>2012-06-02T12:36:32Z</time>
      </trkpt>
      <trkpt lat="48.29652" lon="7.25498">
        <ele>489.358</ele>
        <time>2012-06-02T12:36:36Z</time>
      </trkpt>
      <trkpt lat="48.29637" lon="7.25506">
        <ele>491.75</ele>
        <time>2012-06-02T12:36:42Z</time>
      </trkpt>
      <trkpt lat="48.29621" lon="7.25516">
        <ele>490.99</ele>
        <time>2012-06-02T12:36:49Z</time>
      </trkpt>
      <trkpt lat="48.29608" lon="7.25527">
        <ele>488.719</ele>
        <time>2012-06-02T12:36:55Z</time>
      </trkpt>
      <trkpt lat="48.29593" lon="7.25536">
        <ele>489.879</ele>
        <time>2012-06-02T12:37:01Z</time>
      </trkpt>
      <trkpt lat="48.29577" lon="7.25552">
        <ele>489.479</ele>
        <time>2012-06-02T12:37:09Z</time>
      </trkpt>
      <trkpt lat="48.29568" lon="7.25574">
        <ele>497.025</ele>
        <time>2012-06-02T12:37:15Z</time>
      </trkpt>
      <trkpt lat="48.2956" lon="7.25591">
        <ele>501.266</ele>
        <time>2012-06-02T12:37:20Z</time>
      </trkpt>
      <trkpt lat="48.2955" lon="7.25615">
        <ele>507.028</ele>
        <time>2012-06-02T12:37:27Z</time>
      </trkpt>
      <trkpt lat="48.2954" lon="7.25633">
        <ele>503.422</ele>
        <time>2012-06-02T12:37:34Z</time>
      </trkpt>
      <trkpt lat="48.29531" lon="7.25663">
        <ele>509.583</ele>
        <time>2012-06-02T12:37:43Z</time>
      </trkpt>
      <trkpt lat="48.29526" lon="7.25685">
        <ele>511.213</ele>
        <time>2012-06-02T12:37:50Z</time>
      </trkpt>
      <trkpt lat="48.29523" lon="7.2572">
        <ele>510.542</ele>
        <time>2012-06-02T12:37:59Z</time>
      </trkpt>
      <trkpt lat="48.29521" lon="7.25747">
        <ele>506.299</ele>
        <time>2012-06-02T12:38:07Z</time>
      </trkpt>
      <trkpt lat="48.29522" lon="7.25775">
        <ele>504.219</ele>
        <time>2012-06-02T12:38:15Z</time>
      </trkpt>
      <trkpt lat="48.29525" lon="7.25799">
        <ele>501.169</ele>
        <time>2012-06-02T12:38:23Z</time>
      </trkpt>
      <trkpt lat="48.29529" lon="7.25824">
        <ele>502.369</ele>
        <time>2012-06-02T12:38:30Z</time>
      </trkpt>
      <trkpt lat="48.29534" lon="7.25843">
        <ele>503.89</ele>
        <time>2012-06-02T12:38:36Z</time>
      </trkpt>
      <trkpt lat="48.29541" lon="7.25864">
        <ele>504.6</ele>
        <time>2012-06-02T12:38:42Z</time>
      </trkpt>
      <trkpt lat="48.29549" lon="7.25876">
        <ele>506.12</ele>
        <time>2012-06-02T12:38:47Z</time>
      </trkpt>
      <trkpt lat="48.29564" lon="7.25897">
        <ele>511.633</ele>
        <time>2012-06-02T12:38:54Z</time>
      </trkpt>
      <trkpt lat="48.29567" lon="7.259">
        <ele>511.623</ele>
        <time>2012-06-02T12:38:55Z</time>
      </trkpt>
      <trkpt lat="48.2958" lon="7.2592">
        <ele>513.443</ele>
        <time>2012-06-02T12:39:00Z</time>
      </trkpt>
      <trkpt lat="48.29587" lon="7.25942">
        <ele>516.614</ele>
        <time>2012-06-02T12:39:05Z</time>
      </trkpt>
      <trkpt lat="48.29589" lon="7.25975">
        <ele>520.605</ele>
        <time>2012-06-02T12:39:11Z</time>
      </trkpt>
      <trkpt lat="48.29593" lon="7.25998">
        <ele>516.471</ele>
        <time>2012-06-02T12:39:17Z</time>
      </trkpt>
      <trkpt lat="48.29598" lon="7.26002">
        <ele>515.459</ele>
        <time>2012-06-02T12:39:19Z</time>
      </trkpt>
      <trkpt lat="48.29611" lon="7.25994">
        <ele>511.058</ele>
        <time>2012-06-02T12:39:24Z</time>
      </trkpt>
      <trkpt lat="48.2961" lon="7.25972">
        <ele>519.754</ele>
        <time>2012-06-02T12:39:29Z</time>
      </trkpt>
      <trkpt lat="48.29615" lon="7.25679">
        <ele>531.872</ele>
        <time>2012-06-02T12:40:52Z</time>
      </trkpt>
      <trkpt lat="48.29625" lon="7.25672">
        <ele>533.821</ele>
        <time>2012-06-02T12:40:58Z</time>
      </trkpt>
      <trkpt lat="48.29637" lon="7.25664">
        <ele>534.93</ele>
        <time>2012-06-02T12:41:04Z</time>
      </trkpt>
      <trkpt lat="48.29656" lon="7.25653">
        <ele>535.48</ele>
        <time>2012-06-02T12:41:13Z</time>
      </trkpt>
      <trkpt lat="48.29671" lon="7.2565">
        <ele>537.372</ele>
        <time>2012-06-02T12:41:20Z</time>
      </trkpt>
      <trkpt lat="48.29696" lon="7.25645">
        <ele>540.892</ele>
        <time>2012-06-02T12:41:30Z</time>
      </trkpt>
      <trkpt lat="48.29715" lon="7.25638">
        <ele>543.794</ele>
        <time>2012-06-02T12:41:38Z</time>
      </trkpt>
      <trkpt lat="48.29732" lon="7.25638">
        <ele>545.223</ele>
        <time>2012-06-02T12:41:45Z</time>
      </trkpt>
      <trkpt lat="48.29752" lon="7.25652">
        <ele>544.101</ele>
        <time>2012-06-02T12:41:54Z</time>
      </trkpt>
      <trkpt lat="48.29774" lon="7.25661">
        <ele>542.8</ele>
        <time>2012-06-02T12:42:02Z</time>
      </trkpt>
      <trkpt lat="48.2979" lon="7.2566">
        <ele>542.471</ele>
        <time>2012-06-02T12:42:08Z</time>
      </trkpt>
      <trkpt lat="48.29804" lon="7.25645">
        <ele>538.611</ele>
        <time>2012-06-02T12:42:16Z</time>
      </trkpt>
      <trkpt lat="48.29813" lon="7.25628">
        <ele>536.151</ele>
        <time>2012-06-02T12:42:23Z</time>
      </trkpt>
      <trkpt lat="48.29823" lon="7.25611">
        <ele>536.241</ele>
        <time>2012-06-02T12:42:30Z</time>
      </trkpt>
      <trkpt lat="48.29834" lon="7.25597">
        <ele>536.112</ele>
        <time>2012-06-02T12:42:35Z</time>
      </trkpt>
      <trkpt lat="48.29847" lon="7.2559">
        <ele>536.753</ele>
        <time>2012-06-02T12:42:40Z</time>
      </trkpt>
      <trkpt lat="48.29864" lon="7.25596">
        <ele>537.932</ele>
        <time>2012-06-02T12:42:46Z</time>
      </trkpt>
      <trkpt lat="48.29882" lon="7.25608">
        <ele>539.998</ele>
        <time>2012-06-02T12:42:54Z</time>
      </trkpt>
      <trkpt lat="48.29898" lon="7.25616">
        <ele>541.723</ele>
        <time>2012-06-02T12:43:01Z</time>
      </trkpt>
      <trkpt lat="48.29917" lon="7.25627">
        <ele>545.033</ele>
        <time>2012-06-02T12:43:10Z</time>
      </trkpt>
      <trkpt lat="48.29936" lon="7.25642">
        <ele>547.182</ele>
        <time>2012-06-02T12:43:19Z</time>
      </trkpt>
      <trkpt lat="48.29948" lon="7.25654">
        <ele>549.492</ele>
        <time>2012-06-02T12:43:26Z</time>
      </trkpt>
      <trkpt lat="48.29962" lon="7.25676">
        <ele>550.941</ele>
        <time>2012-06-02T12:43:35Z</time>
      </trkpt>
      <trkpt lat="48.29972" lon="7.25703">
        <ele>553.402</ele>
        <time>2012-06-02T12:43:43Z</time>
      </trkpt>
      <trkpt lat="48.29981" lon="7.25729">
        <ele>555.682</ele>
        <time>2012-06-02T12:43:51Z</time>
      </trkpt>
      <trkpt lat="48.29993" lon="7.25744">
        <ele>559.072</ele>
        <time>2012-06-02T12:43:58Z</time>
      </trkpt>
      <trkpt lat="48.30005" lon="7.25749">
        <ele>560.252</ele>
        <time>2012-06-02T12:44:04Z</time>
      </trkpt>
      <trkpt lat="48.3002" lon="7.25749">
        <ele>561.732</ele>
        <time>2012-06-02T12:44:10Z</time>
      </trkpt>
      <trkpt lat="48.3004" lon="7.25747">
        <ele>564.463</ele>
        <time>2012-06-02T12:44:18Z</time>
      </trkpt>
      <trkpt lat="48.30052" lon="7.25748">
        <ele>567.434</ele>
        <time>2012-06-02T12:44:24Z</time>
      </trkpt>
      <trkpt lat="48.30066" lon="7.25763">
        <ele>566.421</ele>
        <time>2012-06-02T12:44:31Z</time>
      </trkpt>
      <trkpt lat="48.30082" lon="7.25788">
        <ele>566.542</ele>
        <time>2012-06-02T12:44:40Z</time>
      </trkpt>
      <trkpt lat="48.30093" lon="7.25806">
        <ele>567.362</ele>
        <time>2012-06-02T12:44:47Z</time>
      </trkpt>
      <trkpt lat="48.30104" lon="7.25824">
        <ele>569.693</ele>
        <time>2012-06-02T12:44:55Z</time>
      </trkpt>
      <trkpt lat="48.30118" lon="7.25844">
        <ele>571.832</ele>
        <time>2012-06-02T12:45:03Z</time>
      </trkpt>
      <trkpt lat="48.30135" lon="7.25853">
        <ele>574.292</ele>
        <time>2012-06-02T12:45:11Z</time>
      </trkpt>
      <trkpt lat="48.30152" lon="7.25853">
        <ele>576.194</ele>
        <time>2012-06-02T12:45:18Z</time>
      </trkpt>
      <trkpt lat="48.30174" lon="7.2585">
        <ele>578.423</ele>
        <time>2012-06-02T12:45:27Z</time>
      </trkpt>
      <trkpt lat="48.30191" lon="7.25855">
        <ele>580.063</ele>
        <time>2012-06-02T12:45:34Z</time>
      </trkpt>
      <trkpt lat="48.30212" lon="7.25865">
        <ele>580.692</ele>
        <time>2012-06-02T12:45:44Z</time>
      </trkpt>
      <trkpt lat="48.30228" lon="7.25877">
        <ele>582.282</ele>
        <time>2012-06-02T12:45:51Z</time>
      </trkpt>
      <trkpt lat="48.30247" lon="7.25898">
        <ele>584.503</ele>
        <time>2012-06-02T12:45:59Z</time>
      </trkpt>
      <trkpt lat="48.30264" lon="7.25932">
        <ele>586.002</ele>
        <time>2012-06-02T12:46:09Z</time>
      </trkpt>
      <trkpt lat="48.30277" lon="7.25958">
        <ele>588.363</ele>
        <time>2012-06-02T12:46:17Z</time>
      </trkpt>
      <trkpt lat="48.30287" lon="7.2599">
        <ele>588.462</ele>
        <time>2012-06-02T12:46:25Z</time>
      </trkpt>
      <trkpt lat="48.30291" lon="7.26008">
        <ele>590.183</ele>
        <time>2012-06-02T12:46:30Z</time>
      </trkpt>
      <trkpt lat="48.30297" lon="7.26033">
        <ele>591.383</ele>
        <time>2012-06-02T12:46:36Z</time>
      </trkpt>
      <trkpt lat="48.30306" lon="7.26055">
        <ele>593.073</ele>
        <time>2012-06-02T12:46:42Z</time>
      </trkpt>
      <trkpt lat="48.30321" lon="7.26068">
        <ele>595.393</ele>
        <time>2012-06-02T12:46:48Z</time>
      </trkpt>
      <trkpt lat="48.30337" lon="7.26068">
        <ele>594.752</ele>
        <time>2012-06-02T12:46:54Z</time>
      </trkpt>
      <trkpt lat="48.30347" lon="7.26059">
        <ele>595.743</ele>
        <time>2012-06-02T12:46:59Z</time>
      </trkpt>
      <trkpt lat="48.30361" lon="7.26041">
        <ele>595.488</ele>
        <time>2012-06-02T12:47:07Z</time>
      </trkpt>
      <trkpt lat="48.30378" lon="7.26021">
        <ele>596.102</ele>
        <time>2012-06-02T12:47:15Z</time>
      </trkpt>
      <trkpt lat="48.30397" lon="7.26014">
        <ele>599.246</ele>
        <time>2012-06-02T12:47:22Z</time>
      </trkpt>
      <trkpt lat="48.30419" lon="7.26014">
        <ele>601.877</ele>
        <time>2012-06-02T12:47:30Z</time>
      </trkpt>
      <trkpt lat="48.30443" lon="7.26013">
        <ele>603.586</ele>
        <time>2012-06-02T12:47:39Z</time>
      </trkpt>
      <trkpt lat="48.30453" lon="7.26016">
        <ele>604.537</ele>
        <time>2012-06-02T12:47:44Z</time>
      </trkpt>
      <trkpt lat="48.30467" lon="7.26025">
        <ele>604.949</ele>
        <time>2012-06-02T12:47:51Z</time>
      </trkpt>
      <trkpt lat="48.30472" lon="7.26032">
        <ele>604.403</ele>
        <time>2012-06-02T12:47:53Z</time>
      </trkpt>
      <trkpt lat="48.30484" lon="7.26055">
        <ele>602.198</ele>
        <time>2012-06-02T12:47:57Z</time>
      </trkpt>
      <trkpt lat="48.30498" lon="7.26108">
        <ele>599.036</ele>
        <time>2012-06-02T12:48:02Z</time>
      </trkpt>
      <trkpt lat="48.30501" lon="7.26121">
        <ele>598.236</ele>
        <time>2012-06-02T12:48:03Z</time>
      </trkpt>
      <trkpt lat="48.30526" lon="7.26188">
        <ele>593.044</ele>
        <time>2012-06-02T12:48:08Z</time>
      </trkpt>
      <trkpt lat="48.30544" lon="7.26234">
        <ele>589.432</ele>
        <time>2012-06-02T12:48:11Z</time>
      </trkpt>
      <trkpt lat="48.30564" lon="7.26298">
        <ele>584.523</ele>
        <time>2012-06-02T12:48:15Z</time>
      </trkpt>
      <trkpt lat="48.30584" lon="7.2632">
        <ele>583.333</ele>
        <time>2012-06-02T12:48:17Z</time>
      </trkpt>
      <trkpt lat="48.30634" lon="7.26386">
        <ele>577.012</ele>
        <time>2012-06-02T12:48:22Z</time>
      </trkpt>
      <trkpt lat="48.30664" lon="7.26454">
        <ele>571.701</ele>
        <time>2012-06-02T12:48:26Z</time>
      </trkpt>
      <trkpt lat="48.30676" lon="7.26492">
        <ele>568</ele>
        <time>2012-06-02T12:48:28Z</time>
      </trkpt>
      <trkpt lat="48.30686" lon="7.2656">
        <ele>563.492</ele>
        <time>2012-06-02T12:48:32Z</time>
      </trkpt>
      <trkpt lat="48.30703" lon="7.26583">
        <ele>560.252</ele>
        <time>2012-06-02T12:48:35Z</time>
      </trkpt>
      <trkpt lat="48.30728" lon="7.26607">
        <ele>556.591</ele>
        <time>2012-06-02T12:48:38Z</time>
      </trkpt>
      <trkpt lat="48.30735" lon="7.26641">
        <ele>554.041</ele>
        <time>2012-06-02T12:48:41Z</time>
      </trkpt>
      <trkpt lat="48.30727" lon="7.2666">
        <ele>552.992</ele>
        <time>2012-06-02T12:48:43Z</time>
      </trkpt>
      <trkpt lat="48.30719" lon="7.2671">
        <ele>549.161</ele>
        <time>2012-06-02T12:48:47Z</time>
      </trkpt>
      <trkpt lat="48.30734" lon="7.26733">
        <ele>548.21</ele>
        <time>2012-06-02T12:48:49Z</time>
      </trkpt>
      <trkpt lat="48.30751" lon="7.26756">
        <ele>546.982</ele>
        <time>2012-06-02T12:48:51Z</time>
      </trkpt>
      <trkpt lat="48.30792" lon="7.26776">
        <ele>546.416</ele>
        <time>2012-06-02T12:48:55Z</time>
      </trkpt>
      <trkpt lat="48.308" lon="7.26796">
        <ele>547.016</ele>
        <time>2012-06-02T12:48:57Z</time>
      </trkpt>
      <trkpt lat="48.30795" lon="7.26821">
        <ele>545.716</ele>
        <time>2012-06-02T12:48:59Z</time>
      </trkpt>
      <trkpt lat="48.30782" lon="7.26842">
        <ele>545.197</ele>
        <time>2012-06-02T12:49:01Z</time>
      </trkpt>
      <trkpt lat="48.30778" lon="7.26884">
        <ele>543.805</ele>
        <time>2012-06-02T12:49:04Z</time>
      </trkpt>
      <trkpt lat="48.30791" lon="7.26909">
        <ele>543.055</ele>
        <time>2012-06-02T12:49:06Z</time>
      </trkpt>
      <trkpt lat="48.30809" lon="7.26925">
        <ele>540.444</ele>
        <time>2012-06-02T12:49:08Z</time>
      </trkpt>
      <trkpt lat="48.30842" lon="7.26946">
        <ele>537.833</ele>
        <time>2012-06-02T12:49:11Z</time>
      </trkpt>
      <trkpt lat="48.3088" lon="7.26948">
        <ele>533.763</ele>
        <time>2012-06-02T12:49:14Z</time>
      </trkpt>
      <trkpt lat="48.30957" lon="7.26927">
        <ele>529.503</ele>
        <time>2012-06-02T12:49:20Z</time>
      </trkpt>
      <trkpt lat="48.3097" lon="7.26927">
        <ele>528.633</ele>
        <time>2012-06-02T12:49:21Z</time>
      </trkpt>
      <trkpt lat="48.3102" lon="7.26948">
        <ele>524.235</ele>
        <time>2012-06-02T12:49:25Z</time>
      </trkpt>
      <trkpt lat="48.31033" lon="7.26952">
        <ele>523.184</ele>
        <time>2012-06-02T12:49:26Z</time>
      </trkpt>
      <trkpt lat="48.31088" lon="7.26994">
        <ele>519.524</ele>
        <time>2012-06-02T12:49:31Z</time>
      </trkpt>
      <trkpt lat="48.31108" lon="7.27016">
        <ele>517.074</ele>
        <time>2012-06-02T12:49:33Z</time>
      </trkpt>
      <trkpt lat="48.31141" lon="7.27047">
        <ele>513.682</ele>
        <time>2012-06-02T12:49:36Z</time>
      </trkpt>
      <trkpt lat="48.31176" lon="7.27105">
        <ele>511.074</ele>
        <time>2012-06-02T12:49:40Z</time>
      </trkpt>
      <trkpt lat="48.3119" lon="7.27139">
        <ele>508.915</ele>
        <time>2012-06-02T12:49:43Z</time>
      </trkpt>
      <trkpt lat="48.31208" lon="7.2712">
        <ele>504.624</ele>
        <time>2012-06-02T12:49:46Z</time>
      </trkpt>
      <trkpt lat="48.31204" lon="7.27094">
        <ele>504.994</ele>
        <time>2012-06-02T12:49:48Z</time>
      </trkpt>
      <trkpt lat="48.31197" lon="7.27084">
        <ele>504.615</ele>
        <time>2012-06-02T12:49:49Z</time>
      </trkpt>
      <trkpt lat="48.31163" lon="7.27001">
        <ele>500.225</ele>
        <time>2012-06-02T12:49:56Z</time>
      </trkpt>
      <trkpt lat="48.31139" lon="7.26913">
        <ele>496.454</ele>
        <time>2012-06-02T12:50:02Z</time>
      </trkpt>
      <trkpt lat="48.31136" lon="7.26848">
        <ele>493.926</ele>
        <time>2012-06-02T12:50:06Z</time>
      </trkpt>
      <trkpt lat="48.31115" lon="7.26803">
        <ele>492.366</ele>
        <time>2012-06-02T12:50:10Z</time>
      </trkpt>
      <trkpt lat="48.31096" lon="7.268">
        <ele>490.147</ele>
        <time>2012-06-02T12:50:12Z</time>
      </trkpt>
      <trkpt lat="48.31008" lon="7.26789">
        <ele>482.456</ele>
        <time>2012-06-02T12:50:20Z</time>
      </trkpt>
      <trkpt lat="48.30959" lon="7.26782">
        <ele>479.054</ele>
        <time>2012-06-02T12:50:24Z</time>
      </trkpt>
      <trkpt lat="48.30938" lon="7.26753">
        <ele>476.493</ele>
        <time>2012-06-02T12:50:27Z</time>
      </trkpt>
      <trkpt lat="48.30935" lon="7.26743">
        <ele>474.894</ele>
        <time>2012-06-02T12:50:28Z</time>
      </trkpt>
      <trkpt lat="48.30945" lon="7.2673">
        <ele>471.952</ele>
        <time>2012-06-02T12:50:31Z</time>
      </trkpt>
      <trkpt lat="48.30983" lon="7.26737">
        <ele>471.413</ele>
        <time>2012-06-02T12:50:34Z</time>
      </trkpt>
      <trkpt lat="48.30994" lon="7.26739">
        <ele>470.902</ele>
        <time>2012-06-02T12:50:35Z</time>
      </trkpt>
      <trkpt lat="48.31016" lon="7.2674">
        <ele>470.455</ele>
        <time>2012-06-02T12:50:37Z</time>
      </trkpt>
      <trkpt lat="48.31065" lon="7.26726">
        <ele>464.999</ele>
        <time>2012-06-02T12:50:42Z</time>
      </trkpt>
      <trkpt lat="48.31131" lon="7.26705">
        <ele>458.953</ele>
        <time>2012-06-02T12:50:48Z</time>
      </trkpt>
      <trkpt lat="48.31187" lon="7.26703">
        <ele>455.944</ele>
        <time>2012-06-02T12:50:53Z</time>
      </trkpt>
      <trkpt lat="48.31209" lon="7.2671">
        <ele>454.645</ele>
        <time>2012-06-02T12:50:55Z</time>
      </trkpt>
      <trkpt lat="48.31228" lon="7.26758">
        <ele>451.055</ele>
        <time>2012-06-02T12:50:59Z</time>
      </trkpt>
      <trkpt lat="48.31233" lon="7.26806">
        <ele>449.634</ele>
        <time>2012-06-02T12:51:02Z</time>
      </trkpt>
      <trkpt lat="48.31253" lon="7.26821">
        <ele>444.273</ele>
        <time>2012-06-02T12:51:05Z</time>
      </trkpt>
      <trkpt lat="48.31268" lon="7.26793">
        <ele>441.701</ele>
        <time>2012-06-02T12:51:07Z</time>
      </trkpt>
      <trkpt lat="48.31275" lon="7.26771">
        <ele>443.574</ele>
        <time>2012-06-02T12:51:08Z</time>
      </trkpt>
      <trkpt lat="48.31296" lon="7.26703">
        <ele>446.317</ele>
        <time>2012-06-02T12:51:12Z</time>
      </trkpt>
      <trkpt lat="48.31324" lon="7.2669">
        <ele>442.697</ele>
        <time>2012-06-02T12:51:15Z</time>
      </trkpt>
      <trkpt lat="48.31345" lon="7.26696">
        <ele>441.926</ele>
        <time>2012-06-02T12:51:17Z</time>
      </trkpt>
      <trkpt lat="48.31365" lon="7.26711">
        <ele>438.155</ele>
        <time>2012-06-02T12:51:19Z</time>
      </trkpt>
      <trkpt lat="48.31415" lon="7.26748">
        <ele>432.715</ele>
        <time>2012-06-02T12:51:24Z</time>
      </trkpt>
      <trkpt lat="48.3144" lon="7.26746">
        <ele>429.664</ele>
        <time>2012-06-02T12:51:27Z</time>
      </trkpt>
      <trkpt lat="48.31442" lon="7.26724">
        <ele>427.164</ele>
        <time>2012-06-02T12:51:29Z</time>
      </trkpt>
      <trkpt lat="48.31434" lon="7.26699">
        <ele>427.206</ele>
        <time>2012-06-02T12:51:31Z</time>
      </trkpt>
      <trkpt lat="48.31415" lon="7.26693">
        <ele>426.497</ele>
        <time>2012-06-02T12:51:33Z</time>
      </trkpt>
      <trkpt lat="48.31386" lon="7.2667">
        <ele>424.917</ele>
        <time>2012-06-02T12:51:36Z</time>
      </trkpt>
      <trkpt lat="48.31378" lon="7.26659">
        <ele>424.206</ele>
        <time>2012-06-02T12:51:37Z</time>
      </trkpt>
      <trkpt lat="48.31324" lon="7.26568">
        <ele>415.805</ele>
        <time>2012-06-02T12:51:44Z</time>
      </trkpt>
      <trkpt lat="48.31306" lon="7.26521">
        <ele>412.606</ele>
        <time>2012-06-02T12:51:47Z</time>
      </trkpt>
      <trkpt lat="48.31282" lon="7.26484">
        <ele>411.2</ele>
        <time>2012-06-02T12:51:50Z</time>
      </trkpt>
      <trkpt lat="48.31263" lon="7.26488">
        <ele>408.786</ele>
        <time>2012-06-02T12:51:52Z</time>
      </trkpt>
      <trkpt lat="48.31247" lon="7.26482">
        <ele>406.786</ele>
        <time>2012-06-02T12:51:54Z</time>
      </trkpt>
      <trkpt lat="48.31241" lon="7.26456">
        <ele>406.046</ele>
        <time>2012-06-02T12:51:56Z</time>
      </trkpt>
      <trkpt lat="48.31249" lon="7.26435">
        <ele>404.787</ele>
        <time>2012-06-02T12:51:58Z</time>
      </trkpt>
      <trkpt lat="48.31278" lon="7.26361">
        <ele>399.465</ele>
        <time>2012-06-02T12:52:04Z</time>
      </trkpt>
      <trkpt lat="48.31318" lon="7.26308">
        <ele>393.724</ele>
        <time>2012-06-02T12:52:09Z</time>
      </trkpt>
      <trkpt lat="48.31337" lon="7.26287">
        <ele>391.043</ele>
        <time>2012-06-02T12:52:11Z</time>
      </trkpt>
      <trkpt lat="48.31391" lon="7.26207">
        <ele>385.843</ele>
        <time>2012-06-02T12:52:17Z</time>
      </trkpt>
      <trkpt lat="48.31431" lon="7.26128">
        <ele>380.495</ele>
        <time>2012-06-02T12:52:22Z</time>
      </trkpt>
      <trkpt lat="48.3144" lon="7.26081">
        <ele>378.904</ele>
        <time>2012-06-02T12:52:25Z</time>
      </trkpt>
      <trkpt lat="48.31425" lon="7.26055">
        <ele>376.834</ele>
        <time>2012-06-02T12:52:27Z</time>
      </trkpt>
      <trkpt lat="48.31416" lon="7.26048">
        <ele>376.796</ele>
        <time>2012-06-02T12:52:28Z</time>
      </trkpt>
      <trkpt lat="48.31395" lon="7.2601">
        <ele>375.186</ele>
        <time>2012-06-02T12:52:32Z</time>
      </trkpt>
      <trkpt lat="48.31406" lon="7.25996">
        <ele>373.416</ele>
        <time>2012-06-02T12:52:34Z</time>
      </trkpt>
      <trkpt lat="48.31425" lon="7.25999">
        <ele>371.896</ele>
        <time>2012-06-02T12:52:36Z</time>
      </trkpt>
      <trkpt lat="48.31441" lon="7.26022">
        <ele>372.967</ele>
        <time>2012-06-02T12:52:38Z</time>
      </trkpt>
      <trkpt lat="48.31447" lon="7.26035">
        <ele>373.387</ele>
        <time>2012-06-02T12:52:39Z</time>
      </trkpt>
      <trkpt lat="48.3146" lon="7.2606">
        <ele>372.656</ele>
        <time>2012-06-02T12:52:41Z</time>
      </trkpt>
      <trkpt lat="48.31488" lon="7.26083">
        <ele>371.568</ele>
        <time>2012-06-02T12:52:44Z</time>
      </trkpt>
      <trkpt lat="48.31499" lon="7.26087">
        <ele>371.058</ele>
        <time>2012-06-02T12:52:45Z</time>
      </trkpt>
      <trkpt lat="48.31531" lon="7.26077">
        <ele>367.917</ele>
        <time>2012-06-02T12:52:48Z</time>
      </trkpt>
      <trkpt lat="48.31541" lon="7.26066">
        <ele>366.737</ele>
        <time>2012-06-02T12:52:49Z</time>
      </trkpt>
      <trkpt lat="48.31597" lon="7.26001">
        <ele>364.866</ele>
        <time>2012-06-02T12:52:55Z</time>
      </trkpt>
      <trkpt lat="48.31617" lon="7.2598">
        <ele>364.677</ele>
        <time>2012-06-02T12:52:57Z</time>
      </trkpt>
      <trkpt lat="48.3167" lon="7.25947">
        <ele>362.549</ele>
        <time>2012-06-02T12:53:02Z</time>
      </trkpt>
      <trkpt lat="48.31737" lon="7.25924">
        <ele>360.349</ele>
        <time>2012-06-02T12:53:08Z</time>
      </trkpt>
      <trkpt lat="48.31802" lon="7.25903">
        <ele>353.327</ele>
        <time>2012-06-02T12:53:14Z</time>
      </trkpt>
      <trkpt lat="48.31852" lon="7.25876">
        <ele>350.618</ele>
        <time>2012-06-02T12:53:19Z</time>
      </trkpt>
      <trkpt lat="48.31862" lon="7.25869">
        <ele>350.419</ele>
        <time>2012-06-02T12:53:20Z</time>
      </trkpt>
      <trkpt lat="48.31913" lon="7.25855">
        <ele>348.33</ele>
        <time>2012-06-02T12:53:25Z</time>
      </trkpt>
      <trkpt lat="48.31958" lon="7.25836">
        <ele>347.461</ele>
        <time>2012-06-02T12:53:30Z</time>
      </trkpt>
      <trkpt lat="48.32012" lon="7.25819">
        <ele>344.98</ele>
        <time>2012-06-02T12:53:36Z</time>
      </trkpt>
      <trkpt lat="48.32065" lon="7.25812">
        <ele>344.051</ele>
        <time>2012-06-02T12:53:42Z</time>
      </trkpt>
      <trkpt lat="48.32122" lon="7.25802">
        <ele>340.881</ele>
        <time>2012-06-02T12:53:49Z</time>
      </trkpt>
      <trkpt lat="48.32164" lon="7.258">
        <ele>338.842</ele>
        <time>2012-06-02T12:53:54Z</time>
      </trkpt>
      <trkpt lat="48.32227" lon="7.25806">
        <ele>337.613</ele>
        <time>2012-06-02T12:54:01Z</time>
      </trkpt>
      <trkpt lat="48.32264" lon="7.25818">
        <ele>336.542</ele>
        <time>2012-06-02T12:54:05Z</time>
      </trkpt>
      <trkpt lat="48.32328" lon="7.25848">
        <ele>331.412</ele>
        <time>2012-06-02T12:54:12Z</time>
      </trkpt>
      <trkpt lat="48.32378" lon="7.25883">
        <ele>328.012</ele>
        <time>2012-06-02T12:54:18Z</time>
      </trkpt>
      <trkpt lat="48.3244" lon="7.25935">
        <ele>324.33</ele>
        <time>2012-06-02T12:54:26Z</time>
      </trkpt>
      <trkpt lat="48.32456" lon="7.25947">
        <ele>323.029</ele>
        <time>2012-06-02T12:54:28Z</time>
      </trkpt>
      <trkpt lat="48.32481" lon="7.25989">
        <ele>319.377</ele>
        <time>2012-06-02T12:54:32Z</time>
      </trkpt>
      <trkpt lat="48.32488" lon="7.26015">
        <ele>318.849</ele>
        <time>2012-06-02T12:54:34Z</time>
      </trkpt>
      <trkpt lat="48.32493" lon="7.26035">
        <ele>318.029</ele>
        <time>2012-06-02T12:54:36Z</time>
      </trkpt>
      <trkpt lat="48.32499" lon="7.26068">
        <ele>317.632</ele>
        <time>2012-06-02T12:54:41Z</time>
      </trkpt>
      <trkpt lat="48.32502" lon="7.26076">
        <ele>317.343</ele>
        <time>2012-06-02T12:54:45Z</time>
      </trkpt>
      <trkpt lat="48.32503" lon="7.26067">
        <ele>316.853</ele>
        <time>2012-06-02T12:54:49Z</time>
      </trkpt>
      <trkpt lat="48.32504" lon="7.26056">
        <ele>316.894</ele>
        <time>2012-06-02T12:54:52Z</time>
      </trkpt>
      <trkpt lat="48.32504" lon="7.26026">
        <ele>317.013</ele>
        <time>2012-06-02T12:54:59Z</time>
      </trkpt>
      <trkpt lat="48.32501" lon="7.25997">
        <ele>315.611</ele>
        <time>2012-06-02T12:55:03Z</time>
      </trkpt>
      <trkpt lat="48.325" lon="7.25989">
        <ele>315.19</ele>
        <time>2012-06-02T12:55:04Z</time>
      </trkpt>
      <trkpt lat="48.32498" lon="7.25959">
        <ele>314.05</ele>
        <time>2012-06-02T12:55:09Z</time>
      </trkpt>
      <trkpt lat="48.32501" lon="7.25953">
        <ele>312.693</ele>
        <time>2012-06-02T12:55:13Z</time>
      </trkpt>
      <trkpt lat="48.32508" lon="7.25963">
        <ele>310.382</ele>
        <time>2012-06-02T12:55:19Z</time>
      </trkpt>
      <trkpt lat="48.32514" lon="7.25978">
        <ele>309.262</ele>
        <time>2012-06-02T12:55:23Z</time>
      </trkpt>
      <trkpt lat="48.32527" lon="7.26013">
        <ele>309.002</ele>
        <time>2012-06-02T12:55:29Z</time>
      </trkpt>
      <trkpt lat="48.32557" lon="7.26087">
        <ele>308.112</ele>
        <time>2012-06-02T12:55:39Z</time>
      </trkpt>
      <trkpt lat="48.32586" lon="7.26151">
        <ele>307.923</ele>
        <time>2012-06-02T12:55:47Z</time>
      </trkpt>
      <trkpt lat="48.32618" lon="7.26226">
        <ele>306.001</ele>
        <time>2012-06-02T12:55:56Z</time>
      </trkpt>
      <trkpt lat="48.32651" lon="7.26305">
        <ele>304.732</ele>
        <time>2012-06-02T12:56:05Z</time>
      </trkpt>
      <trkpt lat="48.32681" lon="7.26378">
        <ele>301.871</ele>
        <time>2012-06-02T12:56:13Z</time>
      </trkpt>
      <trkpt lat="48.32709" lon="7.26443">
        <ele>300.212</ele>
        <time>2012-06-02T12:56:20Z</time>
      </trkpt>
      <trkpt lat="48.32746" lon="7.26532">
        <ele>297.372</ele>
        <time>2012-06-02T12:56:29Z</time>
      </trkpt>
      <trkpt lat="48.32778" lon="7.26602">
        <ele>297.792</ele>
        <time>2012-06-02T12:56:36Z</time>
      </trkpt>
      <trkpt lat="48.32816" lon="7.26683">
        <ele>298.834</ele>
        <time>2012-06-02T12:56:45Z</time>
      </trkpt>
      <trkpt lat="48.32841" lon="7.26732">
        <ele>298.204</ele>
        <time>2012-06-02T12:56:52Z</time>
      </trkpt>
      <trkpt lat="48.32871" lon="7.26783">
        <ele>297.903</ele>
        <time>2012-06-02T12:57:00Z</time>
      </trkpt>
      <trkpt lat="48.32892" lon="7.26824">
        <ele>297.114</ele>
        <time>2012-06-02T12:57:06Z</time>
      </trkpt>
      <trkpt lat="48.32919" lon="7.26882">
        <ele>297.174</ele>
        <time>2012-06-02T12:57:14Z</time>
      </trkpt>
      <trkpt lat="48.32926" lon="7.26907">
        <ele>296.824</ele>
        <time>2012-06-02T12:57:17Z</time>
      </trkpt>
      <trkpt lat="48.32934" lon="7.26967">
        <ele>296.623</ele>
        <time>2012-06-02T12:57:24Z</time>
      </trkpt>
      <trkpt lat="48.32934" lon="7.27032">
        <ele>296.854</ele>
        <time>2012-06-02T12:57:31Z</time>
      </trkpt>
      <trkpt lat="48.32932" lon="7.2711">
        <ele>297.214</ele>
        <time>2012-06-02T12:57:39Z</time>
      </trkpt>
      <trkpt lat="48.3294" lon="7.27156">
        <ele>297.344</ele>
        <time>2012-06-02T12:57:44Z</time>
      </trkpt>
      <trkpt lat="48.32954" lon="7.27197">
        <ele>296.353</ele>
        <time>2012-06-02T12:57:49Z</time>
      </trkpt>
      <trkpt lat="48.32991" lon="7.27293">
        <ele>293.323</ele>
        <time>2012-06-02T12:58:01Z</time>
      </trkpt>
      <trkpt lat="48.33011" lon="7.27355">
        <ele>292.924</ele>
        <time>2012-06-02T12:58:08Z</time>
      </trkpt>
      <trkpt lat="48.3303" lon="7.2745">
        <ele>293.783</ele>
        <time>2012-06-02T12:58:18Z</time>
      </trkpt>
      <trkpt lat="48.33047" lon="7.27518">
        <ele>292.562</ele>
        <time>2012-06-02T12:58:25Z</time>
      </trkpt>
      <trkpt lat="48.33077" lon="7.27593">
        <ele>288.931</ele>
        <time>2012-06-02T12:58:33Z</time>
      </trkpt>
      <trkpt lat="48.33108" lon="7.27677">
        <ele>287.313</ele>
        <time>2012-06-02T12:58:41Z</time>
      </trkpt>
      <trkpt lat="48.33136" lon="7.27775">
        <ele>286.854</ele>
        <time>2012-06-02T12:58:50Z</time>
      </trkpt>
      <trkpt lat="48.33165" lon="7.2789">
        <ele>286.384</ele>
        <time>2012-06-02T12:59:00Z</time>
      </trkpt>
      <trkpt lat="48.33188" lon="7.28005">
        <ele>286.044</ele>
        <time>2012-06-02T12:59:10Z</time>
      </trkpt>
      <trkpt lat="48.33214" lon="7.28107">
        <ele>285.814</ele>
        <time>2012-06-02T12:59:19Z</time>
      </trkpt>
      <trkpt lat="48.33245" lon="7.28191">
        <ele>283.453</ele>
        <time>2012-06-02T12:59:27Z</time>
      </trkpt>
      <trkpt lat="48.33276" lon="7.28263">
        <ele>280.402</ele>
        <time>2012-06-02T12:59:34Z</time>
      </trkpt>
      <trkpt lat="48.33316" lon="7.28345">
        <ele>276.769</ele>
        <time>2012-06-02T12:59:42Z</time>
      </trkpt>
      <trkpt lat="48.3335" lon="7.28386">
        <ele>275.703</ele>
        <time>2012-06-02T12:59:47Z</time>
      </trkpt>
      <trkpt lat="48.33397" lon="7.28422">
        <ele>274.603</ele>
        <time>2012-06-02T12:59:53Z</time>
      </trkpt>
      <trkpt lat="48.33443" lon="7.28446">
        <ele>272.584</ele>
        <time>2012-06-02T12:59:59Z</time>
      </trkpt>
      <trkpt lat="48.33475" lon="7.28449">
        <ele>272.074</ele>
        <time>2012-06-02T13:00:03Z</time>
      </trkpt>
      <trkpt lat="48.33504" lon="7.2847">
        <ele>272.473</ele>
        <time>2012-06-02T13:00:07Z</time>
      </trkpt>
      <trkpt lat="48.33544" lon="7.28527">
        <ele>272.024</ele>
        <time>2012-06-02T13:00:14Z</time>
      </trkpt>
      <trkpt lat="48.33579" lon="7.28569">
        <ele>271.865</ele>
        <time>2012-06-02T13:00:20Z</time>
      </trkpt>
      <trkpt lat="48.33626" lon="7.28614">
        <ele>271.605</ele>
        <time>2012-06-02T13:00:28Z</time>
      </trkpt>
      <trkpt lat="48.33637" lon="7.28627">
        <ele>272.326</ele>
        <time>2012-06-02T13:00:30Z</time>
      </trkpt>
      <trkpt lat="48.33673" lon="7.28683">
        <ele>274.486</ele>
        <time>2012-06-02T13:00:37Z</time>
      </trkpt>
      <trkpt lat="48.33706" lon="7.28742">
        <ele>275.156</ele>
        <time>2012-06-02T13:00:44Z</time>
      </trkpt>
      <trkpt lat="48.33743" lon="7.28807">
        <ele>274.606</ele>
        <time>2012-06-02T13:00:52Z</time>
      </trkpt>
      <trkpt lat="48.33777" lon="7.28872">
        <ele>275.866</ele>
        <time>2012-06-02T13:01:00Z</time>
      </trkpt>
      <trkpt lat="48.33806" lon="7.28926">
        <ele>276.216</ele>
        <time>2012-06-02T13:01:07Z</time>
      </trkpt>
      <trkpt lat="48.33836" lon="7.2899">
        <ele>276.806</ele>
        <time>2012-06-02T13:01:15Z</time>
      </trkpt>
      <trkpt lat="48.33866" lon="7.29042">
        <ele>277.446</ele>
        <time>2012-06-02T13:01:22Z</time>
      </trkpt>
      <trkpt lat="48.33892" lon="7.29085">
        <ele>277.285</ele>
        <time>2012-06-02T13:01:28Z</time>
      </trkpt>
      <trkpt lat="48.33906" lon="7.29106">
        <ele>276.565</ele>
        <time>2012-06-02T13:01:31Z</time>
      </trkpt>
      <trkpt lat="48.33938" lon="7.29169">
        <ele>275.185</ele>
        <time>2012-06-02T13:01:39Z</time>
      </trkpt>
      <trkpt lat="48.33973" lon="7.29233">
        <ele>273.784</ele>
        <time>2012-06-02T13:01:47Z</time>
      </trkpt>
      <trkpt lat="48.34005" lon="7.29302">
        <ele>274.375</ele>
        <time>2012-06-02T13:01:55Z</time>
      </trkpt>
      <trkpt lat="48.34033" lon="7.29356">
        <ele>274.005</ele>
        <time>2012-06-02T13:02:02Z</time>
      </trkpt>
      <trkpt lat="48.34058" lon="7.29403">
        <ele>274.985</ele>
        <time>2012-06-02T13:02:08Z</time>
      </trkpt>
      <trkpt lat="48.34084" lon="7.29482">
        <ele>276.935</ele>
        <time>2012-06-02T13:02:17Z</time>
      </trkpt>
      <trkpt lat="48.34108" lon="7.29556">
        <ele>274.924</ele>
        <time>2012-06-02T13:02:26Z</time>
      </trkpt>
      <trkpt lat="48.34127" lon="7.29619">
        <ele>272.043</ele>
        <time>2012-06-02T13:02:33Z</time>
      </trkpt>
      <trkpt lat="48.34144" lon="7.29692">
        <ele>268.982</ele>
        <time>2012-06-02T13:02:40Z</time>
      </trkpt>
      <trkpt lat="48.34142" lon="7.2974">
        <ele>266.592</ele>
        <time>2012-06-02T13:02:44Z</time>
      </trkpt>
      <trkpt lat="48.34127" lon="7.29784">
        <ele>264.842</ele>
        <time>2012-06-02T13:02:48Z</time>
      </trkpt>
      <trkpt lat="48.34122" lon="7.29793">
        <ele>264.572</ele>
        <time>2012-06-02T13:02:49Z</time>
      </trkpt>
      <trkpt lat="48.34085" lon="7.29844">
        <ele>263.323</ele>
        <time>2012-06-02T13:02:55Z</time>
      </trkpt>
      <trkpt lat="48.34069" lon="7.29896">
        <ele>262.383</ele>
        <time>2012-06-02T13:03:00Z</time>
      </trkpt>
      <trkpt lat="48.34076" lon="7.2993">
        <ele>262.103</ele>
        <time>2012-06-02T13:03:03Z</time>
      </trkpt>
      <trkpt lat="48.34086" lon="7.29948">
        <ele>261.824</ele>
        <time>2012-06-02T13:03:05Z</time>
      </trkpt>
      <trkpt lat="48.34135" lon="7.30021">
        <ele>259.124</ele>
        <time>2012-06-02T13:03:14Z</time>
      </trkpt>
      <trkpt lat="48.34148" lon="7.30047">
        <ele>259.234</ele>
        <time>2012-06-02T13:03:17Z</time>
      </trkpt>
      <trkpt lat="48.34164" lon="7.30083">
        <ele>258.413</ele>
        <time>2012-06-02T13:03:21Z</time>
      </trkpt>
      <trkpt lat="48.34169" lon="7.30137">
        <ele>257.464</ele>
        <time>2012-06-02T13:03:26Z</time>
      </trkpt>
      <trkpt lat="48.34176" lon="7.30155">
        <ele>258.505</ele>
        <time>2012-06-02T13:03:28Z</time>
      </trkpt>
      <trkpt lat="48.34191" lon="7.30196">
        <ele>257.095</ele>
        <time>2012-06-02T13:03:33Z</time>
      </trkpt>
      <trkpt lat="48.34206" lon="7.30225">
        <ele>256.295</ele>
        <time>2012-06-02T13:03:37Z</time>
      </trkpt>
      <trkpt lat="48.34216" lon="7.30238">
        <ele>255.854</ele>
        <time>2012-06-02T13:03:39Z</time>
      </trkpt>
      <trkpt lat="48.34248" lon="7.30273">
        <ele>254.864</ele>
        <time>2012-06-02T13:03:45Z</time>
      </trkpt>
      <trkpt lat="48.34264" lon="7.30313">
        <ele>254.334</ele>
        <time>2012-06-02T13:03:50Z</time>
      </trkpt>
      <trkpt lat="48.34276" lon="7.30365">
        <ele>255.965</ele>
        <time>2012-06-02T13:03:56Z</time>
      </trkpt>
      <trkpt lat="48.34293" lon="7.30401">
        <ele>255.565</ele>
        <time>2012-06-02T13:04:01Z</time>
      </trkpt>
      <trkpt lat="48.34309" lon="7.30412">
        <ele>257.788</ele>
        <time>2012-06-02T13:04:04Z</time>
      </trkpt>
      <trkpt lat="48.34345" lon="7.30436">
        <ele>262.759</ele>
        <time>2012-06-02T13:04:11Z</time>
      </trkpt>
      <trkpt lat="48.34378" lon="7.30456">
        <ele>267.8</ele>
        <time>2012-06-02T13:04:18Z</time>
      </trkpt>
      <trkpt lat="48.34406" lon="7.3048">
        <ele>273.629</ele>
        <time>2012-06-02T13:04:25Z</time>
      </trkpt>
      <trkpt lat="48.34409" lon="7.30485">
        <ele>273.338</ele>
        <time>2012-06-02T13:04:26Z</time>
      </trkpt>
      <trkpt lat="48.34417" lon="7.30507">
        <ele>271.236</ele>
        <time>2012-06-02T13:04:29Z</time>
      </trkpt>
      <trkpt lat="48.3441" lon="7.30539">
        <ele>268.565</ele>
        <time>2012-06-02T13:04:33Z</time>
      </trkpt>
      <trkpt lat="48.34372" lon="7.30604">
        <ele>264.658</ele>
        <time>2012-06-02T13:04:42Z</time>
      </trkpt>
      <trkpt lat="48.3434" lon="7.30661">
        <ele>264.125</ele>
        <time>2012-06-02T13:04:50Z</time>
      </trkpt>
      <trkpt lat="48.34313" lon="7.30703">
        <ele>263.462</ele>
        <time>2012-06-02T13:04:57Z</time>
      </trkpt>
      <trkpt lat="48.34292" lon="7.30736">
        <ele>263.315</ele>
        <time>2012-06-02T13:05:04Z</time>
      </trkpt>
      <trkpt lat="48.34284" lon="7.30748">
        <ele>262.562</ele>
        <time>2012-06-02T13:05:09Z</time>
      </trkpt>
      <trkpt lat="48.34278" lon="7.30748">
        <ele>261.466</ele>
        <time>2012-06-02T13:05:14Z</time>
      </trkpt>
      <trkpt lat="48.34277" lon="7.30744">
        <ele>259.916</ele>
        <time>2012-06-02T13:07:05Z</time>
      </trkpt>
      <trkpt lat="48.34274" lon="7.30752">
        <ele>259.846</ele>
        <time>2012-06-02T13:07:11Z</time>
      </trkpt>
      <trkpt lat="48.34273" lon="7.30755">
        <ele>260.677</ele>
        <time>2012-06-02T13:07:17Z</time>
      </trkpt>
      <trkpt lat="48.34273" lon="7.30753">
        <ele>259.956</ele>
        <time>2012-06-02T13:07:41Z</time>
      </trkpt>
      <trkpt lat="48.34279" lon="7.30759">
        <ele>259.976</ele>
        <time>2012-06-02T13:07:46Z</time>
      </trkpt>
      <trkpt lat="48.34284" lon="7.30752">
        <ele>259.395</ele>
        <time>2012-06-02T13:07:49Z</time>
      </trkpt>
      <trkpt lat="48.34301" lon="7.30725">
        <ele>257.936</ele>
        <time>2012-06-02T13:07:57Z</time>
      </trkpt>
      <trkpt lat="48.34321" lon="7.30693">
        <ele>255.513</ele>
        <time>2012-06-02T13:08:03Z</time>
      </trkpt>
      <trkpt lat="48.34345" lon="7.30654">
        <ele>254.215</ele>
        <time>2012-06-02T13:08:10Z</time>
      </trkpt>
      <trkpt lat="48.34371" lon="7.30606">
        <ele>254.196</ele>
        <time>2012-06-02T13:08:17Z</time>
      </trkpt>
      <trkpt lat="48.34394" lon="7.30561">
        <ele>256.366</ele>
        <time>2012-06-02T13:08:24Z</time>
      </trkpt>
      <trkpt lat="48.34417" lon="7.30513">
        <ele>260.388</ele>
        <time>2012-06-02T13:08:32Z</time>
      </trkpt>
      <trkpt lat="48.34436" lon="7.30493">
        <ele>261.257</ele>
        <time>2012-06-02T13:08:37Z</time>
      </trkpt>
      <trkpt lat="48.34453" lon="7.30471">
        <ele>263.008</ele>
        <time>2012-06-02T13:08:42Z</time>
      </trkpt>
      <trkpt lat="48.34477" lon="7.30436">
        <ele>265.978</ele>
        <time>2012-06-02T13:08:50Z</time>
      </trkpt>
      <trkpt lat="48.34499" lon="7.30409">
        <ele>265.236</ele>
        <time>2012-06-02T13:08:57Z</time>
      </trkpt>
      <trkpt lat="48.34517" lon="7.30386">
        <ele>265.307</ele>
        <time>2012-06-02T13:09:04Z</time>
      </trkpt>
      <trkpt lat="48.34527" lon="7.30376">
        <ele>264.647</ele>
        <time>2012-06-02T13:09:10Z</time>
      </trkpt>
      <trkpt lat="48.34531" lon="7.30372">
        <ele>264.486</ele>
        <time>2012-06-02T13:09:15Z</time>
      </trkpt>
      <trkpt lat="48.34533" lon="7.30366">
        <ele>270.446</ele>
        <time>2012-06-02T13:09:46Z</time>
      </trkpt>
      <trkpt lat="48.34528" lon="7.30366">
        <ele>270.286</ele>
        <time>2012-06-02T13:09:50Z</time>
      </trkpt>
      <trkpt lat="48.34515" lon="7.30383">
        <ele>268.494</ele>
        <time>2012-06-02T13:09:55Z</time>
      </trkpt>
      <trkpt lat="48.34493" lon="7.30412">
        <ele>265.942</ele>
        <time>2012-06-02T13:10:01Z</time>
      </trkpt>
      <trkpt lat="48.3447" lon="7.30451">
        <ele>263.391</ele>
        <time>2012-06-02T13:10:06Z</time>
      </trkpt>
      <trkpt lat="48.34438" lon="7.30493">
        <ele>260.471</ele>
        <time>2012-06-02T13:10:12Z</time>
      </trkpt>
      <trkpt lat="48.34426" lon="7.30504">
        <ele>259.353</ele>
        <time>2012-06-02T13:10:16Z</time>
      </trkpt>
      <trkpt lat="48.3443" lon="7.30516">
        <ele>259.856</ele>
        <time>2012-06-02T13:10:19Z</time>
      </trkpt>
      <trkpt lat="48.34448" lon="7.30534">
        <ele>265.711</ele>
        <time>2012-06-02T13:10:27Z</time>
      </trkpt>
      <trkpt lat="48.34457" lon="7.30543">
        <ele>268.89</ele>
        <time>2012-06-02T13:10:33Z</time>
      </trkpt>
      <trkpt lat="48.34466" lon="7.30551">
        <ele>269.349</ele>
        <time>2012-06-02T13:10:38Z</time>
      </trkpt>
      <trkpt lat="48.34481" lon="7.30566">
        <ele>269.258</ele>
        <time>2012-06-02T13:10:44Z</time>
      </trkpt>
      <trkpt lat="48.34483" lon="7.30568">
        <ele>269.398</ele>
        <time>2012-06-02T13:10:45Z</time>
      </trkpt>
      <trkpt lat="48.34491" lon="7.30575">
        <ele>270.518</ele>
        <time>2012-06-02T13:10:51Z</time>
      </trkpt>
      <trkpt lat="48.34492" lon="7.30575">
        <ele>270.628</ele>
        <time>2012-06-02T13:10:52Z</time>
      </trkpt>
      <trkpt lat="48.34504" lon="7.30589">
        <ele>272.258</ele>
        <time>2012-06-02T13:10:59Z</time>
      </trkpt>
      <trkpt lat="48.34513" lon="7.30604">
        <ele>273.327</ele>
        <time>2012-06-02T13:11:05Z</time>
      </trkpt>
      <trkpt lat="48.3453" lon="7.30625">
        <ele>274.388</ele>
        <time>2012-06-02T13:11:13Z</time>
      </trkpt>
      <trkpt lat="48.34544" lon="7.30642">
        <ele>275.508</ele>
        <time>2012-06-02T13:11:20Z</time>
      </trkpt>
      <trkpt lat="48.34565" lon="7.30673">
        <ele>277.016</ele>
        <time>2012-06-02T13:11:30Z</time>
      </trkpt>
      <trkpt lat="48.34584" lon="7.30701">
        <ele>276.186</ele>
        <time>2012-06-02T13:11:38Z</time>
      </trkpt>
      <trkpt lat="48.34604" lon="7.30731">
        <ele>275.466</ele>
        <time>2012-06-02T13:11:46Z</time>
      </trkpt>
      <trkpt lat="48.34629" lon="7.3076">
        <ele>276.567</ele>
        <time>2012-06-02T13:11:55Z</time>
      </trkpt>
      <trkpt lat="48.34661" lon="7.30784">
        <ele>278.688</ele>
        <time>2012-06-02T13:12:05Z</time>
      </trkpt>
      <trkpt lat="48.34688" lon="7.30798">
        <ele>280.097</ele>
        <time>2012-06-02T13:12:12Z</time>
      </trkpt>
      <trkpt lat="48.34702" lon="7.3081">
        <ele>280.137</ele>
        <time>2012-06-02T13:12:16Z</time>
      </trkpt>
      <trkpt lat="48.34728" lon="7.3085">
        <ele>279.955</ele>
        <time>2012-06-02T13:12:24Z</time>
      </trkpt>
      <trkpt lat="48.34752" lon="7.30883">
        <ele>280.146</ele>
        <time>2012-06-02T13:12:30Z</time>
      </trkpt>
      <trkpt lat="48.34765" lon="7.30897">
        <ele>279.525</ele>
        <time>2012-06-02T13:12:35Z</time>
      </trkpt>
      <trkpt lat="48.3477" lon="7.309">
        <ele>279.456</ele>
        <time>2012-06-02T13:12:39Z</time>
      </trkpt>
      <trkpt lat="48.34773" lon="7.30898">
        <ele>279.828</ele>
        <time>2012-06-02T13:12:44Z</time>
      </trkpt>
      <trkpt lat="48.34768" lon="7.30894">
        <ele>279.407</ele>
        <time>2012-06-02T13:12:47Z</time>
      </trkpt>
      <trkpt lat="48.34758" lon="7.30888">
        <ele>279.458</ele>
        <time>2012-06-02T13:12:50Z</time>
      </trkpt>
      <trkpt lat="48.34738" lon="7.30862">
        <ele>279.709</ele>
        <time>2012-06-02T13:12:57Z</time>
      </trkpt>
      <trkpt lat="48.34727" lon="7.30841">
        <ele>280.999</ele>
        <time>2012-06-02T13:13:02Z</time>
      </trkpt>
      <trkpt lat="48.34709" lon="7.30808">
        <ele>283.799</ele>
        <time>2012-06-02T13:13:09Z</time>
      </trkpt>
      <trkpt lat="48.34692" lon="7.30793">
        <ele>283.708</ele>
        <time>2012-06-02T13:13:14Z</time>
      </trkpt>
      <trkpt lat="48.34665" lon="7.30781">
        <ele>283.257</ele>
        <time>2012-06-02T13:13:22Z</time>
      </trkpt>
      <trkpt lat="48.34655" lon="7.30775">
        <ele>282.746</ele>
        <time>2012-06-02T13:13:25Z</time>
      </trkpt>
      <trkpt lat="48.34641" lon="7.30758">
        <ele>281.746</ele>
        <time>2012-06-02T13:13:29Z</time>
      </trkpt>
      <trkpt lat="48.34624" lon="7.30741">
        <ele>280.945</ele>
        <time>2012-06-02T13:13:33Z</time>
      </trkpt>
      <trkpt lat="48.34582" lon="7.30684">
        <ele>280.996</ele>
        <time>2012-06-02T13:13:43Z</time>
      </trkpt>
      <trkpt lat="48.34554" lon="7.30644">
        <ele>280.937</ele>
        <time>2012-06-02T13:13:50Z</time>
      </trkpt>
      <trkpt lat="48.34522" lon="7.30602">
        <ele>277.963</ele>
        <time>2012-06-02T13:13:56Z</time>
      </trkpt>
      <trkpt lat="48.34487" lon="7.30562">
        <ele>274.391</ele>
        <time>2012-06-02T13:14:01Z</time>
      </trkpt>
      <trkpt lat="48.34457" lon="7.30536">
        <ele>270.309</ele>
        <time>2012-06-02T13:14:05Z</time>
      </trkpt>
      <trkpt lat="48.34439" lon="7.30525">
        <ele>267.17</ele>
        <time>2012-06-02T13:14:08Z</time>
      </trkpt>
      <trkpt lat="48.34425" lon="7.3051">
        <ele>262.8</ele>
        <time>2012-06-02T13:14:13Z</time>
      </trkpt>
      <trkpt lat="48.34425" lon="7.30507">
        <ele>263.656</ele>
        <time>2012-06-02T13:14:26Z</time>
      </trkpt>
      <trkpt lat="48.3442" lon="7.30501">
        <ele>264.496</ele>
        <time>2012-06-02T13:14:30Z</time>
      </trkpt>
      <trkpt lat="48.34413" lon="7.30508">
        <ele>266.418</ele>
        <time>2012-06-02T13:14:33Z</time>
      </trkpt>
      <trkpt lat="48.34411" lon="7.30512">
        <ele>266.157</ele>
        <time>2012-06-02T13:14:34Z</time>
      </trkpt>
      <trkpt lat="48.34397" lon="7.30542">
        <ele>261.624</ele>
        <time>2012-06-02T13:14:40Z</time>
      </trkpt>
      <trkpt lat="48.34377" lon="7.30582">
        <ele>258.746</ele>
        <time>2012-06-02T13:14:47Z</time>
      </trkpt>
      <trkpt lat="48.34353" lon="7.3063">
        <ele>259.925</ele>
        <time>2012-06-02T13:14:54Z</time>
      </trkpt>
      <trkpt lat="48.34341" lon="7.30652">
        <ele>259.096</ele>
        <time>2012-06-02T13:14:57Z</time>
      </trkpt>
      <trkpt lat="48.3431" lon="7.30704">
        <ele>259.246</ele>
        <time>2012-06-02T13:15:06Z</time>
      </trkpt>
      <trkpt lat="48.34295" lon="7.30729">
        <ele>259.476</ele>
        <time>2012-06-02T13:15:11Z</time>
      </trkpt>
      <trkpt lat="48.343" lon="7.30747">
        <ele>260.306</ele>
        <time>2012-06-02T13:15:15Z</time>
      </trkpt>
      <trkpt lat="48.34307" lon="7.30757">
        <ele>260.056</ele>
        <time>2012-06-02T13:15:17Z</time>
      </trkpt>
      <trkpt lat="48.34342" lon="7.30791">
        <ele>259.346</ele>
        <time>2012-06-02T13:15:25Z</time>
      </trkpt>
      <trkpt lat="48.34387" lon="7.30817">
        <ele>258.907</ele>
        <time>2012-06-02T13:15:34Z</time>
      </trkpt>
      <trkpt lat="48.34431" lon="7.30844">
        <ele>259.516</ele>
        <time>2012-06-02T13:15:43Z</time>
      </trkpt>
      <trkpt lat="48.34464" lon="7.30863">
        <ele>259.627</ele>
        <time>2012-06-02T13:15:50Z</time>
      </trkpt>
      <trkpt lat="48.34513" lon="7.30891">
        <ele>260.537</ele>
        <time>2012-06-02T13:16:00Z</time>
      </trkpt>
      <trkpt lat="48.34547" lon="7.30912">
        <ele>262.889</ele>
        <time>2012-06-02T13:16:07Z</time>
      </trkpt>
      <trkpt lat="48.34576" lon="7.3094">
        <ele>265.55</ele>
        <time>2012-06-02T13:16:14Z</time>
      </trkpt>
      <trkpt lat="48.34601" lon="7.30969">
        <ele>267.079</ele>
        <time>2012-06-02T13:16:20Z</time>
      </trkpt>
      <trkpt lat="48.34639" lon="7.31004">
        <ele>267.957</ele>
        <time>2012-06-02T13:16:29Z</time>
      </trkpt>
      <trkpt lat="48.34674" lon="7.31022">
        <ele>267.586</ele>
        <time>2012-06-02T13:16:37Z</time>
      </trkpt>
      <trkpt lat="48.34711" lon="7.31037">
        <ele>268.538</ele>
        <time>2012-06-02T13:16:45Z</time>
      </trkpt>
      <trkpt lat="48.34747" lon="7.3105">
        <ele>269.907</ele>
        <time>2012-06-02T13:16:53Z</time>
      </trkpt>
      <trkpt lat="48.34792" lon="7.31059">
        <ele>269.757</ele>
        <time>2012-06-02T13:17:03Z</time>
      </trkpt>
      <trkpt lat="48.34833" lon="7.31061">
        <ele>269.237</ele>
        <time>2012-06-02T13:17:12Z</time>
      </trkpt>
      <trkpt lat="48.3489" lon="7.31057">
        <ele>269.067</ele>
        <time>2012-06-02T13:17:24Z</time>
      </trkpt>
      <trkpt lat="48.34928" lon="7.31063">
        <ele>269.837</ele>
        <time>2012-06-02T13:17:32Z</time>
      </trkpt>
      <trkpt lat="48.34957" lon="7.31075">
        <ele>272.888</ele>
        <time>2012-06-02T13:17:39Z</time>
      </trkpt>
      <trkpt lat="48.34999" lon="7.31105">
        <ele>274.067</ele>
        <time>2012-06-02T13:17:49Z</time>
      </trkpt>
      <trkpt lat="48.3504" lon="7.31137">
        <ele>275.688</ele>
        <time>2012-06-02T13:17:58Z</time>
      </trkpt>
      <trkpt lat="48.35083" lon="7.31162">
        <ele>277.078</ele>
        <time>2012-06-02T13:18:07Z</time>
      </trkpt>
      <trkpt lat="48.35131" lon="7.31188">
        <ele>278.717</ele>
        <time>2012-06-02T13:18:17Z</time>
      </trkpt>
      <trkpt lat="48.35188" lon="7.3122">
        <ele>280.327</ele>
        <time>2012-06-02T13:18:29Z</time>
      </trkpt>
      <trkpt lat="48.35225" lon="7.31243">
        <ele>281.878</ele>
        <time>2012-06-02T13:18:37Z</time>
      </trkpt>
      <trkpt lat="48.35251" lon="7.31261">
        <ele>283.068</ele>
        <time>2012-06-02T13:18:43Z</time>
      </trkpt>
      <trkpt lat="48.35286" lon="7.31288">
        <ele>283.827</ele>
        <time>2012-06-02T13:18:51Z</time>
      </trkpt>
      <trkpt lat="48.35303" lon="7.31305">
        <ele>283.677</ele>
        <time>2012-06-02T13:18:55Z</time>
      </trkpt>
      <trkpt lat="48.35331" lon="7.3134">
        <ele>283.577</ele>
        <time>2012-06-02T13:19:02Z</time>
      </trkpt>
      <trkpt lat="48.35356" lon="7.31397">
        <ele>284.818</ele>
        <time>2012-06-02T13:19:11Z</time>
      </trkpt>
      <trkpt lat="48.35377" lon="7.31454">
        <ele>285.677</ele>
        <time>2012-06-02T13:19:20Z</time>
      </trkpt>
      <trkpt lat="48.35399" lon="7.31517">
        <ele>286.008</ele>
        <time>2012-06-02T13:19:30Z</time>
      </trkpt>
      <trkpt lat="48.35424" lon="7.31575">
        <ele>286.628</ele>
        <time>2012-06-02T13:19:39Z</time>
      </trkpt>
      <trkpt lat="48.35455" lon="7.31634">
        <ele>287.328</ele>
        <time>2012-06-02T13:19:49Z</time>
      </trkpt>
      <trkpt lat="48.35476" lon="7.31675">
        <ele>288.068</ele>
        <time>2012-06-02T13:19:56Z</time>
      </trkpt>
      <trkpt lat="48.3549" lon="7.31696">
        <ele>288.588</ele>
        <time>2012-06-02T13:20:00Z</time>
      </trkpt>
      <trkpt lat="48.35529" lon="7.31728">
        <ele>288.907</ele>
        <time>2012-06-02T13:20:09Z</time>
      </trkpt>
      <trkpt lat="48.3556" lon="7.3175">
        <ele>289.88</ele>
        <time>2012-06-02T13:20:16Z</time>
      </trkpt>
      <trkpt lat="48.35576" lon="7.31767">
        <ele>290.569</ele>
        <time>2012-06-02T13:20:20Z</time>
      </trkpt>
      <trkpt lat="48.35599" lon="7.31797">
        <ele>291.798</ele>
        <time>2012-06-02T13:20:27Z</time>
      </trkpt>
      <trkpt lat="48.35621" lon="7.31819">
        <ele>291.518</ele>
        <time>2012-06-02T13:20:34Z</time>
      </trkpt>
      <trkpt lat="48.35642" lon="7.31831">
        <ele>295.029</ele>
        <time>2012-06-02T13:20:40Z</time>
      </trkpt>
      <trkpt lat="48.35668" lon="7.31854">
        <ele>294.627</ele>
        <time>2012-06-02T13:20:48Z</time>
      </trkpt>
      <trkpt lat="48.35667" lon="7.31871">
        <ele>294.577</ele>
        <time>2012-06-02T13:20:52Z</time>
      </trkpt>
      <trkpt lat="48.35662" lon="7.3188">
        <ele>294.448</ele>
        <time>2012-06-02T13:20:55Z</time>
      </trkpt>
      <trkpt lat="48.35648" lon="7.31904">
        <ele>297.109</ele>
        <time>2012-06-02T13:21:03Z</time>
      </trkpt>
      <trkpt lat="48.35638" lon="7.31935">
        <ele>297.919</ele>
        <time>2012-06-02T13:21:11Z</time>
      </trkpt>
      <trkpt lat="48.35632" lon="7.31977">
        <ele>302.739</ele>
        <time>2012-06-02T13:21:22Z</time>
      </trkpt>
      <trkpt lat="48.35629" lon="7.32014">
        <ele>304.338</ele>
        <time>2012-06-02T13:21:31Z</time>
      </trkpt>
      <trkpt lat="48.35626" lon="7.3205">
        <ele>304.678</ele>
        <time>2012-06-02T13:21:38Z</time>
      </trkpt>
      <trkpt lat="48.35621" lon="7.32089">
        <ele>305.459</ele>
        <time>2012-06-02T13:21:45Z</time>
      </trkpt>
      <trkpt lat="48.35616" lon="7.32117">
        <ele>305.088</ele>
        <time>2012-06-02T13:21:51Z</time>
      </trkpt>
      <trkpt lat="48.35608" lon="7.32149">
        <ele>305.738</ele>
        <time>2012-06-02T13:21:58Z</time>
      </trkpt>
      <trkpt lat="48.35599" lon="7.3218">
        <ele>306.929</ele>
        <time>2012-06-02T13:22:05Z</time>
      </trkpt>
      <trkpt lat="48.35587" lon="7.32214">
        <ele>308.219</ele>
        <time>2012-06-02T13:22:13Z</time>
      </trkpt>
      <trkpt lat="48.35569" lon="7.32256">
        <ele>309.298</ele>
        <time>2012-06-02T13:22:23Z</time>
      </trkpt>
      <trkpt lat="48.35549" lon="7.32291">
        <ele>310.198</ele>
        <time>2012-06-02T13:22:32Z</time>
      </trkpt>
      <trkpt lat="48.35528" lon="7.32316">
        <ele>310.298</ele>
        <time>2012-06-02T13:22:39Z</time>
      </trkpt>
      <trkpt lat="48.3549" lon="7.32348">
        <ele>312.118</ele>
        <time>2012-06-02T13:22:48Z</time>
      </trkpt>
      <trkpt lat="48.35446" lon="7.32377">
        <ele>312.838</ele>
        <time>2012-06-02T13:22:58Z</time>
      </trkpt>
      <trkpt lat="48.35407" lon="7.32399">
        <ele>313.636</ele>
        <time>2012-06-02T13:23:07Z</time>
      </trkpt>
      <trkpt lat="48.35378" lon="7.32416">
        <ele>314.647</ele>
        <time>2012-06-02T13:23:15Z</time>
      </trkpt>
      <trkpt lat="48.35348" lon="7.32431">
        <ele>314.797</ele>
        <time>2012-06-02T13:23:25Z</time>
      </trkpt>
      <trkpt lat="48.3532" lon="7.32447">
        <ele>315.227</ele>
        <time>2012-06-02T13:23:35Z</time>
      </trkpt>
      <trkpt lat="48.35292" lon="7.32469">
        <ele>318.669</ele>
        <time>2012-06-02T13:23:46Z</time>
      </trkpt>
      <trkpt lat="48.35271" lon="7.32488">
        <ele>321.507</ele>
        <time>2012-06-02T13:23:54Z</time>
      </trkpt>
      <trkpt lat="48.35246" lon="7.32514">
        <ele>322.896</ele>
        <time>2012-06-02T13:24:04Z</time>
      </trkpt>
      <trkpt lat="48.35227" lon="7.32533">
        <ele>326.677</ele>
        <time>2012-06-02T13:24:11Z</time>
      </trkpt>
      <trkpt lat="48.35207" lon="7.32556">
        <ele>328.107</ele>
        <time>2012-06-02T13:24:19Z</time>
      </trkpt>
      <trkpt lat="48.35186" lon="7.32582">
        <ele>329.137</ele>
        <time>2012-06-02T13:24:28Z</time>
      </trkpt>
      <trkpt lat="48.35167" lon="7.32602">
        <ele>330.187</ele>
        <time>2012-06-02T13:24:35Z</time>
      </trkpt>
      <trkpt lat="48.35153" lon="7.3262">
        <ele>331.918</ele>
        <time>2012-06-02T13:24:41Z</time>
      </trkpt>
      <trkpt lat="48.35134" lon="7.32651">
        <ele>335.248</ele>
        <time>2012-06-02T13:24:49Z</time>
      </trkpt>
      <trkpt lat="48.35112" lon="7.32678">
        <ele>334.757</ele>
        <time>2012-06-02T13:24:57Z</time>
      </trkpt>
      <trkpt lat="48.35087" lon="7.3271">
        <ele>330.916</ele>
        <time>2012-06-02T13:25:07Z</time>
      </trkpt>
      <trkpt lat="48.35071" lon="7.32736">
        <ele>332.846</ele>
        <time>2012-06-02T13:25:14Z</time>
      </trkpt>
      <trkpt lat="48.35059" lon="7.32758">
        <ele>333.597</ele>
        <time>2012-06-02T13:25:20Z</time>
      </trkpt>
      <trkpt lat="48.35047" lon="7.32789">
        <ele>334.158</ele>
        <time>2012-06-02T13:25:28Z</time>
      </trkpt>
      <trkpt lat="48.35036" lon="7.3283">
        <ele>335.068</ele>
        <time>2012-06-02T13:25:38Z</time>
      </trkpt>
      <trkpt lat="48.35029" lon="7.32865">
        <ele>335.908</ele>
        <time>2012-06-02T13:25:46Z</time>
      </trkpt>
      <trkpt lat="48.35024" lon="7.32899">
        <ele>338.138</ele>
        <time>2012-06-02T13:25:54Z</time>
      </trkpt>
      <trkpt lat="48.35019" lon="7.32938">
        <ele>340.808</ele>
        <time>2012-06-02T13:26:03Z</time>
      </trkpt>
      <trkpt lat="48.35015" lon="7.32973">
        <ele>342.077</ele>
        <time>2012-06-02T13:26:11Z</time>
      </trkpt>
      <trkpt lat="48.35011" lon="7.33004">
        <ele>343.587</ele>
        <time>2012-06-02T13:26:18Z</time>
      </trkpt>
      <trkpt lat="48.35007" lon="7.33043">
        <ele>344.947</ele>
        <time>2012-06-02T13:26:27Z</time>
      </trkpt>
      <trkpt lat="48.35003" lon="7.33079">
        <ele>346.478</ele>
        <time>2012-06-02T13:26:35Z</time>
      </trkpt>
      <trkpt lat="48.35001" lon="7.3311">
        <ele>350.109</ele>
        <time>2012-06-02T13:26:42Z</time>
      </trkpt>
      <trkpt lat="48.34995" lon="7.33155">
        <ele>351.638</ele>
        <time>2012-06-02T13:26:52Z</time>
      </trkpt>
      <trkpt lat="48.34988" lon="7.33199">
        <ele>353.338</ele>
        <time>2012-06-02T13:27:02Z</time>
      </trkpt>
      <trkpt lat="48.34984" lon="7.33232">
        <ele>354.823</ele>
        <time>2012-06-02T13:27:11Z</time>
      </trkpt>
      <trkpt lat="48.3498" lon="7.33266">
        <ele>356.538</ele>
        <time>2012-06-02T13:27:20Z</time>
      </trkpt>
      <trkpt lat="48.34979" lon="7.33297">
        <ele>358.728</ele>
        <time>2012-06-02T13:27:29Z</time>
      </trkpt>
      <trkpt lat="48.34977" lon="7.33327">
        <ele>359.347</ele>
        <time>2012-06-02T13:27:38Z</time>
      </trkpt>
      <trkpt lat="48.34976" lon="7.33354">
        <ele>359.647</ele>
        <time>2012-06-02T13:27:46Z</time>
      </trkpt>
      <trkpt lat="48.34975" lon="7.33383">
        <ele>360.927</ele>
        <time>2012-06-02T13:27:54Z</time>
      </trkpt>
      <trkpt lat="48.34974" lon="7.3341">
        <ele>361.957</ele>
        <time>2012-06-02T13:28:02Z</time>
      </trkpt>
      <trkpt lat="48.34975" lon="7.33434">
        <ele>361.836</ele>
        <time>2012-06-02T13:28:09Z</time>
      </trkpt>
      <trkpt lat="48.34978" lon="7.33461">
        <ele>362.436</ele>
        <time>2012-06-02T13:28:17Z</time>
      </trkpt>
      <trkpt lat="48.34982" lon="7.33491">
        <ele>364.367</ele>
        <time>2012-06-02T13:28:26Z</time>
      </trkpt>
      <trkpt lat="48.34985" lon="7.33514">
        <ele>365.747</ele>
        <time>2012-06-02T13:28:33Z</time>
      </trkpt>
      <trkpt lat="48.34991" lon="7.33543">
        <ele>367.296</ele>
        <time>2012-06-02T13:28:42Z</time>
      </trkpt>
      <trkpt lat="48.34991" lon="7.3355">
        <ele>367.306</ele>
        <time>2012-06-02T13:28:45Z</time>
      </trkpt>
      <trkpt lat="48.34995" lon="7.3357">
        <ele>369.047</ele>
        <time>2012-06-02T13:28:52Z</time>
      </trkpt>
      <trkpt lat="48.34998" lon="7.3359">
        <ele>369.507</ele>
        <time>2012-06-02T13:28:59Z</time>
      </trkpt>
      <trkpt lat="48.35002" lon="7.33604">
        <ele>370.487</ele>
        <time>2012-06-02T13:29:04Z</time>
      </trkpt>
      <trkpt lat="48.35004" lon="7.3361">
        <ele>371.037</ele>
        <time>2012-06-02T13:29:06Z</time>
      </trkpt>
      <trkpt lat="48.35009" lon="7.33631">
        <ele>372.017</ele>
        <time>2012-06-02T13:29:12Z</time>
      </trkpt>
      <trkpt lat="48.35018" lon="7.33663">
        <ele>373.687</ele>
        <time>2012-06-02T13:29:20Z</time>
      </trkpt>
      <trkpt lat="48.35025" lon="7.33684">
        <ele>375.567</ele>
        <time>2012-06-02T13:29:26Z</time>
      </trkpt>
      <trkpt lat="48.35029" lon="7.33701">
        <ele>376.597</ele>
        <time>2012-06-02T13:29:32Z</time>
      </trkpt>
      <trkpt lat="48.35032" lon="7.33717">
        <ele>377.236</ele>
        <time>2012-06-02T13:29:38Z</time>
      </trkpt>
      <trkpt lat="48.35036" lon="7.33736">
        <ele>377.356</ele>
        <time>2012-06-02T13:29:46Z</time>
      </trkpt>
      <trkpt lat="48.35038" lon="7.33761">
        <ele>377.877</ele>
        <time>2012-06-02T13:29:55Z</time>
      </trkpt>
      <trkpt lat="48.35039" lon="7.33781">
        <ele>379.037</ele>
        <time>2012-06-02T13:30:02Z</time>
      </trkpt>
      <trkpt lat="48.35041" lon="7.33803">
        <ele>380.137</ele>
        <time>2012-06-02T13:30:10Z</time>
      </trkpt>
      <trkpt lat="48.35043" lon="7.3383">
        <ele>381.377</ele>
        <time>2012-06-02T13:30:19Z</time>
      </trkpt>
      <trkpt lat="48.35046" lon="7.33845">
        <ele>383.287</ele>
        <time>2012-06-02T13:30:26Z</time>
      </trkpt>
      <trkpt lat="48.35047" lon="7.33849">
        <ele>383.856</ele>
        <time>2012-06-02T13:30:29Z</time>
      </trkpt>
      <trkpt lat="48.35048" lon="7.33859">
        <ele>384.506</ele>
        <time>2012-06-02T13:30:35Z</time>
      </trkpt>
      <trkpt lat="48.35048" lon="7.33863">
        <ele>385.077</ele>
        <time>2012-06-02T13:30:37Z</time>
      </trkpt>
      <trkpt lat="48.35051" lon="7.33857">
        <ele>385.335</ele>
        <time>2012-06-02T13:30:41Z</time>
      </trkpt>
      <trkpt lat="48.3506" lon="7.33857">
        <ele>385.065</ele>
        <time>2012-06-02T13:30:44Z</time>
      </trkpt>
      <trkpt lat="48.35082" lon="7.3387">
        <ele>385.086</ele>
        <time>2012-06-02T13:30:50Z</time>
      </trkpt>
      <trkpt lat="48.35095" lon="7.33864">
        <ele>385.706</ele>
        <time>2012-06-02T13:30:54Z</time>
      </trkpt>
      <trkpt lat="48.35114" lon="7.3385">
        <ele>389.728</ele>
        <time>2012-06-02T13:31:00Z</time>
      </trkpt>
      <trkpt lat="48.35134" lon="7.33841">
        <ele>393.599</ele>
        <time>2012-06-02T13:31:05Z</time>
      </trkpt>
      <trkpt lat="48.35151" lon="7.33842">
        <ele>395.089</ele>
        <time>2012-06-02T13:31:09Z</time>
      </trkpt>
      <trkpt lat="48.35169" lon="7.33847">
        <ele>395.377</ele>
        <time>2012-06-02T13:31:14Z</time>
      </trkpt>
      <trkpt lat="48.35174" lon="7.33846">
        <ele>396.108</ele>
        <time>2012-06-02T13:31:15Z</time>
      </trkpt>
      <trkpt lat="48.35187" lon="7.33843">
        <ele>397.818</ele>
        <time>2012-06-02T13:31:18Z</time>
      </trkpt>
      <trkpt lat="48.35205" lon="7.3383">
        <ele>399.509</ele>
        <time>2012-06-02T13:31:22Z</time>
      </trkpt>
      <trkpt lat="48.35228" lon="7.33804">
        <ele>406.232</ele>
        <time>2012-06-02T13:31:28Z</time>
      </trkpt>
      <trkpt lat="48.35263" lon="7.33786">
        <ele>408.51</ele>
        <time>2012-06-02T13:31:35Z</time>
      </trkpt>
      <trkpt lat="48.35282" lon="7.33784">
        <ele>411.091</ele>
        <time>2012-06-02T13:31:39Z</time>
      </trkpt>
      <trkpt lat="48.35286" lon="7.33785">
        <ele>411.421</ele>
        <time>2012-06-02T13:31:40Z</time>
      </trkpt>
      <trkpt lat="48.35305" lon="7.33798">
        <ele>412.509</ele>
        <time>2012-06-02T13:31:45Z</time>
      </trkpt>
      <trkpt lat="48.35322" lon="7.33818">
        <ele>413.999</ele>
        <time>2012-06-02T13:31:50Z</time>
      </trkpt>
      <trkpt lat="48.35339" lon="7.33846">
        <ele>409.157</ele>
        <time>2012-06-02T13:31:56Z</time>
      </trkpt>
      <trkpt lat="48.35347" lon="7.33864">
        <ele>402.785</ele>
        <time>2012-06-02T13:32:00Z</time>
      </trkpt>
      <trkpt lat="48.35357" lon="7.33884">
        <ele>399.294</ele>
        <time>2012-06-02T13:32:06Z</time>
      </trkpt>
      <trkpt lat="48.35367" lon="7.33908">
        <ele>396.795</ele>
        <time>2012-06-02T13:32:13Z</time>
      </trkpt>
      <trkpt lat="48.35374" lon="7.33924">
        <ele>398.056</ele>
        <time>2012-06-02T13:32:19Z</time>
      </trkpt>
      <trkpt lat="48.35385" lon="7.33937">
        <ele>401.308</ele>
        <time>2012-06-02T13:32:25Z</time>
      </trkpt>
      <trkpt lat="48.35399" lon="7.33947">
        <ele>406.029</ele>
        <time>2012-06-02T13:32:30Z</time>
      </trkpt>
      <trkpt lat="48.35413" lon="7.33959">
        <ele>415.121</ele>
        <time>2012-06-02T13:32:37Z</time>
      </trkpt>
      <trkpt lat="48.35425" lon="7.33976">
        <ele>411.827</ele>
        <time>2012-06-02T13:32:42Z</time>
      </trkpt>
      <trkpt lat="48.3544" lon="7.33997">
        <ele>414.508</ele>
        <time>2012-06-02T13:32:49Z</time>
      </trkpt>
      <trkpt lat="48.35454" lon="7.3402">
        <ele>412.216</ele>
        <time>2012-06-02T13:32:56Z</time>
      </trkpt>
      <trkpt lat="48.35465" lon="7.34044">
        <ele>410.396</ele>
        <time>2012-06-02T13:33:04Z</time>
      </trkpt>
      <trkpt lat="48.35471" lon="7.34065">
        <ele>407.935</ele>
        <time>2012-06-02T13:33:12Z</time>
      </trkpt>
      <trkpt lat="48.35473" lon="7.34075">
        <ele>409.666</ele>
        <time>2012-06-02T13:33:16Z</time>
      </trkpt>
      <trkpt lat="48.35482" lon="7.34096">
        <ele>418.699</ele>
        <time>2012-06-02T13:33:24Z</time>
      </trkpt>
      <trkpt lat="48.3549" lon="7.34104">
        <ele>423.49</ele>
        <time>2012-06-02T13:33:29Z</time>
      </trkpt>
      <trkpt lat="48.35501" lon="7.3411">
        <ele>427.39</ele>
        <time>2012-06-02T13:33:34Z</time>
      </trkpt>
      <trkpt lat="48.35513" lon="7.34115">
        <ele>431.02</ele>
        <time>2012-06-02T13:33:40Z</time>
      </trkpt>
      <trkpt lat="48.35527" lon="7.34123">
        <ele>430.97</ele>
        <time>2012-06-02T13:33:46Z</time>
      </trkpt>
      <trkpt lat="48.3554" lon="7.34127">
        <ele>434.931</ele>
        <time>2012-06-02T13:33:52Z</time>
      </trkpt>
      <trkpt lat="48.35552" lon="7.34132">
        <ele>437.51</ele>
        <time>2012-06-02T13:33:58Z</time>
      </trkpt>
      <trkpt lat="48.35564" lon="7.3414">
        <ele>438.359</ele>
        <time>2012-06-02T13:34:04Z</time>
      </trkpt>
      <trkpt lat="48.35577" lon="7.34151">
        <ele>439.219</ele>
        <time>2012-06-02T13:34:11Z</time>
      </trkpt>
      <trkpt lat="48.35589" lon="7.34171">
        <ele>432.487</ele>
        <time>2012-06-02T13:34:17Z</time>
      </trkpt>
      <trkpt lat="48.35601" lon="7.34185">
        <ele>432.816</ele>
        <time>2012-06-02T13:34:23Z</time>
      </trkpt>
      <trkpt lat="48.35611" lon="7.342">
        <ele>435.077</ele>
        <time>2012-06-02T13:34:29Z</time>
      </trkpt>
      <trkpt lat="48.35619" lon="7.34214">
        <ele>430.214</ele>
        <time>2012-06-02T13:34:34Z</time>
      </trkpt>
      <trkpt lat="48.35624" lon="7.34219">
        <ele>429.925</ele>
        <time>2012-06-02T13:34:36Z</time>
      </trkpt>
      <trkpt lat="48.35637" lon="7.34218">
        <ele>431.017</ele>
        <time>2012-06-02T13:34:41Z</time>
      </trkpt>
      <trkpt lat="48.35642" lon="7.34215">
        <ele>432.778</ele>
        <time>2012-06-02T13:34:43Z</time>
      </trkpt>
      <trkpt lat="48.35658" lon="7.34199">
        <ele>439.991</ele>
        <time>2012-06-02T13:34:50Z</time>
      </trkpt>
      <trkpt lat="48.35669" lon="7.34186">
        <ele>448.033</ele>
        <time>2012-06-02T13:34:56Z</time>
      </trkpt>
      <trkpt lat="48.35682" lon="7.3417">
        <ele>449.91</ele>
        <time>2012-06-02T13:35:03Z</time>
      </trkpt>
      <trkpt lat="48.35685" lon="7.34153">
        <ele>454.96</ele>
        <time>2012-06-02T13:35:10Z</time>
      </trkpt>
      <trkpt lat="48.35687" lon="7.34144">
        <ele>453.168</ele>
        <time>2012-06-02T13:35:15Z</time>
      </trkpt>
      <trkpt lat="48.35686" lon="7.34142">
        <ele>453.108</ele>
        <time>2012-06-02T13:35:16Z</time>
      </trkpt>
      <trkpt lat="48.35689" lon="7.34122">
        <ele>453.578</ele>
        <time>2012-06-02T13:35:24Z</time>
      </trkpt>
      <trkpt lat="48.35697" lon="7.34099">
        <ele>455.908</ele>
        <time>2012-06-02T13:35:31Z</time>
      </trkpt>
      <trkpt lat="48.35703" lon="7.34085">
        <ele>455.047</ele>
        <time>2012-06-02T13:35:36Z</time>
      </trkpt>
      <trkpt lat="48.35711" lon="7.34071">
        <ele>454.877</ele>
        <time>2012-06-02T13:35:42Z</time>
      </trkpt>
      <trkpt lat="48.3572" lon="7.34068">
        <ele>454.777</ele>
        <time>2012-06-02T13:35:47Z</time>
      </trkpt>
      <trkpt lat="48.35734" lon="7.34066">
        <ele>454.047</ele>
        <time>2012-06-02T13:35:52Z</time>
      </trkpt>
      <trkpt lat="48.35745" lon="7.34063">
        <ele>454.428</ele>
        <time>2012-06-02T13:35:58Z</time>
      </trkpt>
      <trkpt lat="48.35752" lon="7.34053">
        <ele>456.337</ele>
        <time>2012-06-02T13:36:03Z</time>
      </trkpt>
      <trkpt lat="48.35762" lon="7.34037">
        <ele>457.658</ele>
        <time>2012-06-02T13:36:09Z</time>
      </trkpt>
      <trkpt lat="48.35768" lon="7.34029">
        <ele>456.697</ele>
        <time>2012-06-02T13:36:14Z</time>
      </trkpt>
      <trkpt lat="48.35779" lon="7.34017">
        <ele>456.097</ele>
        <time>2012-06-02T13:36:21Z</time>
      </trkpt>
      <trkpt lat="48.35788" lon="7.34028">
        <ele>456.448</ele>
        <time>2012-06-02T13:36:26Z</time>
      </trkpt>
      <trkpt lat="48.35791" lon="7.34046">
        <ele>457.788</ele>
        <time>2012-06-02T13:36:30Z</time>
      </trkpt>
      <trkpt lat="48.35793" lon="7.34068">
        <ele>458.457</ele>
        <time>2012-06-02T13:36:36Z</time>
      </trkpt>
      <trkpt lat="48.35793" lon="7.34073">
        <ele>461.079</ele>
        <time>2012-06-02T13:36:39Z</time>
      </trkpt>
      <trkpt lat="48.35795" lon="7.34088">
        <ele>463.509</ele>
        <time>2012-06-02T13:36:46Z</time>
      </trkpt>
      <trkpt lat="48.35798" lon="7.34104">
        <ele>461.196</ele>
        <time>2012-06-02T13:36:52Z</time>
      </trkpt>
      <trkpt lat="48.35805" lon="7.34121">
        <ele>456.704</ele>
        <time>2012-06-02T13:37:00Z</time>
      </trkpt>
      <trkpt lat="48.35812" lon="7.34133">
        <ele>457.776</ele>
        <time>2012-06-02T13:37:08Z</time>
      </trkpt>
      <trkpt lat="48.35821" lon="7.34147">
        <ele>455.484</ele>
        <time>2012-06-02T13:37:15Z</time>
      </trkpt>
      <trkpt lat="48.35829" lon="7.34164">
        <ele>453.904</ele>
        <time>2012-06-02T13:37:22Z</time>
      </trkpt>
      <trkpt lat="48.35837" lon="7.34174">
        <ele>454.315</ele>
        <time>2012-06-02T13:37:27Z</time>
      </trkpt>
      <trkpt lat="48.35845" lon="7.34192">
        <ele>453.414</ele>
        <time>2012-06-02T13:37:34Z</time>
      </trkpt>
      <trkpt lat="48.3585" lon="7.34207">
        <ele>455.806</ele>
        <time>2012-06-02T13:37:40Z</time>
      </trkpt>
      <trkpt lat="48.35856" lon="7.34224">
        <ele>460.828</ele>
        <time>2012-06-02T13:37:46Z</time>
      </trkpt>
      <trkpt lat="48.35859" lon="7.34251">
        <ele>467.409</ele>
        <time>2012-06-02T13:37:52Z</time>
      </trkpt>
      <trkpt lat="48.35859" lon="7.34276">
        <ele>471.3</ele>
        <time>2012-06-02T13:37:57Z</time>
      </trkpt>
      <trkpt lat="48.35856" lon="7.34297">
        <ele>478.042</ele>
        <time>2012-06-02T13:38:02Z</time>
      </trkpt>
      <trkpt lat="48.35852" lon="7.3433">
        <ele>477.258</ele>
        <time>2012-06-02T13:38:09Z</time>
      </trkpt>
      <trkpt lat="48.35844" lon="7.34365">
        <ele>477.107</ele>
        <time>2012-06-02T13:38:16Z</time>
      </trkpt>
      <trkpt lat="48.35834" lon="7.34398">
        <ele>476.468</ele>
        <time>2012-06-02T13:38:23Z</time>
      </trkpt>
      <trkpt lat="48.35829" lon="7.34432">
        <ele>473.575</ele>
        <time>2012-06-02T13:38:29Z</time>
      </trkpt>
      <trkpt lat="48.35827" lon="7.34464">
        <ele>474.597</ele>
        <time>2012-06-02T13:38:35Z</time>
      </trkpt>
      <trkpt lat="48.35822" lon="7.34489">
        <ele>482.419</ele>
        <time>2012-06-02T13:38:40Z</time>
      </trkpt>
      <trkpt lat="48.35823" lon="7.34511">
        <ele>480.696</ele>
        <time>2012-06-02T13:38:44Z</time>
      </trkpt>
      <trkpt lat="48.3582" lon="7.34534">
        <ele>482.198</ele>
        <time>2012-06-02T13:38:48Z</time>
      </trkpt>
      <trkpt lat="48.35812" lon="7.34552">
        <ele>479.235</ele>
        <time>2012-06-02T13:38:52Z</time>
      </trkpt>
      <trkpt lat="48.35794" lon="7.34563">
        <ele>478.876</ele>
        <time>2012-06-02T13:38:57Z</time>
      </trkpt>
      <trkpt lat="48.35777" lon="7.34573">
        <ele>480.286</ele>
        <time>2012-06-02T13:39:02Z</time>
      </trkpt>
      <trkpt lat="48.35761" lon="7.34599">
        <ele>477.645</ele>
        <time>2012-06-02T13:39:08Z</time>
      </trkpt>
      <trkpt lat="48.35745" lon="7.34632">
        <ele>478.047</ele>
        <time>2012-06-02T13:39:15Z</time>
      </trkpt>
      <trkpt lat="48.35731" lon="7.34657">
        <ele>481.879</ele>
        <time>2012-06-02T13:39:21Z</time>
      </trkpt>
      <trkpt lat="48.35714" lon="7.34679">
        <ele>486.029</ele>
        <time>2012-06-02T13:39:28Z</time>
      </trkpt>
      <trkpt lat="48.35698" lon="7.34694">
        <ele>486.917</ele>
        <time>2012-06-02T13:39:34Z</time>
      </trkpt>
      <trkpt lat="48.35687" lon="7.34705">
        <ele>488.117</ele>
        <time>2012-06-02T13:39:37Z</time>
      </trkpt>
      <trkpt lat="48.3566" lon="7.34724">
        <ele>497.16</ele>
        <time>2012-06-02T13:39:42Z</time>
      </trkpt>
      <trkpt lat="48.35629" lon="7.34745">
        <ele>501.28</ele>
        <time>2012-06-02T13:39:48Z</time>
      </trkpt>
      <trkpt lat="48.35616" lon="7.34757">
        <ele>498.907</ele>
        <time>2012-06-02T13:39:51Z</time>
      </trkpt>
      <trkpt lat="48.35602" lon="7.34768">
        <ele>493.803</ele>
        <time>2012-06-02T13:39:54Z</time>
      </trkpt>
      <trkpt lat="48.35593" lon="7.34772">
        <ele>491.622</ele>
        <time>2012-06-02T13:39:56Z</time>
      </trkpt>
      <trkpt lat="48.35563" lon="7.34785">
        <ele>488.332</ele>
        <time>2012-06-02T13:40:02Z</time>
      </trkpt>
      <trkpt lat="48.35535" lon="7.34798">
        <ele>494.917</ele>
        <time>2012-06-02T13:40:07Z</time>
      </trkpt>
      <trkpt lat="48.3553" lon="7.348">
        <ele>496.378</ele>
        <time>2012-06-02T13:40:08Z</time>
      </trkpt>
      <trkpt lat="48.35516" lon="7.34823">
        <ele>492.924</ele>
        <time>2012-06-02T13:40:12Z</time>
      </trkpt>
      <trkpt lat="48.35508" lon="7.34861">
        <ele>487.532</ele>
        <time>2012-06-02T13:40:17Z</time>
      </trkpt>
      <trkpt lat="48.35505" lon="7.34878">
        <ele>486.292</ele>
        <time>2012-06-02T13:40:19Z</time>
      </trkpt>
      <trkpt lat="48.355" lon="7.34894">
        <ele>485.702</ele>
        <time>2012-06-02T13:40:21Z</time>
      </trkpt>
      <trkpt lat="48.3549" lon="7.34915">
        <ele>483.502</ele>
        <time>2012-06-02T13:40:24Z</time>
      </trkpt>
      <trkpt lat="48.35482" lon="7.34926">
        <ele>483.364</ele>
        <time>2012-06-02T13:40:26Z</time>
      </trkpt>
      <trkpt lat="48.35468" lon="7.34956">
        <ele>481.973</ele>
        <time>2012-06-02T13:40:31Z</time>
      </trkpt>
      <trkpt lat="48.35468" lon="7.34971">
        <ele>479.102</ele>
        <time>2012-06-02T13:40:34Z</time>
      </trkpt>
      <trkpt lat="48.3547" lon="7.3499">
        <ele>482.255</ele>
        <time>2012-06-02T13:40:40Z</time>
      </trkpt>
      <trkpt lat="48.35473" lon="7.35008">
        <ele>484.197</ele>
        <time>2012-06-02T13:40:46Z</time>
      </trkpt>
      <trkpt lat="48.35482" lon="7.3503">
        <ele>483.807</ele>
        <time>2012-06-02T13:40:53Z</time>
      </trkpt>
      <trkpt lat="48.35489" lon="7.35051">
        <ele>482.926</ele>
        <time>2012-06-02T13:40:58Z</time>
      </trkpt>
      <trkpt lat="48.35494" lon="7.35074">
        <ele>484.327</ele>
        <time>2012-06-02T13:41:04Z</time>
      </trkpt>
      <trkpt lat="48.35494" lon="7.35081">
        <ele>484.998</ele>
        <time>2012-06-02T13:41:06Z</time>
      </trkpt>
      <trkpt lat="48.3549" lon="7.35099">
        <ele>485.997</ele>
        <time>2012-06-02T13:41:13Z</time>
      </trkpt>
      <trkpt lat="48.3548" lon="7.35123">
        <ele>495.551</ele>
        <time>2012-06-02T13:41:21Z</time>
      </trkpt>
      <trkpt lat="48.35474" lon="7.35137">
        <ele>503.192</ele>
        <time>2012-06-02T13:41:27Z</time>
      </trkpt>
      <trkpt lat="48.35467" lon="7.3515">
        <ele>504.949</ele>
        <time>2012-06-02T13:41:34Z</time>
      </trkpt>
      <trkpt lat="48.35461" lon="7.35156">
        <ele>507.359</ele>
        <time>2012-06-02T13:41:39Z</time>
      </trkpt>
      <trkpt lat="48.35453" lon="7.35165">
        <ele>509.207</ele>
        <time>2012-06-02T13:41:45Z</time>
      </trkpt>
      <trkpt lat="48.35445" lon="7.35174">
        <ele>513.368</ele>
        <time>2012-06-02T13:41:51Z</time>
      </trkpt>
      <trkpt lat="48.35438" lon="7.3518">
        <ele>517.228</ele>
        <time>2012-06-02T13:41:56Z</time>
      </trkpt>
      <trkpt lat="48.35428" lon="7.35193">
        <ele>522.77</ele>
        <time>2012-06-02T13:42:03Z</time>
      </trkpt>
      <trkpt lat="48.35429" lon="7.35208">
        <ele>520.986</ele>
        <time>2012-06-02T13:43:11Z</time>
      </trkpt>
      <trkpt lat="48.35428" lon="7.35209">
        <ele>521.085</ele>
        <time>2012-06-02T13:43:12Z</time>
      </trkpt>
      <trkpt lat="48.35421" lon="7.3522">
        <ele>522.937</ele>
        <time>2012-06-02T13:43:19Z</time>
      </trkpt>
      <trkpt lat="48.35416" lon="7.35228">
        <ele>525.558</ele>
        <time>2012-06-02T13:43:23Z</time>
      </trkpt>
      <trkpt lat="48.35407" lon="7.35239">
        <ele>529.839</ele>
        <time>2012-06-02T13:43:30Z</time>
      </trkpt>
      <trkpt lat="48.35399" lon="7.35255">
        <ele>536.61</ele>
        <time>2012-06-02T13:43:38Z</time>
      </trkpt>
      <trkpt lat="48.35393" lon="7.35264">
        <ele>537.278</ele>
        <time>2012-06-02T13:43:44Z</time>
      </trkpt>
      <trkpt lat="48.35387" lon="7.35277">
        <ele>540.078</ele>
        <time>2012-06-02T13:43:50Z</time>
      </trkpt>
      <trkpt lat="48.35379" lon="7.35296">
        <ele>543.86</ele>
        <time>2012-06-02T13:43:57Z</time>
      </trkpt>
      <trkpt lat="48.35378" lon="7.35299">
        <ele>544.92</ele>
        <time>2012-06-02T13:43:58Z</time>
      </trkpt>
      <trkpt lat="48.35376" lon="7.35316">
        <ele>545.569</ele>
        <time>2012-06-02T13:44:04Z</time>
      </trkpt>
      <trkpt lat="48.35369" lon="7.35337">
        <ele>550.19</ele>
        <time>2012-06-02T13:44:10Z</time>
      </trkpt>
      <trkpt lat="48.35366" lon="7.35349">
        <ele>552.34</ele>
        <time>2012-06-02T13:44:15Z</time>
      </trkpt>
      <trkpt lat="48.35363" lon="7.35372">
        <ele>548.578</ele>
        <time>2012-06-02T13:44:21Z</time>
      </trkpt>
      <trkpt lat="48.35363" lon="7.35376">
        <ele>547.587</ele>
        <time>2012-06-02T13:44:22Z</time>
      </trkpt>
      <trkpt lat="48.35353" lon="7.35394">
        <ele>545.564</ele>
        <time>2012-06-02T13:44:29Z</time>
      </trkpt>
      <trkpt lat="48.35341" lon="7.35402">
        <ele>543.272</ele>
        <time>2012-06-02T13:44:35Z</time>
      </trkpt>
      <trkpt lat="48.35325" lon="7.35407">
        <ele>541.954</ele>
        <time>2012-06-02T13:44:42Z</time>
      </trkpt>
      <trkpt lat="48.35317" lon="7.35422">
        <ele>540.974</ele>
        <time>2012-06-02T13:44:48Z</time>
      </trkpt>
      <trkpt lat="48.35314" lon="7.35443">
        <ele>542.317</ele>
        <time>2012-06-02T13:44:54Z</time>
      </trkpt>
      <trkpt lat="48.35313" lon="7.35466">
        <ele>543.327</ele>
        <time>2012-06-02T13:45:02Z</time>
      </trkpt>
      <trkpt lat="48.35317" lon="7.35487">
        <ele>536.455</ele>
        <time>2012-06-02T13:45:10Z</time>
      </trkpt>
      <trkpt lat="48.35317" lon="7.35505">
        <ele>531.153</ele>
        <time>2012-06-02T13:45:16Z</time>
      </trkpt>
      <trkpt lat="48.35315" lon="7.3552">
        <ele>529.574</ele>
        <time>2012-06-02T13:45:22Z</time>
      </trkpt>
      <trkpt lat="48.35311" lon="7.35537">
        <ele>524.082</ele>
        <time>2012-06-02T13:45:29Z</time>
      </trkpt>
      <trkpt lat="48.35305" lon="7.35557">
        <ele>520.693</ele>
        <time>2012-06-02T13:45:35Z</time>
      </trkpt>
      <trkpt lat="48.35301" lon="7.35574">
        <ele>520.505</ele>
        <time>2012-06-02T13:45:40Z</time>
      </trkpt>
      <trkpt lat="48.353" lon="7.35589">
        <ele>520.715</ele>
        <time>2012-06-02T13:45:44Z</time>
      </trkpt>
      <trkpt lat="48.353" lon="7.35594">
        <ele>520.754</ele>
        <time>2012-06-02T13:45:45Z</time>
      </trkpt>
      <trkpt lat="48.35304" lon="7.35622">
        <ele>525.377</ele>
        <time>2012-06-02T13:45:52Z</time>
      </trkpt>
      <trkpt lat="48.35308" lon="7.35645">
        <ele>533.278</ele>
        <time>2012-06-02T13:45:58Z</time>
      </trkpt>
      <trkpt lat="48.35312" lon="7.35668">
        <ele>538.178</ele>
        <time>2012-06-02T13:46:04Z</time>
      </trkpt>
      <trkpt lat="48.35317" lon="7.35708">
        <ele>537.926</ele>
        <time>2012-06-02T13:46:13Z</time>
      </trkpt>
      <trkpt lat="48.35319" lon="7.35728">
        <ele>536.545</ele>
        <time>2012-06-02T13:46:18Z</time>
      </trkpt>
      <trkpt lat="48.35322" lon="7.35755">
        <ele>535.624</ele>
        <time>2012-06-02T13:46:24Z</time>
      </trkpt>
      <trkpt lat="48.35326" lon="7.35783">
        <ele>534.835</ele>
        <time>2012-06-02T13:46:31Z</time>
      </trkpt>
      <trkpt lat="48.35329" lon="7.35803">
        <ele>533.605</ele>
        <time>2012-06-02T13:46:36Z</time>
      </trkpt>
      <trkpt lat="48.35333" lon="7.35821">
        <ele>534.286</ele>
        <time>2012-06-02T13:46:41Z</time>
      </trkpt>
      <trkpt lat="48.35336" lon="7.3584">
        <ele>535.625</ele>
        <time>2012-06-02T13:46:48Z</time>
      </trkpt>
      <trkpt lat="48.35344" lon="7.35863">
        <ele>535.665</ele>
        <time>2012-06-02T13:46:54Z</time>
      </trkpt>
      <trkpt lat="48.3535" lon="7.3587">
        <ele>538.416</ele>
        <time>2012-06-02T13:46:58Z</time>
      </trkpt>
      <trkpt lat="48.35363" lon="7.35881">
        <ele>538.184</ele>
        <time>2012-06-02T13:47:04Z</time>
      </trkpt>
      <trkpt lat="48.3538" lon="7.35886">
        <ele>535.49</ele>
        <time>2012-06-02T13:47:09Z</time>
      </trkpt>
      <trkpt lat="48.35409" lon="7.35896">
        <ele>529.846</ele>
        <time>2012-06-02T13:47:15Z</time>
      </trkpt>
      <trkpt lat="48.35414" lon="7.35898">
        <ele>529.396</ele>
        <time>2012-06-02T13:47:16Z</time>
      </trkpt>
      <trkpt lat="48.35425" lon="7.35921">
        <ele>534.301</ele>
        <time>2012-06-02T13:47:20Z</time>
      </trkpt>
      <trkpt lat="48.35423" lon="7.35937">
        <ele>538.004</ele>
        <time>2012-06-02T13:47:22Z</time>
      </trkpt>
      <trkpt lat="48.35415" lon="7.35983">
        <ele>543.278</ele>
        <time>2012-06-02T13:47:26Z</time>
      </trkpt>
      <trkpt lat="48.35396" lon="7.36022">
        <ele>546.108</ele>
        <time>2012-06-02T13:47:31Z</time>
      </trkpt>
      <trkpt lat="48.35351" lon="7.36066">
        <ele>554.021</ele>
        <time>2012-06-02T13:47:38Z</time>
      </trkpt>
      <trkpt lat="48.35329" lon="7.36101">
        <ele>558.362</ele>
        <time>2012-06-02T13:47:42Z</time>
      </trkpt>
      <trkpt lat="48.35304" lon="7.36165">
        <ele>556.978</ele>
        <time>2012-06-02T13:47:48Z</time>
      </trkpt>
      <trkpt lat="48.35301" lon="7.36188">
        <ele>556.038</ele>
        <time>2012-06-02T13:47:50Z</time>
      </trkpt>
      <trkpt lat="48.35298" lon="7.36255">
        <ele>552.936</ele>
        <time>2012-06-02T13:47:55Z</time>
      </trkpt>
      <trkpt lat="48.35295" lon="7.36282">
        <ele>550.434</ele>
        <time>2012-06-02T13:47:57Z</time>
      </trkpt>
      <trkpt lat="48.35275" lon="7.3634">
        <ele>541.861</ele>
        <time>2012-06-02T13:48:02Z</time>
      </trkpt>
      <trkpt lat="48.35259" lon="7.36396">
        <ele>535.892</ele>
        <time>2012-06-02T13:48:07Z</time>
      </trkpt>
      <trkpt lat="48.35254" lon="7.36467">
        <ele>532.972</ele>
        <time>2012-06-02T13:48:13Z</time>
      </trkpt>
      <trkpt lat="48.35252" lon="7.36478">
        <ele>532.331</ele>
        <time>2012-06-02T13:48:14Z</time>
      </trkpt>
      <trkpt lat="48.35244" lon="7.36512">
        <ele>528.66</ele>
        <time>2012-06-02T13:48:17Z</time>
      </trkpt>
      <trkpt lat="48.3524" lon="7.3657">
        <ele>527.292</ele>
        <time>2012-06-02T13:48:22Z</time>
      </trkpt>
      <trkpt lat="48.35245" lon="7.36593">
        <ele>524.581</ele>
        <time>2012-06-02T13:48:24Z</time>
      </trkpt>
      <trkpt lat="48.35262" lon="7.36628">
        <ele>520.419</ele>
        <time>2012-06-02T13:48:28Z</time>
      </trkpt>
      <trkpt lat="48.35298" lon="7.36654">
        <ele>513.988</ele>
        <time>2012-06-02T13:48:34Z</time>
      </trkpt>
      <trkpt lat="48.35309" lon="7.36687">
        <ele>515.57</ele>
        <time>2012-06-02T13:48:38Z</time>
      </trkpt>
      <trkpt lat="48.35312" lon="7.36732">
        <ele>520.594</ele>
        <time>2012-06-02T13:48:42Z</time>
      </trkpt>
      <trkpt lat="48.35323" lon="7.36798">
        <ele>520.814</ele>
        <time>2012-06-02T13:48:48Z</time>
      </trkpt>
      <trkpt lat="48.35333" lon="7.36855">
        <ele>516.671</ele>
        <time>2012-06-02T13:48:53Z</time>
      </trkpt>
      <trkpt lat="48.35342" lon="7.36893">
        <ele>511.378</ele>
        <time>2012-06-02T13:48:57Z</time>
      </trkpt>
      <trkpt lat="48.35348" lon="7.36914">
        <ele>509.299</ele>
        <time>2012-06-02T13:49:00Z</time>
      </trkpt>
      <trkpt lat="48.35355" lon="7.36941">
        <ele>504.486</ele>
        <time>2012-06-02T13:49:03Z</time>
      </trkpt>
      <trkpt lat="48.35377" lon="7.37028">
        <ele>494.165</ele>
        <time>2012-06-02T13:49:11Z</time>
      </trkpt>
      <trkpt lat="48.35383" lon="7.37078">
        <ele>493.197</ele>
        <time>2012-06-02T13:49:15Z</time>
      </trkpt>
      <trkpt lat="48.35399" lon="7.37137">
        <ele>488.137</ele>
        <time>2012-06-02T13:49:20Z</time>
      </trkpt>
      <trkpt lat="48.35409" lon="7.37175">
        <ele>485.337</ele>
        <time>2012-06-02T13:49:23Z</time>
      </trkpt>
      <trkpt lat="48.35418" lon="7.37242">
        <ele>484.79</ele>
        <time>2012-06-02T13:49:28Z</time>
      </trkpt>
      <trkpt lat="48.35421" lon="7.37304">
        <ele>483.511</ele>
        <time>2012-06-02T13:49:33Z</time>
      </trkpt>
      <trkpt lat="48.35408" lon="7.37332">
        <ele>485.545</ele>
        <time>2012-06-02T13:49:37Z</time>
      </trkpt>
      <trkpt lat="48.35389" lon="7.37332">
        <ele>485.536</ele>
        <time>2012-06-02T13:49:40Z</time>
      </trkpt>
      <trkpt lat="48.35382" lon="7.37328">
        <ele>486.286</ele>
        <time>2012-06-02T13:49:41Z</time>
      </trkpt>
      <trkpt lat="48.35346" lon="7.37306">
        <ele>483.385</ele>
        <time>2012-06-02T13:49:46Z</time>
      </trkpt>
      <trkpt lat="48.35326" lon="7.37298">
        <ele>481.614</ele>
        <time>2012-06-02T13:49:50Z</time>
      </trkpt>
      <trkpt lat="48.35305" lon="7.37306">
        <ele>475.771</ele>
        <time>2012-06-02T13:49:55Z</time>
      </trkpt>
      <trkpt lat="48.35298" lon="7.37334">
        <ele>471.75</ele>
        <time>2012-06-02T13:49:58Z</time>
      </trkpt>
      <trkpt lat="48.35305" lon="7.37358">
        <ele>468.299</ele>
        <time>2012-06-02T13:50:00Z</time>
      </trkpt>
      <trkpt lat="48.35317" lon="7.37399">
        <ele>463.668</ele>
        <time>2012-06-02T13:50:04Z</time>
      </trkpt>
      <trkpt lat="48.35325" lon="7.37446">
        <ele>458.726</ele>
        <time>2012-06-02T13:50:08Z</time>
      </trkpt>
      <trkpt lat="48.35348" lon="7.37511">
        <ele>452.246</ele>
        <time>2012-06-02T13:50:13Z</time>
      </trkpt>
      <trkpt lat="48.35382" lon="7.37583">
        <ele>446.387</ele>
        <time>2012-06-02T13:50:18Z</time>
      </trkpt>
      <trkpt lat="48.35417" lon="7.37655">
        <ele>440.617</ele>
        <time>2012-06-02T13:50:23Z</time>
      </trkpt>
      <trkpt lat="48.35432" lon="7.37692">
        <ele>437.007</ele>
        <time>2012-06-02T13:50:26Z</time>
      </trkpt>
      <trkpt lat="48.35444" lon="7.37745">
        <ele>433.718</ele>
        <time>2012-06-02T13:50:30Z</time>
      </trkpt>
      <trkpt lat="48.3545" lon="7.37799">
        <ele>429.888</ele>
        <time>2012-06-02T13:50:35Z</time>
      </trkpt>
      <trkpt lat="48.35451" lon="7.37811">
        <ele>429.058</ele>
        <time>2012-06-02T13:50:36Z</time>
      </trkpt>
      <trkpt lat="48.35444" lon="7.37845">
        <ele>427.708</ele>
        <time>2012-06-02T13:50:40Z</time>
      </trkpt>
      <trkpt lat="48.35438" lon="7.37859">
        <ele>425.679</ele>
        <time>2012-06-02T13:50:43Z</time>
      </trkpt>
      <trkpt lat="48.35417" lon="7.37882">
        <ele>425.581</ele>
        <time>2012-06-02T13:50:48Z</time>
      </trkpt>
      <trkpt lat="48.35385" lon="7.37908">
        <ele>423.942</ele>
        <time>2012-06-02T13:50:54Z</time>
      </trkpt>
      <trkpt lat="48.35361" lon="7.37923">
        <ele>424.453</ele>
        <time>2012-06-02T13:50:58Z</time>
      </trkpt>
      <trkpt lat="48.35336" lon="7.37956">
        <ele>419.782</ele>
        <time>2012-06-02T13:51:04Z</time>
      </trkpt>
      <trkpt lat="48.35325" lon="7.37971">
        <ele>418.242</ele>
        <time>2012-06-02T13:51:07Z</time>
      </trkpt>
      <trkpt lat="48.35298" lon="7.38015">
        <ele>416.213</ele>
        <time>2012-06-02T13:51:15Z</time>
      </trkpt>
      <trkpt lat="48.35284" lon="7.38046">
        <ele>417.274</ele>
        <time>2012-06-02T13:51:21Z</time>
      </trkpt>
      <trkpt lat="48.3528" lon="7.38055">
        <ele>417.214</ele>
        <time>2012-06-02T13:51:23Z</time>
      </trkpt>
      <trkpt lat="48.35268" lon="7.38095">
        <ele>419.847</ele>
        <time>2012-06-02T13:51:29Z</time>
      </trkpt>
      <trkpt lat="48.35265" lon="7.38112">
        <ele>419.136</ele>
        <time>2012-06-02T13:51:31Z</time>
      </trkpt>
      <trkpt lat="48.35256" lon="7.38151">
        <ele>421.867</ele>
        <time>2012-06-02T13:51:36Z</time>
      </trkpt>
      <trkpt lat="48.35251" lon="7.38223">
        <ele>424.846</ele>
        <time>2012-06-02T13:51:44Z</time>
      </trkpt>
      <trkpt lat="48.35249" lon="7.38263">
        <ele>422.743</ele>
        <time>2012-06-02T13:51:48Z</time>
      </trkpt>
      <trkpt lat="48.3525" lon="7.38293">
        <ele>423.734</ele>
        <time>2012-06-02T13:51:51Z</time>
      </trkpt>
      <trkpt lat="48.35249" lon="7.38348">
        <ele>421.983</ele>
        <time>2012-06-02T13:51:56Z</time>
      </trkpt>
      <trkpt lat="48.35241" lon="7.38409">
        <ele>420.573</ele>
        <time>2012-06-02T13:52:01Z</time>
      </trkpt>
      <trkpt lat="48.35239" lon="7.38466">
        <ele>417.762</ele>
        <time>2012-06-02T13:52:05Z</time>
      </trkpt>
      <trkpt lat="48.35231" lon="7.38538">
        <ele>416.163</ele>
        <time>2012-06-02T13:52:10Z</time>
      </trkpt>
      <trkpt lat="48.3523" lon="7.38612">
        <ele>414.103</ele>
        <time>2012-06-02T13:52:15Z</time>
      </trkpt>
      <trkpt lat="48.35229" lon="7.38638">
        <ele>412.142</ele>
        <time>2012-06-02T13:52:17Z</time>
      </trkpt>
      <trkpt lat="48.35225" lon="7.38699">
        <ele>411.572</ele>
        <time>2012-06-02T13:52:22Z</time>
      </trkpt>
      <trkpt lat="48.35226" lon="7.38784">
        <ele>410.953</ele>
        <time>2012-06-02T13:52:28Z</time>
      </trkpt>
      <trkpt lat="48.35225" lon="7.38798">
        <ele>410.112</ele>
        <time>2012-06-02T13:52:29Z</time>
      </trkpt>
      <trkpt lat="48.35235" lon="7.38891">
        <ele>406.262</ele>
        <time>2012-06-02T13:52:35Z</time>
      </trkpt>
      <trkpt lat="48.35234" lon="7.38932">
        <ele>400.058</ele>
        <time>2012-06-02T13:52:38Z</time>
      </trkpt>
      <trkpt lat="48.3522" lon="7.38982">
        <ele>395.472</ele>
        <time>2012-06-02T13:52:43Z</time>
      </trkpt>
      <trkpt lat="48.35215" lon="7.38991">
        <ele>393.958</ele>
        <time>2012-06-02T13:52:44Z</time>
      </trkpt>
      <trkpt lat="48.35199" lon="7.39014">
        <ele>391.288</ele>
        <time>2012-06-02T13:52:47Z</time>
      </trkpt>
      <trkpt lat="48.35168" lon="7.39053">
        <ele>385.917</ele>
        <time>2012-06-02T13:52:52Z</time>
      </trkpt>
      <trkpt lat="48.35156" lon="7.39097">
        <ele>381.889</ele>
        <time>2012-06-02T13:52:57Z</time>
      </trkpt>
      <trkpt lat="48.35157" lon="7.39107">
        <ele>381.869</ele>
        <time>2012-06-02T13:52:58Z</time>
      </trkpt>
      <trkpt lat="48.35161" lon="7.39149">
        <ele>381.761</ele>
        <time>2012-06-02T13:53:02Z</time>
      </trkpt>
      <trkpt lat="48.35164" lon="7.39191">
        <ele>381.043</ele>
        <time>2012-06-02T13:53:07Z</time>
      </trkpt>
      <trkpt lat="48.35165" lon="7.39216">
        <ele>378.102</ele>
        <time>2012-06-02T13:53:12Z</time>
      </trkpt>
      <trkpt lat="48.35174" lon="7.39217">
        <ele>377.543</ele>
        <time>2012-06-02T13:53:17Z</time>
      </trkpt>
      <trkpt lat="48.35176" lon="7.39214">
        <ele>377.275</ele>
        <time>2012-06-02T13:53:18Z</time>
      </trkpt>
      <trkpt lat="48.35187" lon="7.39183">
        <ele>380.997</ele>
        <time>2012-06-02T13:53:25Z</time>
      </trkpt>
      <trkpt lat="48.35189" lon="7.39178">
        <ele>382.178</ele>
        <time>2012-06-02T13:53:26Z</time>
      </trkpt>
      <trkpt lat="48.35204" lon="7.39147">
        <ele>386.131</ele>
        <time>2012-06-02T13:53:31Z</time>
      </trkpt>
      <trkpt lat="48.35212" lon="7.39133">
        <ele>389.262</ele>
        <time>2012-06-02T13:53:33Z</time>
      </trkpt>
      <trkpt lat="48.35249" lon="7.39085">
        <ele>386.556</ele>
        <time>2012-06-02T13:53:39Z</time>
      </trkpt>
      <trkpt lat="48.35267" lon="7.39047">
        <ele>382.984</ele>
        <time>2012-06-02T13:53:42Z</time>
      </trkpt>
      <trkpt lat="48.35294" lon="7.38958">
        <ele>377.151</ele>
        <time>2012-06-02T13:53:48Z</time>
      </trkpt>
      <trkpt lat="48.35328" lon="7.38888">
        <ele>374.402</ele>
        <time>2012-06-02T13:53:53Z</time>
      </trkpt>
      <trkpt lat="48.35373" lon="7.38824">
        <ele>369.4</ele>
        <time>2012-06-02T13:53:58Z</time>
      </trkpt>
      <trkpt lat="48.35391" lon="7.38805">
        <ele>366.349</ele>
        <time>2012-06-02T13:54:00Z</time>
      </trkpt>
      <trkpt lat="48.35418" lon="7.38794">
        <ele>362.198</ele>
        <time>2012-06-02T13:54:03Z</time>
      </trkpt>
      <trkpt lat="48.3544" lon="7.38808">
        <ele>359.388</ele>
        <time>2012-06-02T13:54:05Z</time>
      </trkpt>
      <trkpt lat="48.35451" lon="7.3885">
        <ele>356.798</ele>
        <time>2012-06-02T13:54:08Z</time>
      </trkpt>
      <trkpt lat="48.35444" lon="7.38886">
        <ele>354.908</ele>
        <time>2012-06-02T13:54:10Z</time>
      </trkpt>
      <trkpt lat="48.35445" lon="7.38966">
        <ele>345.056</ele>
        <time>2012-06-02T13:54:15Z</time>
      </trkpt>
      <trkpt lat="48.35464" lon="7.39062">
        <ele>338.109</ele>
        <time>2012-06-02T13:54:21Z</time>
      </trkpt>
      <trkpt lat="48.35484" lon="7.39157">
        <ele>332.799</ele>
        <time>2012-06-02T13:54:27Z</time>
      </trkpt>
      <trkpt lat="48.35507" lon="7.39237">
        <ele>328.96</ele>
        <time>2012-06-02T13:54:32Z</time>
      </trkpt>
      <trkpt lat="48.35532" lon="7.39311">
        <ele>325.62</ele>
        <time>2012-06-02T13:54:37Z</time>
      </trkpt>
      <trkpt lat="48.35536" lon="7.39325">
        <ele>325.79</ele>
        <time>2012-06-02T13:54:38Z</time>
      </trkpt>
      <trkpt lat="48.35571" lon="7.39345">
        <ele>325.112</ele>
        <time>2012-06-02T13:54:42Z</time>
      </trkpt>
      <trkpt lat="48.35584" lon="7.39324">
        <ele>324.381</ele>
        <time>2012-06-02T13:54:44Z</time>
      </trkpt>
      <trkpt lat="48.35593" lon="7.39298">
        <ele>322.731</ele>
        <time>2012-06-02T13:54:46Z</time>
      </trkpt>
      <trkpt lat="48.35596" lon="7.39278">
        <ele>324.802</ele>
        <time>2012-06-02T13:54:47Z</time>
      </trkpt>
      <trkpt lat="48.35613" lon="7.39221">
        <ele>327.195</ele>
        <time>2012-06-02T13:54:51Z</time>
      </trkpt>
      <trkpt lat="48.35655" lon="7.39219">
        <ele>325.193</ele>
        <time>2012-06-02T13:54:55Z</time>
      </trkpt>
      <trkpt lat="48.35665" lon="7.39246">
        <ele>323.172</ele>
        <time>2012-06-02T13:54:57Z</time>
      </trkpt>
      <trkpt lat="48.35668" lon="7.39262">
        <ele>322.432</ele>
        <time>2012-06-02T13:54:58Z</time>
      </trkpt>
      <trkpt lat="48.35689" lon="7.39362">
        <ele>320.672</ele>
        <time>2012-06-02T13:55:05Z</time>
      </trkpt>
      <trkpt lat="48.35698" lon="7.39415">
        <ele>318.061</ele>
        <time>2012-06-02T13:55:09Z</time>
      </trkpt>
      <trkpt lat="48.35698" lon="7.39484">
        <ele>313.282</ele>
        <time>2012-06-02T13:55:14Z</time>
      </trkpt>
      <trkpt lat="48.35713" lon="7.39576">
        <ele>309.322</ele>
        <time>2012-06-02T13:55:21Z</time>
      </trkpt>
      <trkpt lat="48.35739" lon="7.39673">
        <ele>306.782</ele>
        <time>2012-06-02T13:55:28Z</time>
      </trkpt>
      <trkpt lat="48.35776" lon="7.39803">
        <ele>302.912</ele>
        <time>2012-06-02T13:55:37Z</time>
      </trkpt>
      <trkpt lat="48.35806" lon="7.39901">
        <ele>300.081</ele>
        <time>2012-06-02T13:55:44Z</time>
      </trkpt>
      <trkpt lat="48.35834" lon="7.39944">
        <ele>298.652</ele>
        <time>2012-06-02T13:55:48Z</time>
      </trkpt>
      <trkpt lat="48.35863" lon="7.39958">
        <ele>296.701</ele>
        <time>2012-06-02T13:55:51Z</time>
      </trkpt>
      <trkpt lat="48.35912" lon="7.39989">
        <ele>293.411</ele>
        <time>2012-06-02T13:55:56Z</time>
      </trkpt>
      <trkpt lat="48.35924" lon="7.40016">
        <ele>292.231</ele>
        <time>2012-06-02T13:55:58Z</time>
      </trkpt>
      <trkpt lat="48.35966" lon="7.40165">
        <ele>286.461</ele>
        <time>2012-06-02T13:56:08Z</time>
      </trkpt>
      <trkpt lat="48.35991" lon="7.40276">
        <ele>282.351</ele>
        <time>2012-06-02T13:56:15Z</time>
      </trkpt>
      <trkpt lat="48.36024" lon="7.40427">
        <ele>276.631</ele>
        <time>2012-06-02T13:56:24Z</time>
      </trkpt>
      <trkpt lat="48.36053" lon="7.40548">
        <ele>271.991</ele>
        <time>2012-06-02T13:56:31Z</time>
      </trkpt>
      <trkpt lat="48.36084" lon="7.40651">
        <ele>268.311</ele>
        <time>2012-06-02T13:56:37Z</time>
      </trkpt>
      <trkpt lat="48.36127" lon="7.40746">
        <ele>263.746</ele>
        <time>2012-06-02T13:56:43Z</time>
      </trkpt>
      <trkpt lat="48.36183" lon="7.40846">
        <ele>256.999</ele>
        <time>2012-06-02T13:56:50Z</time>
      </trkpt>
      <trkpt lat="48.36192" lon="7.40859">
        <ele>256.029</ele>
        <time>2012-06-02T13:56:51Z</time>
      </trkpt>
      <trkpt lat="48.36235" lon="7.40895">
        <ele>252.5</ele>
        <time>2012-06-02T13:56:55Z</time>
      </trkpt>
      <trkpt lat="48.36246" lon="7.40901">
        <ele>251.36</ele>
        <time>2012-06-02T13:56:56Z</time>
      </trkpt>
      <trkpt lat="48.36268" lon="7.4091">
        <ele>249.36</ele>
        <time>2012-06-02T13:56:58Z</time>
      </trkpt>
      <trkpt lat="48.36306" lon="7.40945">
        <ele>246.731</ele>
        <time>2012-06-02T13:57:02Z</time>
      </trkpt>
      <trkpt lat="48.36323" lon="7.40985">
        <ele>246.384</ele>
        <time>2012-06-02T13:57:05Z</time>
      </trkpt>
      <trkpt lat="48.36327" lon="7.40999">
        <ele>246.965</ele>
        <time>2012-06-02T13:57:06Z</time>
      </trkpt>
      <trkpt lat="48.3635" lon="7.4106">
        <ele>248.116</ele>
        <time>2012-06-02T13:57:11Z</time>
      </trkpt>
      <trkpt lat="48.36399" lon="7.41152">
        <ele>248.186</ele>
        <time>2012-06-02T13:57:20Z</time>
      </trkpt>
      <trkpt lat="48.36441" lon="7.41241">
        <ele>247.035</ele>
        <time>2012-06-02T13:57:29Z</time>
      </trkpt>
      <trkpt lat="48.3647" lon="7.41296">
        <ele>246.316</ele>
        <time>2012-06-02T13:57:35Z</time>
      </trkpt>
      <trkpt lat="48.36501" lon="7.41329">
        <ele>247.526</ele>
        <time>2012-06-02T13:57:40Z</time>
      </trkpt>
      <trkpt lat="48.36551" lon="7.4136">
        <ele>249.907</ele>
        <time>2012-06-02T13:57:47Z</time>
      </trkpt>
      <trkpt lat="48.36589" lon="7.41394">
        <ele>252.468</ele>
        <time>2012-06-02T13:57:53Z</time>
      </trkpt>
      <trkpt lat="48.36604" lon="7.41416">
        <ele>253.208</ele>
        <time>2012-06-02T13:57:56Z</time>
      </trkpt>
      <trkpt lat="48.36623" lon="7.41472">
        <ele>251.856</ele>
        <time>2012-06-02T13:58:02Z</time>
      </trkpt>
      <trkpt lat="48.36628" lon="7.41528">
        <ele>250.146</ele>
        <time>2012-06-02T13:58:07Z</time>
      </trkpt>
      <trkpt lat="48.36631" lon="7.41658">
        <ele>247.046</ele>
        <time>2012-06-02T13:58:18Z</time>
      </trkpt>
      <trkpt lat="48.36622" lon="7.4172">
        <ele>252.76</ele>
        <time>2012-06-02T13:58:23Z</time>
      </trkpt>
      <trkpt lat="48.3662" lon="7.41783">
        <ele>255.92</ele>
        <time>2012-06-02T13:58:28Z</time>
      </trkpt>
      <trkpt lat="48.36631" lon="7.41857">
        <ele>253.466</ele>
        <time>2012-06-02T13:58:34Z</time>
      </trkpt>
      <trkpt lat="48.36651" lon="7.41927">
        <ele>251.507</ele>
        <time>2012-06-02T13:58:41Z</time>
      </trkpt>
      <trkpt lat="48.36675" lon="7.41985">
        <ele>249.277</ele>
        <time>2012-06-02T13:58:48Z</time>
      </trkpt>
      <trkpt lat="48.36697" lon="7.42028">
        <ele>248.048</ele>
        <time>2012-06-02T13:58:55Z</time>
      </trkpt>
      <trkpt lat="48.36716" lon="7.42062">
        <ele>248.497</ele>
        <time>2012-06-02T13:59:02Z</time>
      </trkpt>
      <trkpt lat="48.36738" lon="7.42107">
        <ele>248.727</ele>
        <time>2012-06-02T13:59:11Z</time>
      </trkpt>
      <trkpt lat="48.36764" lon="7.42168">
        <ele>252.109</ele>
        <time>2012-06-02T13:59:23Z</time>
      </trkpt>
      <trkpt lat="48.36776" lon="7.42222">
        <ele>254.398</ele>
        <time>2012-06-02T13:59:32Z</time>
      </trkpt>
      <trkpt lat="48.36783" lon="7.42278">
        <ele>253.448</ele>
        <time>2012-06-02T13:59:42Z</time>
      </trkpt>
      <trkpt lat="48.36788" lon="7.42336">
        <ele>251.697</ele>
        <time>2012-06-02T13:59:52Z</time>
      </trkpt>
      <trkpt lat="48.36801" lon="7.42408">
        <ele>252.048</ele>
        <time>2012-06-02T14:00:04Z</time>
      </trkpt>
      <trkpt lat="48.36816" lon="7.42454">
        <ele>253.709</ele>
        <time>2012-06-02T14:00:13Z</time>
      </trkpt>
      <trkpt lat="48.36835" lon="7.42505">
        <ele>256.219</ele>
        <time>2012-06-02T14:00:23Z</time>
      </trkpt>
      <trkpt lat="48.36857" lon="7.42563">
        <ele>259.4</ele>
        <time>2012-06-02T14:00:34Z</time>
      </trkpt>
      <trkpt lat="48.3688" lon="7.42613">
        <ele>261.28</ele>
        <time>2012-06-02T14:00:43Z</time>
      </trkpt>
      <trkpt lat="48.36908" lon="7.42661">
        <ele>262.377</ele>
        <time>2012-06-02T14:00:52Z</time>
      </trkpt>
      <trkpt lat="48.36934" lon="7.42705">
        <ele>263.496</ele>
        <time>2012-06-02T14:00:59Z</time>
      </trkpt>
      <trkpt lat="48.36969" lon="7.42765">
        <ele>264.135</ele>
        <time>2012-06-02T14:01:07Z</time>
      </trkpt>
      <trkpt lat="48.37012" lon="7.42838">
        <ele>263.485</ele>
        <time>2012-06-02T14:01:16Z</time>
      </trkpt>
      <trkpt lat="48.37053" lon="7.42906">
        <ele>262.766</ele>
        <time>2012-06-02T14:01:25Z</time>
      </trkpt>
      <trkpt lat="48.37094" lon="7.42971">
        <ele>262.547</ele>
        <time>2012-06-02T14:01:34Z</time>
      </trkpt>
      <trkpt lat="48.37132" lon="7.4303">
        <ele>261.797</ele>
        <time>2012-06-02T14:01:42Z</time>
      </trkpt>
      <trkpt lat="48.37156" lon="7.43041">
        <ele>261.778</ele>
        <time>2012-06-02T14:01:46Z</time>
      </trkpt>
      <trkpt lat="48.372" lon="7.43037">
        <ele>262.979</ele>
        <time>2012-06-02T14:01:53Z</time>
      </trkpt>
      <trkpt lat="48.37256" lon="7.43031">
        <ele>264.298</ele>
        <time>2012-06-02T14:02:02Z</time>
      </trkpt>
      <trkpt lat="48.3731" lon="7.43026">
        <ele>264.655</ele>
        <time>2012-06-02T14:02:10Z</time>
      </trkpt>
      <trkpt lat="48.37365" lon="7.4302">
        <ele>262.864</ele>
        <time>2012-06-02T14:02:17Z</time>
      </trkpt>
      <trkpt lat="48.37434" lon="7.42998">
        <ele>259.694</ele>
        <time>2012-06-02T14:02:25Z</time>
      </trkpt>
      <trkpt lat="48.37499" lon="7.42982">
        <ele>256.583</ele>
        <time>2012-06-02T14:02:32Z</time>
      </trkpt>
      <trkpt lat="48.37555" lon="7.42967">
        <ele>253.563</ele>
        <time>2012-06-02T14:02:38Z</time>
      </trkpt>
      <trkpt lat="48.37607" lon="7.42939">
        <ele>251.065</ele>
        <time>2012-06-02T14:02:44Z</time>
      </trkpt>
      <trkpt lat="48.37642" lon="7.42929">
        <ele>250.286</ele>
        <time>2012-06-02T14:02:48Z</time>
      </trkpt>
      <trkpt lat="48.3769" lon="7.42915">
        <ele>249.888</ele>
        <time>2012-06-02T14:02:54Z</time>
      </trkpt>
      <trkpt lat="48.3773" lon="7.42889">
        <ele>249.928</ele>
        <time>2012-06-02T14:03:00Z</time>
      </trkpt>
      <trkpt lat="48.37759" lon="7.42867">
        <ele>250.159</ele>
        <time>2012-06-02T14:03:05Z</time>
      </trkpt>
      <trkpt lat="48.37785" lon="7.42862">
        <ele>250.499</ele>
        <time>2012-06-02T14:03:09Z</time>
      </trkpt>
      <trkpt lat="48.37797" lon="7.42868">
        <ele>250.598</ele>
        <time>2012-06-02T14:03:11Z</time>
      </trkpt>
      <trkpt lat="48.37853" lon="7.42907">
        <ele>251.259</ele>
        <time>2012-06-02T14:03:20Z</time>
      </trkpt>
      <trkpt lat="48.37899" lon="7.42933">
        <ele>252.199</ele>
        <time>2012-06-02T14:03:27Z</time>
      </trkpt>
      <trkpt lat="48.37957" lon="7.42956">
        <ele>252.739</ele>
        <time>2012-06-02T14:03:36Z</time>
      </trkpt>
      <trkpt lat="48.38015" lon="7.42974">
        <ele>252.338</ele>
        <time>2012-06-02T14:03:45Z</time>
      </trkpt>
      <trkpt lat="48.38052" lon="7.42979">
        <ele>251.908</ele>
        <time>2012-06-02T14:03:51Z</time>
      </trkpt>
      <trkpt lat="48.38092" lon="7.42976">
        <ele>253.868</ele>
        <time>2012-06-02T14:03:57Z</time>
      </trkpt>
      <trkpt lat="48.3814" lon="7.42972">
        <ele>254.448</ele>
        <time>2012-06-02T14:04:05Z</time>
      </trkpt>
      <trkpt lat="48.38157" lon="7.42969">
        <ele>254.448</ele>
        <time>2012-06-02T14:04:08Z</time>
      </trkpt>
      <trkpt lat="48.38177" lon="7.42951">
        <ele>253.587</ele>
        <time>2012-06-02T14:04:12Z</time>
      </trkpt>
      <trkpt lat="48.38179" lon="7.42933">
        <ele>252.787</ele>
        <time>2012-06-02T14:04:14Z</time>
      </trkpt>
      <trkpt lat="48.38181" lon="7.42859">
        <ele>250.237</ele>
        <time>2012-06-02T14:04:21Z</time>
      </trkpt>
      <trkpt lat="48.38182" lon="7.42764">
        <ele>248.527</ele>
        <time>2012-06-02T14:04:29Z</time>
      </trkpt>
      <trkpt lat="48.38181" lon="7.42692">
        <ele>248.178</ele>
        <time>2012-06-02T14:04:35Z</time>
      </trkpt>
      <trkpt lat="48.38186" lon="7.42647">
        <ele>247.127</ele>
        <time>2012-06-02T14:04:39Z</time>
      </trkpt>
      <trkpt lat="48.38199" lon="7.42572">
        <ele>244.136</ele>
        <time>2012-06-02T14:04:45Z</time>
      </trkpt>
      <trkpt lat="48.38212" lon="7.42472">
        <ele>240.352</ele>
        <time>2012-06-02T14:04:52Z</time>
      </trkpt>
      <trkpt lat="48.3822" lon="7.42411">
        <ele>236.772</ele>
        <time>2012-06-02T14:04:56Z</time>
      </trkpt>
      <trkpt lat="48.38243" lon="7.42355">
        <ele>232.913</ele>
        <time>2012-06-02T14:05:00Z</time>
      </trkpt>
      <trkpt lat="48.38271" lon="7.42317">
        <ele>230.071</ele>
        <time>2012-06-02T14:05:03Z</time>
      </trkpt>
      <trkpt lat="48.38279" lon="7.42281">
        <ele>228.882</ele>
        <time>2012-06-02T14:05:05Z</time>
      </trkpt>
      <trkpt lat="48.38281" lon="7.42263">
        <ele>228.763</ele>
        <time>2012-06-02T14:05:06Z</time>
      </trkpt>
      <trkpt lat="48.38283" lon="7.42227">
        <ele>228.625</ele>
        <time>2012-06-02T14:05:08Z</time>
      </trkpt>
      <trkpt lat="48.383" lon="7.4215">
        <ele>228.409</ele>
        <time>2012-06-02T14:05:13Z</time>
      </trkpt>
      <trkpt lat="48.38315" lon="7.42091">
        <ele>228.529</ele>
        <time>2012-06-02T14:05:18Z</time>
      </trkpt>
      <trkpt lat="48.38326" lon="7.42046">
        <ele>227.697</ele>
        <time>2012-06-02T14:05:23Z</time>
      </trkpt>
      <trkpt lat="48.38336" lon="7.41996">
        <ele>228.079</ele>
        <time>2012-06-02T14:05:29Z</time>
      </trkpt>
      <trkpt lat="48.38339" lon="7.4198">
        <ele>228.099</ele>
        <time>2012-06-02T14:05:31Z</time>
      </trkpt>
      <trkpt lat="48.38353" lon="7.41922">
        <ele>226.916</ele>
        <time>2012-06-02T14:05:39Z</time>
      </trkpt>
      <trkpt lat="48.3837" lon="7.41876">
        <ele>228.929</ele>
        <time>2012-06-02T14:05:45Z</time>
      </trkpt>
      <trkpt lat="48.38391" lon="7.41833">
        <ele>229.789</ele>
        <time>2012-06-02T14:05:51Z</time>
      </trkpt>
      <trkpt lat="48.38421" lon="7.41794">
        <ele>229.669</ele>
        <time>2012-06-02T14:05:59Z</time>
      </trkpt>
      <trkpt lat="48.38425" lon="7.41789">
        <ele>229.339</ele>
        <time>2012-06-02T14:06:00Z</time>
      </trkpt>
      <trkpt lat="48.38446" lon="7.41757">
        <ele>228.918</ele>
        <time>2012-06-02T14:06:06Z</time>
      </trkpt>
      <trkpt lat="48.3847" lon="7.41714">
        <ele>227.707</ele>
        <time>2012-06-02T14:06:12Z</time>
      </trkpt>
      <trkpt lat="48.38495" lon="7.41704">
        <ele>227.548</ele>
        <time>2012-06-02T14:06:16Z</time>
      </trkpt>
      <trkpt lat="48.38516" lon="7.41719">
        <ele>225.327</ele>
        <time>2012-06-02T14:06:19Z</time>
      </trkpt>
      <trkpt lat="48.3854" lon="7.41727">
        <ele>225.898</ele>
        <time>2012-06-02T14:06:22Z</time>
      </trkpt>
      <trkpt lat="48.38566" lon="7.41733">
        <ele>228.629</ele>
        <time>2012-06-02T14:06:27Z</time>
      </trkpt>
      <trkpt lat="48.38583" lon="7.41747">
        <ele>227.657</ele>
        <time>2012-06-02T14:06:33Z</time>
      </trkpt>
      <trkpt lat="48.38589" lon="7.41754">
        <ele>226.487</ele>
        <time>2012-06-02T14:06:35Z</time>
      </trkpt>
      <trkpt lat="48.38606" lon="7.41791">
        <ele>219.964</ele>
        <time>2012-06-02T14:06:42Z</time>
      </trkpt>
      <trkpt lat="48.38607" lon="7.41795">
        <ele>218.728</ele>
        <time>2012-06-02T14:06:43Z</time>
      </trkpt>
      <trkpt lat="48.38615" lon="7.41791">
        <ele>221.666</ele>
        <time>2012-06-02T14:06:47Z</time>
      </trkpt>
      <trkpt lat="48.38627" lon="7.41759">
        <ele>226.38</ele>
        <time>2012-06-02T14:06:52Z</time>
      </trkpt>
      <trkpt lat="48.38644" lon="7.41725">
        <ele>230.041</ele>
        <time>2012-06-02T14:06:57Z</time>
      </trkpt>
      <trkpt lat="48.38655" lon="7.417">
        <ele>228.98</ele>
        <time>2012-06-02T14:07:02Z</time>
      </trkpt>
      <trkpt lat="48.38654" lon="7.41691">
        <ele>228.12</ele>
        <time>2012-06-02T14:07:05Z</time>
      </trkpt>
      <trkpt lat="48.38654" lon="7.41691">
        <ele>228.411</ele>
        <time>2012-06-02T14:07:08Z</time>
      </trkpt>
    </trkseg>
  </trk>
</gpx>